# Wetter Temperatur Luftdruck Luftfeuchtigkeit Sichtweite Windgeschwindigkeit Windrichtung Zeit
1 Clear 9 1009 34 10000 2.6 290 20:19 02.04.2020
2 Clear 11 1009 30 10000 3.6 300 19:42 02.04.2020
3 Clear 12 1009 32 10000 4.1 300 19:20 02.04.2020
4 Clear 13 1009 28 10000 4.1 300 18:57 02.04.2020
5 Clear 13 1009 28 10000 4.1 300 18:39 02.04.2020
6 Clear 13 1009 28 10000 5.1 270 18:19 02.04.2020
7 Clear 13 1009 24 10000 3.6 270 17:44 02.04.2020
8 Clear 14 1009 26 10000 4.1 280 17:26 02.04.2020
9 Clear 13 1009 26 10000 4.1 280 16:59 02.04.2020
10 Clear 14 1010 24 10000 3.1 260 16:41 02.04.2020
11 Clear 14 1010 24 10000 3.1 260 16:22 02.04.2020
12 Clear 13 1010 26 10000 2.6 0 15:59 02.04.2020
13 Clear 13 1010 26 10000 3.6 270 15:40 02.04.2020
14 Clear 13 1011 26 10000 2.6 0 15:20 02.04.2020
15 Clear 13 1011 26 10000 2.6 0 14:58 02.04.2020
16 Clear 12 1011 27 10000 2.6 0 14:38 02.04.2020
17 Clear 12 1012 30 10000 2.1 0 14:19 02.04.2020
18 Clear 12 1012 30 10000 2.6 330 13:55 02.04.2020
19 Clear 11 1012 30 10000 2.6 330 13:37 02.04.2020
20 Clear 11 1012 27 10000 2.6 190 13:19 02.04.2020
21 Clear 10 1013 29 10000 2.1 0 12:46 02.04.2020
22 Clear 10 1013 31 10000 2.1 0 12:20 02.04.2020
23 Clear 9 1013 31 10000 2.1 0 11:58 02.04.2020
24 Clear 8 1013 34 10000 1.5 0 11:39 02.04.2020
25 Clear 8 1013 39 10000 1.5 150 11:20 02.04.2020
26 Clear 6 1014 39 10000 1 0 10:57 02.04.2020
27 Clear 6 1014 39 10000 1 0 10:38 02.04.2020
28 Clear 4 1013 44 10000 2.6 130 10:20 02.04.2020
29 Clear 4 1013 44 10000 2.6 130 10:20 02.04.2020
30 Clear 3 1013 44 10000 2.6 130 09:59 02.04.2020
31 Clear 2 1014 51 10000 1.5 100 09:41 02.04.2020
32 Clear 0 1014 59 10000 1.5 120 09:21 02.04.2020
33 Clear -2 1014 68 10000 1.5 110 08:47 02.04.2020
34 Clear -2 1014 68 10000 1.5 110 08:28 02.04.2020
35 Clear -3 1014 73 10000 1.5 110 07:57 02.04.2020
36 Clear -3 1014 73 10000 1.5 110 07:38 02.04.2020
37 Clear -5 1014 79 10000 2.1 100 07:19 02.04.2020
38 Clear -4 1014 73 10000 1.5 100 06:24 02.04.2020
39 Clear -4 1014 73 10000 1 0 05:46 02.04.2020
40 Clear -4 1014 79 10000 0.5 0 04:55 02.04.2020
41 Clear -2 1015 68 10000 0.5 0 02:19 02.04.2020
42 Clear -1 1015 58 10000 3.1 100 00:59 02.04.2020
43 Clear -1 1015 54 10000 3.1 110 00:38 02.04.2020
44 Clear -1 1016 69 10000 2.1 100 00:19 02.04.2020
45 Clear -1 1016 54 10000 1 70 23:39 01.04.2020
46 Clear 0 1016 69 10000 0.5 0 23:19 01.04.2020
47 Clear 0 1016 69 10000 0.5 0 22:56 01.04.2020
48 Clear 1 1016 40 10000 1.5 110 22:38 01.04.2020
49 Clear 1 1016 47 10000 0.5 0 22:19 01.04.2020
50 Clear 2 1016 47 10000 2.1 30 21:41 01.04.2020
51 Clouds 4 1016 41 10000 2.1 20 21:19 01.04.2020
52 Clouds 5 1016 41 10000 2.1 20 20:56 01.04.2020
53 Clouds 5 1016 38 10000 2.1 360 20:38 01.04.2020
54 Clouds 6 1016 33 10000 2.6 320 20:19 01.04.2020
55 Clouds 7 1016 31 10000 2.6 320 19:57 01.04.2020
56 Clouds 7 1016 33 10000 2.6 320 19:57 01.04.2020
57 Clouds 8 1016 31 10000 2.6 320 19:38 01.04.2020
58 Clouds 8 1016 29 10000 2.6 320 19:19 01.04.2020
59 Clouds 9 1016 27 10000 3.1 290 18:42 01.04.2020
60 Clouds 10 1016 27 10000 2.1 330 18:22 01.04.2020
61 Clouds 10 1016 27 10000 2.1 330 17:57 01.04.2020
62 Clouds 10 1017 25 10000 1.5 0 17:37 01.04.2020
63 Clouds 10 1017 27 10000 1.5 0 17:19 01.04.2020
64 Clouds 10 1017 27 10000 1.5 290 16:56 01.04.2020
65 Clouds 10 1017 27 10000 1.5 290 16:38 01.04.2020
66 Clouds 10 1018 29 10000 2.1 290 16:20 01.04.2020
67 Clouds 10 1018 29 10000 1.5 0 15:43 01.04.2020
68 Clouds 9 1019 34 10000 2.1 180 15:24 01.04.2020
69 Clear 9 1019 31 10000 1.5 150 14:59 01.04.2020
70 Clear 8 1019 31 10000 1.5 150 14:40 01.04.2020
71 Clear 8 1019 31 10000 1.5 150 14:40 01.04.2020
72 Clear 8 1020 33 10000 2.6 160 14:21 01.04.2020
73 Clear 7 1020 33 10000 2.6 160 13:59 01.04.2020
74 Clear 7 1020 36 10000 2.1 0 13:39 01.04.2020
75 Clear 7 1021 39 10000 1.5 0 13:20 01.04.2020
76 Clear 7 1021 39 10000 1.5 0 12:57 01.04.2020
77 Clear 6 1021 41 10000 2.6 0 12:37 01.04.2020
78 Clear 6 1022 45 10000 1 0 12:18 01.04.2020
79 Clear 5 1022 45 10000 1 0 11:56 01.04.2020
80 Clear 4 1022 48 10000 1 0 11:37 01.04.2020
81 Clear 4 1022 48 10000 1 0 11:37 01.04.2020
82 Clear 4 1022 48 10000 1 0 11:37 01.04.2020
83 Clear 4 1022 48 10000 1 0 11:37 01.04.2020
84 Clear 4 1022 51 10000 1.5 230 11:18 01.04.2020
85 Clear 2 1023 51 10000 1.5 0 10:38 01.04.2020
86 Clear 2 1023 51 10000 1 0 10:20 01.04.2020
87 Clear 1 1023 51 10000 1 0 09:58 01.04.2020
88 Clear 0 1023 55 10000 1.5 120 09:39 01.04.2020
89 Clear -2 1022 63 10000 1.11 88 09:19 01.04.2020
90 Clear -3 1023 63 10000 0.5 0 08:44 01.04.2020
91 Clear -4 1023 73 10000 0.5 340 08:18 01.04.2020
92 Clear -5 1023 73 10000 1.15 86 07:48 01.04.2020
93 Clear -6 1023 73 10000 1.15 86 07:23 01.04.2020
94 Clear -6 1023 79 10000 0.5 110 06:59 01.04.2020
95 Clear -6 1023 79 10000 0.5 0 06:38 01.04.2020
96 Clear -6 1023 73 10000 0.5 0 06:20 01.04.2020
97 Clear -5 1024 79 10000 0.5 340 04:38 01.04.2020
98 Clear -5 1024 73 10000 1 360 03:36 01.04.2020
99 Clear -4 1024 73 10000 0.5 290 02:59 01.04.2020
100 Clear -4 1025 68 10000 0.5 0 02:24 01.04.2020
101 Clear -4 1025 58 10000 2.1 110 01:43 01.04.2020
102 Clear -4 1025 58 10000 2.1 110 01:23 01.04.2020
103 Clear -3 1026 58 10000 1 70 00:47 01.04.2020
104 Clear -3 1026 58 10000 0.5 0 00:21 01.04.2020
105 Clear -2 1026 54 10000 0.5 0 23:49 31.03.2020
106 Clear -2 1026 85 10000 1 0 23:28 31.03.2020
107 Clear -1 1026 85 10000 2.6 40 22:59 31.03.2020
108 Clear -1 1026 85 10000 2.6 40 22:38 31.03.2020
109 Clear 0 1026 43 10000 2.6 30 22:20 31.03.2020
110 Clear 0 1026 43 10000 2.1 40 21:57 31.03.2020
111 Clear 0 1026 43 10000 2.1 40 21:39 31.03.2020
112 Clouds 1 1026 40 10000 2.6 30 21:20 31.03.2020
113 Clouds 1 1026 40 10000 2.6 30 21:20 31.03.2020
114 Clouds 1 1026 40 10000 2.6 30 21:20 31.03.2020
115 Clouds 2 1026 40 10000 2.6 30 20:56 31.03.2020
116 Clouds 2 1026 37 10000 2.6 20 20:37 31.03.2020
117 Clouds 2 1026 37 10000 2.6 20 20:37 31.03.2020
118 Clouds 3 1026 37 10000 2.6 20 20:18 31.03.2020
119 Clouds 4 1026 35 10000 3.1 30 19:42 31.03.2020
120 Clouds 4 1025 35 10000 4.6 360 19:24 31.03.2020
121 Clouds 5 1025 33 10000 5.1 360 18:59 31.03.2020
122 Clouds 5 1025 33 10000 5.1 360 18:41 31.03.2020
123 Clouds 6 1025 35 10000 2.6 340 18:19 31.03.2020
124 Clouds 6 1025 35 10000 3.6 30 17:55 31.03.2020
125 Clouds 6 1025 35 10000 3.6 30 17:37 31.03.2020
126 Clouds 6 1025 35 10000 2.1 30 17:19 31.03.2020
127 Clouds 6 1025 38 10000 4.1 30 16:41 31.03.2020
128 Clouds 6 1025 36 10000 4.1 0 16:20 31.03.2020
129 Clouds 6 1025 36 10000 4.1 0 15:58 31.03.2020
130 Clouds 6 1026 35 10000 5.1 20 15:40 31.03.2020
131 Clouds 6 1026 35 10000 5.1 20 15:22 31.03.2020
132 Rain 5 1026 44 10000 5.7 40 14:58 31.03.2020
133 Rain 5 1026 44 10000 5.7 40 14:58 31.03.2020
134 Rain 5 1026 48 10000 6.2 360 14:39 31.03.2020
135 Clouds 5 1026 45 10000 4.6 10 14:21 31.03.2020
136 Clouds 5 1026 48 10000 5.7 20 13:43 31.03.2020
137 Clouds 5 1026 44 10000 4.1 360 13:20 31.03.2020
138 Clouds 5 1026 44 10000 4.1 360 12:59 31.03.2020
139 Clouds 4 1026 48 10000 6.7 340 12:40 31.03.2020
140 Clouds 4 1026 55 10000 4.1 350 12:19 31.03.2020
141 Rain 4 1027 59 10000 4.6 10 11:41 31.03.2020
142 Clouds 4 1027 59 10000 4.1 360 11:20 31.03.2020
143 Clouds 3 1027 59 10000 4.1 360 11:20 31.03.2020
144 Clouds 3 1027 59 10000 4.1 360 10:59 31.03.2020
145 Clouds 3 1027 64 10000 4.1 350 10:40 31.03.2020
146 Clouds 3 1026 64 10000 3.1 330 10:22 31.03.2020
147 Snow 2 1026 69 10000 1.5 350 09:59 31.03.2020
148 Snow 2 1026 69 10000 1.5 350 09:40 31.03.2020
149 Rain 1 1026 69 10000 1.5 320 09:22 31.03.2020
150 Clouds 0 1026 81 10000 1.5 340 08:57 31.03.2020
151 Clouds 0 1026 81 10000 1.5 340 08:38 31.03.2020
152 Clouds -1 1026 81 10000 3.1 350 08:19 31.03.2020
153 Clouds 0 1026 81 10000 3.1 350 08:19 31.03.2020
154 Clouds -1 1026 81 10000 3.1 350 07:56 31.03.2020
155 Clouds -1 1026 68 10000 2.1 350 07:37 31.03.2020
156 Clouds -1 1025 74 10000 2.1 350 07:18 31.03.2020
157 Clouds -1 1025 68 10000 1 0 06:45 31.03.2020
158 Clouds -1 1025 63 10000 1 0 06:20 31.03.2020
159 Clouds -2 1025 63 10000 1 30 05:39 31.03.2020
160 Clouds -1 1025 58 10000 0.5 0 03:34 31.03.2020
161 Clouds -1 1024 54 10000 1.5 90 01:59 31.03.2020
162 Clouds -1 1024 63 10000 2.1 360 01:40 31.03.2020
163 Clouds -1 1024 74 10000 1.5 340 00:47 31.03.2020
164 Clouds 0 1024 74 10000 1.5 340 00:25 31.03.2020
165 Clouds 0 1024 71 10000 0.5 0 23:42 30.03.2020
166 Clouds 0 1024 71 10000 1 0 23:20 30.03.2020
167 Clouds 0 1024 71 10000 0.5 0 22:59 30.03.2020
168 Clouds 0 1024 71 10000 0.5 0 22:41 30.03.2020
169 Clouds 0 1024 71 10000 0.5 0 22:22 30.03.2020
170 Clouds 1 1024 43 10000 0.5 10 21:58 30.03.2020
171 Clouds 1 1024 43 10000 0.5 10 21:39 30.03.2020
172 Clouds 1 1024 43 10000 0.5 10 21:39 30.03.2020
173 Clouds 2 1024 37 10000 0.5 0 21:21 30.03.2020
174 Clear 3 1024 37 10000 0.5 0 20:59 30.03.2020
175 Clear 3 1024 35 10000 1 0 20:39 30.03.2020
176 Clear 4 1024 27 10000 2.6 330 20:21 30.03.2020
177 Clear 5 1024 27 10000 2.6 330 19:58 30.03.2020
178 Clear 5 1023 27 10000 3.1 360 19:39 30.03.2020
179 Clear 6 1023 26 10000 3.1 330 19:21 30.03.2020
180 Clear 6 1023 26 10000 3.1 330 18:56 30.03.2020
181 Clear 6 1023 26 10000 3.1 340 18:36 30.03.2020
182 Clear 6 1023 22 10000 3.6 340 18:18 30.03.2020
183 Clear 7 1023 22 10000 4.1 360 17:55 30.03.2020
184 Clear 7 1023 22 10000 4.1 360 17:36 30.03.2020
185 Clear 7 1023 26 10000 4.6 350 17:18 30.03.2020
186 Clear 7 1023 26 10000 3.6 10 16:41 30.03.2020
187 Clear 7 1024 28 10000 4.1 10 16:21 30.03.2020
188 Clear 7 1024 28 10000 4.1 10 16:21 30.03.2020
189 Clear 6 1024 28 10000 4.1 10 15:56 30.03.2020
190 Clear 6 1024 28 10000 4.1 10 15:56 30.03.2020
191 Clear 6 1024 28 10000 4.6 0 15:38 30.03.2020
192 Clear 6 1024 30 10000 4.6 350 15:20 30.03.2020
193 Clear 6 1024 30 10000 4.6 350 14:58 30.03.2020
194 Clear 5 1025 32 10000 3.6 330 14:37 30.03.2020
195 Clear 5 1025 32 10000 3.6 0 14:18 30.03.2020
196 Clear 5 1025 32 10000 3.6 0 14:18 30.03.2020
197 Clear 4 1025 32 10000 3.6 30 13:56 30.03.2020
198 Clear 4 1025 32 10000 3.6 30 13:37 30.03.2020
199 Clear 4 1025 32 10000 3.1 20 13:19 30.03.2020
200 Clear 3 1026 34 10000 4.1 70 12:44 30.03.2020
201 Clear 3 1026 40 10000 3.6 0 12:21 30.03.2020
202 Clear 3 1026 40 10000 3.6 0 12:21 30.03.2020
203 Clear 3 1026 40 10000 3.6 0 12:21 30.03.2020
204 Clear 2 1026 40 10000 3.6 0 11:57 30.03.2020
205 Clear 2 1026 37 10000 2.1 0 11:39 30.03.2020
206 Clear 2 1027 40 10000 3.6 50 11:21 30.03.2020
207 Clouds 1 1027 43 10000 3.1 60 10:41 30.03.2020
208 Clouds 1 1027 43 10000 3.1 60 10:23 30.03.2020
209 Clouds 0 1027 47 10000 3.1 50 09:59 30.03.2020
210 Clouds 0 1027 47 10000 3.1 50 09:59 30.03.2020
211 Clouds 0 1027 58 10000 4.1 30 09:40 30.03.2020
212 Clouds -1 1027 87 10000 2.6 20 09:19 30.03.2020
213 Clouds -2 1027 58 10000 4.1 10 08:47 30.03.2020
214 Clouds -2 1027 58 10000 4.1 10 08:28 30.03.2020
215 Clouds -2 1027 58 10000 4.1 10 08:28 30.03.2020
216 Clouds -2 1027 63 10000 3.1 360 07:58 30.03.2020
217 Clouds -3 1026 68 10000 3.6 360 07:39 30.03.2020
218 Clouds -3 1026 68 10000 2.6 360 07:18 30.03.2020
219 Clouds -3 1026 68 10000 3.1 360 06:37 30.03.2020
220 Clouds -2 1026 68 10000 3.6 10 06:18 30.03.2020
221 Clouds -2 1026 68 10000 4.1 360 05:38 30.03.2020
222 Clouds -1 1026 90 10000 5.1 10 04:27 30.03.2020
223 Clouds 0 1026 64 10000 3.6 10 03:50 30.03.2020
224 Clouds 0 1026 64 10000 4.6 10 02:43 30.03.2020
225 Clouds 1 1026 69 10000 3.6 10 01:52 30.03.2020
226 Clouds 1 1026 69 10000 5.1 20 00:56 30.03.2020
227 Clouds 2 1025 64 10000 5.1 20 00:25 30.03.2020
228 Clouds 2 1025 64 10000 6.7 20 23:43 29.03.2020
229 Clouds 2 1025 64 10000 6.7 20 23:24 29.03.2020
230 Clouds 2 1024 64 10000 6.2 10 22:59 29.03.2020
231 Clouds 2 1024 64 10000 6.2 10 22:39 29.03.2020
232 Clouds 3 1024 69 10000 5.1 20 22:20 29.03.2020
233 Clouds 3 1024 69 10000 5.1 20 21:58 29.03.2020
234 Clouds 3 1023 69 10000 7.7 20 21:37 29.03.2020
235 Clouds 3 1023 69 10000 7.7 10 21:18 29.03.2020
236 Clouds 4 1022 70 10000 5.7 360 20:55 29.03.2020
237 Clouds 4 1023 69 10000 7.7 10 20:55 29.03.2020
238 Clouds 4 1022 70 10000 5.7 360 20:37 29.03.2020
239 Clouds 4 1022 70 10000 5.7 360 20:37 29.03.2020
240 Clouds 4 1022 70 10000 5.7 350 20:18 29.03.2020
241 Clouds 5 1021 65 10000 6.2 340 19:54 29.03.2020
242 Clouds 5 1021 65 10000 6.2 340 19:36 29.03.2020
243 Rain 5 1021 60 10000 6.2 340 19:18 29.03.2020
244 Rain 5 1021 56 10000 6.2 10 18:54 29.03.2020
245 Rain 5 1021 56 10000 6.2 10 18:54 29.03.2020
246 Rain 5 1021 56 10000 6.2 10 18:36 29.03.2020
247 Rain 5 1021 56 10000 6.2 10 18:36 29.03.2020
248 Clouds 6 1020 52 10000 4.6 10 18:18 29.03.2020
249 Clouds 6 1020 52 10000 4.6 10 18:18 29.03.2020
250 Clouds 7 1020 52 10000 4.6 10 17:42 29.03.2020
251 Clouds 6 1020 56 10000 4.6 350 17:22 29.03.2020
252 Clouds 6 1020 56 10000 4.6 350 16:58 29.03.2020
253 Clouds 6 1020 60 10000 5.1 350 16:40 29.03.2020
254 Clouds 7 1020 60 10000 5.1 10 16:21 29.03.2020
255 Clouds 6 1020 60 10000 5.1 10 15:58 29.03.2020
256 Clouds 6 1020 53 10000 6.2 350 15:39 29.03.2020
257 Clouds 6 1020 66 10000 6.2 10 15:19 29.03.2020
258 Clouds 7 1020 66 10000 6.2 10 14:56 29.03.2020
259 Clouds 7 1019 66 10000 6.2 350 14:37 29.03.2020
260 Clouds 7 1019 79 10000 5.7 340 14:18 29.03.2020
261 Clouds 7 1019 79 10000 4.6 350 13:55 29.03.2020
262 Clouds 7 1019 79 10000 4.6 350 13:55 29.03.2020
263 Clouds 7 1019 79 10000 4.6 350 13:36 29.03.2020
264 Clouds 7 1019 79 10000 4.6 360 13:18 29.03.2020
265 Clouds 7 1019 79 10000 5.1 360 12:54 29.03.2020
266 Clouds 7 1019 79 10000 5.1 360 12:36 29.03.2020
267 Clouds 7 1019 79 10000 5.1 360 12:36 29.03.2020
268 Clouds 7 1019 73 10000 4.1 20 12:18 29.03.2020
269 Clouds 7 1019 73 10000 4.1 20 12:18 29.03.2020
270 Clouds 6 1019 73 10000 4.1 360 11:38 29.03.2020
271 Clouds 6 1019 73 10000 4.1 340 11:20 29.03.2020
272 Clouds 5 1019 73 10000 3.6 330 10:40 29.03.2020
273 Clouds 5 1019 73 10000 3.6 330 10:21 29.03.2020
274 Clouds 5 1019 73 10000 3.6 330 09:59 29.03.2020
275 Clouds 4 1019 73 10000 3.1 330 09:38 29.03.2020
276 Clouds 4 1019 77 10000 3.1 310 09:19 29.03.2020
277 Clouds 3 1018 77 10000 2.6 310 08:45 29.03.2020
278 Clouds 3 1018 77 10000 2.6 310 08:27 29.03.2020
279 Clouds 2 1018 80 10000 1.5 330 07:48 29.03.2020
280 Clouds 2 1018 74 10000 1.5 320 07:24 29.03.2020
281 Clouds 2 1018 74 10000 2.1 340 06:55 29.03.2020
282 Clouds 3 1018 74 10000 2.1 320 04:57 29.03.2020
283 Clouds 3 1018 74 10000 2.6 340 03:41 29.03.2020
284 Clouds 3 1018 80 10000 1.5 350 03:22 29.03.2020
285 Clear 4 1018 74 10000 2.1 360 01:44 29.03.2020
286 Clear 4 1018 69 10000 2.1 350 01:23 29.03.2020
287 Clear 4 1018 69 10000 1 330 00:46 29.03.2020
288 Clear 4 1018 69 10000 1.5 360 00:28 29.03.2020
289 Clear 6 1018 60 10000 1 320 23:41 28.03.2020
290 Clear 6 1018 56 10000 1.5 350 23:23 28.03.2020
291 Clear 7 1018 52 10000 1 0 22:54 28.03.2020
292 Clear 7 1018 52 10000 1 0 22:36 28.03.2020
293 Clear 8 1017 49 10000 1.5 50 22:18 28.03.2020
294 Clear 9 1017 46 10000 2.6 20 21:40 28.03.2020
295 Clear 9 1017 46 10000 2.6 20 21:40 28.03.2020
296 Clear 9 1017 46 10000 2.6 20 21:21 28.03.2020
297 Clear 10 1017 46 10000 2.6 20 20:58 28.03.2020
298 Clear 11 1017 66 10000 2.6 360 20:38 28.03.2020
299 Clouds 11 1016 50 10000 3.1 10 20:20 28.03.2020
300 Clouds 11 1016 50 10000 3.1 10 19:55 28.03.2020
301 Clouds 12 1016 46 10000 3.1 360 19:36 28.03.2020
302 Clouds 12 1016 46 10000 3.1 360 19:36 28.03.2020
303 Clouds 12 1016 43 10000 3.1 360 19:18 28.03.2020
304 Clouds 14 1015 41 10000 4.1 350 18:42 28.03.2020
305 Clouds 14 1015 38 10000 5.7 340 18:21 28.03.2020
306 Clouds 15 1015 58 10000 5.1 350 17:43 28.03.2020
307 Clouds 16 1015 33 10000 5.7 350 17:24 28.03.2020
308 Clouds 16 1015 33 10000 5.7 330 17:00 28.03.2020
309 Clouds 17 1015 33 10000 5.7 330 16:40 28.03.2020
310 Clouds 17 1015 33 10000 4.6 360 16:20 28.03.2020
311 Clouds 17 1015 33 10000 4.6 360 15:55 28.03.2020
312 Clouds 17 1015 33 10000 4.1 0 15:37 28.03.2020
313 Clouds 18 1015 31 10000 5.1 330 15:18 28.03.2020
314 Clouds 17 1015 36 10000 3.6 340 14:41 28.03.2020
315 Clear 17 1016 33 10000 4.1 330 14:22 28.03.2020
316 Clear 17 1016 38 10000 3.1 30 13:44 28.03.2020
317 Clear 17 1016 39 10000 3.1 30 13:25 28.03.2020
318 Clear 17 1016 33 10000 3.1 50 12:57 28.03.2020
319 Clear 17 1016 33 10000 3.6 20 12:37 28.03.2020
320 Clear 16 1017 39 10000 4.1 80 12:18 28.03.2020
321 Clear 16 1017 39 10000 4.6 50 11:41 28.03.2020
322 Clear 14 1017 36 10000 3.1 0 11:21 28.03.2020
323 Clear 13 1017 44 10000 2.6 310 10:40 28.03.2020
324 Clear 12 1017 50 10000 3.6 290 10:22 28.03.2020
325 Clear 11 1017 50 10000 3.6 290 09:56 28.03.2020
326 Clear 10 1017 53 10000 1.5 310 09:37 28.03.2020
327 Clear 9 1017 57 10000 1.5 300 09:19 28.03.2020
328 Clear 8 1017 65 10000 1 0 08:42 28.03.2020
329 Clouds 5 1017 70 10000 0.5 0 08:22 28.03.2020
330 Clouds 4 1017 76 10000 0.5 0 07:46 28.03.2020
331 Clouds 4 1017 76 10000 0.5 0 07:28 28.03.2020
332 Clouds 3 1017 76 10000 0.5 0 06:37 28.03.2020
333 Clouds 3 1016 80 10000 0.5 0 06:18 28.03.2020
334 Clear 3 1016 80 10000 1 0 05:21 28.03.2020
335 Clear 3 1016 77 10000 1.5 340 04:42 28.03.2020
336 Clear 4 1016 74 10000 1 320 03:55 28.03.2020
337 Clear 5 1016 74 10000 1.5 10 02:26 28.03.2020
338 Clear 5 1016 74 10000 1 0 01:43 28.03.2020
339 Clear 5 1017 73 10000 2.1 70 01:18 28.03.2020
340 Clear 5 1016 73 10000 2.6 70 00:46 28.03.2020
341 Clear 6 1016 73 10000 1.5 70 00:20 28.03.2020
342 Clear 6 1017 73 10000 1.5 60 23:42 27.03.2020
343 Clear 7 1017 63 10000 2.1 50 23:22 27.03.2020
344 Clear 7 1016 63 10000 3.1 60 22:56 27.03.2020
345 Clear 8 1016 63 10000 3.1 60 22:38 27.03.2020
346 Clear 8 1016 63 10000 2.6 60 22:20 27.03.2020
347 Clear 9 1016 63 10000 3.1 60 21:45 27.03.2020
348 Clear 10 1016 63 10000 2.6 60 21:25 27.03.2020
349 Clear 11 1016 63 10000 2.6 60 20:59 27.03.2020
350 Clear 11 1016 63 10000 3.1 70 20:41 27.03.2020
351 Clear 12 1016 56 10000 3.6 80 20:21 27.03.2020
352 Clear 12 1015 41 10000 3.1 60 19:58 27.03.2020
353 Clear 12 1015 41 10000 3.1 60 19:40 27.03.2020
354 Clear 13 1015 38 10000 3.6 60 19:21 27.03.2020
355 Clear 13 1015 38 10000 3.6 60 19:21 27.03.2020
356 Clear 15 1015 38 10000 3.1 60 18:45 27.03.2020
357 Clear 15 1015 36 10000 3.6 60 18:25 27.03.2020
358 Clear 16 1015 36 10000 3.6 60 17:59 27.03.2020
359 Clear 17 1014 36 10000 4.6 80 17:40 27.03.2020
360 Clear 17 1014 36 10000 4.1 70 17:20 27.03.2020
361 Clear 18 1014 34 10000 5.1 70 16:44 27.03.2020
362 Clear 17 1014 36 10000 5.1 50 16:26 27.03.2020
363 Clear 17 1014 36 10000 5.1 50 15:56 27.03.2020
364 Clear 17 1014 33 10000 6.2 70 15:38 27.03.2020
365 Clear 18 1014 34 10000 4.6 90 15:20 27.03.2020
366 Clear 17 1015 36 10000 4.6 80 14:45 27.03.2020
367 Clear 17 1015 36 10000 5.1 100 14:24 27.03.2020
368 Clear 17 1015 36 10000 5.1 100 13:56 27.03.2020
369 Clear 17 1015 36 10000 6.2 110 13:37 27.03.2020
370 Clouds 15 1015 36 10000 5.7 110 13:18 27.03.2020
371 Clouds 16 1016 36 10000 5.7 100 12:43 27.03.2020
372 Clouds 15 1016 38 10000 5.1 100 12:19 27.03.2020
373 Clouds 14 1016 43 10000 4.6 70 11:57 27.03.2020
374 Clouds 14 1016 43 10000 4.6 70 11:39 27.03.2020
375 Clouds 13 1016 43 10000 5.1 90 11:21 27.03.2020
376 Clouds 12 1016 40 10000 7.2 90 10:42 27.03.2020
377 Clouds 11 1016 43 10000 6.7 90 10:23 27.03.2020
378 Clouds 11 1016 43 10000 6.7 90 09:59 27.03.2020
379 Clouds 10 1016 46 10000 6.2 80 09:41 27.03.2020
380 Clouds 9 1016 45 10000 4.1 90 09:23 27.03.2020
381 Clouds 8 1016 49 10000 4.1 80 08:59 27.03.2020
382 Clouds 9 1016 45 10000 4.1 90 08:59 27.03.2020
383 Clouds 8 1016 49 10000 4.1 80 08:40 27.03.2020
384 Clouds 6 1016 52 10000 3.6 70 08:22 27.03.2020
385 Clouds 6 1016 52 10000 3.6 70 07:59 27.03.2020
386 Clouds 5 1016 56 10000 3.6 80 07:41 27.03.2020
387 Clouds 3 1016 69 10000 1.5 60 07:21 27.03.2020
388 Clouds 3 1015 69 10000 1.5 20 06:40 27.03.2020
389 Clouds 3 1015 69 10000 2.1 360 05:51 27.03.2020
390 Clouds 3 1015 55 10000 2.1 40 03:34 27.03.2020
391 Clouds 4 1016 55 10000 3.1 60 01:55 27.03.2020
392 Clouds 4 1016 55 10000 2.1 30 01:18 27.03.2020
393 Clouds 4 1017 55 10000 3.1 30 00:41 27.03.2020
394 Clouds 4 1017 55 10000 3.1 30 00:41 27.03.2020
395 Clouds 3 1017 59 10000 3.6 10 00:19 27.03.2020
396 Clouds 4 1004 57 0 0.89 20 23:37 26.03.2020
397 Clouds 4 1017 59 10000 2.1 350 23:18 26.03.2020
398 Clouds 4 1018 64 10000 2.1 350 22:56 26.03.2020
399 Clouds 4 1018 64 10000 2.1 350 22:36 26.03.2020
400 Clouds 4 1018 55 10000 2.1 10 22:18 26.03.2020
401 Clouds 5 1018 52 10000 2.1 30 21:40 26.03.2020
402 Clouds 5 1018 52 10000 2.6 50 21:21 26.03.2020
403 Clouds 5 1018 52 10000 2.6 50 20:59 26.03.2020
404 Clouds 6 1018 48 10000 3.1 70 20:39 26.03.2020
405 Clouds 6 1018 48 10000 3.1 70 20:21 26.03.2020
406 Clouds 6 1018 52 10000 4.1 80 19:58 26.03.2020
407 Clouds 6 1018 52 10000 4.1 80 19:39 26.03.2020
408 Clouds 7 1018 48 10000 3.1 70 19:20 26.03.2020
409 Clouds 8 1018 45 10000 4.6 60 18:58 26.03.2020
410 Clouds 8 1018 45 10000 4.6 60 18:40 26.03.2020
411 Clouds 8 1018 49 10000 3.6 50 18:21 26.03.2020
412 Clouds 9 1018 45 10000 5.1 60 17:44 26.03.2020
413 Clouds 9 1018 45 10000 5.1 70 17:19 26.03.2020
414 Clouds 9 1019 42 10000 5.1 60 16:55 26.03.2020
415 Clouds 9 1019 42 10000 5.1 60 16:55 26.03.2020
416 Clouds 9 1019 42 10000 5.1 60 16:37 26.03.2020
417 Clouds 9 1019 39 10000 4.6 80 16:18 26.03.2020
418 Clouds 9 1019 45 10000 4.1 70 15:41 26.03.2020
419 Clouds 8 1019 45 10000 4.6 90 15:22 26.03.2020
420 Clouds 8 1019 42 10000 7.2 100 14:59 26.03.2020
421 Clouds 8 1019 42 10000 7.2 100 14:41 26.03.2020
422 Clouds 8 1019 45 10000 6.2 100 14:23 26.03.2020
423 Clouds 9 1019 42 10000 6.2 100 13:45 26.03.2020
424 Clouds 9 1019 42 10000 6.2 100 13:24 26.03.2020
425 Clouds 8 1019 42 10000 7.2 110 12:59 26.03.2020
426 Clouds 8 1019 42 10000 6.2 90 12:38 26.03.2020
427 Clouds 7 1020 45 10000 6.2 100 12:20 26.03.2020
428 Clouds 7 1019 45 10000 7.2 100 11:46 26.03.2020
429 Clouds 6 1020 48 10000 5.1 80 11:22 26.03.2020
430 Clouds 6 1019 48 10000 6.2 90 10:56 26.03.2020
431 Clouds 6 1019 48 10000 6.2 90 10:56 26.03.2020
432 -273 0 0 0 0 0 10:56 26.03.2020
433 Clouds 5 1019 48 10000 6.2 90 10:38 26.03.2020
434 Clouds 5 1020 52 10000 6.2 80 10:19 26.03.2020
435 Clear 4 1019 55 10000 5.7 90 09:44 26.03.2020
436 -273 0 0 0 0 0 09:20 26.03.2020
437 Clear 3 1020 55 10000 5.7 80 08:55 26.03.2020
438 Clear 2 1019 59 10000 5.7 90 08:37 26.03.2020
439 Clear 1 1019 64 10000 5.1 80 08:18 26.03.2020
440 Clear 0 1019 83 10000 3.6 70 07:44 26.03.2020
441 Clear -1 1019 68 10000 3.6 60 07:21 26.03.2020
442 Clear -1 1019 68 10000 3.6 60 06:56 26.03.2020
443 Clear -1 1019 63 10000 4.1 70 05:59 26.03.2020
444 Clear -1 1019 63 10000 4.6 60 04:33 26.03.2020
445 Clear 0 1019 83 10000 2.6 50 03:44 26.03.2020
446 Clear 0 1019 83 10000 3.1 60 02:55 26.03.2020
447 Clouds 0 1020 50 10000 4.6 80 01:50 26.03.2020
448 Clear 1 1020 50 10000 5.7 80 00:53 26.03.2020
449 Clear 1 1021 47 10000 4.6 80 00:20 26.03.2020
450 Clear 2 1022 47 10000 4.1 80 23:40 25.03.2020
451 Clear 2 1022 47 10000 5.7 90 23:20 25.03.2020
452 Clear 2 1022 40 10000 6.2 90 22:40 25.03.2020
453 Clear 2 1022 40 10000 5.1 80 22:21 25.03.2020
454 Clear 2 1022 40 10000 5.1 80 21:56 25.03.2020
455 Clear 3 1022 40 10000 4.1 70 21:37 25.03.2020
456 Clear 3 1022 40 10000 2.1 40 21:19 25.03.2020
457 Clear 3 1022 40 10000 2.1 40 20:55 25.03.2020
458 Clear 3 1022 38 10000 2.6 70 20:37 25.03.2020
459 Clear 4 1022 38 10000 4.1 80 20:18 25.03.2020
460 Clear 4 1022 38 10000 4.1 70 19:42 25.03.2020
461 Clear 4 1022 35 10000 5.1 70 19:22 25.03.2020
462 Clear 5 1022 33 10000 6.2 80 18:57 25.03.2020
463 Clear 6 1022 33 10000 6.2 80 18:38 25.03.2020
464 Clear 6 1022 33 10000 7.2 80 18:20 25.03.2020
465 Clear 7 1022 28 10000 6.7 70 17:55 25.03.2020
466 Clear 7 1022 28 10000 6.7 70 17:36 25.03.2020
467 Clear 7 1022 28 10000 6.7 90 17:18 25.03.2020
468 Clear 8 1022 26 10000 8.2 80 16:43 25.03.2020
469 Clear 8 1022 26 10000 8.2 80 16:43 25.03.2020
470 Clear 8 1022 26 10000 6.7 90 16:23 25.03.2020
471 Clear 8 1022 26 10000 6.7 90 15:57 25.03.2020
472 Clear 8 1023 26 10000 6.7 60 15:38 25.03.2020
473 Clear 8 1023 26 10000 7.2 70 15:19 25.03.2020
474 Clear 8 1023 26 10000 6.2 90 14:42 25.03.2020
475 Clear 8 1024 26 10000 7.7 100 14:21 25.03.2020
476 Clear 8 1024 26 10000 7.7 70 13:46 25.03.2020
477 Clear 8 1024 26 10000 7.7 70 13:26 25.03.2020
478 Clear 7 1025 30 10000 7.2 70 12:57 25.03.2020
479 Clear 6 1025 30 10000 7.2 70 12:37 25.03.2020
480 Clear 6 1025 30 10000 6.7 80 12:18 25.03.2020
481 Clear 5 1026 32 10000 7.2 70 11:43 25.03.2020
482 Clear 4 1026 35 10000 6.2 80 11:21 25.03.2020
483 Clear 4 1026 35 10000 6.2 80 10:59 25.03.2020
484 Clear 4 1026 35 10000 5.7 100 10:40 25.03.2020
485 Clear 3 1026 37 10000 5.7 70 10:19 25.03.2020
486 Clear 3 1026 37 10000 5.7 70 09:59 25.03.2020
487 Clear 2 1027 40 10000 5.7 80 09:40 25.03.2020
488 Clear 2 1027 40 10000 6.2 80 09:22 25.03.2020
489 Clear 2 1027 40 10000 6.2 80 08:54 25.03.2020
490 Clear 0 1027 43 10000 5.1 80 08:36 25.03.2020
491 Clear -1 1027 83 10000 3.1 80 08:18 25.03.2020
492 Clear -1 1027 50 10000 2.1 60 07:39 25.03.2020
493 Clear -1 1027 50 10000 2.1 60 07:39 25.03.2020
494 Clear -2 1027 58 10000 1.5 70 07:19 25.03.2020
495 Clear -3 1027 62 10000 1 0 06:45 25.03.2020
496 Clear -3 1027 62 10000 1.5 20 06:25 25.03.2020
497 Clear -4 1027 62 10000 2.1 40 05:48 25.03.2020
498 Clear -3 1028 53 10000 2.6 60 04:46 25.03.2020
499 Clear -2 1028 50 10000 2.1 50 03:58 25.03.2020
500 Clear -2 1028 50 10000 2.1 50 03:34 25.03.2020
501 Clear -2 1029 46 10000 2.6 90 01:41 25.03.2020
502 Clear -1 1029 78 10000 2.6 70 00:58 25.03.2020
503 Clear -1 1029 42 10000 2.1 60 00:40 25.03.2020
504 Clear -1 1029 46 10000 2.6 50 00:18 25.03.2020
505 Clear 0 1029 78 10000 1.5 40 23:40 24.03.2020
506 Clear -1 1029 58 10000 1.5 10 23:21 24.03.2020
507 Clear 0 1030 73 10000 1.5 0 22:55 24.03.2020
508 Clear 0 1030 73 10000 1.5 0 22:36 24.03.2020
509 Clear 0 1029 73 10000 1 0 22:18 24.03.2020
510 Clear 1 1029 37 10000 2.1 60 21:43 24.03.2020
511 Clear 2 1029 34 10000 2.6 90 21:19 24.03.2020
512 Clear 2 1029 34 10000 2.6 90 21:19 24.03.2020
513 Clear 2 1029 34 10000 2.6 90 20:59 24.03.2020
514 Clear 2 1030 31 10000 2.6 90 20:41 24.03.2020
515 Clear 2 1030 31 10000 2.6 90 20:23 24.03.2020
516 Clear 4 1029 25 10000 3.1 80 19:48 24.03.2020
517 Clear 4 1029 25 10000 3.1 80 19:48 24.03.2020
518 Clear 4 1029 25 10000 3.1 80 19:24 24.03.2020
519 Clear 5 1029 25 10000 4.1 90 18:59 24.03.2020
520 Clear 6 1029 20 10000 5.7 80 18:40 24.03.2020
521 Clear 7 1029 22 10000 5.7 100 18:20 24.03.2020
522 Clear 7 1029 22 10000 5.7 100 18:20 24.03.2020
523 Clear 7 1029 20 10000 7.2 100 17:59 24.03.2020
524 Clear 7 1029 20 10000 7.2 100 17:40 24.03.2020
525 Clear 8 1029 19 10000 6.2 110 17:22 24.03.2020
526 Clear 8 1029 16 10000 6.2 90 16:57 24.03.2020
527 Clear 8 1029 16 10000 6.2 90 16:38 24.03.2020
528 Clear 8 1030 17 10000 6.7 90 16:20 24.03.2020
529 Clear 8 1030 16 10000 6.7 80 15:44 24.03.2020
530 Clear 8 1030 16 10000 6.7 80 15:44 24.03.2020
531 Clear 8 1030 19 10000 7.2 110 15:25 24.03.2020
532 Clear 8 1030 19 10000 7.2 110 14:57 24.03.2020
533 Clear 7 1031 20 10000 8.2 80 14:39 24.03.2020
534 Clear 8 1031 20 10000 6.2 90 14:18 24.03.2020
535 Clear 7 1031 20 10000 8.2 100 13:41 24.03.2020
536 Clear 7 1031 26 10000 7.2 100 13:22 24.03.2020
537 Clear 6 1032 26 10000 7.2 90 12:45 24.03.2020
538 Clear 6 1032 26 10000 7.2 90 12:27 24.03.2020
539 Clear 5 1032 28 10000 5.1 70 11:58 24.03.2020
540 Clear 5 1032 27 10000 3.6 70 11:38 24.03.2020
541 Clear 4 1033 29 10000 5.1 90 11:18 24.03.2020
542 Clear 3 1033 34 10000 5.1 80 10:42 24.03.2020
543 Clear 2 1033 34 10000 5.1 70 10:19 24.03.2020
544 Clear 2 1033 34 10000 5.1 70 10:19 24.03.2020
545 Clear 2 1033 40 10000 5.7 90 09:49 24.03.2020
546 Clear 1 1033 40 10000 5.7 90 09:27 24.03.2020
547 Clear 0 1033 43 10000 5.7 100 08:58 24.03.2020
548 Clear -1 1033 32 10000 4.6 90 08:38 24.03.2020
549 Clear -2 1033 48 10000 3.6 90 08:20 24.03.2020
550 Clear -3 1033 46 10000 3.1 80 07:45 24.03.2020
551 Clear -4 1033 46 10000 3.1 80 07:23 24.03.2020
552 Clear -5 1033 53 10000 3.1 80 06:42 24.03.2020
553 Clear -5 1032 58 10000 2.6 60 06:23 24.03.2020
554 Clear -5 1032 53 10000 3.1 80 04:53 24.03.2020
555 Clear -4 1033 53 10000 3.1 90 03:46 24.03.2020
556 Clear -4 1033 68 10000 1 360 02:45 24.03.2020
557 Clear -3 1033 50 10000 2.1 90 01:38 24.03.2020
558 Clear -3 1033 46 10000 3.6 90 00:42 24.03.2020
559 Clear -3 1033 50 10000 3.1 90 00:22 24.03.2020
560 Clear -2 1033 46 10000 2.1 80 23:39 23.03.2020
561 Clear -2 1033 46 10000 3.1 70 23:21 23.03.2020
562 Clear -1 1033 46 10000 2.6 60 22:45 23.03.2020
563 Clear -1 1033 40 10000 2.1 70 22:24 23.03.2020
564 Clear -1 1033 40 10000 2.1 70 21:58 23.03.2020
565 Clear -1 1033 40 10000 2.6 90 21:40 23.03.2020
566 Clear 0 1033 37 10000 3.1 80 21:20 23.03.2020
567 Clear 0 1033 37 10000 2.6 70 20:56 23.03.2020
568 Clear 0 1033 37 10000 2.6 70 20:56 23.03.2020
569 Clear 0 1033 37 10000 2.6 70 20:38 23.03.2020
570 Clear 1 1033 34 10000 2.6 70 20:19 23.03.2020
571 Clear 2 1032 29 10000 2.6 70 19:44 23.03.2020
572 Clear 2 1032 29 10000 3.1 70 19:24 23.03.2020
573 Clear 4 1032 32 10000 2.6 70 18:56 23.03.2020
574 Clear 4 1032 32 10000 2.6 70 18:38 23.03.2020
575 Clear 4 1032 30 0 4.6 100 18:20 23.03.2020
576 Clear 6 1032 28 10000 2.6 70 17:42 23.03.2020
577 Clear 6 1032 28 10000 4.6 90 17:21 23.03.2020
578 Clear 6 1032 26 10000 4.6 90 16:56 23.03.2020
579 Clear 6 1032 26 10000 4.6 90 16:38 23.03.2020
580 Clear 6 1032 24 10000 5.1 80 16:19 23.03.2020
581 Clear 6 1032 26 10000 4.6 70 15:41 23.03.2020
582 Clear 6 1032 28 10000 6.2 110 15:19 23.03.2020
583 Clear 6 1033 28 10000 5.7 100 14:38 23.03.2020
584 Clear 6 1033 28 10000 5.7 110 14:20 23.03.2020
585 Clear 6 1033 28 10000 5.7 110 13:58 23.03.2020
586 Clear 6 1033 32 10000 4.6 90 13:40 23.03.2020
587 Clear 5 1033 32 10000 4.6 90 13:40 23.03.2020
588 Clear 5 1034 32 10000 7.2 110 13:20 23.03.2020
589 Clear 5 1034 32 10000 7.7 100 12:44 23.03.2020
590 Clear 4 1034 35 10000 5.1 100 12:25 23.03.2020
591 Clear 4 1035 37 10000 4.6 70 11:58 23.03.2020
592 Clear 3 1035 37 10000 4.6 70 11:39 23.03.2020
593 Clear 3 1035 34 10000 5.7 90 11:19 23.03.2020
594 Clear 2 1035 34 10000 6.7 110 10:56 23.03.2020
595 Clear 2 1035 34 10000 6.7 110 10:37 23.03.2020
596 Clear 2 1035 37 10000 7.7 110 10:19 23.03.2020
597 Clear 1 1035 40 10000 5.7 100 09:44 23.03.2020
598 Clear 0 1035 32 10000 5.7 100 09:21 23.03.2020
599 Clear -1 1035 46 10000 6.2 90 08:56 23.03.2020
600 Clear -1 1035 46 10000 6.2 90 08:36 23.03.2020
601 Clear -2 1035 50 10000 4.6 80 08:18 23.03.2020
602 Clear -3 1035 54 10000 3.6 80 07:42 23.03.2020
603 Clear -3 1035 58 10000 4.1 80 07:21 23.03.2020
604 Clear -4 1035 62 10000 3.6 90 06:49 23.03.2020
605 Clear -4 1033 79 10000 4.6 80 05:51 23.03.2020
606 Clear -3 1034 63 10000 3.6 70 04:58 23.03.2020
607 Clear -3 1034 63 10000 2.6 70 03:26 23.03.2020
608 Clear -2 1034 58 10000 3.1 80 01:50 23.03.2020
609 Clear -2 1034 58 10000 3.6 70 00:58 23.03.2020
610 Clear -2 1034 54 10000 3.6 80 00:36 23.03.2020
611 Clear -1 1034 54 10000 3.1 80 23:47 22.03.2020
612 Clear -1 1034 54 10000 3.1 80 23:47 22.03.2020
613 Clear -1 1034 54 10000 3.1 80 23:25 22.03.2020
614 Clear -1 1034 52 10000 3.1 80 22:45 22.03.2020
615 Clear -1 1033 52 10000 2.6 70 22:24 22.03.2020
616 Clear 0 1033 52 10000 3.1 70 21:56 22.03.2020
617 Clear 0 1033 52 10000 3.1 70 21:37 22.03.2020
618 Clear 0 1033 52 10000 3.1 70 21:19 22.03.2020
619 Clear 1 1033 43 10000 4.1 80 20:46 22.03.2020
620 Clear 1 1032 43 10000 4.1 80 20:25 22.03.2020
621 Clear 1 1032 43 10000 4.1 80 19:58 22.03.2020
622 Clear 1 1032 43 10000 3.1 70 19:40 22.03.2020
623 Clear 2 1032 40 10000 4.6 70 19:20 22.03.2020
624 Clear 3 1032 40 10000 4.6 70 18:59 22.03.2020
625 Clear 3 1031 40 10000 4.1 80 18:41 22.03.2020
626 Clear 3 1031 38 10000 5.7 80 18:22 22.03.2020
627 Clear 4 1031 38 10000 5.7 80 17:59 22.03.2020
628 Clear 5 1030 35 10000 5.7 60 17:39 22.03.2020
629 Clear 5 1030 35 10000 6.2 60 17:20 22.03.2020
630 Clear 6 1030 35 10000 6.2 80 16:58 22.03.2020
631 Clear 6 1030 35 10000 6.2 80 16:58 22.03.2020
632 Clear 6 1030 35 10000 6.2 80 16:39 22.03.2020
633 Clear 6 1030 33 10000 5.1 70 16:21 22.03.2020
634 Clear 6 1030 33 10000 5.1 70 15:56 22.03.2020
635 Clear 7 1029 35 10000 5.7 50 15:38 22.03.2020
636 Clear 7 1029 35 10000 7.2 90 14:46 22.03.2020
637 Clear 6 1029 33 10000 6.2 80 14:19 22.03.2020
638 Clear 7 1029 33 10000 6.2 80 13:55 22.03.2020
639 Clear 6 1029 35 10000 5.7 70 13:37 22.03.2020
640 Clear 6 1030 33 10000 6.2 80 13:18 22.03.2020
641 Clear 6 1030 33 10000 6.2 70 12:43 22.03.2020
642 Clear 5 1030 32 10000 5.7 50 12:20 22.03.2020
643 Clear 5 1030 35 10000 5.7 70 11:55 22.03.2020
644 Clear 5 1030 35 10000 5.7 70 11:36 22.03.2020
645 Clear 4 1029 38 10000 6.7 90 11:18 22.03.2020
646 Clear 3 1029 38 10000 6.2 90 10:42 22.03.2020
647 Clear 3 1029 40 10000 6.7 90 10:23 22.03.2020
648 Clear 2 1029 43 10000 6.7 90 09:47 22.03.2020
649 Rain 2 1029 43 10000 8.2 90 09:28 22.03.2020
650 Rain 1 1029 47 10000 6.7 90 08:53 22.03.2020
651 Rain 1 1029 43 10000 8.2 90 08:53 22.03.2020
652 Rain 1 1029 47 10000 6.7 90 08:33 22.03.2020
653 Clear 0 1029 47 10000 5.1 80 07:59 22.03.2020
654 Clear -1 1029 63 10000 4.6 80 07:41 22.03.2020
655 Clear -1 1028 58 10000 3.1 80 06:48 22.03.2020
656 Clear -1 1027 58 10000 4.1 80 05:52 22.03.2020
657 Clear -1 1027 63 10000 3.6 60 04:39 22.03.2020
658 Clear 0 1026 70 10000 3.1 60 02:34 22.03.2020
659 Clouds 1 1026 59 10000 4.1 70 00:51 22.03.2020
660 Clouds 1 1026 59 10000 4.1 70 00:32 22.03.2020
661 Clouds 1 1026 59 10000 3.6 60 23:46 21.03.2020
662 Clouds 2 1026 55 10000 4.6 70 23:23 21.03.2020
663 Clouds 2 1026 59 10000 5.7 80 22:59 21.03.2020
664 Clouds 2 1026 59 10000 5.7 80 22:38 21.03.2020
665 Clouds 2 1026 59 10000 5.7 80 22:38 21.03.2020
666 Clouds 2 1026 59 10000 4.6 70 22:20 21.03.2020
667 Rain 2 1026 64 10000 4.6 60 21:58 21.03.2020
668 Rain 2 1026 64 10000 4.6 60 21:38 21.03.2020
669 Clouds 2 1025 59 10000 4.6 60 21:19 21.03.2020
670 Clouds 3 1025 59 10000 5.7 70 20:42 21.03.2020
671 Clouds 3 1025 64 10000 6.2 70 20:22 21.03.2020
672 Rain 3 1025 64 10000 6.2 70 19:55 21.03.2020
673 Rain 3 1025 64 10000 6.2 70 19:36 21.03.2020
674 Rain 3 1024 64 10000 4.6 70 19:18 21.03.2020
675 Drizzle 3 1023 100 10000 7.2 60 18:41 21.03.2020
676 Rain 4 1024 65 10000 4.6 70 18:21 21.03.2020
677 Rain 4 1023 65 10000 4.6 70 17:59 21.03.2020
678 Rain 4 1023 65 10000 4.6 70 17:41 21.03.2020
679 Rain 5 1023 65 10000 5.1 70 17:22 21.03.2020
680 Rain 4 1023 65 10000 5.1 60 16:42 21.03.2020
681 Rain 4 1023 65 10000 5.1 60 16:42 21.03.2020
682 Rain 4 1023 65 10000 6.2 60 16:24 21.03.2020
683 Rain 5 1023 65 10000 6.2 60 15:59 21.03.2020
684 Rain 5 1023 75 10000 4.6 60 15:40 21.03.2020
685 Rain 5 1023 65 10000 5.1 50 15:22 21.03.2020
686 Rain 5 1023 65 10000 5.1 50 14:57 21.03.2020
687 Rain 5 1023 65 10000 4.6 60 14:38 21.03.2020
688 Rain 5 1023 82 10000 4.6 60 14:19 21.03.2020
689 Clouds 5 1023 82 10000 4.6 60 13:57 21.03.2020
690 Clouds 5 1023 82 10000 4.1 60 13:39 21.03.2020
691 Clouds 5 1023 92 10000 5.7 70 13:20 21.03.2020
692 Clouds 5 1023 92 10000 5.1 70 12:54 21.03.2020
693 Rain 5 1023 92 10000 5.1 70 12:36 21.03.2020
694 Rain 5 1022 92 10000 6.2 60 12:18 21.03.2020
695 Drizzle 5 1022 100 10000 7.7 60 11:54 21.03.2020
696 Drizzle 5 1022 100 10000 7.7 60 11:54 21.03.2020
697 Rain 5 1023 75 10000 5.7 70 11:36 21.03.2020
698 Rain 5 1023 75 10000 5.1 60 11:18 21.03.2020
699 Rain 5 1022 100 10000 7.2 60 10:55 21.03.2020
700 Rain 4 1023 80 10000 5.1 50 10:37 21.03.2020
701 Rain 4 1023 86 10000 3.6 50 10:18 21.03.2020
702 Rain 4 1023 93 10000 3.1 40 09:39 21.03.2020
703 Rain 4 1023 86 10000 3.6 50 09:21 21.03.2020
704 Rain 4 1023 86 10000 3.6 50 08:56 21.03.2020
705 Rain 4 1023 86 10000 4.1 30 08:38 21.03.2020
706 Rain 3 1022 86 10000 3.6 50 08:19 21.03.2020
707 Rain 3 1022 93 10000 3.1 30 07:39 21.03.2020
708 Clouds 4 1022 80 10000 4.1 10 07:20 21.03.2020
709 Clouds 4 1022 93 10000 4.6 30 06:44 21.03.2020
710 Clouds 4 1022 75 10000 3.1 20 06:25 21.03.2020
711 Clouds 4 1022 75 10000 2.6 20 05:40 21.03.2020
712 Clouds 5 1021 75 10000 3.6 10 04:26 21.03.2020
713 Clouds 5 1021 75 10000 3.6 20 02:37 21.03.2020
714 Clouds 5 1021 75 10000 4.1 10 01:45 21.03.2020
715 Clouds 5 1021 75 10000 4.1 10 01:25 21.03.2020
716 Clouds 6 1021 75 10000 4.1 360 00:39 21.03.2020
717 Rain 6 1021 75 10000 5.7 350 00:21 21.03.2020
718 Clouds 6 1021 81 10000 4.6 360 23:43 20.03.2020
719 Clouds 6 1021 75 10000 4.6 350 23:22 20.03.2020
720 Rain 7 1021 75 10000 4.1 350 22:44 20.03.2020
721 Rain 7 1021 81 10000 4.6 360 22:25 20.03.2020
722 Clouds 7 1021 81 10000 4.6 360 21:58 20.03.2020
723 Clouds 7 1021 81 10000 4.1 350 21:40 20.03.2020
724 Clouds 7 1020 81 10000 3.6 360 21:20 20.03.2020
725 Clouds 8 1020 81 10000 3.6 360 20:58 20.03.2020
726 Clouds 8 1020 76 10000 4.6 360 20:40 20.03.2020
727 Clouds 8 1020 81 10000 4.1 350 20:19 20.03.2020
728 Clouds 9 1020 76 10000 4.1 10 19:47 20.03.2020
729 Clouds 9 1020 76 10000 5.1 360 19:20 20.03.2020
730 Clouds 10 1019 76 10000 7.2 350 18:57 20.03.2020
731 Clouds 10 1019 76 10000 7.2 350 18:38 20.03.2020
732 Clouds 11 1019 71 10000 6.2 340 18:19 20.03.2020
733 Clouds 12 1019 71 10000 6.2 350 17:56 20.03.2020
734 Clouds 12 1019 71 10000 6.2 350 17:37 20.03.2020
735 Clouds 13 1018 62 10000 7.7 350 17:18 20.03.2020
736 Clouds 14 1018 59 10000 6.2 340 16:41 20.03.2020
737 Clouds 14 1018 59 10000 6.2 340 16:41 20.03.2020
738 Clouds 15 1018 51 10000 5.7 340 16:21 20.03.2020
739 Clouds 15 1018 48 10000 5.1 340 15:44 20.03.2020
740 Clouds 16 1019 48 10000 3.6 360 15:23 20.03.2020
741 Clouds 16 1019 45 10000 2.1 0 14:58 20.03.2020
742 Clouds 16 1019 45 10000 2.1 0 14:40 20.03.2020
743 Clouds 17 1019 45 10000 2.6 330 14:20 20.03.2020
744 Clouds 15 1019 45 10000 2.6 340 13:48 20.03.2020
745 Clouds 15 1020 45 10000 2.6 340 13:22 20.03.2020
746 Clouds 14 1020 51 10000 1 0 12:58 20.03.2020
747 Clouds 14 1020 51 10000 1 0 12:38 20.03.2020
748 Clouds 14 1020 59 10000 1.5 0 12:19 20.03.2020
749 Clouds 13 1021 71 10000 1 0 11:39 20.03.2020
750 Clouds 12 1021 71 10000 1 0 11:20 20.03.2020
751 Clouds 11 1021 76 10000 2.6 320 10:55 20.03.2020
752 Clouds 11 1021 76 10000 2.6 320 10:37 20.03.2020
753 Clouds 10 1021 76 10000 2.1 300 10:18 20.03.2020
754 Clouds 10 1021 76 10000 1.5 110 09:44 20.03.2020
755 Clouds 9 1021 87 10000 0.5 0 09:20 20.03.2020
756 Clouds 8 1021 87 0 1.5 110 08:44 20.03.2020
757 Clouds 8 1021 87 0 1.5 110 08:23 20.03.2020
758 Clouds 7 1021 87 10000 0.5 0 07:59 20.03.2020
759 Clouds 7 1021 93 10000 1.5 100 07:38 20.03.2020
760 Clouds 7 1021 93 10000 0.5 0 07:19 20.03.2020
761 Clouds 7 1021 93 10000 0.5 0 06:42 20.03.2020
762 Clouds 6 1021 93 10000 1 0 06:18 20.03.2020
763 Clouds 6 1021 93 10000 1 0 04:36 20.03.2020
764 Clouds 6 1021 93 10000 1 0 02:50 20.03.2020
765 Clouds 7 1022 93 10000 1 60 01:50 20.03.2020
766 Clouds 7 1022 93 10000 0.5 330 00:38 20.03.2020
767 Clouds 8 1022 81 10000 0.5 0 23:58 19.03.2020
768 Clouds 8 1022 81 10000 0.5 0 23:40 19.03.2020
769 Clouds 8 1022 81 10000 0.5 0 23:19 19.03.2020
770 Clouds 8 1022 81 10000 0.5 0 23:19 19.03.2020
771 Clouds 9 1022 81 10000 0.5 0 22:38 19.03.2020
772 Clouds 9 1022 81 10000 0.5 310 22:20 19.03.2020
773 Clouds 10 1022 66 10000 1.5 90 21:57 19.03.2020
774 Clouds 10 1022 66 10000 1.5 90 21:38 19.03.2020
775 Clouds 10 1022 62 10000 1.5 70 21:18 19.03.2020
776 Clouds 11 1022 62 10000 2.6 90 20:42 19.03.2020
777 Clouds 11 1022 62 10000 2.6 90 20:42 19.03.2020
778 Clear 11 1022 62 10000 2.6 90 20:24 19.03.2020
779 Clouds 13 1022 62 10000 2.1 350 19:57 19.03.2020
780 Clouds 13 1022 62 10000 2.1 350 19:38 19.03.2020
781 Clouds 13 1022 54 10000 1.5 20 19:20 19.03.2020
782 Clouds 15 1022 55 10000 1.5 30 18:57 19.03.2020
783 Clouds 15 1022 55 10000 1.5 30 18:38 19.03.2020
784 Clouds 16 1022 51 10000 2.1 330 18:19 19.03.2020
785 Clouds 17 1022 45 10000 2.6 320 17:42 19.03.2020
786 Clouds 17 1022 45 10000 2.1 320 17:20 19.03.2020
787 Clouds 17 1022 45 10000 2.1 320 16:56 19.03.2020
788 Clouds 17 1022 45 10000 2.1 320 16:37 19.03.2020
789 Clouds 18 1022 42 10000 1.5 320 16:19 19.03.2020
790 Clouds 18 1023 45 10000 1 0 15:40 19.03.2020
791 Clouds 18 1023 45 10000 1.5 0 15:18 19.03.2020
792 Clouds 18 1023 48 10000 2.1 260 14:43 19.03.2020
793 Clouds 17 1024 48 10000 2.1 260 14:21 19.03.2020
794 Clouds 17 1024 45 10000 1.5 0 13:42 19.03.2020
795 Clouds 17 1024 48 10000 1.5 320 13:21 19.03.2020
796 Clouds 17 1024 48 10000 1.5 320 13:21 19.03.2020
797 Clouds 17 1024 48 10000 1.5 240 12:58 19.03.2020
798 Clouds 16 1024 48 10000 1.5 240 12:40 19.03.2020
799 Clouds 16 1025 55 10000 1 0 12:21 19.03.2020
800 Clouds 15 1025 58 10000 1 0 11:43 19.03.2020
801 Clouds 14 1025 62 10000 1.5 310 11:24 19.03.2020
802 Clouds 13 1025 71 10000 1.5 300 10:58 19.03.2020
803 Clouds 13 1025 71 10000 1.5 300 10:38 19.03.2020
804 Clouds 12 1025 66 10000 0.5 0 10:19 19.03.2020
805 Clouds 11 1025 76 10000 0.5 0 09:55 19.03.2020
806 Clouds 11 1025 76 10000 0.5 0 09:37 19.03.2020
807 Clouds 10 1025 81 10000 1 0 09:18 19.03.2020
808 Clouds 9 1025 81 10000 1 0 08:41 19.03.2020
809 Clouds 9 1025 87 10000 1 0 08:20 19.03.2020
810 Clouds 8 1025 87 10000 2.1 90 07:44 19.03.2020
811 Clouds 8 1025 87 10000 2.1 90 07:25 19.03.2020
812 Clouds 8 1025 87 10000 0.5 0 06:35 19.03.2020
813 Clouds 7 1025 93 10000 1 0 05:48 19.03.2020
814 Clouds 7 1025 93 10000 2.6 110 04:54 19.03.2020
815 Clouds 6 1025 93 10000 2.6 110 04:34 19.03.2020
816 Clouds 7 1025 87 10000 1 0 02:37 19.03.2020
817 Clouds 7 1026 87 10000 2.6 100 00:58 19.03.2020
818 Clouds 7 1025 81 10000 3.1 100 00:22 19.03.2020
819 Clouds 7 1025 87 10000 3.6 110 23:48 18.03.2020
820 Clouds 8 1026 81 10000 2.1 100 23:29 18.03.2020
821 Clouds 8 1026 81 10000 1.5 110 22:44 18.03.2020
822 Clouds 8 1026 81 10000 1.5 110 22:24 18.03.2020
823 Clouds 9 1026 81 10000 2.6 120 21:59 18.03.2020
824 Clouds 10 1026 76 10000 3.1 110 21:41 18.03.2020
825 Clouds 10 1026 71 10000 2.6 100 21:21 18.03.2020
826 Clouds 11 1026 71 10000 2.6 100 20:57 18.03.2020
827 Clouds 11 1026 66 10000 1 0 20:39 18.03.2020
828 Clouds 11 1026 66 10000 1.5 60 20:20 18.03.2020
829 Clouds 12 1026 66 10000 1.5 60 19:55 18.03.2020
830 Clouds 12 1026 62 10000 1.5 80 19:36 18.03.2020
831 Clouds 13 1026 67 10000 1 0 19:18 18.03.2020
832 Clouds 14 1026 58 10000 1 360 18:41 18.03.2020
833 Clouds 15 1026 55 10000 1 0 18:20 18.03.2020
834 Clouds 16 1026 51 10000 1 0 17:57 18.03.2020
835 Clouds 15 1026 51 10000 1 0 17:57 18.03.2020
836 Clouds 16 1026 51 10000 1 0 17:39 18.03.2020
837 Clouds 16 1026 48 10000 0.5 0 17:21 18.03.2020
838 Clouds 16 1026 48 10000 2.6 280 16:54 18.03.2020
839 Clouds 16 1026 48 10000 2.6 280 16:36 18.03.2020
840 Clouds 16 1026 45 10000 1.5 0 16:18 18.03.2020
841 Clouds 17 1027 45 10000 2.1 0 15:44 18.03.2020
842 Clouds 16 1027 48 10000 2.6 250 15:20 18.03.2020
843 Clouds 17 1027 51 10000 2.6 340 14:45 18.03.2020
844 Clouds 17 1027 51 10000 2.6 320 14:22 18.03.2020
845 Clouds 16 1027 51 10000 2.6 320 13:56 18.03.2020
846 Clouds 16 1028 51 10000 1.5 230 13:36 18.03.2020
847 Clouds 16 1028 51 10000 1.5 0 13:18 18.03.2020
848 Clouds 16 1029 55 10000 1.5 0 12:41 18.03.2020
849 Clouds 15 1029 55 10000 2.1 0 12:19 18.03.2020
850 Clouds 14 1029 58 10000 1 0 11:39 18.03.2020
851 Clouds 13 1029 67 10000 1 0 11:21 18.03.2020
852 Clear 11 1030 71 10000 1.5 0 10:58 18.03.2020
853 Clear 11 1030 71 10000 1.5 0 10:39 18.03.2020
854 Clouds 11 1030 76 10000 2.1 120 10:20 18.03.2020
855 Clouds 9 1030 81 10000 2.1 100 09:43 18.03.2020
856 Clouds 8 1030 81 10000 2.1 100 09:25 18.03.2020
857 Clear 6 1030 93 9000 3.1 110 08:57 18.03.2020
858 Clear 6 1030 93 9000 3.1 110 08:39 18.03.2020
859 Clear 6 1030 93 9000 3.1 110 08:39 18.03.2020
860 Clouds 5 1029 100 9000 3.1 100 08:20 18.03.2020
861 Fog 4 1029 93 6000 3.1 110 07:46 18.03.2020
862 Fog 4 1029 100 6000 2.1 120 07:28 18.03.2020
863 Mist 4 1029 100 4500 2.1 120 06:44 18.03.2020
864 Fog 4 1029 100 800 1.28 176 06:22 18.03.2020
865 Mist 4 1029 100 4000 1.28 176 05:35 18.03.2020
866 Mist 4 1029 100 1400 1.5 200 04:25 18.03.2020
867 Mist 4 1030 100 3500 2.1 110 02:48 18.03.2020
868 Mist 4 1030 93 4000 2.6 100 01:48 18.03.2020
869 Mist 5 1030 100 5000 2.1 110 01:27 18.03.2020
870 Fog 5 1030 93 8000 1.5 100 00:24 18.03.2020
871 Fog 6 1030 93 8000 1.5 100 23:49 17.03.2020
872 Clouds 6 1030 93 9000 3.1 100 23:27 17.03.2020
873 Fog 6 1030 93 9000 2.6 100 22:57 17.03.2020
874 Fog 7 1030 93 9000 2.6 100 22:37 17.03.2020
875 Clouds 7 1030 93 9000 1 0 22:19 17.03.2020
876 Clouds 7 1030 87 10000 2.1 90 21:39 17.03.2020
877 Clouds 8 1030 87 10000 1 100 21:21 17.03.2020
878 Clouds 8 1030 87 10000 1 100 21:21 17.03.2020
879 Clouds 9 1030 81 10000 0.5 0 20:40 17.03.2020
880 Clouds 9 1030 81 10000 0.5 0 20:40 17.03.2020
881 Rain 9 1030 81 10000 0.5 0 20:21 17.03.2020
882 Rain 10 1030 81 10000 0.5 0 19:58 17.03.2020
883 Rain 10 1029 76 10000 0.5 0 19:39 17.03.2020
884 Rain 11 1029 71 10000 2.1 270 19:18 17.03.2020
885 Rain 12 1029 66 10000 2.1 290 18:56 17.03.2020
886 Rain 12 1029 66 10000 2.1 290 18:37 17.03.2020
887 Clouds 14 1029 67 10000 1.5 360 18:19 17.03.2020
888 Clouds 14 1029 62 10000 2.6 320 17:40 17.03.2020
889 Clouds 14 1029 58 10000 4.1 330 17:21 17.03.2020
890 Clouds 15 1028 62 10000 4.1 330 16:54 17.03.2020
891 Clouds 15 1028 62 10000 4.1 330 16:36 17.03.2020
892 Rain 15 1028 58 10000 5.1 270 16:18 17.03.2020
893 Rain 15 1029 51 10000 4.6 260 15:41 17.03.2020
894 Rain 15 1029 51 10000 4.6 280 15:19 17.03.2020
895 Clouds 15 1029 55 10000 4.1 290 14:42 17.03.2020
896 Rain 15 1029 54 10000 6.7 270 14:21 17.03.2020
897 Clouds 14 1029 58 10000 4.1 290 13:44 17.03.2020
898 Clouds 14 1029 58 10000 4.1 290 13:26 17.03.2020
899 Rain 14 1029 62 10000 3.1 320 12:58 17.03.2020
900 Rain 14 1029 62 10000 3.1 320 12:58 17.03.2020
901 Rain 14 1029 62 10000 3.1 320 12:39 17.03.2020
902 Rain 13 1029 62 10000 2.6 270 12:21 17.03.2020
903 Rain 12 1029 66 10000 1.5 200 11:45 17.03.2020
904 Rain 12 1029 71 10000 1.5 160 11:27 17.03.2020
905 Rain 12 1029 71 10000 1.5 160 11:27 17.03.2020
906 Rain 11 1029 76 10000 1.5 160 10:58 17.03.2020
907 Rain 11 1029 76 10000 1.5 160 10:37 17.03.2020
908 Rain 10 1029 76 10000 1.5 160 10:19 17.03.2020
909 Clouds 9 1029 81 10000 2.1 130 09:55 17.03.2020
910 Clouds 10 1029 81 10000 2.1 130 09:36 17.03.2020
911 Rain 9 1029 87 10000 2.6 100 09:18 17.03.2020
912 Rain 9 1028 87 10000 3.1 100 08:42 17.03.2020
913 Clouds 8 1028 87 10000 3.6 100 08:21 17.03.2020
914 Rain 8 1028 93 10000 3.1 110 07:49 17.03.2020
915 Rain 7 1027 87 10000 3.1 110 07:24 17.03.2020
916 Rain 8 1027 81 10000 2.6 110 06:53 17.03.2020
917 Clouds 8 1027 76 10000 1.5 250 06:27 17.03.2020
918 Rain 8 1027 70 10000 2.1 110 05:38 17.03.2020
919 Clouds 8 1025 75 10000 3.6 110 03:36 17.03.2020
920 Clouds 8 1025 75 10000 2.6 120 02:38 17.03.2020
921 Clouds 8 1025 75 10000 1.5 150 01:41 17.03.2020
922 Clouds 8 1025 75 10000 2.6 110 01:18 17.03.2020
923 Clouds 7 1025 75 10000 1 0 00:19 17.03.2020
924 Clouds 7 1025 70 10000 2.1 120 23:44 16.03.2020
925 Clouds 7 1025 70 10000 2.6 110 23:23 16.03.2020
926 Clouds 8 1024 70 10000 2.6 110 22:39 16.03.2020
927 Clouds 8 1024 70 10000 4.1 110 22:20 16.03.2020
928 Clouds 9 1024 70 10000 4.1 110 21:55 16.03.2020
929 Clouds 9 1024 65 10000 2.6 110 21:36 16.03.2020
930 Clouds 9 1024 57 10000 1.5 120 21:18 16.03.2020
931 Clouds 9 1023 66 10000 1 0 20:42 16.03.2020
932 Clouds 10 1023 53 10000 1 110 20:24 16.03.2020
933 Clouds 11 1023 62 10000 1 10 19:47 16.03.2020
934 Clouds 12 1022 50 10000 1 350 19:25 16.03.2020
935 Clouds 13 1022 47 10000 1.5 310 19:00 16.03.2020
936 Clouds 14 1022 47 10000 1.5 310 18:40 16.03.2020
937 Clouds 15 1022 41 10000 1.5 300 18:20 16.03.2020
938 Clouds 16 1021 38 10000 2.6 290 17:46 16.03.2020
939 Clouds 16 1021 36 10000 4.1 290 17:26 16.03.2020
940 Clouds 17 1021 34 10000 4.6 280 16:58 16.03.2020
941 Clouds 17 1021 34 10000 4.6 280 16:40 16.03.2020
942 Clouds 17 1021 31 10000 4.6 270 16:21 16.03.2020
943 Clouds 17 1021 31 10000 5.7 260 15:43 16.03.2020
944 Clouds 17 1020 34 10000 2.6 0 15:24 16.03.2020
945 Clouds 17 1020 34 10000 2.1 0 14:48 16.03.2020
946 Clouds 17 1020 34 10000 2.1 0 14:23 16.03.2020
947 Clouds 16 1021 36 10000 1.5 80 13:51 16.03.2020
948 Clouds 16 1021 36 10000 1.5 80 13:29 16.03.2020
949 Clouds 16 1021 38 10000 1 0 12:58 16.03.2020
950 Clouds 15 1021 38 10000 1 0 12:39 16.03.2020
951 Clouds 14 1021 44 10000 1 0 12:20 16.03.2020
952 Clouds 13 1021 43 10000 1.5 0 11:43 16.03.2020
953 Clouds 13 1021 50 10000 1.5 120 11:25 16.03.2020
954 Clouds 10 1021 46 10000 2.1 140 10:45 16.03.2020
955 Clouds 9 1020 49 10000 2.6 130 10:24 16.03.2020
956 Clouds 8 1020 49 10000 2.6 130 09:56 16.03.2020
957 Clouds 7 1020 49 10000 3.1 130 09:37 16.03.2020
958 Clouds 6 1020 52 10000 2.6 120 09:19 16.03.2020
959 Clouds 4 1020 60 10000 1.5 130 08:41 16.03.2020
960 Clouds 3 1019 69 10000 2.1 130 08:21 16.03.2020
961 Clouds 1 1019 78 10000 2.1 160 07:42 16.03.2020
962 Clouds 0 1018 78 10000 1.5 130 07:19 16.03.2020
963 Clouds 0 1017 78 10000 2.1 140 06:29 16.03.2020
964 Clouds 1 1017 78 10000 2.1 150 05:59 16.03.2020
965 Clouds 1 1017 69 10000 2.1 120 04:21 16.03.2020
966 Clouds 3 1016 69 10000 2.1 120 01:46 16.03.2020
967 Clouds 3 1016 69 10000 2.1 120 00:45 16.03.2020
968 Clouds 4 1016 60 10000 2.6 100 00:26 16.03.2020
969 Clouds 3 1016 60 10000 2.6 110 23:40 15.03.2020
970 Clouds 4 1016 60 10000 2.1 110 23:19 15.03.2020
971 Clouds 4 1016 60 10000 1.5 110 22:42 15.03.2020
972 Clouds 4 1016 60 10000 3.1 110 22:20 15.03.2020
973 Clouds 4 1016 52 10000 3.1 100 21:39 15.03.2020
974 Clouds 4 1016 48 10000 2.6 90 21:21 15.03.2020
975 Clouds 6 1016 45 10000 3.6 90 20:55 15.03.2020
976 Clouds 6 1016 45 10000 3.6 90 20:36 15.03.2020
977 Clouds 6 1016 45 10000 4.1 100 20:18 15.03.2020
978 Clouds 7 1016 48 10000 4.6 110 19:43 15.03.2020
979 Clouds 8 1016 42 10000 4.6 100 19:25 15.03.2020
980 Clouds 9 1016 42 10000 4.1 110 18:59 15.03.2020
981 Clouds 10 1016 42 10000 4.1 110 18:40 15.03.2020
982 Clouds 10 1016 37 10000 5.1 120 18:22 15.03.2020
983 Clouds 11 1016 37 10000 5.1 120 17:57 15.03.2020
984 Clouds 11 1016 34 10000 5.1 110 17:38 15.03.2020
985 Clear 12 1017 32 10000 5.1 130 17:18 15.03.2020
986 Clear 12 1017 32 10000 5.7 130 16:43 15.03.2020
987 Clear 13 1017 32 10000 5.7 130 16:25 15.03.2020
988 Clear 13 1017 32 10000 5.7 130 15:58 15.03.2020
989 Clear 13 1017 32 10000 5.7 150 15:40 15.03.2020
990 Clear 13 1017 34 10000 6.2 130 15:19 15.03.2020
991 Clear 12 1018 34 10000 5.7 150 14:46 15.03.2020
992 Clear 12 1018 37 10000 5.1 150 14:24 15.03.2020
993 Clouds 12 1018 37 10000 5.1 150 13:58 15.03.2020
994 Clouds 11 1019 37 10000 6.2 140 13:38 15.03.2020
995 Clouds 11 1019 37 10000 6.2 140 13:38 15.03.2020
996 Clouds 11 1019 37 10000 6.2 140 13:38 15.03.2020
997 Clouds 11 1019 37 10000 6.2 150 13:20 15.03.2020
998 Clouds 10 1020 40 10000 6.2 150 12:44 15.03.2020
999 Clouds 10 1020 46 10000 7.2 150 12:25 15.03.2020
1000 Clouds 10 1020 46 10000 6.7 140 11:56 15.03.2020
1001 Clouds 9 1020 46 10000 6.7 140 11:38 15.03.2020
1002 Clouds 8 1021 49 10000 5.7 140 11:20 15.03.2020
1003 Clouds 7 1021 49 10000 5.1 130 10:55 15.03.2020
1004 Clouds 7 1021 49 10000 5.1 130 10:36 15.03.2020
1005 Clouds 7 1021 52 10000 5.7 140 10:18 15.03.2020
1006 Clouds 5 1022 52 10000 6.2 130 09:39 15.03.2020
1007 Clouds 4 1022 60 10000 5.7 130 09:20 15.03.2020
1008 Clouds 4 1022 60 10000 5.7 130 08:42 15.03.2020
1009 Clouds 3 1022 64 10000 5.1 120 08:20 15.03.2020
1010 Clear 2 1022 69 10000 4.1 120 07:50 15.03.2020
1011 Clear 1 1022 69 10000 3.6 110 07:23 15.03.2020
1012 Clear 0 1022 69 10000 2.1 120 06:45 15.03.2020
1013 Clear 0 1022 74 10000 2.6 110 05:50 15.03.2020
1014 Clear 0 1022 80 10000 3.1 110 04:58 15.03.2020
1015 Clear 0 1022 80 10000 3.1 110 04:40 15.03.2020
1016 Clear 0 1023 80 10000 2.6 110 04:21 15.03.2020
1017 Clear 0 1023 80 10000 2.6 100 03:25 15.03.2020
1018 Clear 1 1023 80 10000 1.5 110 02:36 15.03.2020
1019 Clear 0 1023 79 10000 2.1 120 01:19 15.03.2020
1020 Clouds 1 1023 80 10000 2.1 120 00:42 15.03.2020
1021 Clouds 1 1023 80 10000 3.1 100 00:20 15.03.2020
1022 Clouds 1 1023 80 10000 2.6 110 23:41 14.03.2020
1023 Clouds 1 1023 80 10000 3.1 100 23:20 14.03.2020
1024 Clouds 2 1023 80 10000 2.1 110 22:56 14.03.2020
1025 Clouds 2 1023 80 10000 2.1 110 22:38 14.03.2020
1026 Clouds 2 1023 74 10000 2.1 110 22:20 14.03.2020
1027 Clouds 2 1023 74 10000 2.1 110 21:56 14.03.2020
1028 Clouds 3 1023 76 10000 2.1 100 21:36 14.03.2020
1029 Clouds 3 1023 76 10000 3.1 90 21:18 14.03.2020
1030 Clouds 3 1023 76 10000 3.1 90 21:18 14.03.2020
1031 Clouds 4 1023 76 10000 3.1 90 20:58 14.03.2020
1032 Clouds 4 1023 76 10000 3.1 100 20:39 14.03.2020
1033 Clouds 4 1023 66 10000 1.5 90 20:18 14.03.2020
1034 Clouds 5 1022 86 10000 1.31 94 19:42 14.03.2020
1035 Clouds 5 1023 65 10000 1.5 70 19:24 14.03.2020
1036 Clouds 7 1022 66 10000 2.1 70 18:41 14.03.2020
1037 Clouds 7 1022 66 10000 2.1 40 18:21 14.03.2020
1038 Clouds 8 1022 49 10000 2.1 90 17:44 14.03.2020
1039 Clouds 8 1021 66 10000 2.6 120 17:24 14.03.2020
1040 Clouds 9 1021 52 10000 3.1 130 17:00 14.03.2020
1041 Clouds 9 1021 52 10000 3.1 130 16:40 14.03.2020
1042 Clouds 9 1021 52 10000 2.1 50 16:21 14.03.2020
1043 Clouds 9 1021 52 10000 2.1 50 16:21 14.03.2020
1044 Clouds 9 1021 57 10000 2.1 60 15:52 14.03.2020
1045 Clouds 9 1021 57 10000 2.1 60 15:25 14.03.2020
1046 Rain 9 1021 52 10000 2.1 40 14:46 14.03.2020
1047 Rain 9 1021 52 10000 2.1 40 14:23 14.03.2020
1048 Rain 9 1022 54 10000 1 0 13:57 14.03.2020
1049 Clouds 9 1022 54 10000 1.5 270 13:39 14.03.2020
1050 Clouds 9 1022 53 10000 2.1 0 13:20 14.03.2020
1051 Clouds 8 1022 53 10000 2.1 140 12:45 14.03.2020
1052 Clouds 8 1022 61 10000 2.1 220 12:26 14.03.2020
1053 Clouds 7 1022 53 10000 1.5 140 11:56 14.03.2020
1054 Clouds 7 1022 61 10000 1.5 190 11:38 14.03.2020
1055 Clouds 7 1022 61 10000 1.5 190 11:19 14.03.2020
1056 Clouds 7 1022 65 10000 2.1 0 10:41 14.03.2020
1057 Clouds 6 1022 70 10000 1.5 230 10:23 14.03.2020
1058 Clouds 5 1022 70 10000 1 0 09:44 14.03.2020
1059 Clouds 4 1022 70 10000 1 0 09:24 14.03.2020
1060 Clouds 4 1022 70 10000 1 0 09:24 14.03.2020
1061 Clouds 2 1021 70 10000 1.5 30 08:48 14.03.2020
1062 Clouds 2 1021 70 10000 1.5 30 08:29 14.03.2020
1063 Clouds 0 1021 86 10000 2.6 80 07:55 14.03.2020
1064 Clouds 0 1021 88 10000 2.6 100 07:37 14.03.2020
1065 Clouds -1 1021 92 10000 3.6 100 07:19 14.03.2020
1066 Clouds -1 1021 92 10000 1.5 140 06:40 14.03.2020
1067 Clouds 0 1021 87 10000 1 70 05:24 14.03.2020
1068 Clouds 1 1021 80 10000 1.5 140 03:46 14.03.2020
1069 Clouds 1 1021 80 10000 1.5 140 03:24 14.03.2020
1070 Clear 1 1021 86 10000 2.1 110 02:22 14.03.2020
1071 Clouds 2 1021 83 10000 0.5 0 00:46 14.03.2020
1072 Clouds 3 1021 83 10000 1 0 23:46 13.03.2020
1073 Clouds 3 1021 83 10000 1 0 23:27 13.03.2020
1074 Clouds 3 1021 69 10000 1.5 170 22:49 13.03.2020
1075 Clouds 3 1021 69 10000 1.5 170 22:26 13.03.2020
1076 Clouds 4 1021 76 10000 1.5 280 21:44 13.03.2020
1077 Clouds 4 1020 76 10000 2.6 250 21:21 13.03.2020
1078 Clouds 5 1020 76 10000 2.6 250 20:58 13.03.2020
1079 Clouds 5 1020 76 10000 3.1 240 20:39 13.03.2020
1080 Clouds 5 1020 76 10000 3.1 240 20:39 13.03.2020
1081 Clouds 5 1020 72 10000 3.1 250 20:20 13.03.2020
1082 Clouds 6 1020 72 10000 2.6 250 19:47 13.03.2020
1083 Clouds 6 1020 72 10000 2.6 250 19:47 13.03.2020
1084 Clouds 6 1020 72 10000 2.6 250 19:28 13.03.2020
1085 Clouds 7 1019 72 10000 4.1 260 18:47 13.03.2020
1086 Clouds 7 1019 72 10000 4.1 260 18:29 13.03.2020
1087 Clouds 8 1019 72 10000 5.7 260 17:57 13.03.2020
1088 Clouds 8 1019 72 10000 5.7 260 17:38 13.03.2020
1089 Clouds 8 1019 49 10000 7.7 260 17:19 13.03.2020
1090 Clouds 9 1019 49 10000 8.2 270 16:42 13.03.2020
1091 Clouds 9 1019 49 10000 8.2 270 16:24 13.03.2020
1092 Clouds 9 1019 59 10000 6.7 270 15:56 13.03.2020
1093 Clouds 9 1019 59 10000 6.7 280 15:37 13.03.2020
1094 Clouds 8 1019 49 10000 7.2 260 15:19 13.03.2020
1095 Clouds 8 1019 59 10000 7.7 270 14:41 13.03.2020
1096 Clouds 8 1019 59 10000 7.7 270 14:41 13.03.2020
1097 Clouds 8 1019 52 10000 9.3 260 14:22 13.03.2020
1098 Clouds 8 1019 52 10000 9.3 260 14:22 13.03.2020
1099 Clouds 8 1020 52 10000 9.8 260 13:56 13.03.2020
1100 Rain 8 1020 52 10000 9.8 260 13:38 13.03.2020
1101 Clouds 8 1019 56 10000 7.7 250 13:19 13.03.2020
1102 Clouds 7 1020 56 10000 9.3 260 12:40 13.03.2020
1103 Clouds 7 1019 56 10000 8.2 260 12:22 13.03.2020
1104 Clouds 7 1019 60 10000 8.7 250 11:57 13.03.2020
1105 Clouds 7 1019 60 10000 8.7 250 11:39 13.03.2020
1106 Clouds 7 1019 56 10000 8.7 250 11:21 13.03.2020
1107 Clouds 6 1019 60 10000 8.7 270 10:47 13.03.2020
1108 Clouds 6 1019 66 10000 8.2 270 10:27 13.03.2020
1109 Clouds 6 1019 66 10000 8.2 270 09:57 13.03.2020
1110 Clouds 6 1019 66 10000 8.2 270 09:57 13.03.2020
1111 Clouds 6 1018 66 10000 7.7 260 09:39 13.03.2020
1112 Clouds 6 1018 60 10000 6.2 260 09:20 13.03.2020
1113 Clouds 5 1018 60 10000 5.7 240 08:45 13.03.2020
1114 Clouds 5 1017 79 10000 3.6 240 08:22 13.03.2020
1115 Clouds 4 1017 79 10000 5.1 250 07:49 13.03.2020
1116 Clouds 4 1016 79 10000 5.7 250 07:28 13.03.2020
1117 Clouds 5 1016 79 10000 5.7 250 06:47 13.03.2020
1118 Clouds 5 1016 70 10000 6.2 250 06:26 13.03.2020
1119 Clouds 5 1016 75 10000 5.7 250 05:49 13.03.2020
1120 Clouds 5 1015 75 10000 7.7 250 05:20 13.03.2020
1121 Clouds 6 1015 75 10000 6.2 250 04:37 13.03.2020
1122 Clouds 6 1015 81 10000 3.1 230 02:58 13.03.2020
1123 Rain 6 1015 75 10000 3.1 220 01:43 13.03.2020
1124 Clouds 6 1015 75 10000 3.6 230 01:18 13.03.2020
1125 Rain 6 1015 70 10000 4.6 240 00:46 13.03.2020
1126 Clouds 6 1014 75 10000 3.6 240 00:20 13.03.2020
1127 Clouds 7 1014 75 10000 4.6 240 23:46 12.03.2020
1128 Clouds 7 1014 75 10000 6.2 250 23:26 12.03.2020
1129 Rain 7 1014 81 10000 7.2 270 22:55 12.03.2020
1130 Rain 7 1014 81 10000 7.2 270 22:37 12.03.2020
1131 Rain 7 1014 81 10000 7.2 270 22:37 12.03.2020
1132 Rain 7 1014 87 10000 7.7 280 22:18 12.03.2020
1133 Rain 8 1014 81 10000 5.7 260 21:42 12.03.2020
1134 Rain 8 1014 81 10000 5.7 260 21:24 12.03.2020
1135 Clouds 8 1013 81 10000 3.6 220 20:55 12.03.2020
1136 Clouds 8 1013 81 10000 3.6 220 20:36 12.03.2020
1137 Clouds 8 1013 81 10000 2.6 230 20:18 12.03.2020
1138 Rain 8 1013 81 10000 3.6 230 19:39 12.03.2020
1139 Rain 8 1013 81 10000 3.6 240 19:19 12.03.2020
1140 Rain 8 1013 81 10000 3.6 240 19:19 12.03.2020
1141 Rain 8 1013 87 10000 4.6 260 18:42 12.03.2020
1142 Rain 9 1013 87 10000 4.1 280 18:23 12.03.2020
1143 Rain 9 1013 87 10000 6.2 280 17:56 12.03.2020
1144 Rain 9 1013 87 10000 6.2 280 17:37 12.03.2020
1145 Rain 9 1013 87 8000 7.7 290 17:18 12.03.2020
1146 Rain 10 1012 81 10000 6.7 300 16:43 12.03.2020
1147 Clouds 10 1012 87 10000 7.2 260 16:23 12.03.2020
1148 Clouds 11 1012 87 10000 7.2 260 15:59 12.03.2020
1149 Rain 11 1012 81 10000 9.3 270 15:39 12.03.2020
1150 Rain 11 1012 81 10000 7.2 290 15:21 12.03.2020
1151 Rain 13 1012 67 10000 10.3 260 14:38 12.03.2020
1152 Rain 14 1012 58 10000 10.3 250 14:19 12.03.2020
1153 Rain 14 1012 62 10000 11.3 240 13:40 12.03.2020
1154 Rain 14 1012 62 10000 9.8 240 13:21 12.03.2020
1155 Rain 14 1012 62 10000 9.8 240 13:21 12.03.2020
1156 Rain 14 1012 62 10000 8.2 250 12:55 12.03.2020
1157 Rain 14 1012 62 10000 8.2 250 12:37 12.03.2020
1158 Rain 14 1012 58 10000 9.3 250 12:18 12.03.2020
1159 Clouds 14 1012 58 10000 10.3 240 11:56 12.03.2020
1160 Clouds 14 1012 58 10000 10.3 240 11:37 12.03.2020
1161 Clouds 13 1012 58 10000 8.7 240 11:18 12.03.2020
1162 Clouds 13 1012 58 10000 8.2 250 10:44 12.03.2020
1163 Clouds 13 1012 62 10000 10.3 240 10:26 12.03.2020
1164 Clouds 13 1013 62 10000 10.3 240 09:59 12.03.2020
1165 Clouds 13 1013 62 10000 10.3 240 09:41 12.03.2020
1166 Clouds 13 1012 62 10000 7.2 230 09:23 12.03.2020
1167 Clouds 12 1012 66 10000 6.7 230 08:39 12.03.2020
1168 Clouds 11 1012 71 10000 4.1 220 08:19 12.03.2020
1169 Clouds 11 1012 71 10000 4.1 180 07:48 12.03.2020
1170 Clouds 11 1012 71 10000 4.6 200 07:22 12.03.2020
1171 Clouds 10 1012 76 10000 4.1 180 06:33 12.03.2020
1172 Clouds 10 1012 71 10000 4.6 170 05:35 12.03.2020
1173 Clouds 10 1013 81 10000 3.1 160 03:45 12.03.2020
1174 Clouds 10 1014 71 10000 6.2 200 02:19 12.03.2020
1175 Clouds 11 1014 71 10000 4.6 190 01:24 12.03.2020
1176 Clouds 11 1014 71 10000 3.1 200 00:42 12.03.2020
1177 Clouds 12 1015 66 10000 3.1 220 23:59 11.03.2020
1178 Clouds 12 1015 66 10000 3.1 220 23:37 11.03.2020
1179 Clouds 12 1015 62 10000 3.1 220 23:18 11.03.2020
1180 Clouds 12 1016 66 10000 4.6 220 22:41 11.03.2020
1181 Clouds 12 1016 66 10000 4.6 220 22:23 11.03.2020
1182 Clouds 12 1016 66 10000 5.1 230 21:58 11.03.2020
1183 Clouds 12 1016 66 10000 5.1 240 21:39 11.03.2020
1184 Clouds 12 1016 66 10000 5.1 220 21:21 11.03.2020
1185 Clouds 12 1016 66 10000 5.1 220 20:57 11.03.2020
1186 Clouds 12 1016 66 10000 5.1 220 20:57 11.03.2020
1187 Clouds 12 1016 66 10000 5.1 240 20:37 11.03.2020
1188 Clouds 12 1016 66 10000 6.2 240 20:19 11.03.2020
1189 Clouds 12 1016 71 10000 4.6 240 19:42 11.03.2020
1190 Clouds 12 1016 71 10000 4.6 250 19:24 11.03.2020
1191 Clouds 12 1016 71 10000 5.7 250 18:57 11.03.2020
1192 Clouds 12 1016 71 10000 5.7 250 18:38 11.03.2020
1193 Clouds 12 1016 71 10000 6.2 260 18:18 11.03.2020
1194 Clouds 12 1017 87 10000 6.2 240 17:55 11.03.2020
1195 Clouds 13 1016 71 10000 5.7 260 17:37 11.03.2020
1196 Clouds 12 1016 71 10000 6.2 260 17:18 11.03.2020
1197 Rain 13 1016 76 10000 8.2 260 16:43 11.03.2020
1198 Drizzle 13 1016 76 10000 9.8 240 16:19 11.03.2020
1199 Rain 13 1015 67 10000 8.7 250 15:43 11.03.2020
1200 Clouds 13 1015 67 10000 6.7 250 15:23 11.03.2020
1201 Clouds 13 1015 67 10000 6.7 250 14:54 11.03.2020
1202 Clouds 13 1015 67 10000 6.2 250 14:36 11.03.2020
1203 Clouds 13 1015 71 10000 7.7 250 14:18 11.03.2020
1204 Clouds 13 1015 71 10000 8.2 250 13:41 11.03.2020
1205 Clouds 13 1015 71 10000 8.2 250 13:22 11.03.2020
1206 Clouds 13 1015 71 10000 9.8 250 12:56 11.03.2020
1207 Rain 13 1015 71 10000 9.3 250 12:38 11.03.2020
1208 Clouds 13 1015 71 10000 8.7 250 12:19 11.03.2020
1209 Rain 13 1015 71 10000 9.8 250 11:41 11.03.2020
1210 Clouds 12 1015 71 10000 9.8 250 11:20 11.03.2020
1211 Rain 12 1014 71 10000 11.3 250 10:47 11.03.2020
1212 Rain 12 1014 71 10000 9.8 250 10:21 11.03.2020
1213 Clouds 12 1014 71 10000 10.8 260 09:59 11.03.2020
1214 Clouds 12 1014 71 10000 10.8 260 09:40 11.03.2020
1215 Clouds 12 1014 76 10000 8.2 260 09:21 11.03.2020
1216 Clouds 12 1013 76 10000 9.3 250 08:43 11.03.2020
1217 Clouds 12 1013 76 10000 8.7 250 08:24 11.03.2020
1218 Clouds 11 1013 76 10000 8.7 250 07:47 11.03.2020
1219 Drizzle 11 1014 100 10000 9.8 250 07:20 11.03.2020
1220 Rain 11 1012 76 10000 8.7 250 06:50 11.03.2020
1221 Rain 11 1012 76 10000 9.3 250 06:30 11.03.2020
1222 Clouds 11 1012 81 10000 7.7 250 05:32 11.03.2020
1223 Drizzle 10 1011 93 10000 5.7 230 02:45 11.03.2020
1224 Drizzle 10 1011 93 10000 6.7 230 01:52 11.03.2020
1225 Drizzle 10 1011 87 8000 7.2 230 01:23 11.03.2020
1226 Drizzle 10 1011 87 10000 7.2 220 00:32 11.03.2020
1227 Drizzle 9 1012 100 10000 8.2 220 23:49 10.03.2020
1228 Clouds 9 1011 93 10000 6.2 230 23:26 10.03.2020
1229 Clouds 9 1011 93 10000 6.2 220 22:56 10.03.2020
1230 Clouds 9 1011 93 10000 6.2 220 22:37 10.03.2020
1231 Drizzle 9 1011 93 10000 7.2 230 22:19 10.03.2020
1232 Drizzle 9 1011 93 10000 7.2 230 21:56 10.03.2020
1233 Rain 9 1011 87 10000 5.1 220 21:37 10.03.2020
1234 Drizzle 8 1011 87 10000 4.6 220 21:18 10.03.2020
1235 Clouds 8 1011 93 10000 4.6 220 20:42 10.03.2020
1236 Rain 7 1011 93 10000 4.1 220 20:19 10.03.2020
1237 Rain 7 1010 100 10000 3.1 200 19:58 10.03.2020
1238 Rain 7 1010 100 10000 3.1 200 19:40 10.03.2020
1239 Rain 7 1010 93 7000 3.1 180 19:21 10.03.2020
1240 Rain 7 1010 93 6000 3.1 180 18:55 10.03.2020
1241 Rain 7 1010 93 6000 3.1 180 18:36 10.03.2020
1242 Rain 7 1010 93 6000 3.6 180 18:18 10.03.2020
1243 Rain 7 1010 93 10000 3.6 180 17:41 10.03.2020
1244 Rain 6 1010 93 10000 3.6 180 17:22 10.03.2020
1245 Rain 6 1010 100 10000 3.6 180 16:40 10.03.2020
1246 Rain 6 1011 93 10000 3.1 170 16:20 10.03.2020
1247 Rain 6 1011 93 10000 3.1 170 15:58 10.03.2020
1248 Rain 6 1011 93 10000 3.1 180 15:40 10.03.2020
1249 Rain 6 1011 93 10000 3.6 180 15:19 10.03.2020
1250 Rain 6 1011 93 10000 3.6 180 14:57 10.03.2020
1251 Rain 5 1011 93 10000 4.1 190 14:39 10.03.2020
1252 Rain 5 1011 93 10000 4.6 180 14:18 10.03.2020
1253 Rain 5 1011 86 10000 4.6 180 13:42 10.03.2020
1254 Rain 5 1011 86 10000 4.6 180 13:42 10.03.2020
1255 Rain 4 1012 93 10000 5.1 180 13:24 10.03.2020
1256 Rain 4 1012 86 10000 4.6 190 12:42 10.03.2020
1257 Rain 4 1012 86 10000 5.1 190 12:21 10.03.2020
1258 Rain 4 1012 86 10000 5.1 190 12:21 10.03.2020
1259 Rain 4 1012 86 10000 6.7 190 11:59 10.03.2020
1260 Rain 4 1012 86 10000 6.7 190 11:41 10.03.2020
1261 -273 0 0 0 0 0 11:23 10.03.2020
1262 Rain 4 1013 86 10000 7.7 180 10:54 10.03.2020
1263 Rain 4 1013 86 10000 7.7 180 10:36 10.03.2020
1264 Rain 4 1013 86 10000 6.7 170 10:18 10.03.2020
1265 Rain 4 1013 86 10000 5.7 170 09:44 10.03.2020
1266 Rain 4 1013 86 10000 5.7 170 09:19 10.03.2020
1267 Rain 4 1014 75 10000 5.1 190 08:53 10.03.2020
1268 Rain 4 1014 75 10000 5.1 190 08:34 10.03.2020
1269 Rain 3 1014 86 10000 3.6 170 07:53 10.03.2020
1270 Rain 3 1014 86 10000 3.6 170 07:34 10.03.2020
1271 Clouds 3 1014 86 10000 5.1 170 06:50 10.03.2020
1272 Clouds 3 1015 86 10000 4.6 160 06:31 10.03.2020
1273 Clouds 3 1015 86 10000 3.6 170 05:42 10.03.2020
1274 Clouds 3 1016 86 10000 2.6 170 04:56 10.03.2020
1275 Clouds 2 1016 93 10000 3.6 170 04:24 10.03.2020
1276 Clouds 2 1017 93 10000 2.6 170 02:44 10.03.2020
1277 Clouds 2 1017 88 10000 2.6 170 01:30 10.03.2020
1278 Clouds 3 1017 86 10000 2.6 190 00:47 10.03.2020
1279 Clouds 3 1017 86 10000 2.6 190 00:27 10.03.2020
1280 Clouds 3 1018 80 10000 2.6 220 23:41 09.03.2020
1281 Clouds 3 1018 80 10000 2.6 220 23:22 09.03.2020
1282 Clouds 4 1017 80 10000 2.6 220 22:55 09.03.2020
1283 Clouds 4 1017 80 10000 2.6 220 22:36 09.03.2020
1284 Clouds 4 1017 80 10000 3.6 240 22:18 09.03.2020
1285 Clouds 4 1017 80 10000 3.6 240 21:41 09.03.2020
1286 Clouds 4 1017 80 10000 3.1 240 21:21 09.03.2020
1287 Clouds 5 1017 75 10000 3.6 230 20:58 09.03.2020
1288 Clouds 5 1017 75 10000 3.6 230 20:58 09.03.2020
1289 Clouds 5 1017 75 10000 3.6 230 20:39 09.03.2020
1290 Clouds 5 1017 75 10000 3.6 230 20:20 09.03.2020
1291 Clouds 5 1017 75 10000 3.6 230 20:20 09.03.2020
1292 Clouds 6 1017 75 10000 2.6 240 19:45 09.03.2020
1293 Clouds 6 1016 70 10000 3.1 240 19:26 09.03.2020
1294 Clouds 6 1016 70 10000 3.1 240 18:58 09.03.2020
1295 Clouds 7 1016 65 10000 4.6 250 18:39 09.03.2020
1296 Clouds 7 1015 70 10000 5.1 250 18:20 09.03.2020
1297 Clouds 8 1015 61 10000 5.1 260 17:58 09.03.2020
1298 Clouds 8 1015 61 10000 5.1 260 17:38 09.03.2020
1299 Clouds 9 1015 61 10000 5.1 260 17:38 09.03.2020
1300 Clouds 9 1015 66 10000 5.1 260 17:20 09.03.2020
1301 Clouds 9 1015 87 10000 6.2 280 16:58 09.03.2020
1302 Clouds 9 1015 87 10000 6.2 280 16:40 09.03.2020
1303 Clouds 10 1014 57 10000 6.2 270 16:22 09.03.2020
1304 Clouds 10 1014 57 10000 6.2 270 15:58 09.03.2020
1305 Clouds 9 1014 57 10000 6.7 260 15:38 09.03.2020
1306 Clouds 10 1014 57 10000 6.7 260 15:20 09.03.2020
1307 Clouds 9 1014 66 10000 4.6 270 14:55 09.03.2020
1308 Clouds 9 1014 66 10000 4.6 270 14:37 09.03.2020
1309 Clouds 9 1014 70 10000 5.7 280 14:18 09.03.2020
1310 Rain 8 1014 75 10000 6.2 290 13:55 09.03.2020
1311 Rain 8 1014 75 10000 6.7 300 13:36 09.03.2020
1312 Rain 8 1014 75 10000 6.7 300 13:18 09.03.2020
1313 Clouds 8 1014 81 10000 4.1 270 12:41 09.03.2020
1314 Clouds 8 1014 81 10000 5.7 290 12:21 09.03.2020
1315 Clouds 7 1013 81 10000 6.7 280 11:41 09.03.2020
1316 Drizzle 7 1013 87 10000 5.1 270 11:21 09.03.2020
1317 Drizzle 7 1013 93 10000 4.1 260 10:58 09.03.2020
1318 Drizzle 7 1013 93 10000 3.6 280 10:40 09.03.2020
1319 Drizzle 6 1013 93 10000 3.6 280 10:20 09.03.2020
1320 Drizzle 6 1012 93 8000 4.1 270 09:44 09.03.2020
1321 Rain 6 1013 100 10000 5.1 290 09:24 09.03.2020
1322 Rain 6 1013 100 10000 5.1 290 09:24 09.03.2020
1323 Drizzle 5 1012 100 8000 3.1 270 08:59 09.03.2020
1324 Drizzle 5 1012 100 8000 3.1 270 08:41 09.03.2020
1325 Clouds 5 1011 93 10000 2.1 160 08:23 09.03.2020
1326 Clouds 5 1011 93 10000 1.5 150 07:40 09.03.2020
1327 Clouds 5 1011 93 10000 1.5 150 07:21 09.03.2020
1328 Clouds 4 1011 100 10000 2.6 160 06:43 09.03.2020
1329 Clouds 4 1011 93 10000 2.6 140 06:23 09.03.2020
1330 Rain 4 1011 100 10000 3.1 190 05:47 09.03.2020
1331 Rain 4 1011 93 10000 3.6 130 05:18 09.03.2020
1332 Rain 4 1011 93 10000 2.6 140 04:40 09.03.2020
1333 Rain 4 1011 86 10000 3.6 120 04:21 09.03.2020
1334 Rain 4 1012 75 10000 2.1 120 02:58 09.03.2020
1335 Clouds 4 1012 75 10000 2.6 120 00:46 09.03.2020
1336 Clouds 4 1012 75 10000 2.6 120 00:28 09.03.2020
1337 Clouds 4 1013 75 10000 3.1 120 23:59 08.03.2020
1338 Clouds 4 1013 75 10000 3.1 120 23:41 08.03.2020
1339 Clouds 4 1013 73 10000 3.1 120 23:21 08.03.2020
1340 Clouds 5 1013 75 10000 3.1 110 22:42 08.03.2020
1341 Clouds 5 1013 75 10000 3.1 110 22:22 08.03.2020
1342 Clouds 5 1014 75 10000 2.6 110 21:59 08.03.2020
1343 Clouds 5 1014 75 10000 2.6 110 21:59 08.03.2020
1344 Clouds 5 1014 75 10000 2.6 110 21:41 08.03.2020
1345 Clouds 5 1014 75 10000 3.1 110 21:23 08.03.2020
1346 Clouds 6 1014 70 10000 3.6 130 20:58 08.03.2020
1347 Clouds 6 1014 73 10000 3.1 150 20:38 08.03.2020
1348 Clouds 6 1014 71 10000 3.1 150 20:20 08.03.2020
1349 Clouds 7 1015 72 10000 3.6 170 19:40 08.03.2020
1350 Clouds 7 1015 72 10000 4.1 170 19:20 08.03.2020
1351 Clouds 7 1015 72 10000 4.1 170 18:57 08.03.2020
1352 Clouds 7 1015 72 10000 4.6 170 18:38 08.03.2020
1353 Clouds 8 1015 72 10000 4.6 170 18:20 08.03.2020
1354 Clouds 9 1016 53 10000 5.1 170 17:41 08.03.2020
1355 Clouds 9 1016 53 10000 5.1 170 17:22 08.03.2020
1356 Clouds 9 1016 53 10000 5.1 170 16:59 08.03.2020
1357 Clouds 9 1016 53 10000 5.1 170 16:40 08.03.2020
1358 Clouds 10 1016 53 10000 5.1 170 16:22 08.03.2020
1359 Clouds 10 1017 53 10000 4.6 190 15:41 08.03.2020
1360 Clouds 9 1017 53 10000 4.6 190 15:22 08.03.2020
1361 Clouds 9 1017 53 10000 4.6 190 14:59 08.03.2020
1362 Clouds 9 1018 56 10000 4.1 180 14:38 08.03.2020
1363 Clouds 9 1018 54 10000 4.1 180 14:19 08.03.2020
1364 Clouds 9 1018 49 10000 5.1 200 13:42 08.03.2020
1365 Clouds 8 1018 49 10000 5.1 200 13:21 08.03.2020
1366 Clouds 8 1020 57 10000 3.6 200 12:57 08.03.2020
1367 Clouds 8 1020 57 10000 3.6 200 12:37 08.03.2020
1368 Clouds 7 1020 57 10000 4.1 200 12:18 08.03.2020
1369 Clouds 6 1020 57 10000 3.1 200 11:42 08.03.2020
1370 Clouds 6 1020 67 10000 3.1 200 11:23 08.03.2020
1371 Clouds 5 1020 65 10000 3.1 190 10:57 08.03.2020
1372 Clouds 5 1020 65 10000 3.1 190 10:39 08.03.2020
1373 Clouds 5 1020 65 10000 3.1 190 10:21 08.03.2020
1374 Clouds 4 1021 67 10000 2.6 150 09:39 08.03.2020
1375 Clouds 3 1021 67 10000 2.6 150 09:21 08.03.2020
1376 Clouds 2 1021 80 10000 2.1 140 08:46 08.03.2020
1377 Clouds 2 1020 80 10000 3.1 130 08:21 08.03.2020
1378 Clouds 1 1020 86 10000 2.6 120 07:49 08.03.2020
1379 Clouds 1 1020 86 10000 2.1 130 07:28 08.03.2020
1380 Clouds 1 1021 86 10000 2.1 120 06:45 08.03.2020
1381 Clouds 0 1021 86 10000 2.1 120 06:27 08.03.2020
1382 Clouds 0 1021 86 10000 2.6 110 05:43 08.03.2020
1383 Clear 1 1021 88 10000 2.1 130 03:52 08.03.2020
1384 Clear 1 1022 86 10000 2.1 140 02:59 08.03.2020
1385 Clouds 1 1022 86 10000 1.5 160 01:38 08.03.2020
1386 Clouds 2 1022 87 10000 1.5 170 01:19 08.03.2020
1387 Clouds 2 1022 87 10000 1.5 180 00:32 08.03.2020
1388 Clouds 3 1022 87 10000 1.5 180 23:58 07.03.2020
1389 Clouds 3 1022 87 10000 2.1 190 23:37 07.03.2020
1390 Clouds 3 1022 86 10000 2.1 190 23:18 07.03.2020
1391 Clouds 3 1022 86 10000 2.6 220 22:38 07.03.2020
1392 Clouds 3 1022 86 10000 2.6 220 22:19 07.03.2020
1393 Clouds 3 1022 86 10000 2.6 220 22:19 07.03.2020
1394 Clouds 3 1022 86 10000 2.1 220 21:45 07.03.2020
1395 Clouds 3 1022 86 10000 2.6 230 21:23 07.03.2020
1396 Clouds 3 1022 86 10000 2.6 230 20:41 07.03.2020
1397 Rain 3 1021 78 10000 1.5 230 20:22 07.03.2020
1398 Rain 4 1021 78 10000 1.5 240 19:54 07.03.2020
1399 Rain 4 1021 78 10000 2.1 250 19:36 07.03.2020
1400 Rain 4 1021 78 10000 2.1 250 19:18 07.03.2020
1401 Clouds 5 1020 78 10000 2.6 270 18:39 07.03.2020
1402 Clouds 5 1020 78 10000 2.6 270 18:21 07.03.2020
1403 Clouds 5 1020 78 10000 2.6 290 17:42 07.03.2020
1404 Clouds 5 1019 62 10000 3.6 300 17:20 07.03.2020
1405 Clouds 5 1019 62 10000 4.1 300 16:57 07.03.2020
1406 Clouds 5 1019 62 10000 4.1 300 16:39 07.03.2020
1407 Clouds 5 1019 65 10000 4.6 290 16:21 07.03.2020
1408 Clouds 5 1019 65 10000 4.6 290 16:21 07.03.2020
1409 Clouds 5 1019 62 10000 4.6 290 15:55 07.03.2020
1410 Clouds 5 1018 75 10000 4.1 280 15:37 07.03.2020
1411 Clouds 5 1018 75 10000 4.1 280 15:37 07.03.2020
1412 Clouds 5 1018 75 10000 4.1 280 15:19 07.03.2020
1413 Rain 5 1018 62 10000 6.2 290 14:44 07.03.2020
1414 Rain 5 1018 75 10000 4.1 280 14:23 07.03.2020
1415 Drizzle 4 1018 86 10000 5.7 290 13:55 07.03.2020
1416 Drizzle 5 1017 75 10000 5.7 280 13:37 07.03.2020
1417 Drizzle 5 1017 75 10000 5.7 280 13:18 07.03.2020
1418 Rain 4 1017 80 10000 6.7 290 12:39 07.03.2020
1419 Rain 4 1017 75 10000 6.7 280 12:19 07.03.2020
1420 Clouds 4 1017 80 10000 6.7 290 11:56 07.03.2020
1421 Clouds 4 1017 80 10000 6.7 290 11:37 07.03.2020
1422 Clouds 4 1016 80 10000 6.7 290 11:19 07.03.2020
1423 Rain 3 1015 86 10000 6.2 280 10:39 07.03.2020
1424 Rain 3 1015 86 10000 6.2 280 10:20 07.03.2020
1425 Rain 3 1014 93 10000 6.2 280 09:42 07.03.2020
1426 Rain 3 1014 93 10000 6.2 280 09:20 07.03.2020
1427 Rain 3 1014 93 10000 6.2 280 09:20 07.03.2020
1428 Rain 3 1014 86 10000 6.2 280 08:59 07.03.2020
1429 Rain 3 1014 86 10000 6.2 280 08:41 07.03.2020
1430 Rain 3 1014 100 10000 6.2 280 08:20 07.03.2020
1431 Rain 3 1014 100 10000 6.2 280 08:20 07.03.2020
1432 Drizzle 3 1012 86 10000 6.7 270 07:48 07.03.2020
1433 Rain 3 1012 86 10000 6.7 270 07:22 07.03.2020
1434 Snow 3 1010 1 0 6.24 285 06:54 07.03.2020
1435 Snow 3 998 74 0 3.58 305 06:29 07.03.2020
1436 Snow 3 1009 1 0 0.45 332 06:29 07.03.2020
1437 Clouds 3 1009 80 10000 5.7 270 05:46 07.03.2020
1438 Rain 4 1009 80 10000 5.7 260 04:34 07.03.2020
1439 Rain 4 1007 86 10000 4.6 280 02:46 07.03.2020
1440 Rain 4 1008 100 10000 7.2 270 02:23 07.03.2020
1441 Rain 4 1007 80 10000 5.7 270 01:23 07.03.2020
1442 Clouds 4 1006 75 10000 7.2 270 00:37 07.03.2020
1443 Clouds 4 1006 75 10000 7.2 270 00:18 07.03.2020
1444 Clouds 4 1005 75 10000 7.7 260 23:41 06.03.2020
1445 Clouds 4 1005 75 10000 7.7 260 23:23 06.03.2020
1446 Clouds 4 1004 80 10000 7.2 260 22:46 06.03.2020
1447 Clouds 4 1004 75 10000 6.7 260 22:21 06.03.2020
1448 Clouds 4 1004 100 10000 6.2 260 21:50 06.03.2020
1449 Clouds 4 1003 86 10000 5.7 260 21:21 06.03.2020
1450 Clouds 4 1003 86 10000 6.7 260 20:56 06.03.2020
1451 Clouds 4 1003 100 10000 6.2 260 20:36 06.03.2020
1452 Clouds 4 1003 100 10000 6.2 260 20:36 06.03.2020
1453 Clouds 4 1003 100 10000 6.2 260 20:18 06.03.2020
1454 Rain 4 1001 86 10000 6.2 270 19:42 06.03.2020
1455 Rain 4 1001 86 10000 6.2 270 19:23 06.03.2020
1456 Rain 4 1000 86 10000 7.2 280 18:42 06.03.2020
1457 Rain 4 1001 100 10000 5.7 300 18:21 06.03.2020
1458 Rain 4 999 80 10000 6.2 240 17:57 06.03.2020
1459 Rain 4 999 80 10000 6.2 240 17:39 06.03.2020
1460 Rain 4 999 80 10000 6.2 240 17:39 06.03.2020
1461 Rain 5 998 86 10000 6.2 240 17:20 06.03.2020
1462 Rain 5 997 75 10000 8.2 260 16:56 06.03.2020
1463 Rain 5 997 75 10000 8.2 260 16:37 06.03.2020
1464 Rain 5 997 75 10000 6.7 250 16:18 06.03.2020
1465 Rain 5 996 75 10000 8.2 250 15:42 06.03.2020
1466 Rain 5 996 75 10000 8.2 250 15:23 06.03.2020
1467 Rain 6 996 75 10000 6.7 250 14:41 06.03.2020
1468 Rain 6 996 75 10000 6.7 240 14:23 06.03.2020
1469 Rain 6 996 75 10000 6.7 240 14:23 06.03.2020
1470 Drizzle 6 996 93 10000 9.3 250 13:57 06.03.2020
1471 Rain 6 995 75 10000 7.2 240 13:39 06.03.2020
1472 Rain 6 995 75 10000 7.7 240 13:19 06.03.2020
1473 Rain 6 995 81 10000 7.7 240 12:54 06.03.2020
1474 Rain 6 994 75 10000 8.2 230 12:36 06.03.2020
1475 Rain 6 994 75 10000 8.2 230 12:18 06.03.2020
1476 Rain 6 994 70 10000 7.7 230 11:42 06.03.2020
1477 Rain 6 993 70 10000 9.8 230 11:20 06.03.2020
1478 Rain 7 993 65 10000 8.2 230 10:56 06.03.2020
1479 Clouds 6 992 70 10000 7.2 230 10:36 06.03.2020
1480 Clouds 6 992 70 10000 7.2 230 10:18 06.03.2020
1481 Clouds 6 992 70 10000 8.2 230 09:41 06.03.2020
1482 Clouds 6 992 70 10000 7.7 230 09:23 06.03.2020
1483 Clouds 6 992 70 10000 6.7 220 08:55 06.03.2020
1484 Clouds 6 992 93 10000 8.2 230 08:36 06.03.2020
1485 Clouds 6 992 93 10000 8.2 230 08:18 06.03.2020
1486 Clouds 6 991 93 10000 7.7 220 07:40 06.03.2020
1487 Rain 6 991 100 10000 7.2 220 07:20 06.03.2020
1488 Drizzle 6 991 93 10000 6.7 210 06:42 06.03.2020
1489 Rain 6 990 87 10000 3.1 260 05:59 06.03.2020
1490 Rain 6 990 81 10000 5.7 190 05:36 06.03.2020
1491 Clouds 6 990 81 10000 4.6 180 04:59 06.03.2020
1492 Rain 6 989 87 10000 5.1 170 03:58 06.03.2020
1493 Clouds 6 990 87 10000 4.1 160 01:43 06.03.2020
1494 Rain 6 990 87 10000 4.1 160 01:25 06.03.2020
1495 Rain 6 991 93 9000 3.6 140 00:48 06.03.2020
1496 Rain 6 991 93 9000 3.1 140 00:20 06.03.2020
1497 Rain 6 991 93 9000 3.6 140 23:43 05.03.2020
1498 Rain 6 991 100 10000 3.6 180 23:24 05.03.2020
1499 Rain 6 991 93 10000 5.7 140 22:55 05.03.2020
1500 Rain 5 991 100 10000 4.6 170 22:36 05.03.2020
1501 Rain 5 991 100 10000 4.6 170 22:18 05.03.2020
1502 Rain 5 992 93 9000 5.7 130 21:54 05.03.2020
1503 Rain 5 992 93 10000 3.6 140 21:36 05.03.2020
1504 Rain 5 992 93 10000 3.6 140 21:18 05.03.2020
1505 Rain 5 992 93 10000 4.6 140 20:42 05.03.2020
1506 Rain 5 992 86 10000 7.2 110 20:20 05.03.2020
1507 Rain 5 992 86 10000 8.2 110 19:59 05.03.2020
1508 Rain 5 992 86 10000 8.2 110 19:39 05.03.2020
1509 Rain 4 992 100 10000 5.7 140 19:21 05.03.2020
1510 Rain 5 992 100 10000 4.6 130 18:58 05.03.2020
1511 Rain 5 992 100 10000 5.7 120 18:37 05.03.2020
1512 Rain 5 992 100 10000 5.7 120 18:18 05.03.2020
1513 Rain 5 993 100 10000 5.1 140 17:55 05.03.2020
1514 Rain 5 995 86 10000 6.2 120 17:37 05.03.2020
1515 Rain 5 995 86 10000 6.2 120 17:18 05.03.2020
1516 Rain 6 996 86 10000 4.6 120 16:41 05.03.2020
1517 Rain 6 996 81 10000 5.7 130 16:22 05.03.2020
1518 Rain 7 996 70 10000 6.7 120 15:54 05.03.2020
1519 Rain 7 997 65 10000 6.2 130 15:36 05.03.2020
1520 Rain 7 997 65 10000 6.2 130 15:18 05.03.2020
1521 Clouds 7 997 61 10000 6.7 140 14:41 05.03.2020
1522 Clouds 7 998 61 10000 6.7 130 14:22 05.03.2020
1523 Clouds 7 999 65 10000 7.7 120 13:57 05.03.2020
1524 Clouds 7 999 65 10000 7.7 120 13:39 05.03.2020
1525 Clouds 7 1000 65 10000 5.7 120 13:20 05.03.2020
1526 Clouds 6 1000 65 10000 5.1 130 12:43 05.03.2020
1527 Clouds 6 1001 70 10000 5.1 120 12:21 05.03.2020
1528 Clouds 6 1002 61 10000 6.2 140 11:58 05.03.2020
1529 Clouds 6 1002 61 10000 6.2 140 11:39 05.03.2020
1530 Clouds 5 1001 93 10000 5.1 150 11:20 05.03.2020
1531 Clouds 5 1002 88 10000 5.7 120 10:58 05.03.2020
1532 Clouds 5 1002 88 10000 5.7 120 10:58 05.03.2020
1533 Clouds 4 1002 88 10000 5.7 120 10:40 05.03.2020
1534 Clouds 4 1003 69 10000 5.1 130 10:21 05.03.2020
1535 Clouds 3 1004 69 10000 5.1 130 09:59 05.03.2020
1536 Clouds 3 1004 74 10000 5.1 120 09:40 05.03.2020
1537 Clouds 3 1004 74 10000 5.1 120 09:19 05.03.2020
1538 Clouds 2 1005 80 10000 5.1 120 08:42 05.03.2020
1539 Clouds 1 1005 86 10000 4.1 120 08:22 05.03.2020
1540 Clouds 1 1005 73 10000 3.6 120 07:44 05.03.2020
1541 Clouds 0 1006 73 10000 2.6 140 07:21 05.03.2020
1542 Clouds 0 1006 73 10000 2.6 140 06:45 05.03.2020
1543 Clouds 0 1006 73 10000 2.6 140 06:45 05.03.2020
1544 Clouds 0 1006 73 10000 3.1 100 06:20 05.03.2020
1545 Clouds 0 1007 92 10000 2.6 100 05:36 05.03.2020
1546 Clouds -1 1008 92 10000 3.1 100 04:24 05.03.2020
1547 Clouds -1 1008 92 10000 3.1 100 03:58 05.03.2020
1548 Clouds -1 1009 100 10000 3.1 100 02:41 05.03.2020
1549 Clouds -1 1010 92 10000 3.1 110 01:28 05.03.2020
1550 Clouds -1 1011 92 10000 2.6 110 00:50 05.03.2020
1551 Clouds -1 1011 92 10000 3.1 110 23:57 04.03.2020
1552 Clouds 0 1011 92 10000 4.1 110 23:39 04.03.2020
1553 Clouds 0 1011 92 10000 4.1 110 23:21 04.03.2020
1554 Clouds 0 1012 86 10000 4.1 100 22:56 04.03.2020
1555 Clouds 0 1012 92 10000 3.6 100 22:37 04.03.2020
1556 Clouds 0 1012 92 10000 3.6 100 22:18 04.03.2020
1557 Clouds 1 1012 80 10000 2.6 90 21:55 04.03.2020
1558 Clouds 1 1012 80 10000 3.1 100 21:37 04.03.2020
1559 Clouds 1 1012 80 10000 3.1 100 21:18 04.03.2020
1560 Clouds 1 1012 74 10000 3.1 110 20:40 04.03.2020
1561 Clouds 2 1012 80 10000 2.1 100 20:21 04.03.2020
1562 Clouds 2 1012 74 10000 2.1 120 19:56 04.03.2020
1563 Clouds 2 1012 74 10000 2.1 120 19:38 04.03.2020
1564 Clouds 3 1012 69 10000 1 160 19:20 04.03.2020
1565 Clouds 3 1012 69 10000 1 160 19:20 04.03.2020
1566 Clouds 4 1012 65 10000 2.1 260 18:42 04.03.2020
1567 Clouds 4 1012 65 10000 2.1 260 18:23 04.03.2020
1568 Clouds 5 1012 81 10000 2.6 270 17:59 04.03.2020
1569 Clouds 5 1012 81 10000 2.6 270 17:39 04.03.2020
1570 Clouds 5 1012 68 10000 4.1 250 17:20 04.03.2020
1571 Rain 6 1012 70 0 3.6 280 16:55 04.03.2020
1572 Rain 6 1012 70 0 3.6 280 16:55 04.03.2020
1573 Rain 6 1012 70 0 3.6 280 16:55 04.03.2020
1574 Rain 6 1012 70 0 3.6 280 16:55 04.03.2020
1575 Clouds 6 1012 68 10000 5.1 280 16:36 04.03.2020
1576 Clouds 6 1012 68 10000 5.1 280 16:18 04.03.2020
1577 Clouds 6 1012 70 10000 4.6 270 15:42 04.03.2020
1578 Clouds 6 1012 68 10000 5.7 250 15:24 04.03.2020
1579 Clouds 5 1012 70 10000 5.1 260 14:57 04.03.2020
1580 Clouds 5 1012 70 10000 5.1 260 14:38 04.03.2020
1581 Clouds 5 1012 70 10000 5.1 260 14:19 04.03.2020
1582 Rain 5 1012 70 10000 4.6 240 13:58 04.03.2020
1583 Rain 5 1012 75 10000 6.2 240 13:39 04.03.2020
1584 Rain 5 1012 75 10000 6.2 240 13:20 04.03.2020
1585 Rain 5 1013 75 10000 5.1 240 12:45 04.03.2020
1586 Rain 5 1013 100 10000 6.2 260 12:27 04.03.2020
1587 Clouds 5 1013 75 10000 5.7 240 11:59 04.03.2020
1588 Clouds 5 1013 75 10000 5.7 240 11:41 04.03.2020
1589 Clouds 4 1013 78 10000 4.6 240 11:23 04.03.2020
1590 Clouds 4 1013 78 10000 5.7 230 10:57 04.03.2020
1591 Clouds 4 1013 80 10000 4.6 230 10:39 04.03.2020
1592 Clouds 4 1013 80 10000 4.6 230 10:18 04.03.2020
1593 Clouds 2 1013 78 10000 1.5 150 09:42 04.03.2020
1594 Clouds 2 1013 78 10000 1.5 150 09:21 04.03.2020
1595 Clouds 1 1013 100 10000 4.1 220 08:47 04.03.2020
1596 Clouds 1 1013 100 10000 3.1 230 08:27 04.03.2020
1597 Clouds 0 1012 92 10000 3.6 100 07:56 04.03.2020
1598 Clouds 0 1012 92 10000 3.6 100 07:37 04.03.2020
1599 Clouds 0 1012 92 10000 3.1 110 07:18 04.03.2020
1600 Clouds 0 1012 92 10000 2.6 110 06:43 04.03.2020
1601 Clouds -1 1012 92 10000 2.1 110 06:23 04.03.2020
1602 Clouds -1 1011 100 10000 3.1 100 05:48 04.03.2020
1603 Clouds -1 1011 92 10000 3.1 110 04:30 04.03.2020
1604 Clear -1 1011 86 10000 3.1 100 03:42 04.03.2020
1605 Clouds -1 1011 89 10000 3.1 240 03:24 04.03.2020
1606 Clear -1 1010 92 10000 3.1 100 02:55 04.03.2020
1607 Clear -1 1010 86 10000 2.6 110 02:20 04.03.2020
1608 Clear -1 1010 92 10000 1.5 120 01:52 04.03.2020
1609 Clear -1 1009 85 10000 1.5 110 00:50 04.03.2020
1610 Clear 0 1009 85 10000 1 0 00:25 04.03.2020
1611 Clear 0 1009 85 10000 1 0 23:46 03.03.2020
1612 Clear 0 1008 86 10000 1 210 23:27 03.03.2020
1613 Clear 0 1008 86 10000 1 0 22:58 03.03.2020
1614 Clear 0 1008 86 10000 1 0 22:58 03.03.2020
1615 Clear 0 1008 86 10000 1 0 22:40 03.03.2020
1616 Clear 0 1008 86 10000 1.5 150 22:19 03.03.2020
1617 Clear 1 1008 80 10000 1.5 130 21:57 03.03.2020
1618 Clouds 1 1008 80 10000 1 240 21:38 03.03.2020
1619 Clouds 1 1008 80 10000 1 240 21:19 03.03.2020
1620 Clouds 2 1007 74 10000 1.5 260 20:41 03.03.2020
1621 Clouds 2 1007 74 10000 1.5 260 20:21 03.03.2020
1622 Clouds 3 1006 77 10000 1.5 290 19:59 03.03.2020
1623 Clouds 3 1006 77 10000 1.5 270 19:37 03.03.2020
1624 Clouds 3 1006 77 10000 1.5 270 19:19 03.03.2020
1625 Clouds 4 1005 65 10000 3.1 270 18:59 03.03.2020
1626 Clouds 4 1005 65 10000 3.1 270 18:41 03.03.2020
1627 Clouds 4 1005 65 10000 3.6 250 18:21 03.03.2020
1628 Clouds 5 1004 65 10000 2.6 250 17:57 03.03.2020
1629 Clouds 5 1004 65 10000 2.6 250 17:57 03.03.2020
1630 Clouds 5 1004 65 10000 3.6 280 17:39 03.03.2020
1631 Clouds 5 1004 65 10000 3.6 280 17:21 03.03.2020
1632 Rain 6 1004 60 10000 5.7 290 16:57 03.03.2020
1633 Rain 6 1004 56 10000 6.2 260 16:37 03.03.2020
1634 Rain 6 1004 56 10000 6.2 260 16:19 03.03.2020
1635 Clouds 6 1004 65 10000 3.6 270 15:44 03.03.2020
1636 Clouds 6 1003 60 10000 6.7 260 15:22 03.03.2020
1637 Clouds 6 1003 56 10000 6.2 270 14:57 03.03.2020
1638 Clouds 6 1003 56 10000 6.2 270 14:37 03.03.2020
1639 Clouds 6 1003 68 10000 4.6 290 14:19 03.03.2020
1640 Clouds 6 1003 70 10000 4.1 290 13:55 03.03.2020
1641 Rain 5 1003 66 10000 7.2 290 13:37 03.03.2020
1642 Rain 5 1003 66 10000 7.2 290 13:18 03.03.2020
1643 Rain 5 1003 66 10000 7.2 290 13:18 03.03.2020
1644 Clouds 5 1003 70 10000 7.2 280 12:42 03.03.2020
1645 Clouds 5 1002 66 10000 8.7 280 12:23 03.03.2020
1646 Clouds 5 1002 66 10000 8.7 280 12:23 03.03.2020
1647 Clouds 5 1002 75 10000 9.3 280 11:55 03.03.2020
1648 Clouds 4 1003 86 10000 8.2 270 11:37 03.03.2020
1649 Clouds 4 1002 80 10000 8.7 280 11:18 03.03.2020
1650 Clouds 4 1002 80 10000 9.3 280 10:54 03.03.2020
1651 Rain 4 1001 80 10000 7.2 270 10:36 03.03.2020
1652 Rain 4 1001 80 10000 7.2 270 10:18 03.03.2020
1653 Rain 4 1001 80 10000 7.2 270 10:18 03.03.2020
1654 Rain 3 1001 86 10000 8.2 270 09:41 03.03.2020
1655 Rain 3 1000 93 10000 8.2 280 09:21 03.03.2020
1656 Rain 4 1000 93 10000 9.8 280 08:42 03.03.2020
1657 Rain 4 999 86 10000 8.2 280 08:22 03.03.2020
1658 Rain 4 999 93 10000 6.7 270 07:56 03.03.2020
1659 Rain 4 999 93 10000 6.7 270 07:56 03.03.2020
1660 Rain 4 999 93 10000 6.7 270 07:56 03.03.2020
1661 Rain 4 998 93 10000 5.7 260 07:38 03.03.2020
1662 Rain 4 998 93 10000 5.7 260 07:18 03.03.2020
1663 Rain 4 997 93 10000 6.2 270 06:40 03.03.2020
1664 Rain 4 997 93 10000 5.1 260 06:21 03.03.2020
1665 Drizzle 5 995 93 8000 4.6 260 05:43 03.03.2020
1666 Drizzle 5 995 86 9000 5.7 260 04:56 03.03.2020
1667 Drizzle 6 994 87 10000 4.6 250 03:21 03.03.2020
1668 Clouds 6 992 87 10000 1 0 01:32 03.03.2020
1669 Rain 6 993 100 10000 6.2 240 00:42 03.03.2020
1670 Drizzle 6 992 93 10000 2.1 250 00:23 03.03.2020
1671 Rain 6 991 87 10000 1.5 220 23:50 02.03.2020
1672 Rain 6 991 81 10000 1 0 23:23 02.03.2020
1673 Clouds 6 991 100 10000 1.5 250 22:58 02.03.2020
1674 Rain 6 991 75 10000 1 140 22:38 02.03.2020
1675 Rain 6 990 70 10000 1.5 100 22:20 02.03.2020
1676 Clouds 7 990 70 10000 1 0 21:56 02.03.2020
1677 Clouds 7 990 70 10000 1 0 21:38 02.03.2020
1678 Clouds 7 990 70 10000 1 0 21:19 02.03.2020
1679 Clouds 7 989 70 10000 1.5 320 20:54 02.03.2020
1680 Clouds 7 989 70 10000 1 0 20:36 02.03.2020
1681 Clouds 7 989 70 10000 1 0 20:18 02.03.2020
1682 Clouds 8 989 70 10000 1 90 19:40 02.03.2020
1683 Clouds 8 989 70 10000 1 90 19:21 02.03.2020
1684 Clouds 8 989 70 10000 3.6 100 18:57 02.03.2020
1685 Clouds 8 989 70 10000 4.1 100 18:38 02.03.2020
1686 Clouds 8 989 70 10000 4.1 100 18:18 02.03.2020
1687 Clouds 9 989 70 10000 6.7 100 17:56 02.03.2020
1688 Clouds 9 989 70 10000 5.1 90 17:38 02.03.2020
1689 Clouds 9 989 43 10000 6.2 130 17:20 02.03.2020
1690 Clouds 10 989 43 10000 7.7 110 16:43 02.03.2020
1691 Clouds 10 990 50 10000 6.7 110 16:24 02.03.2020
1692 Clouds 10 990 50 10000 6.7 110 15:57 02.03.2020
1693 Clouds 10 990 50 10000 7.7 100 15:38 02.03.2020
1694 Clouds 10 990 50 10000 7.7 100 15:18 02.03.2020
1695 Clouds 10 991 57 10000 6.2 120 14:39 02.03.2020
1696 Clouds 11 991 60 10000 6.2 140 14:19 02.03.2020
1697 Clouds 11 991 60 10000 6.2 140 14:19 02.03.2020
1698 Clouds 10 991 60 10000 5.1 130 13:45 02.03.2020
1699 Clouds 10 992 60 10000 5.7 100 13:20 02.03.2020
1700 Clouds 10 993 61 10000 5.1 130 12:59 02.03.2020
1701 Clouds 10 994 61 10000 5.1 140 12:41 02.03.2020
1702 Clouds 10 994 61 10000 5.1 140 12:19 02.03.2020
1703 Clouds 9 995 61 10000 2.6 120 11:39 02.03.2020
1704 Clouds 8 995 71 10000 2.6 120 11:20 02.03.2020
1705 Clouds 8 996 52 10000 3.1 130 10:57 02.03.2020
1706 Clouds 7 996 56 10000 3.1 100 10:37 02.03.2020
1707 Clouds 6 996 56 10000 3.1 100 10:19 02.03.2020
1708 Clouds 6 996 71 10000 3.1 90 09:49 02.03.2020
1709 Clouds 5 996 71 10000 2.1 90 09:31 02.03.2020
1710 Clouds 4 997 71 10000 2.1 130 08:49 02.03.2020
1711 Clouds 3 997 74 10000 3.1 170 08:23 02.03.2020
1712 Clouds 2 997 80 10000 3.1 160 07:52 02.03.2020
1713 Clouds 2 997 80 10000 2.6 180 07:32 02.03.2020
1714 Clouds 2 997 74 10000 0.5 0 06:51 02.03.2020
1715 Clouds 3 998 69 10000 4.1 260 06:26 02.03.2020
1716 Clouds 4 998 65 0 6.7 240 05:25 02.03.2020
1717 Rain 5 997 80 10000 8.2 240 03:28 02.03.2020
1718 Clouds 5 997 60 10000 10.8 230 02:55 02.03.2020
1719 Clouds 5 997 60 10000 12.3 230 02:30 02.03.2020
1720 Rain 6 996 52 10000 11.3 230 01:36 02.03.2020
1721 Rain 6 996 52 10000 11.3 230 01:18 02.03.2020
1722 Rain 7 995 70 10000 5.1 180 00:22 02.03.2020
1723 Rain 7 996 75 10000 7.7 180 23:42 01.03.2020
1724 Rain 7 995 75 10000 8.2 170 23:23 01.03.2020
1725 Clouds 7 995 75 10000 5.1 190 22:45 01.03.2020
1726 Clouds 7 995 75 10000 5.1 190 22:21 01.03.2020
1727 Rain 7 995 75 10000 6.7 130 21:59 01.03.2020
1728 Rain 7 995 75 10000 6.7 130 21:59 01.03.2020
1729 Rain 6 995 86 10000 5.1 110 21:40 01.03.2020
1730 Rain 6 995 86 10000 5.1 110 21:22 01.03.2020
1731 Rain 6 995 86 10000 4.6 110 20:55 01.03.2020
1732 Rain 5 996 80 10000 4.6 100 20:37 01.03.2020
1733 Clouds 5 996 80 10000 4.6 100 20:19 01.03.2020
1734 Clouds 6 997 81 10000 3.6 110 19:41 01.03.2020
1735 Clouds 6 997 81 10000 3.6 110 19:22 01.03.2020
1736 Clouds 7 997 75 10000 3.6 100 18:57 01.03.2020
1737 Clouds 7 997 66 10000 1.5 90 18:39 01.03.2020
1738 Clouds 8 997 66 10000 1.5 90 18:19 01.03.2020
1739 Clouds 9 998 61 10000 1 0 17:55 01.03.2020
1740 Clouds 9 998 61 10000 3.1 170 17:37 01.03.2020
1741 Rain 10 998 61 10000 3.1 170 17:18 01.03.2020
1742 Rain 10 998 61 10000 2.6 180 16:40 01.03.2020
1743 Rain 10 999 61 10000 2.6 210 16:20 01.03.2020
1744 Clouds 10 999 61 10000 4.1 220 15:59 01.03.2020
1745 Clouds 10 999 61 10000 4.1 220 15:40 01.03.2020
1746 Clouds 10 1000 61 10000 4.6 240 15:22 01.03.2020
1747 Clouds 10 1000 66 10000 4.1 240 14:58 01.03.2020
1748 Clouds 10 1000 66 10000 4.1 240 14:39 01.03.2020
1749 Clouds 9 1000 76 10000 3.6 240 14:21 01.03.2020
1750 Clouds 9 1000 81 10000 5.7 280 13:59 01.03.2020
1751 Clouds 9 1000 81 10000 5.7 280 13:41 01.03.2020
1752 Rain 8 1000 87 10000 6.7 290 13:20 01.03.2020
1753 Clouds 9 1000 61 10000 7.2 190 12:56 01.03.2020
1754 Clouds 9 1000 61 10000 7.2 190 12:38 01.03.2020
1755 Clouds 9 1000 66 10000 6.2 200 12:19 01.03.2020
1756 Clouds 9 1001 70 10000 6.2 200 11:40 01.03.2020
1757 Clouds 9 1001 70 10000 6.2 200 11:20 01.03.2020
1758 Clouds 8 1001 70 10000 5.7 180 10:56 01.03.2020
1759 Clouds 8 1001 70 10000 6.7 190 10:37 01.03.2020
1760 Clouds 8 1001 70 10000 6.7 190 10:18 01.03.2020
1761 Clouds 8 1001 70 10000 6.7 190 10:18 01.03.2020
1762 Clouds 7 1001 70 10000 5.1 200 09:44 01.03.2020
1763 Clouds 7 1002 75 10000 5.1 180 09:26 01.03.2020
1764 Clouds 6 1002 75 10000 5.7 180 08:47 01.03.2020
1765 Clouds 6 1001 81 10000 5.1 180 08:28 01.03.2020
1766 Clouds 6 1001 81 10000 5.1 180 07:57 01.03.2020
1767 Clouds 5 1001 81 10000 5.1 190 07:39 01.03.2020
1768 Clouds 5 1001 81 10000 5.1 190 07:21 01.03.2020
1769 Clouds 5 1001 81 10000 5.7 190 06:42 01.03.2020
1770 Clouds 5 1001 81 10000 4.6 170 05:58 01.03.2020
1771 Clouds 5 1002 75 10000 5.1 200 03:38 01.03.2020
1772 Clouds 5 1002 81 10000 5.1 190 02:23 01.03.2020
1773 Clouds 5 1002 87 10000 4.1 180 01:45 01.03.2020
1774 Clouds 6 1002 87 10000 3.6 180 00:51 01.03.2020
1775 Clouds 6 1002 87 10000 2.6 180 00:25 01.03.2020
1776 Rain 6 1001 93 10000 3.1 180 23:58 29.02.2020
1777 Rain 6 1002 93 10000 2.6 180 23:40 29.02.2020
1778 Rain 6 1002 93 10000 2.6 180 23:22 29.02.2020
1779 Rain 6 1001 87 10000 3.6 180 22:38 29.02.2020
1780 Rain 6 1001 87 10000 3.6 180 22:20 29.02.2020
1781 Rain 7 1000 87 10000 6.2 250 21:39 29.02.2020
1782 Rain 7 1001 100 10000 4.1 220 21:20 29.02.2020
1783 Rain 7 1000 93 6000 7.2 270 20:42 29.02.2020
1784 Rain 8 998 81 10000 2.6 270 20:21 29.02.2020
1785 Rain 9 998 71 10000 7.2 240 19:56 29.02.2020
1786 Rain 9 998 76 10000 8.7 240 19:37 29.02.2020
1787 Rain 9 998 76 10000 5.7 230 19:18 29.02.2020
1788 Clouds 9 997 66 10000 6.2 200 18:42 29.02.2020
1789 Clouds 9 996 62 10000 5.1 160 18:23 29.02.2020
1790 Clouds 9 996 70 10000 4.6 110 17:56 29.02.2020
1791 Clouds 9 997 66 10000 5.1 140 17:37 29.02.2020
1792 Clouds 9 997 66 10000 5.1 140 17:19 29.02.2020
1793 Clouds 10 997 66 10000 6.2 140 16:45 29.02.2020
1794 Clouds 9 997 66 10000 6.2 140 16:20 29.02.2020
1795 Clouds 9 998 71 10000 5.1 140 15:57 29.02.2020
1796 Clouds 9 998 66 10000 5.7 130 15:37 29.02.2020
1797 Clouds 9 998 66 10000 5.7 130 15:19 29.02.2020
1798 Clouds 9 998 70 10000 6.2 120 14:40 29.02.2020
1799 Clouds 9 998 70 10000 6.2 120 14:22 29.02.2020
1800 Rain 9 999 66 10000 6.2 130 13:46 29.02.2020
1801 Clouds 8 1000 75 10000 5.7 130 13:27 29.02.2020
1802 Clouds 8 1000 75 10000 5.1 130 12:57 29.02.2020
1803 Clouds 8 1001 75 10000 5.1 130 12:38 29.02.2020
1804 Clouds 7 1001 75 10000 5.1 130 12:20 29.02.2020
1805 Clouds 6 1001 75 10000 4.1 140 11:45 29.02.2020
1806 Clouds 6 1001 81 10000 5.7 110 11:26 29.02.2020
1807 Clouds 5 1002 86 10000 6.2 120 10:51 29.02.2020
1808 Clouds 5 1003 86 10000 6.7 120 10:31 29.02.2020
1809 Rain 3 1004 93 10000 4.6 120 09:56 29.02.2020
1810 Rain 3 1004 86 10000 4.6 130 09:38 29.02.2020
1811 Rain 3 1004 86 10000 4.6 130 09:18 29.02.2020
1812 Rain 2 1005 93 10000 5.7 140 08:40 29.02.2020
1813 Rain 2 1005 93 10000 5.7 140 08:21 29.02.2020
1814 Drizzle 2 1005 93 10000 5.1 140 07:52 29.02.2020
1815 Rain 2 1005 100 10000 4.6 170 07:25 29.02.2020
1816 Drizzle 2 1006 93 10000 4.6 130 06:55 29.02.2020
1817 Drizzle 2 1006 94 10000 4.6 120 06:29 29.02.2020
1818 Drizzle 2 1007 94 10000 4.1 110 05:52 29.02.2020
1819 Clouds 2 1007 94 10000 5.1 120 05:32 29.02.2020
1820 Rain 2 1007 93 10000 3.1 180 04:18 29.02.2020
1821 Clouds 1 1009 88 10000 5.1 130 03:24 29.02.2020
1822 Rain 1 1010 88 10000 5.1 130 02:59 29.02.2020
1823 Snow 1 1011 86 9000 4.6 160 01:59 29.02.2020
1824 Clouds 2 1012 64 10000 3.6 160 00:52 29.02.2020
1825 Clouds 2 1012 69 10000 4.1 140 00:28 29.02.2020
1826 Snow 2 1014 69 10000 3.1 170 23:41 28.02.2020
1827 Clouds 1 1014 69 10000 3.1 170 23:23 28.02.2020
1828 Clouds 1 1014 69 10000 3.1 170 23:23 28.02.2020
1829 Clouds 1 1014 74 10000 4.1 110 22:43 28.02.2020
1830 Clouds 1 1014 80 10000 4.6 130 22:23 28.02.2020
1831 Clouds 1 1015 80 10000 4.6 130 21:42 28.02.2020
1832 Clouds 1 1015 79 10000 4.1 120 21:22 28.02.2020
1833 Clouds 1 1016 79 10000 4.1 110 20:59 28.02.2020
1834 Clouds 1 1016 80 10000 4.1 120 20:39 28.02.2020
1835 Clouds 1 1016 80 10000 4.1 120 20:20 28.02.2020
1836 Clouds 1 1017 80 10000 3.6 100 19:57 28.02.2020
1837 Clouds 1 1017 74 10000 3.1 150 19:38 28.02.2020
1838 Clouds 1 1017 74 10000 3.1 150 19:20 28.02.2020
1839 Clouds 2 1017 74 10000 2.1 160 18:46 28.02.2020
1840 Clouds 2 1017 74 10000 2.1 160 18:25 28.02.2020
1841 Clouds 3 1017 74 10000 2.1 190 17:57 28.02.2020
1842 Clouds 3 1018 69 10000 2.6 220 17:38 28.02.2020
1843 Clouds 3 1018 69 10000 2.6 220 17:20 28.02.2020
1844 Rain 4 1018 65 10000 2.1 280 16:38 28.02.2020
1845 Rain 4 1018 65 10000 2.1 280 16:20 28.02.2020
1846 Clouds 4 1018 69 10000 3.1 310 15:56 28.02.2020
1847 Clouds 4 1019 65 10000 3.1 300 15:38 28.02.2020
1848 Clouds 4 1019 65 10000 3.1 300 15:18 28.02.2020
1849 Clouds 4 1019 69 10000 4.1 250 14:45 28.02.2020
1850 Clouds 3 1019 92 10000 3.1 280 14:20 28.02.2020
1851 Clouds 3 1019 92 10000 4.1 270 13:59 28.02.2020
1852 Rain 3 1020 74 10000 5.1 270 13:40 28.02.2020
1853 Rain 3 1020 74 10000 5.1 270 13:20 28.02.2020
1854 Rain 3 1020 94 10000 5.7 250 12:45 28.02.2020
1855 Rain 3 1020 93 10000 5.7 240 12:27 28.02.2020
1856 Rain 3 1020 93 10000 5.7 240 12:27 28.02.2020
1857 Clouds 3 1019 74 10000 5.1 260 11:56 28.02.2020
1858 Rain 2 1019 74 10000 4.6 260 11:37 28.02.2020
1859 Clouds 2 1019 74 10000 4.6 260 11:19 28.02.2020
1860 Rain 2 1019 80 10000 6.2 270 10:43 28.02.2020
1861 Rain 2 1019 80 10000 6.2 270 10:24 28.02.2020
1862 Mist 1 1018 94 9000 6.7 260 09:49 28.02.2020
1863 Mist 1 1018 94 9000 6.7 260 09:49 28.02.2020
1864 Clouds 1 1018 86 10000 6.7 250 09:49 28.02.2020
1865 Mist 1 1018 94 9000 6.7 260 09:49 28.02.2020
1866 Mist 1 1018 94 9000 6.7 260 09:49 28.02.2020
1867 Rain 1 1018 86 10000 6.7 250 09:22 28.02.2020
1868 Rain 1 1018 94 4400 4.6 270 08:59 28.02.2020
1869 Clouds 1 1017 86 10000 6.7 260 08:41 28.02.2020
1870 Clouds 1 1017 86 10000 6.7 260 08:41 28.02.2020
1871 Clouds 1 1017 86 10000 6.7 260 08:20 28.02.2020
1872 Clouds 0 1016 86 10000 7.2 270 07:45 28.02.2020
1873 Snow 0 1015 86 10000 5.1 270 07:25 28.02.2020
1874 Snow 1 1015 86 10000 6.2 260 06:48 28.02.2020
1875 Mist 1 1015 91 8000 6.2 270 06:29 28.02.2020
1876 Snow 1 1012 86 10000 7.2 280 05:22 28.02.2020
1877 Rain 1 1012 97 8000 7.2 270 04:31 28.02.2020
1878 Snow 0 1009 97 1800 7.7 280 02:47 28.02.2020
1879 Snow 1 1008 97 1400 7.7 270 02:28 28.02.2020
1880 Snow 1 1007 98 2800 7.7 290 01:33 28.02.2020
1881 Snow 1 1005 98 2600 6.7 290 00:30 28.02.2020
1882 Snow 0 1001 98 5000 6.7 310 23:45 27.02.2020
1883 Snow 1 999 98 1500 6.7 320 23:22 27.02.2020
1884 Snow 0 1000 99 2000 8.2 310 22:55 27.02.2020
1885 Snow 1 997 99 2000 7.7 310 22:37 27.02.2020
1886 Snow 0 997 99 2000 7.7 310 22:19 27.02.2020
1887 Snow 0 994 99 1800 7.7 310 21:41 27.02.2020
1888 Snow 0 991 99 3200 6.7 320 21:19 27.02.2020
1889 Snow 0 989 99 650 4.1 80 20:58 27.02.2020
1890 Snow 0 989 99 700 5.7 80 20:39 27.02.2020
1891 Snow 0 989 95 700 5.7 80 20:21 27.02.2020
1892 Snow 0 990 95 1500 4.6 100 19:56 27.02.2020
1893 Snow 0 990 95 1500 4.6 100 19:37 27.02.2020
1894 Snow 0 991 95 2500 5.1 110 19:37 27.02.2020
1895 Snow 0 991 95 2500 5.1 110 19:19 27.02.2020
1896 Snow 1 989 95 1200 6.7 110 18:42 27.02.2020
1897 Snow 1 991 95 800 6.7 130 18:24 27.02.2020
1898 Snow 1 994 95 900 5.1 130 17:58 27.02.2020
1899 Rain 1 994 95 900 5.1 130 17:40 27.02.2020
1900 Rain 1 993 78 800 5.7 140 17:19 27.02.2020
1901 Rain 2 995 78 5000 7.7 170 16:57 27.02.2020
1902 Rain 2 995 78 800 4.1 160 16:38 27.02.2020
1903 Snow 3 996 74 9000 8.2 170 16:18 27.02.2020
1904 Clouds 4 997 56 10000 6.2 160 15:56 27.02.2020
1905 Clouds 4 998 56 10000 5.7 160 15:37 27.02.2020
1906 Clouds 4 998 56 10000 5.7 160 15:18 27.02.2020
1907 Clouds 4 999 60 10000 4.6 160 14:42 27.02.2020
1908 Clouds 5 1000 60 10000 4.1 170 14:23 27.02.2020
1909 Clouds 5 1001 60 10000 4.6 190 13:58 27.02.2020
1910 Clouds 5 1001 60 10000 4.6 190 13:40 27.02.2020
1911 Clouds 5 1002 65 10000 4.6 180 13:20 27.02.2020
1912 Clouds 4 1003 60 10000 5.1 180 12:45 27.02.2020
1913 Clouds 4 1003 60 10000 5.1 180 12:45 27.02.2020
1914 Clouds 4 1004 65 10000 4.6 190 12:23 27.02.2020
1915 Clouds 4 1005 69 10000 5.1 190 11:57 27.02.2020
1916 Clouds 4 1005 69 10000 5.1 210 11:38 27.02.2020
1917 Clouds 4 1005 69 10000 5.1 210 11:20 27.02.2020
1918 Clouds 3 1006 74 10000 4.6 210 10:42 27.02.2020
1919 Clouds 3 1006 74 10000 4.6 210 10:20 27.02.2020
1920 Clouds 3 1006 93 10000 4.6 210 09:46 27.02.2020
1921 Clouds 2 1007 75 10000 3.1 180 09:28 27.02.2020
1922 Clouds 2 1007 80 10000 3.1 210 08:56 27.02.2020
1923 Clouds 2 1007 80 10000 3.1 210 08:56 27.02.2020
1924 Clouds 2 1007 80 10000 3.1 210 08:38 27.02.2020
1925 Clouds 1 1007 100 10000 4.6 220 08:18 27.02.2020
1926 Clouds 1 1007 80 10000 3.1 220 07:42 27.02.2020
1927 Clouds 1 1008 74 10000 3.6 230 07:24 27.02.2020
1928 Clouds 1 1008 74 10000 3.6 230 07:24 27.02.2020
1929 Snow 1 1007 100 1600 5.1 250 06:30 27.02.2020
1930 Clouds 1 1007 80 10000 5.1 250 05:23 27.02.2020
1931 Clouds 2 1007 100 10000 5.1 260 03:20 27.02.2020
1932 Clouds 2 1007 80 10000 6.2 250 01:34 27.02.2020
1933 Clouds 2 1007 80 10000 5.7 250 00:42 27.02.2020
1934 Clouds 2 1006 80 10000 5.7 250 23:56 26.02.2020
1935 Clouds 2 1006 74 10000 6.7 260 23:37 26.02.2020
1936 Clouds 2 1006 74 10000 6.7 260 23:18 26.02.2020
1937 Clouds 2 1006 74 10000 6.7 260 23:18 26.02.2020
1938 Clouds 2 1006 74 10000 6.2 260 22:55 26.02.2020
1939 Clouds 2 1006 100 10000 6.2 260 22:37 26.02.2020
1940 Clouds 2 1006 100 10000 6.2 260 22:18 26.02.2020
1941 Clouds 2 1006 100 10000 5.7 260 21:39 26.02.2020
1942 Clouds 2 1006 100 10000 5.7 260 21:20 26.02.2020
1943 Clouds 2 1005 94 10000 5.1 270 20:56 26.02.2020
1944 Clouds 2 1005 94 10000 5.1 270 20:56 26.02.2020
1945 Clouds 2 1004 94 10000 4.6 260 20:38 26.02.2020
1946 Clouds 2 1004 81 10000 4.6 260 20:19 26.02.2020
1947 Clouds 2 1004 81 10000 5.1 250 19:56 26.02.2020
1948 Clouds 2 1004 81 10000 5.1 250 19:37 26.02.2020
1949 Clouds 2 1003 81 10000 4.6 240 19:19 26.02.2020
1950 Clouds 2 1003 81 10000 4.6 260 18:56 26.02.2020
1951 Clouds 2 1002 81 10000 4.6 250 18:37 26.02.2020
1952 Clouds 2 1002 81 10000 4.6 250 18:18 26.02.2020
1953 Clouds 2 1002 93 10000 7.2 260 17:40 26.02.2020
1954 Rain 2 1001 93 10000 7.7 250 17:19 26.02.2020
1955 Rain 2 1001 75 10000 8.2 260 16:56 26.02.2020
1956 Rain 3 1001 75 10000 8.2 260 16:38 26.02.2020
1957 Rain 3 1000 75 10000 8.7 260 16:19 26.02.2020
1958 Clouds 3 1000 74 10000 9.8 270 15:44 26.02.2020
1959 Clouds 3 1000 86 10000 7.2 270 15:25 26.02.2020
1960 Rain 3 999 86 10000 7.7 280 14:43 26.02.2020
1961 Rain 3 998 69 10000 9.3 260 14:24 26.02.2020
1962 Clouds 4 998 64 10000 9.8 250 13:56 26.02.2020
1963 Rain 4 998 69 10000 10.3 250 13:38 26.02.2020
1964 Rain 4 998 69 10000 10.3 250 13:18 26.02.2020
1965 Rain 4 998 69 10000 10.3 250 12:38 26.02.2020
1966 Clouds 4 998 65 10000 8.2 250 12:19 26.02.2020
1967 Clouds 4 997 64 10000 8.7 250 11:43 26.02.2020
1968 Clouds 4 997 64 10000 7.7 250 11:23 26.02.2020
1969 Clouds 3 998 80 10000 3.1 230 10:59 26.02.2020
1970 Clouds 3 998 67 10000 3.1 140 10:39 26.02.2020
1971 Clouds 2 998 67 10000 3.1 140 10:21 26.02.2020
1972 Clouds 2 998 67 10000 3.1 140 10:21 26.02.2020
1973 Rain 3 998 67 10000 5.7 290 09:44 26.02.2020
1974 Snow 2 998 67 10000 6.7 240 09:24 26.02.2020
1975 Snow 1 998 86 1300 9.8 250 08:58 26.02.2020
1976 Snow 1 998 67 1200 10.3 280 08:37 26.02.2020
1977 Snow 1 998 77 1200 10.3 280 08:18 26.02.2020
1978 Rain 2 997 69 10000 7.2 230 07:42 26.02.2020
1979 Clouds 2 997 80 10000 7.2 220 07:24 26.02.2020
1980 Clouds 2 997 74 10000 7.7 240 06:50 26.02.2020
1981 Rain 2 997 100 10000 10.8 250 06:32 26.02.2020
1982 Clouds 3 996 77 10000 7.2 240 05:51 26.02.2020
1983 Clouds 3 996 86 10000 5.7 220 05:24 26.02.2020
1984 Rain 3 996 100 10000 6.7 230 04:23 26.02.2020
1985 Clouds 4 997 80 10000 3.1 180 02:23 26.02.2020
1986 Clouds 4 997 86 10000 2.6 160 01:45 26.02.2020
1987 Clouds 4 997 80 10000 3.6 210 00:48 26.02.2020
1988 Clouds 5 998 93 10000 3.6 230 00:24 26.02.2020
1989 Clouds 5 998 80 10000 3.1 210 23:45 25.02.2020
1990 Clouds 5 998 75 10000 5.7 240 23:26 25.02.2020
1991 Rain 5 998 81 10000 4.1 230 22:59 25.02.2020
1992 Clouds 5 998 81 10000 4.1 230 22:41 25.02.2020
1993 Clouds 5 999 87 10000 3.1 200 22:19 25.02.2020
1994 Rain 5 999 87 10000 4.6 200 21:40 25.02.2020
1995 Rain 5 999 87 10000 3.6 210 21:21 25.02.2020
1996 Rain 5 999 87 10000 3.1 190 20:59 25.02.2020
1997 Rain 5 999 87 10000 3.1 190 20:40 25.02.2020
1998 Rain 5 1000 100 10000 4.6 230 20:21 25.02.2020
1999 Rain 5 1000 87 10000 3.1 200 19:59 25.02.2020
2000 Rain 5 1000 87 10000 3.1 200 19:40 25.02.2020
2001 Clouds 6 1000 87 10000 4.1 220 19:19 25.02.2020
2002 Rain 7 1001 100 10000 5.1 250 18:42 25.02.2020
2003 Rain 7 1001 100 10000 5.1 250 18:21 25.02.2020
2004 Rain 7 1001 100 10000 5.1 250 18:21 25.02.2020
2005 Rain 7 1001 81 10000 9.3 240 17:58 25.02.2020
2006 Rain 7 1000 76 10000 7.7 240 17:38 25.02.2020
2007 Rain 8 1000 76 10000 7.7 240 17:19 25.02.2020
2008 Rain 8 1000 76 10000 5.7 230 16:58 25.02.2020
2009 Rain 8 1000 76 10000 5.7 230 16:58 25.02.2020
2010 Rain 8 1000 76 10000 5.7 230 16:40 25.02.2020
2011 Rain 8 1001 76 10000 6.7 240 16:22 25.02.2020
2012 Clouds 8 1001 76 10000 5.7 230 15:56 25.02.2020
2013 Clouds 8 1001 76 10000 5.7 230 15:56 25.02.2020
2014 Clouds 8 1001 76 10000 5.7 230 15:56 25.02.2020
2015 Clouds 8 1001 76 10000 5.1 240 15:38 25.02.2020
2016 Clouds 8 1001 76 10000 5.1 240 15:18 25.02.2020
2017 Rain 8 1002 76 10000 6.2 230 14:55 25.02.2020
2018 Rain 8 1002 76 10000 7.2 240 14:37 25.02.2020
2019 Rain 8 1002 76 10000 7.2 240 14:18 25.02.2020
2020 Rain 8 1002 81 10000 6.2 240 13:54 25.02.2020
2021 Rain 8 1002 81 10000 6.2 240 13:54 25.02.2020
2022 Rain 8 1003 81 10000 7.2 240 13:36 25.02.2020
2023 Rain 8 1003 81 10000 7.2 240 13:18 25.02.2020
2024 Rain 8 1003 81 10000 6.7 240 12:40 25.02.2020
2025 Drizzle 8 1004 100 10000 8.7 240 12:20 25.02.2020
2026 Rain 8 1003 81 10000 6.7 240 11:56 25.02.2020
2027 Rain 8 1003 81 10000 6.2 230 11:38 25.02.2020
2028 Rain 8 1003 81 10000 6.2 230 11:19 25.02.2020
2029 Rain 8 1003 81 10000 6.2 230 11:19 25.02.2020
2030 Rain 8 1003 81 10000 6.2 230 11:19 25.02.2020
2031 Rain 8 1004 87 10000 6.2 230 10:56 25.02.2020
2032 Rain 8 1004 81 10000 6.7 230 10:38 25.02.2020
2033 Rain 8 1004 81 10000 6.7 230 10:19 25.02.2020
2034 Rain 7 1004 81 10000 6.7 230 09:40 25.02.2020
2035 Rain 7 1004 81 10000 6.7 230 09:19 25.02.2020
2036 Rain 7 1005 100 10000 8.7 240 08:44 25.02.2020
2037 Rain 7 1005 100 10000 6.2 240 08:25 25.02.2020
2038 Rain 7 1005 81 10000 4.6 240 07:51 25.02.2020
2039 Rain 7 1005 81 10000 5.1 240 07:25 25.02.2020
2040 Rain 7 1005 81 10000 5.1 240 06:59 25.02.2020
2041 Rain 7 1005 81 10000 6.2 240 06:26 25.02.2020
2042 Rain 8 1006 76 10000 7.7 260 05:23 25.02.2020
2043 Clouds 9 1007 71 10000 6.2 250 02:44 25.02.2020
2044 Clouds 10 1008 71 10000 8.7 250 01:19 25.02.2020
2045 Clouds 9 1009 87 10000 2.6 210 00:34 25.02.2020
2046 Clouds 9 1009 87 10000 2.6 180 23:57 24.02.2020
2047 Clouds 9 1009 87 10000 2.6 180 23:38 24.02.2020
2048 Clouds 9 1009 87 10000 2.6 180 23:18 24.02.2020
2049 Clouds 9 1009 81 10000 3.6 160 22:37 24.02.2020
2050 Clouds 8 1009 87 10000 3.1 170 22:19 24.02.2020
2051 Clouds 8 1010 87 10000 3.6 170 21:55 24.02.2020
2052 Clouds 8 1010 87 10000 3.6 170 21:37 24.02.2020
2053 Clouds 8 1010 87 10000 4.6 160 21:18 24.02.2020
2054 Clouds 7 1010 93 10000 4.6 160 20:55 24.02.2020
2055 Clouds 7 1010 93 10000 4.6 150 20:37 24.02.2020
2056 Clouds 7 1010 93 10000 4.6 150 20:18 24.02.2020
2057 Clouds 7 1011 87 10000 5.1 140 19:55 24.02.2020
2058 Clouds 7 1011 87 10000 5.1 140 19:37 24.02.2020
2059 Clouds 7 1011 87 10000 5.1 150 19:19 24.02.2020
2060 Clouds 7 1012 81 10000 5.7 150 18:41 24.02.2020
2061 Clouds 7 1012 81 10000 5.7 150 18:23 24.02.2020
2062 Clouds 7 1012 100 10000 3.6 170 17:57 24.02.2020
2063 Rain 7 1013 81 10000 3.6 150 17:38 24.02.2020
2064 Rain 6 1014 87 10000 4.1 160 17:19 24.02.2020
2065 Clouds 6 1014 100 10000 3.6 180 16:55 24.02.2020
2066 Drizzle 6 1015 87 10000 4.1 140 16:37 24.02.2020
2067 Drizzle 5 1015 87 10000 4.1 140 16:18 24.02.2020
2068 Clouds 5 1016 93 10000 4.6 140 15:55 24.02.2020
2069 Clouds 5 1016 93 10000 4.6 140 15:37 24.02.2020
2070 Rain 5 1016 100 4000 4.1 180 15:19 24.02.2020
2071 Rain 5 1018 100 8000 4.6 160 14:41 24.02.2020
2072 Mist 5 1018 100 8000 4.6 160 14:23 24.02.2020
2073 Clouds 5 1020 86 10000 5.1 180 13:58 24.02.2020
2074 Drizzle 5 1020 86 9000 3.6 180 13:40 24.02.2020
2075 Drizzle 5 1020 86 9000 3.6 180 13:22 24.02.2020
2076 Rain 6 1021 75 10000 4.1 170 12:58 24.02.2020
2077 Clouds 6 1021 100 10000 3.6 180 12:39 24.02.2020
2078 Clouds 6 1021 100 10000 3.6 180 12:21 24.02.2020
2079 Clouds 6 1022 75 10000 3.1 190 11:47 24.02.2020
2080 Clouds 6 1022 75 10000 3.1 190 11:29 24.02.2020
2081 Clouds 6 1023 70 10000 3.1 190 10:51 24.02.2020
2082 Clouds 5 1023 70 10000 3.6 210 10:31 24.02.2020
2083 Clouds 5 1024 75 10000 2.1 210 09:55 24.02.2020
2084 Clouds 5 1024 75 10000 2.1 210 09:37 24.02.2020
2085 Clouds 4 1024 75 10000 1.5 230 09:18 24.02.2020
2086 Clouds 4 1024 75 10000 1 260 08:48 24.02.2020
2087 Clouds 4 1024 78 10000 2.6 250 08:28 24.02.2020
2088 Clouds 4 1024 78 10000 2.1 240 07:48 24.02.2020
2089 Clouds 4 1024 78 10000 1.5 270 07:30 24.02.2020
2090 Clouds 4 1024 78 10000 3.1 280 06:45 24.02.2020
2091 Clouds 4 1024 78 10000 2.1 310 06:21 24.02.2020
2092 Clouds 4 1024 78 10000 2.1 320 05:31 24.02.2020
2093 Clouds 4 1023 73 10000 3.6 310 04:48 24.02.2020
2094 Clouds 5 1022 75 10000 4.6 290 02:56 24.02.2020
2095 Rain 6 1021 75 10000 5.7 280 01:50 24.02.2020
2096 Rain 6 1021 75 10000 6.2 290 01:28 24.02.2020
2097 Rain 6 1021 75 10000 6.2 290 01:28 24.02.2020
2098 Rain 7 1019 75 10000 8.2 290 00:36 24.02.2020
2099 Rain 7 1019 75 10000 8.2 290 00:18 24.02.2020
2100 Rain 7 1019 81 0 10.3 300 23:42 23.02.2020
2101 Rain 7 1019 100 10000 10.8 310 23:20 23.02.2020
2102 Rain 9 1017 100 10000 10.8 270 22:57 23.02.2020
2103 Rain 10 1015 76 10000 12.9 260 22:39 23.02.2020
2104 Rain 11 1015 76 10000 12.9 260 22:19 23.02.2020
2105 Clouds 11 1015 76 10000 12.3 260 21:46 23.02.2020
2106 Clouds 11 1014 71 10000 13.4 260 21:20 23.02.2020
2107 Clouds 12 1014 71 10000 12.9 250 20:57 23.02.2020
2108 Clouds 12 1014 71 10000 12.9 250 20:57 23.02.2020
2109 Clouds 12 1014 71 10000 12.9 250 20:57 23.02.2020
2110 Clouds 12 1014 71 10000 12.9 250 20:57 23.02.2020
2111 Rain 12 1014 71 10000 12.9 250 20:39 23.02.2020
2112 Rain 12 1014 76 10000 12.3 250 20:20 23.02.2020
2113 Drizzle 12 1015 93 10000 15.9 260 19:57 23.02.2020
2114 Rain 12 1014 76 10000 10.8 250 19:39 23.02.2020
2115 Rain 12 1014 76 10000 12.9 250 19:19 23.02.2020
2116 Rain 12 1014 76 10000 12.9 260 18:57 23.02.2020
2117 Rain 12 1013 66 10000 12.3 250 18:37 23.02.2020
2118 Clouds 12 1013 66 10000 12.3 250 18:18 23.02.2020
2119 Clouds 12 1013 66 10000 11.3 250 17:56 23.02.2020
2120 Clouds 12 1013 66 10000 11.3 250 17:37 23.02.2020
2121 Rain 13 1013 66 10000 11.3 250 17:19 23.02.2020
2122 Rain 13 1013 66 10000 11.8 250 16:46 23.02.2020
2123 Rain 13 1013 66 10000 13.9 250 16:27 23.02.2020
2124 Rain 12 1014 66 10000 12.3 250 15:58 23.02.2020
2125 Clouds 12 1014 66 10000 12.3 250 15:38 23.02.2020
2126 Clouds 12 1014 66 10000 11.8 250 15:20 23.02.2020
2127 Rain 12 1015 66 10000 10.8 260 14:57 23.02.2020
2128 Rain 12 1015 71 10000 8.2 240 14:38 23.02.2020
2129 Rain 12 1015 71 10000 8.2 240 14:38 23.02.2020
2130 Clouds 12 1015 71 10000 8.2 240 14:20 23.02.2020
2131 Clouds 12 1015 71 10000 7.7 230 13:57 23.02.2020
2132 Clouds 12 1015 71 10000 7.7 230 13:38 23.02.2020
2133 Clouds 11 1016 71 10000 8.7 230 13:20 23.02.2020
2134 Clouds 11 1016 76 10000 8.2 220 12:42 23.02.2020
2135 Clouds 11 1016 76 10000 8.2 220 12:21 23.02.2020
2136 Clouds 10 1017 81 10000 9.3 220 11:55 23.02.2020
2137 Clouds 9 1018 76 10000 7.2 220 11:37 23.02.2020
2138 Clouds 9 1018 76 10000 7.2 220 11:18 23.02.2020
2139 Clouds 9 1018 100 10000 7.2 220 10:42 23.02.2020
2140 Clouds 8 1019 100 10000 9.8 220 10:24 23.02.2020
2141 Drizzle 8 1020 81 10000 4.6 190 09:59 23.02.2020
2142 Drizzle 8 1021 81 10000 5.1 210 09:39 23.02.2020
2143 Drizzle 8 1021 81 10000 5.1 210 09:21 23.02.2020
2144 Clouds 8 1021 100 10000 6.2 220 08:51 23.02.2020
2145 Drizzle 8 1022 81 10000 4.6 220 08:30 23.02.2020
2146 Drizzle 8 1022 76 10000 7.2 230 07:54 23.02.2020
2147 Drizzle 8 1022 76 10000 7.2 240 07:35 23.02.2020
2148 Clouds 8 1022 81 10000 5.7 240 06:39 23.02.2020
2149 Clouds 8 1022 100 10000 9.3 240 05:43 23.02.2020
2150 Rain 8 1023 81 10000 5.7 230 04:26 23.02.2020
2151 Clouds 8 1024 81 10000 6.2 240 02:58 23.02.2020
2152 Rain 8 1024 100 10000 8.2 240 02:25 23.02.2020
2153 Rain 8 1024 81 10000 6.2 230 01:23 23.02.2020
2154 Rain 8 1024 81 10000 6.7 230 00:45 23.02.2020
2155 Rain 9 1025 61 10000 6.7 240 00:24 23.02.2020
2156 Rain 9 1025 81 10000 9.8 260 23:45 22.02.2020
2157 Rain 9 1025 81 10000 9.8 260 23:45 22.02.2020
2158 Clouds 9 1025 75 10000 8.2 260 23:26 22.02.2020
2159 Clouds 10 1025 57 10000 8.2 250 22:56 22.02.2020
2160 Clouds 10 1024 57 10000 8.2 250 22:36 22.02.2020
2161 Clouds 10 1024 57 10000 8.2 250 22:18 22.02.2020
2162 Rain 10 1024 57 10000 9.3 250 21:40 22.02.2020
2163 Rain 10 1024 53 10000 8.7 260 21:21 22.02.2020
2164 Clouds 10 1024 43 10000 9.8 260 20:43 22.02.2020
2165 Clouds 11 1024 43 10000 8.2 260 20:24 22.02.2020
2166 Clouds 11 1023 37 10000 5.1 260 19:54 22.02.2020
2167 Clouds 11 1023 37 10000 5.1 260 19:54 22.02.2020
2168 Clouds 11 1023 37 10000 5.1 260 19:54 22.02.2020
2169 Clouds 11 1023 37 10000 6.2 260 19:36 22.02.2020
2170 Clouds 11 1023 37 10000 6.2 260 19:18 22.02.2020
2171 Clouds 11 1023 37 10000 6.2 260 19:18 22.02.2020
2172 Rain 11 1023 37 10000 4.6 240 18:39 22.02.2020
2173 Rain 11 1023 37 10000 4.1 230 18:21 22.02.2020
2174 Rain 11 1023 37 10000 4.1 230 18:21 22.02.2020
2175 Rain 11 1023 37 10000 4.1 230 18:21 22.02.2020
2176 Rain 11 1023 37 10000 4.1 230 17:57 22.02.2020
2177 Rain 11 1023 37 10000 4.1 230 17:57 22.02.2020
2178 Rain 11 1022 37 10000 5.1 220 17:37 22.02.2020
2179 Clouds 11 1022 37 10000 5.1 220 17:19 22.02.2020
2180 Clouds 11 1023 37 10000 5.1 230 16:55 22.02.2020
2181 Clouds 11 1023 37 10000 5.1 230 16:37 22.02.2020
2182 Clouds 11 1023 34 10000 5.1 230 16:19 22.02.2020
2183 Clouds 12 1023 32 10000 4.6 230 15:42 22.02.2020
2184 Clouds 12 1023 32 10000 4.6 230 15:22 22.02.2020
2185 Clouds 12 1024 37 10000 6.7 230 14:43 22.02.2020
2186 Clouds 11 1024 37 10000 6.2 220 14:22 22.02.2020
2187 Clouds 11 1024 40 10000 7.7 220 13:56 22.02.2020
2188 Clouds 11 1025 40 10000 6.2 220 13:38 22.02.2020
2189 Clouds 10 1025 40 10000 6.2 220 13:18 22.02.2020
2190 Rain 10 1026 43 10000 4.1 210 12:41 22.02.2020
2191 Rain 10 1026 43 10000 4.1 210 12:23 22.02.2020
2192 Clouds 9 1026 45 10000 5.7 220 11:44 22.02.2020
2193 Clouds 8 1027 45 10000 5.1 250 11:26 22.02.2020
2194 Clouds 7 1027 56 10000 3.1 190 10:56 22.02.2020
2195 Clouds 7 1027 56 10000 3.1 190 10:38 22.02.2020
2196 Clouds 6 1027 65 10000 3.1 190 10:19 22.02.2020
2197 Clouds 5 1027 60 10000 2.6 170 09:56 22.02.2020
2198 Clouds 5 1027 60 10000 2.6 160 09:38 22.02.2020
2199 Clouds 5 1027 60 10000 2.6 160 09:19 22.02.2020
2200 Clouds 3 1027 69 10000 2.6 140 08:44 22.02.2020
2201 Clouds 2 1026 74 10000 2.6 140 08:26 22.02.2020
2202 Clouds 1 1026 74 10000 3.1 140 07:43 22.02.2020
2203 Clouds 2 1026 74 10000 3.1 160 07:19 22.02.2020
2204 Clouds 2 1026 69 10000 3.6 160 06:46 22.02.2020
2205 Clouds 2 1027 74 10000 3.6 160 05:54 22.02.2020
2206 Clouds 2 1027 74 10000 3.1 160 04:29 22.02.2020
2207 Clouds 3 1028 74 10000 2.6 130 02:44 22.02.2020
2208 Clouds 3 1028 64 10000 2.6 160 01:57 22.02.2020
2209 Clouds 4 1028 64 10000 2.6 160 01:39 22.02.2020
2210 Clouds 4 1028 65 10000 2.6 180 01:21 22.02.2020
2211 Clouds 5 1029 65 10000 1.5 220 00:39 22.02.2020
2212 Clouds 5 1029 65 10000 1.5 220 00:19 22.02.2020
2213 Clouds 5 1028 65 10000 2.6 210 23:41 21.02.2020
2214 Clouds 5 1029 65 10000 2.1 240 23:20 21.02.2020
2215 Clouds 5 1029 65 10000 2.6 210 22:42 21.02.2020
2216 Clouds 5 1029 65 10000 2.1 200 22:24 21.02.2020
2217 Clouds 5 1029 65 10000 2.1 210 21:56 21.02.2020
2218 Clouds 5 1029 65 10000 2.1 210 21:37 21.02.2020
2219 Clouds 5 1029 65 10000 2.6 210 21:19 21.02.2020
2220 Clouds 5 1029 65 10000 2.6 210 20:46 21.02.2020
2221 Clouds 5 1029 65 10000 2.6 220 20:27 21.02.2020
2222 Clouds 5 1029 65 10000 2.6 220 20:27 21.02.2020
2223 Clouds 5 1029 60 10000 3.1 230 19:41 21.02.2020
2224 Clouds 5 1029 65 10000 3.1 230 19:23 21.02.2020
2225 Clouds 5 1028 56 10000 3.1 240 18:45 21.02.2020
2226 Clouds 5 1028 60 10000 3.6 240 18:24 21.02.2020
2227 Clouds 6 1028 56 10000 5.1 250 17:59 21.02.2020
2228 Clouds 6 1028 56 10000 5.1 250 17:39 21.02.2020
2229 Clouds 6 1028 56 10000 6.2 260 17:20 21.02.2020
2230 Clouds 6 1028 52 10000 6.2 250 16:56 21.02.2020
2231 Clouds 6 1028 52 10000 7.7 250 16:38 21.02.2020
2232 Clouds 7 1028 52 10000 7.7 250 16:20 21.02.2020
2233 Clouds 7 1028 49 10000 7.7 250 15:44 21.02.2020
2234 Clouds 7 1028 49 10000 7.7 250 15:19 21.02.2020
2235 Clouds 7 1028 52 10000 8.2 260 14:44 21.02.2020
2236 Clouds 7 1028 56 10000 6.2 260 14:22 21.02.2020
2237 Clouds 7 1028 56 10000 7.2 270 13:59 21.02.2020
2238 Clouds 6 1028 56 10000 6.7 250 13:41 21.02.2020
2239 Clouds 6 1028 56 10000 6.7 250 13:21 21.02.2020
2240 Clouds 6 1028 56 10000 5.7 250 12:46 21.02.2020
2241 Clouds 6 1028 60 10000 6.7 240 12:27 21.02.2020
2242 Clouds 6 1028 65 10000 7.2 250 11:58 21.02.2020
2243 Clouds 5 1028 65 10000 7.2 260 11:38 21.02.2020
2244 Clouds 5 1028 65 10000 7.2 260 11:20 21.02.2020
2245 Clouds 4 1028 69 10000 7.7 260 10:42 21.02.2020
2246 Clouds 4 1028 69 10000 7.2 260 10:22 21.02.2020
2247 Clouds 4 1027 69 10000 6.2 260 09:58 21.02.2020
2248 Clouds 4 1027 69 10000 6.2 260 09:39 21.02.2020
2249 Clouds 3 1027 74 10000 7.2 260 09:20 21.02.2020
2250 Clouds 3 1027 74 10000 5.7 260 08:56 21.02.2020
2251 Clouds 3 1026 69 10000 4.6 260 08:36 21.02.2020
2252 Clouds 3 1026 69 10000 4.6 260 08:18 21.02.2020
2253 Rain 3 1025 69 10000 5.1 270 07:41 21.02.2020
2254 Rain 3 1024 74 10000 6.2 270 07:21 21.02.2020
2255 Clouds 3 1024 74 10000 6.2 280 06:56 21.02.2020
2256 Clouds 3 1023 69 10000 8.7 290 06:32 21.02.2020
2257 Rain 3 1022 69 10000 10.8 280 05:56 21.02.2020
2258 Rain 3 1021 74 10000 13.4 280 05:30 21.02.2020
2259 Rain 4 1019 73 10000 11.8 270 04:26 21.02.2020
2260 Rain 4 1020 80 10000 10.3 280 03:46 21.02.2020
2261 Rain 5 1017 81 10000 10.8 270 02:58 21.02.2020
2262 Rain 6 1015 75 10000 6.2 220 01:32 21.02.2020
2263 Rain 6 1016 100 10000 7.7 240 00:46 21.02.2020
2264 Clouds 6 1015 100 10000 7.2 230 00:24 21.02.2020
2265 Clouds 6 1015 81 10000 3.1 190 23:58 20.02.2020
2266 Clouds 6 1016 81 10000 3.1 160 23:39 20.02.2020
2267 Clouds 6 1016 81 10000 3.1 160 23:21 20.02.2020
2268 Clouds 6 1016 81 10000 1.5 180 22:40 20.02.2020
2269 Clouds 6 1016 81 10000 1.5 180 22:21 20.02.2020
2270 Clouds 6 1016 81 10000 1.5 200 21:57 20.02.2020
2271 Clouds 6 1016 81 10000 1.5 200 21:57 20.02.2020
2272 Clouds 6 1017 81 10000 1.5 200 21:37 20.02.2020
2273 Clouds 6 1017 81 10000 1.5 200 21:19 20.02.2020
2274 Clouds 6 1017 81 10000 2.1 210 20:56 20.02.2020
2275 Clouds 6 1017 81 10000 2.1 160 20:38 20.02.2020
2276 Clouds 6 1017 81 10000 2.1 160 20:19 20.02.2020
2277 Clouds 6 1017 81 10000 1 190 19:58 20.02.2020
2278 Clouds 6 1017 81 10000 1 190 19:40 20.02.2020
2279 Clouds 7 1017 70 10000 1.5 170 19:22 20.02.2020
2280 Clouds 7 1018 70 10000 2.1 210 18:40 20.02.2020
2281 Clouds 7 1018 65 10000 1.5 230 18:20 20.02.2020
2282 Clouds 7 1018 70 10000 2.6 230 17:56 20.02.2020
2283 Clouds 8 1018 70 10000 2.6 230 17:38 20.02.2020
2284 Clouds 8 1018 70 10000 2.6 230 17:38 20.02.2020
2285 Clouds 8 1018 70 10000 2.6 230 17:18 20.02.2020
2286 Clouds 8 1018 70 10000 3.6 180 16:55 20.02.2020
2287 Clouds 8 1019 70 10000 3.1 190 16:37 20.02.2020
2288 Clouds 8 1019 70 10000 3.1 190 16:18 20.02.2020
2289 Clouds 8 1019 70 10000 4.1 180 15:42 20.02.2020
2290 Clouds 8 1019 70 10000 3.6 210 15:21 20.02.2020
2291 Clouds 7 1020 70 10000 3.6 210 14:57 20.02.2020
2292 Clouds 7 1020 70 10000 3.6 210 14:39 20.02.2020
2293 Clouds 7 1020 81 10000 3.6 210 14:20 20.02.2020
2294 Clouds 6 1020 81 10000 4.1 200 13:46 20.02.2020
2295 Clouds 6 1021 81 10000 3.1 190 13:20 20.02.2020
2296 Clouds 6 1021 86 10000 3.1 190 12:59 20.02.2020
2297 Rain 5 1022 86 10000 3.1 180 12:40 20.02.2020
2298 Rain 5 1022 86 10000 3.1 180 12:19 20.02.2020
2299 Rain 5 1022 100 10000 4.6 230 11:56 20.02.2020
2300 Rain 5 1022 100 10000 4.1 220 11:37 20.02.2020
2301 Clouds 5 1022 100 10000 4.1 220 11:19 20.02.2020
2302 Clouds 4 1022 75 10000 3.1 180 10:42 20.02.2020
2303 Rain 4 1022 80 10000 2.6 160 10:22 20.02.2020
2304 Drizzle 4 1022 100 10000 3.1 190 09:55 20.02.2020
2305 Drizzle 4 1022 100 10000 3.1 190 09:55 20.02.2020
2306 Clouds 4 1022 88 10000 3.6 160 09:37 20.02.2020
2307 Clouds 3 1022 88 10000 3.6 160 09:19 20.02.2020
2308 Clouds 3 1022 88 10000 2.6 150 08:41 20.02.2020
2309 Clouds 3 1022 87 10000 2.6 150 08:22 20.02.2020
2310 Clouds 2 1022 87 10000 3.1 160 07:47 20.02.2020
2311 Snow 2 1022 74 10000 2.6 160 07:27 20.02.2020
2312 Clouds 2 1022 80 10000 3.1 140 06:57 20.02.2020
2313 Snow 2 1022 80 10000 2.6 130 06:31 20.02.2020
2314 Snow 2 1022 80 10000 3.1 120 05:47 20.02.2020
2315 Snow 1 1022 86 10000 3.1 120 05:19 20.02.2020
2316 Clouds 1 1022 93 10000 2.6 200 04:29 20.02.2020
2317 Clouds 1 1023 85 10000 2.1 140 03:40 20.02.2020
2318 Clouds 1 1023 85 10000 2.6 160 02:45 20.02.2020
2319 Clouds 1 1024 80 10000 2.6 200 01:21 20.02.2020
2320 Clouds 1 1024 74 10000 2.1 210 00:35 20.02.2020
2321 Clouds 1 1024 74 10000 2.6 210 23:55 19.02.2020
2322 Clouds 1 1024 74 10000 3.6 240 23:24 19.02.2020
2323 Clouds 1 1023 74 10000 2.6 210 22:56 19.02.2020
2324 Clouds 2 1023 69 10000 3.1 230 22:38 19.02.2020
2325 Clouds 2 1023 69 10000 3.1 230 22:20 19.02.2020
2326 Clouds 2 1023 69 10000 3.6 230 21:56 19.02.2020
2327 Clouds 2 1023 69 10000 3.1 230 21:38 19.02.2020
2328 Clouds 2 1023 69 10000 3.1 230 21:18 19.02.2020
2329 Clouds 3 1023 64 10000 1 260 20:55 19.02.2020
2330 Clouds 3 1023 69 10000 2.1 260 20:36 19.02.2020
2331 Clouds 3 1023 69 10000 2.1 260 20:18 19.02.2020
2332 Clouds 4 1023 69 10000 2.6 260 19:55 19.02.2020
2333 Clouds 4 1023 69 10000 3.1 250 19:37 19.02.2020
2334 Clouds 4 1023 69 10000 3.1 250 19:18 19.02.2020
2335 Clouds 4 1022 65 10000 4.1 270 18:56 19.02.2020
2336 Clouds 4 1022 65 10000 5.7 280 18:37 19.02.2020
2337 Clouds 4 1022 65 10000 4.1 270 18:37 19.02.2020
2338 Clouds 4 1022 65 10000 5.7 280 18:19 19.02.2020
2339 Rain 4 1021 65 10000 8.2 270 17:42 19.02.2020
2340 Rain 5 1021 60 10000 7.7 270 17:19 19.02.2020
2341 Rain 5 1020 65 10000 8.2 290 16:44 19.02.2020
2342 Rain 5 1020 65 10000 8.2 290 16:20 19.02.2020
2343 Clouds 6 1020 60 10000 7.7 280 15:58 19.02.2020
2344 Rain 6 1020 93 10000 6.2 290 15:39 19.02.2020
2345 Rain 5 1020 93 10000 6.2 290 15:20 19.02.2020
2346 Clouds 5 1019 60 10000 8.7 280 14:42 19.02.2020
2347 Clouds 5 1019 60 10000 8.7 280 14:23 19.02.2020
2348 Clouds 5 1019 93 10000 6.2 270 13:59 19.02.2020
2349 Clouds 5 1019 93 10000 6.2 270 13:40 19.02.2020
2350 Rain 4 1018 86 10000 5.1 260 13:20 19.02.2020
2351 Rain 4 1018 86 10000 6.7 280 12:41 19.02.2020
2352 Clouds 4 1017 70 10000 8.7 270 12:19 19.02.2020
2353 Clouds 4 1017 70 10000 8.7 270 12:19 19.02.2020
2354 Rain 4 1017 100 10000 7.2 260 11:58 19.02.2020
2355 Rain 4 1017 86 10000 5.7 250 11:37 19.02.2020
2356 Rain 4 1017 86 10000 5.7 250 11:19 19.02.2020
2357 Rain 4 1017 86 10000 5.7 250 11:19 19.02.2020
2358 Rain 5 1017 86 10000 4.6 250 10:56 19.02.2020
2359 Rain 4 1017 86 10000 4.6 250 10:37 19.02.2020
2360 Rain 4 1017 100 10000 9.3 250 10:19 19.02.2020
2361 Rain 4 1017 100 10000 9.3 250 09:56 19.02.2020
2362 Rain 5 1016 100 10000 7.7 230 09:37 19.02.2020
2363 Rain 5 1016 100 10000 7.7 230 09:18 19.02.2020
2364 Clouds 5 1016 75 10000 6.2 200 08:43 19.02.2020
2365 Clouds 5 1016 75 10000 5.7 200 08:23 19.02.2020
2366 Clouds 4 1016 80 10000 6.7 190 07:41 19.02.2020
2367 Rain 4 1016 100 10000 6.7 200 07:20 19.02.2020
2368 Clouds 4 1017 80 10000 5.7 190 06:47 19.02.2020
2369 Clouds 4 1017 100 10000 5.7 200 06:19 19.02.2020
2370 Clouds 4 1019 65 10000 5.7 180 04:20 19.02.2020
2371 Clouds 5 1021 76 10000 4.1 190 02:54 19.02.2020
2372 Clouds 5 1021 76 10000 4.6 210 02:29 19.02.2020
2373 Clouds 5 1022 76 10000 4.6 220 01:23 19.02.2020
2374 Clouds 5 1022 78 10000 4.6 230 00:47 19.02.2020
2375 Clouds 5 1022 60 10000 5.7 230 00:28 19.02.2020
2376 Clouds 5 1023 78 10000 5.1 230 23:42 18.02.2020
2377 Clouds 5 1023 75 10000 5.1 230 23:20 18.02.2020
2378 Clouds 5 1024 75 10000 3.1 230 22:56 18.02.2020
2379 Clouds 5 1024 75 10000 4.1 210 22:37 18.02.2020
2380 Clouds 5 1024 75 10000 4.1 210 22:37 18.02.2020
2381 Clouds 5 1024 75 10000 4.1 210 22:19 18.02.2020
2382 Clouds 5 1024 75 10000 2.6 210 21:55 18.02.2020
2383 Clouds 5 1024 75 10000 3.1 210 21:37 18.02.2020
2384 Clouds 5 1024 75 10000 3.1 210 21:18 18.02.2020
2385 Clouds 5 1024 75 10000 3.1 210 20:56 18.02.2020
2386 Clouds 5 1025 75 10000 3.1 220 20:37 18.02.2020
2387 Rain 5 1025 78 10000 3.1 220 20:19 18.02.2020
2388 Rain 5 1025 78 10000 3.1 220 19:42 18.02.2020
2389 Rain 5 1025 78 10000 4.1 230 19:20 18.02.2020
2390 Rain 5 1025 78 10000 5.1 230 18:58 18.02.2020
2391 Rain 6 1025 78 10000 5.1 230 18:40 18.02.2020
2392 Clouds 5 1025 78 10000 5.7 240 18:20 18.02.2020
2393 Clouds 6 1025 70 10000 5.1 240 17:43 18.02.2020
2394 Clouds 5 1025 80 10000 4.1 250 17:20 18.02.2020
2395 Rain 5 1025 80 10000 6.2 280 16:58 18.02.2020
2396 Rain 6 1025 80 10000 6.2 280 16:38 18.02.2020
2397 Rain 6 1025 75 10000 6.7 240 16:18 18.02.2020
2398 Rain 7 1025 75 10000 5.1 250 15:40 18.02.2020
2399 Rain 7 1025 65 10000 8.7 250 15:19 18.02.2020
2400 Clouds 6 1025 52 10000 6.7 240 14:56 18.02.2020
2401 Clouds 6 1025 67 10000 7.2 250 14:38 18.02.2020
2402 Clouds 7 1025 64 10000 6.2 250 14:20 18.02.2020
2403 Rain 7 1026 65 10000 6.7 250 13:41 18.02.2020
2404 Clouds 6 1026 65 10000 6.7 250 13:22 18.02.2020
2405 Rain 7 1026 65 10000 6.7 250 13:22 18.02.2020
2406 Clouds 6 1026 93 10000 5.7 270 12:56 18.02.2020
2407 Clouds 6 1026 93 10000 5.1 250 12:38 18.02.2020
2408 Clouds 6 1026 93 10000 5.1 250 12:19 18.02.2020
2409 Clouds 6 1026 70 10000 7.7 240 11:43 18.02.2020
2410 Clouds 6 1026 70 10000 6.7 250 11:25 18.02.2020
2411 Rain 6 1026 70 10000 5.1 250 10:55 18.02.2020
2412 Clouds 6 1025 86 10000 7.2 240 10:37 18.02.2020
2413 Clouds 6 1025 86 10000 7.2 240 10:18 18.02.2020
2414 Clouds 5 1025 86 10000 8.2 250 09:55 18.02.2020
2415 Clouds 5 1025 70 10000 7.2 250 09:36 18.02.2020
2416 Clouds 5 1025 70 10000 7.2 250 09:18 18.02.2020
2417 Clouds 5 1025 75 10000 6.2 240 08:42 18.02.2020
2418 Clouds 5 1024 80 10000 4.1 240 08:20 18.02.2020
2419 Rain 5 1024 80 10000 5.7 210 07:56 18.02.2020
2420 Clouds 5 1024 80 10000 5.1 200 07:31 18.02.2020
2421 Clouds 5 1024 70 10000 6.2 230 06:56 18.02.2020
2422 Clouds 5 1023 75 10000 3.1 220 06:37 18.02.2020
2423 Clouds 5 1023 70 10000 7.2 240 05:59 18.02.2020
2424 Clouds 5 1023 100 10000 7.2 240 05:33 18.02.2020
2425 Clouds 5 1022 75 10000 5.1 230 03:59 18.02.2020
2426 Clouds 5 1022 75 10000 6.2 230 02:59 18.02.2020
2427 Rain 6 1021 75 10000 7.2 230 01:58 18.02.2020
2428 Rain 6 1021 81 10000 4.1 220 00:46 18.02.2020
2429 Rain 6 1021 100 10000 8.7 250 00:22 18.02.2020
2430 Clouds 6 1020 81 10000 4.6 220 23:44 17.02.2020
2431 Clouds 6 1020 81 10000 4.6 220 23:25 17.02.2020
2432 Clouds 7 1020 81 10000 2.6 210 22:59 17.02.2020
2433 Clouds 6 1020 81 10000 2.6 210 22:41 17.02.2020
2434 Clouds 6 1020 100 10000 3.1 210 22:20 17.02.2020
2435 Rain 6 1020 81 10000 4.6 230 21:41 17.02.2020
2436 Rain 6 1020 81 10000 4.1 230 21:20 17.02.2020
2437 Rain 6 1019 87 10000 3.6 220 20:59 17.02.2020
2438 Rain 6 1019 81 10000 4.1 220 20:39 17.02.2020
2439 Rain 6 1019 81 10000 4.1 220 20:20 17.02.2020
2440 Rain 6 1019 81 10000 5.1 230 19:56 17.02.2020
2441 Rain 6 1019 87 10000 4.6 240 19:38 17.02.2020
2442 Rain 7 1019 87 10000 4.6 240 19:19 17.02.2020
2443 Rain 7 1018 87 10000 4.1 230 18:37 17.02.2020
2444 Drizzle 7 1019 100 10000 4.6 250 18:19 17.02.2020
2445 Rain 7 1018 87 10000 3.6 240 17:57 17.02.2020
2446 Rain 7 1018 93 10000 3.1 200 17:36 17.02.2020
2447 Rain 7 1018 93 10000 3.1 200 17:18 17.02.2020
2448 Rain 7 1018 93 10000 3.6 150 16:43 17.02.2020
2449 Rain 7 1018 100 10000 7.7 260 16:23 17.02.2020
2450 Rain 7 1017 93 9000 3.6 130 15:59 17.02.2020
2451 Rain 7 1017 93 9000 3.6 130 15:59 17.02.2020
2452 Rain 7 1017 93 9000 3.6 130 15:41 17.02.2020
2453 Rain 7 1017 100 10000 2.1 180 15:22 17.02.2020
2454 Rain 7 1018 100 10000 2.1 170 14:46 17.02.2020
2455 Rain 7 1018 100 10000 3.1 270 14:27 17.02.2020
2456 Rain 7 1018 87 9000 1 0 13:59 17.02.2020
2457 Rain 7 1018 87 9000 1 0 13:40 17.02.2020
2458 Rain 7 1018 100 8000 1.5 280 13:19 17.02.2020
2459 Rain 7 1018 87 9000 3.1 330 12:54 17.02.2020
2460 Rain 7 1018 87 9000 3.1 330 12:54 17.02.2020
2461 Rain 7 1018 100 10000 1.5 300 12:36 17.02.2020
2462 Rain 7 1018 100 10000 1.5 300 12:36 17.02.2020
2463 Rain 8 1018 100 10000 1.5 300 12:18 17.02.2020
2464 Rain 8 1018 93 10000 1.5 200 11:43 17.02.2020
2465 Rain 8 1018 93 10000 1.5 200 11:24 17.02.2020
2466 Rain 8 1018 93 10000 2.1 150 10:56 17.02.2020
2467 Rain 8 1018 93 10000 1.5 160 10:38 17.02.2020
2468 Rain 8 1018 93 10000 1.5 160 10:19 17.02.2020
2469 Rain 8 1018 93 10000 1.5 180 09:55 17.02.2020
2470 Rain 8 1018 100 9000 2.1 240 09:36 17.02.2020
2471 Rain 8 1018 93 10000 1.5 170 09:18 17.02.2020
2472 Rain 8 1018 87 10000 2.6 250 08:41 17.02.2020
2473 Rain 8 1018 87 10000 2.6 250 08:22 17.02.2020
2474 Rain 8 1017 87 10000 3.6 270 07:55 17.02.2020
2475 Drizzle 8 1017 87 10000 6.7 270 07:26 17.02.2020
2476 Drizzle 9 1017 76 10000 7.7 270 06:56 17.02.2020
2477 Drizzle 9 1016 81 10000 4.6 240 06:36 17.02.2020
2478 Drizzle 9 1016 87 10000 5.1 270 05:59 17.02.2020
2479 Rain 9 1016 81 10000 9.8 290 05:38 17.02.2020
2480 Clouds 11 1014 50 10000 1.5 190 03:53 17.02.2020
2481 Clouds 11 1013 53 10000 4.1 130 02:19 17.02.2020
2482 Clouds 11 1012 53 10000 4.6 140 00:55 17.02.2020
2483 Clouds 11 1012 53 10000 4.1 140 00:25 17.02.2020
2484 Clouds 11 1012 53 10000 4.1 140 23:56 16.02.2020
2485 Clouds 11 1013 53 10000 4.1 160 23:33 16.02.2020
2486 Clouds 11 1012 50 10000 4.1 130 22:58 16.02.2020
2487 Clouds 11 1012 50 10000 3.6 130 22:39 16.02.2020
2488 Clouds 11 1012 50 10000 3.6 130 22:21 16.02.2020
2489 Clouds 11 1012 50 10000 4.1 150 21:59 16.02.2020
2490 Clouds 11 1012 50 10000 4.1 150 21:41 16.02.2020
2491 Clouds 11 1012 43 10000 5.1 160 21:23 16.02.2020
2492 Clouds 12 1012 43 10000 6.2 160 20:58 16.02.2020
2493 Clouds 12 1012 43 10000 6.2 160 20:40 16.02.2020
2494 Clouds 11 1012 46 10000 4.6 160 20:21 16.02.2020
2495 Clouds 12 1013 53 10000 4.6 160 19:58 16.02.2020
2496 Clouds 11 1013 53 10000 5.1 160 19:38 16.02.2020
2497 Clouds 11 1013 53 10000 5.1 160 19:19 16.02.2020
2498 Clouds 11 1013 53 10000 5.7 160 18:45 16.02.2020
2499 Clouds 11 1013 53 10000 5.1 160 18:26 16.02.2020
2500 Clouds 12 1013 43 10000 4.6 150 17:58 16.02.2020
2501 Clouds 12 1013 43 10000 5.7 150 17:40 16.02.2020
2502 Rain 12 1013 43 10000 5.7 150 17:19 16.02.2020
2503 Rain 12 1013 43 10000 5.7 160 16:56 16.02.2020
2504 Rain 13 1013 43 10000 5.7 160 16:37 16.02.2020
2505 Rain 13 1013 41 10000 6.7 170 16:19 16.02.2020
2506 Rain 13 1014 41 10000 7.7 170 15:41 16.02.2020
2507 Rain 12 1014 47 10000 6.7 150 15:22 16.02.2020
2508 Rain 12 1014 50 10000 5.7 140 14:55 16.02.2020
2509 Clouds 11 1015 57 10000 5.7 150 14:36 16.02.2020
2510 Clouds 11 1015 57 10000 5.7 150 14:18 16.02.2020
2511 Clouds 10 1015 57 10000 4.6 130 13:42 16.02.2020
2512 Rain 10 1016 61 10000 5.7 130 13:23 16.02.2020
2513 Clouds 10 1016 57 10000 5.1 140 12:41 16.02.2020
2514 Rain 10 1017 53 10000 4.1 150 12:20 16.02.2020
2515 Rain 9 1018 53 10000 5.1 160 11:57 16.02.2020
2516 Rain 9 1018 53 10000 4.6 150 11:37 16.02.2020
2517 Clouds 9 1018 53 10000 4.6 150 11:18 16.02.2020
2518 Clouds 9 1018 53 10000 4.1 150 10:56 16.02.2020
2519 Clouds 9 1018 53 10000 4.1 150 10:37 16.02.2020
2520 Clouds 9 1018 53 10000 5.7 160 10:37 16.02.2020
2521 Clouds 8 1018 53 10000 5.7 160 10:18 16.02.2020
2522 Clouds 8 1018 57 10000 4.6 150 09:39 16.02.2020
2523 Clouds 8 1018 57 10000 5.1 160 09:39 16.02.2020
2524 Clouds 8 1018 57 10000 4.6 150 09:21 16.02.2020
2525 Clouds 7 1018 65 10000 3.6 130 08:58 16.02.2020
2526 Clouds 7 1018 65 10000 3.6 140 08:40 16.02.2020
2527 Clouds 6 1018 65 10000 3.6 140 08:19 16.02.2020
2528 Clouds 6 1018 65 10000 3.6 150 07:43 16.02.2020
2529 Clouds 5 1018 65 10000 3.6 140 07:23 16.02.2020
2530 Clouds 6 1018 65 10000 4.6 150 06:31 16.02.2020
2531 Clouds 5 1019 70 10000 4.6 140 04:37 16.02.2020
2532 Clouds 5 1019 75 10000 4.1 110 03:23 16.02.2020
2533 Clouds 5 1020 75 10000 3.6 140 02:24 16.02.2020
2534 Clouds 5 1020 75 10000 4.6 120 01:39 16.02.2020
2535 Clouds 5 1020 75 10000 4.1 130 01:20 16.02.2020
2536 Clouds 5 1020 80 10000 4.6 130 00:51 16.02.2020
2537 Clouds 5 1020 80 10000 4.1 120 00:27 16.02.2020
2538 Clouds 5 1020 80 10000 3.6 100 23:44 15.02.2020
2539 Clouds 5 1020 75 10000 3.6 110 23:25 15.02.2020
2540 Clouds 5 1020 75 10000 3.6 110 22:59 15.02.2020
2541 Clouds 5 1020 75 10000 3.6 110 22:40 15.02.2020
2542 Clouds 5 1020 86 10000 4.6 130 22:19 15.02.2020
2543 Clouds 5 1021 80 10000 4.1 130 21:56 15.02.2020
2544 Clouds 5 1021 80 10000 4.6 130 21:37 15.02.2020
2545 Clouds 5 1021 80 10000 4.6 130 21:19 15.02.2020
2546 Clouds 5 1021 86 10000 4.6 120 20:39 15.02.2020
2547 Clouds 5 1021 75 10000 4.1 110 20:20 15.02.2020
2548 Clouds 5 1021 70 10000 4.6 140 19:44 15.02.2020
2549 Clouds 6 1021 70 10000 4.6 140 19:22 15.02.2020
2550 Clear 6 1022 75 10000 3.6 170 18:44 15.02.2020
2551 Clear 6 1022 75 10000 3.6 170 18:23 15.02.2020
2552 Clouds 8 1021 66 10000 3.6 150 17:58 15.02.2020
2553 Clouds 9 1021 61 10000 5.1 140 17:38 15.02.2020
2554 Clouds 9 1021 61 10000 5.1 140 17:20 15.02.2020
2555 Clouds 10 1021 57 10000 5.1 160 16:43 15.02.2020
2556 Clouds 10 1021 53 10000 5.7 170 16:24 15.02.2020
2557 Clouds 10 1022 57 10000 5.7 160 15:58 15.02.2020
2558 Clouds 10 1022 57 10000 4.1 180 15:40 15.02.2020
2559 Clouds 10 1022 57 10000 4.1 180 15:40 15.02.2020
2560 Clouds 10 1022 57 10000 4.1 180 15:22 15.02.2020
2561 Clouds 10 1023 57 10000 4.1 190 14:45 15.02.2020
2562 Clouds 10 1023 61 10000 4.1 190 14:19 15.02.2020
2563 Clouds 10 1024 61 10000 3.6 160 13:56 15.02.2020
2564 Clouds 9 1024 61 10000 4.1 180 13:37 15.02.2020
2565 Clouds 9 1024 61 10000 4.1 180 13:19 15.02.2020
2566 Clouds 9 1024 66 10000 4.6 170 12:42 15.02.2020
2567 Clouds 9 1025 66 10000 4.1 180 12:23 15.02.2020
2568 Clouds 8 1025 70 10000 4.1 170 11:49 15.02.2020
2569 Clouds 8 1025 70 10000 4.1 170 11:49 15.02.2020
2570 Clouds 7 1025 75 10000 3.1 150 11:30 15.02.2020
2571 Clouds 6 1025 81 10000 1.5 140 10:56 15.02.2020
2572 Clouds 5 1025 86 10000 2.1 130 10:37 15.02.2020
2573 Clouds 5 1025 86 10000 2.1 130 10:37 15.02.2020
2574 Clouds 4 1025 86 10000 2.1 130 10:18 15.02.2020
2575 Clouds 3 1025 93 10000 2.6 100 09:41 15.02.2020
2576 Clouds 2 1025 93 10000 3.1 100 09:23 15.02.2020
2577 Clouds 2 1025 93 10000 3.1 100 08:44 15.02.2020
2578 Clouds 1 1025 100 10000 3.6 110 08:25 15.02.2020
2579 Clouds 2 1025 100 10000 3.1 110 07:59 15.02.2020
2580 Clouds 2 1025 100 10000 2.6 110 07:38 15.02.2020
2581 Clouds 2 1025 100 10000 2.6 110 07:18 15.02.2020
2582 Clouds 2 1025 93 10000 3.1 100 06:37 15.02.2020
2583 Clouds 2 1025 93 10000 3.6 110 05:54 15.02.2020
2584 Clouds 2 1025 93 10000 3.6 110 04:48 15.02.2020
2585 Clouds 3 1026 93 10000 3.1 110 03:43 15.02.2020
2586 Clouds 3 1026 93 10000 2.6 110 02:52 15.02.2020
2587 Clouds 4 1026 93 10000 1.5 130 02:23 15.02.2020
2588 Clouds 4 1026 93 10000 2.6 110 01:41 15.02.2020
2589 Clouds 4 1027 93 10000 1.5 180 00:43 15.02.2020
2590 Clouds 4 1027 86 10000 1.5 170 00:24 15.02.2020
2591 Clouds 4 1027 86 10000 1 190 23:42 14.02.2020
2592 Clouds 4 1027 86 10000 1.5 200 23:20 14.02.2020
2593 Clouds 4 1026 80 10000 1 140 22:45 14.02.2020
2594 Clouds 4 1026 100 10000 1.5 160 22:24 14.02.2020
2595 Clouds 4 1026 80 10000 0.5 0 21:54 14.02.2020
2596 Clouds 4 1026 80 10000 1.92 226 21:36 14.02.2020
2597 Clouds 4 1026 80 10000 1.92 226 21:18 14.02.2020
2598 Clouds 4 1026 80 10000 1 310 20:42 14.02.2020
2599 Clouds 4 1025 100 10000 2.78 268 20:19 14.02.2020
2600 Clouds 5 1025 75 10000 2.1 260 19:56 14.02.2020
2601 Clouds 5 1025 75 10000 3.1 270 19:38 14.02.2020
2602 Clouds 5 1025 75 10000 3.1 270 19:18 14.02.2020
2603 Clouds 5 1024 75 10000 3.1 260 18:55 14.02.2020
2604 Rain 5 1024 75 10000 3.1 280 18:37 14.02.2020
2605 Rain 5 1024 75 10000 3.1 280 18:18 14.02.2020
2606 Clouds 5 1023 75 10000 3.6 280 17:41 14.02.2020
2607 Clouds 6 1023 75 10000 4.6 280 17:19 14.02.2020
2608 Clouds 6 1023 100 10000 4.6 270 16:57 14.02.2020
2609 Clouds 6 1023 100 10000 5.7 260 16:38 14.02.2020
2610 Clouds 6 1023 100 10000 5.7 260 16:19 14.02.2020
2611 Rain 6 1022 100 10000 5.1 260 15:54 14.02.2020
2612 Clouds 6 1022 75 10000 4.1 260 15:36 14.02.2020
2613 Clouds 6 1022 75 10000 4.1 260 15:18 14.02.2020
2614 Clouds 6 1021 81 10000 3.1 280 14:42 14.02.2020
2615 Rain 6 1022 100 10000 5.1 260 14:22 14.02.2020
2616 Clouds 6 1021 75 10000 4.1 260 13:59 14.02.2020
2617 Clouds 6 1021 75 10000 5.1 250 13:39 14.02.2020
2618 Clouds 6 1021 75 10000 5.1 250 13:20 14.02.2020
2619 Clouds 6 1021 75 10000 5.1 250 13:20 14.02.2020
2620 Clouds 6 1021 100 10000 5.1 260 12:57 14.02.2020
2621 Rain 6 1020 81 10000 5.7 260 12:38 14.02.2020
2622 Rain 6 1020 81 10000 5.7 260 12:20 14.02.2020
2623 Clouds 6 1020 81 10000 6.2 260 11:58 14.02.2020
2624 Clouds 6 1020 81 10000 6.2 260 11:39 14.02.2020
2625 Clouds 6 1020 100 10000 6.2 260 11:20 14.02.2020
2626 Clouds 6 1019 75 10000 5.7 260 10:44 14.02.2020
2627 Clouds 6 1018 81 10000 5.7 260 10:25 14.02.2020
2628 Clouds 5 1018 81 10000 6.2 270 09:56 14.02.2020
2629 Clouds 5 1017 86 10000 4.6 250 09:37 14.02.2020
2630 Clouds 5 1017 86 10000 4.6 250 09:19 14.02.2020
2631 Clouds 5 1016 86 10000 5.1 280 08:40 14.02.2020
2632 Clouds 5 1015 86 10000 4.6 260 08:22 14.02.2020
2633 Rain 5 1014 93 10000 5.1 270 07:51 14.02.2020
2634 Rain 5 1014 93 10000 5.1 270 07:31 14.02.2020
2635 Clouds 5 1013 86 10000 7.2 270 06:55 14.02.2020
2636 Rain 5 1012 93 10000 7.2 270 06:22 14.02.2020
2637 Clouds 5 1010 87 10000 7.7 270 05:44 14.02.2020
2638 Rain 5 1009 100 10000 9.3 270 03:52 14.02.2020
2639 Rain 5 1009 100 10000 9.3 270 03:52 14.02.2020
2640 Rain 5 1008 100 10000 7.7 260 03:28 14.02.2020
2641 Rain 5 1007 86 10000 3.6 200 02:19 14.02.2020
2642 Rain 5 1006 86 10000 3.6 190 01:21 14.02.2020
2643 Rain 4 1005 86 10000 4.6 180 00:37 14.02.2020
2644 Rain 4 1005 86 10000 4.6 180 00:18 14.02.2020
2645 Drizzle 4 1005 100 10000 5.1 200 23:41 13.02.2020
2646 Rain 4 1005 80 10000 3.6 180 23:19 13.02.2020
2647 Clouds 4 1005 86 10000 2.6 180 22:41 13.02.2020
2648 Clouds 4 1005 86 10000 2.1 200 22:20 13.02.2020
2649 Rain 4 1005 86 10000 2.1 200 21:59 13.02.2020
2650 Rain 4 1004 86 10000 3.6 180 21:40 13.02.2020
2651 Rain 4 1004 86 10000 3.6 180 21:21 13.02.2020
2652 Rain 4 1003 86 10000 3.1 170 20:43 13.02.2020
2653 Rain 4 1003 93 10000 3.6 110 20:23 13.02.2020
2654 Rain 4 1003 93 10000 4.1 120 19:58 13.02.2020
2655 Rain 4 1004 93 10000 1.5 90 19:40 13.02.2020
2656 Rain 3 1004 93 10000 1.5 90 19:21 13.02.2020
2657 Rain 3 1004 93 10000 1.5 60 18:59 13.02.2020
2658 Rain 4 1004 93 10000 1.5 60 18:41 13.02.2020
2659 Rain 4 1004 93 10000 3.1 70 18:22 13.02.2020
2660 Rain 4 1004 86 10000 3.6 70 17:58 13.02.2020
2661 Rain 4 1004 80 10000 3.1 120 17:37 13.02.2020
2662 Rain 4 1004 80 10000 3.1 120 17:19 13.02.2020
2663 Rain 4 1005 86 10000 5.1 120 16:55 13.02.2020
2664 Rain 4 1005 86 10000 5.1 120 16:55 13.02.2020
2665 Rain 4 1006 86 10000 5.1 150 16:36 13.02.2020
2666 Rain 4 1006 86 10000 5.1 150 16:36 13.02.2020
2667 Rain 4 1006 86 10000 5.1 150 16:18 13.02.2020
2668 Rain 4 1006 75 7000 7.7 170 15:54 13.02.2020
2669 Rain 4 1007 77 10000 7.2 140 15:36 13.02.2020
2670 Rain 5 1007 77 10000 7.2 140 15:18 13.02.2020
2671 Rain 5 1007 77 10000 8.2 140 14:54 13.02.2020
2672 Rain 5 1008 77 10000 7.7 140 14:36 13.02.2020
2673 Clouds 5 1008 63 10000 7.7 140 14:18 13.02.2020
2674 Clouds 5 1011 75 10000 7.2 140 13:41 13.02.2020
2675 Clouds 5 1011 75 10000 7.2 140 13:18 13.02.2020
2676 Rain 5 1011 75 10000 7.2 140 12:48 13.02.2020
2677 Rain 4 1013 80 10000 7.7 140 12:30 13.02.2020
2678 Clouds 3 1013 80 10000 4.1 140 11:58 13.02.2020
2679 Rain 3 1013 63 10000 4.1 140 11:40 13.02.2020
2680 Clouds 2 1014 78 10000 4.6 110 11:19 13.02.2020
2681 Clouds 2 1014 78 10000 4.6 110 10:43 13.02.2020
2682 Clouds 1 1015 78 10000 3.6 130 10:25 13.02.2020
2683 Clouds 1 1015 86 10000 3.6 110 09:50 13.02.2020
2684 Clouds 0 1016 78 10000 3.1 110 09:24 13.02.2020
2685 Clouds 0 1017 100 10000 3.6 100 08:48 13.02.2020
2686 Clouds 0 1017 92 10000 3.6 110 08:20 13.02.2020
2687 Clouds 0 1017 92 10000 3.6 110 07:46 13.02.2020
2688 Clouds -1 1017 92 10000 4.1 100 07:25 13.02.2020
2689 Clouds -1 1017 92 10000 3.1 120 06:59 13.02.2020
2690 Clouds -1 1017 92 10000 3.1 120 06:41 13.02.2020
2691 Clouds 0 1018 100 10000 2.1 140 05:59 13.02.2020
2692 Clouds 0 1018 89 10000 2.6 120 05:20 13.02.2020
2693 Clouds 0 1018 89 10000 3.1 170 04:24 13.02.2020
2694 Clouds 1 1019 89 10000 3.1 170 03:45 13.02.2020
2695 Clouds 1 1020 89 10000 2.6 180 02:59 13.02.2020
2696 Clouds 1 1020 89 10000 2.1 180 02:41 13.02.2020
2697 Clouds 1 1020 88 10000 2.1 180 02:18 13.02.2020
2698 Clouds 1 1020 86 10000 2.6 200 01:27 13.02.2020
2699 Snow 1 1020 86 10000 2.1 220 00:32 13.02.2020
2700 Snow 1 1019 86 10000 2.1 220 23:58 12.02.2020
2701 Snow 1 1019 86 10000 3.1 240 23:37 12.02.2020
2702 Clouds 1 1019 86 10000 3.1 240 23:18 12.02.2020
2703 Clouds 1 1019 86 10000 3.1 220 22:43 12.02.2020
2704 Clouds 1 1019 86 10000 3.1 220 22:43 12.02.2020
2705 Clouds 1 1019 86 10000 1.5 210 22:24 12.02.2020
2706 Rain 2 1019 86 10000 2.6 230 21:56 12.02.2020
2707 Rain 2 1018 86 10000 2.6 230 21:37 12.02.2020
2708 Rain 2 1018 86 10000 2.6 230 21:37 12.02.2020
2709 Rain 1 1019 86 10000 2.6 230 21:37 12.02.2020
2710 Rain 2 1018 86 10000 2.6 230 21:18 12.02.2020
2711 Rain 1 1018 86 10000 2.6 220 20:55 12.02.2020
2712 Rain 2 1018 100 10000 5.7 250 20:36 12.02.2020
2713 Rain 1 1018 100 10000 5.7 250 20:18 12.02.2020
2714 Clouds 1 1018 83 10000 1.5 200 19:43 12.02.2020
2715 Rain 1 1018 100 10000 4.6 260 19:22 12.02.2020
2716 Clouds 2 1017 83 10000 3.6 270 18:54 12.02.2020
2717 Clouds 1 1017 83 10000 5.7 260 18:36 12.02.2020
2718 Rain 2 1017 83 10000 5.7 260 18:18 12.02.2020
2719 Rain 2 1016 83 10000 6.7 240 17:40 12.02.2020
2720 Rain 3 1016 76 10000 6.7 240 17:19 12.02.2020
2721 Clouds 3 1016 80 10000 6.2 260 16:57 12.02.2020
2722 Clouds 3 1016 76 10000 7.2 260 16:37 12.02.2020
2723 Clouds 3 1016 83 10000 7.2 260 16:18 12.02.2020
2724 Clouds 3 1016 80 10000 8.2 280 15:39 12.02.2020
2725 Clouds 3 1016 80 10000 8.2 280 15:20 12.02.2020
2726 Rain 4 1015 75 10000 8.2 250 14:43 12.02.2020
2727 Rain 4 1015 75 10000 8.2 250 14:21 12.02.2020
2728 Snow 4 1016 100 6000 4.1 250 13:59 12.02.2020
2729 Rain 4 1016 86 10000 7.2 270 13:40 12.02.2020
2730 Rain 4 1016 86 10000 7.2 270 13:22 12.02.2020
2731 Rain 3 1016 93 5000 10.8 260 12:58 12.02.2020
2732 Rain 3 1016 71 10000 10.8 260 12:39 12.02.2020
2733 Clouds 3 1016 71 10000 10.8 260 12:19 12.02.2020
2734 Rain 4 1016 93 10000 9.3 240 11:59 12.02.2020
2735 Rain 4 1016 93 10000 9.3 240 11:40 12.02.2020
2736 Rain 4 1015 69 10000 9.8 250 11:21 12.02.2020
2737 Clouds 3 1015 69 10000 9.3 250 10:58 12.02.2020
2738 Clouds 3 1015 69 10000 9.3 250 10:40 12.02.2020
2739 Rain 3 1015 64 10000 9.3 240 10:20 12.02.2020
2740 Clear 3 1015 75 10000 8.7 250 09:42 12.02.2020
2741 Clouds 3 1015 74 10000 9.8 250 09:42 12.02.2020
2742 Clear 2 1015 75 10000 8.7 250 09:24 12.02.2020
2743 Rain 2 1015 69 10000 8.7 250 08:59 12.02.2020
2744 Rain 2 1015 69 10000 5.7 240 08:39 12.02.2020
2745 Rain 2 1015 69 10000 5.7 240 08:20 12.02.2020
2746 Rain 2 1015 69 10000 5.7 240 08:20 12.02.2020
2747 Rain 2 1015 74 10000 5.7 250 07:59 12.02.2020
2748 Rain 2 1014 74 10000 5.7 250 07:41 12.02.2020
2749 Rain 2 1014 74 10000 5.7 250 07:20 12.02.2020
2750 Clouds 2 1014 90 10000 7.2 260 06:43 12.02.2020
2751 Clouds 2 1014 90 10000 7.2 260 06:19 12.02.2020
2752 Clouds 2 1014 74 10000 6.2 250 05:30 12.02.2020
2753 Clouds 2 1013 74 10000 7.7 250 04:43 12.02.2020
2754 Clouds 2 1013 74 10000 7.7 250 03:58 12.02.2020
2755 Clouds 2 1014 69 10000 7.2 250 03:29 12.02.2020
2756 Rain 2 1014 74 10000 5.1 240 02:44 12.02.2020
2757 Rain 2 1014 74 10000 5.1 240 02:25 12.02.2020
2758 Rain 2 1013 74 10000 8.7 250 01:30 12.02.2020
2759 Rain 2 1013 74 10000 7.7 250 00:41 12.02.2020
2760 Rain 2 1013 74 10000 8.2 250 00:22 12.02.2020
2761 Rain 2 1012 80 10000 7.2 260 23:47 11.02.2020
2762 Rain 2 1013 100 10000 10.3 270 23:29 11.02.2020
2763 Rain 2 1012 100 2000 11.3 250 22:57 11.02.2020
2764 Rain 2 1011 85 10000 7.7 250 22:39 11.02.2020
2765 Rain 2 1011 85 10000 7.7 250 22:20 11.02.2020
2766 Rain 2 1010 80 10000 12.3 260 21:57 11.02.2020
2767 Rain 2 1011 100 9000 6.2 270 21:38 11.02.2020
2768 Snow 2 1011 100 9000 6.2 270 21:18 11.02.2020
2769 Rain 2 1010 93 9000 9.3 260 20:57 11.02.2020
2770 Rain 3 1009 64 10000 5.7 240 20:38 11.02.2020
2771 Rain 4 1009 64 10000 5.7 240 20:19 11.02.2020
2772 Rain 4 1009 64 10000 5.7 240 20:19 11.02.2020
2773 Rain 3 1009 64 10000 8.2 250 19:54 11.02.2020
2774 Rain 3 1009 60 10000 10.8 260 19:36 11.02.2020
2775 Rain 3 1009 60 10000 10.8 260 19:18 11.02.2020
2776 Rain 3 1008 56 10000 12.3 250 18:43 11.02.2020
2777 Rain 3 1008 56 10000 7.7 250 18:25 11.02.2020
2778 Clouds 5 1008 52 10000 9.8 260 17:55 11.02.2020
2779 Clouds 5 1007 52 10000 10.8 250 17:37 11.02.2020
2780 Rain 5 1007 45 10000 11.3 260 17:18 11.02.2020
2781 Rain 6 1007 45 10000 11.3 260 16:57 11.02.2020
2782 Clouds 5 1007 60 10000 9.3 260 16:38 11.02.2020
2783 Clouds 5 1007 60 10000 9.3 260 16:20 11.02.2020
2784 Clouds 5 1007 65 10000 6.7 260 15:47 11.02.2020
2785 Rain 5 1007 65 10000 10.8 250 15:29 11.02.2020
2786 Rain 6 1006 52 10000 10.8 260 14:58 11.02.2020
2787 Clouds 6 1007 60 10000 14.4 270 14:39 11.02.2020
2788 Clouds 6 1007 54 10000 14.4 270 14:19 11.02.2020
2789 Clouds 5 1007 54 10000 10.3 270 13:42 11.02.2020
2790 Clouds 6 1007 60 10000 11.8 250 13:22 11.02.2020
2791 Clouds 5 1007 65 10000 11.8 250 12:59 11.02.2020
2792 Clouds 4 1007 64 10000 6.2 270 12:40 11.02.2020
2793 Clouds 4 1007 64 10000 6.2 270 12:21 11.02.2020
2794 Clouds 3 1007 64 10000 6.7 300 11:55 11.02.2020
2795 Clouds 4 1007 60 3000 11.8 250 11:36 11.02.2020
2796 Clouds 4 1007 60 3000 11.8 250 11:36 11.02.2020
2797 Clouds 4 1007 60 3000 11.8 250 11:18 11.02.2020
2798 Clouds 5 1008 67 10000 10.8 260 10:39 11.02.2020
2799 Clouds 5 1008 67 10000 10.8 260 10:20 11.02.2020
2800 Clouds 4 1006 60 10000 8.7 250 09:57 11.02.2020
2801 Clouds 4 1006 60 10000 10.3 240 09:39 11.02.2020
2802 Clouds 4 1006 60 10000 10.3 240 09:20 11.02.2020
2803 Clouds 4 1006 60 10000 8.7 240 08:48 11.02.2020
2804 Clouds 4 1005 64 10000 8.7 240 08:25 11.02.2020
2805 Rain 4 1005 64 10000 7.2 250 07:49 11.02.2020
2806 Rain 4 1005 60 10000 6.7 250 07:28 11.02.2020
2807 Clouds 4 1005 60 10000 9.3 260 06:57 11.02.2020
2808 Clouds 4 1005 60 10000 9.3 260 06:38 11.02.2020
2809 Clouds 4 1004 60 10000 10.3 260 06:20 11.02.2020
2810 Rain 4 1003 60 10000 13.4 270 05:26 11.02.2020
2811 Clouds 4 1002 65 10000 8.2 260 04:54 11.02.2020
2812 Clouds 5 1000 75 10000 11.3 260 03:26 11.02.2020
2813 Rain 5 1001 100 10000 8.7 260 02:33 11.02.2020
2814 Rain 5 999 80 10000 7.2 250 01:39 11.02.2020
2815 Rain 5 1000 100 10000 9.3 250 00:50 11.02.2020
2816 Rain 6 1000 75 10000 9.3 250 00:23 11.02.2020
2817 Rain 6 1001 100 10000 7.7 250 23:40 10.02.2020
2818 Rain 5 1001 100 10000 7.7 250 23:21 10.02.2020
2819 Rain 5 1001 81 10000 7.2 240 22:43 10.02.2020
2820 Rain 5 1001 81 10000 7.2 240 22:21 10.02.2020
2821 Rain 5 1001 81 10000 7.2 240 22:21 10.02.2020
2822 Rain 5 1001 75 10000 6.7 220 21:58 10.02.2020
2823 Rain 6 1002 65 10000 8.2 220 21:40 10.02.2020
2824 Rain 6 1002 65 10000 8.2 220 21:22 10.02.2020
2825 Rain 6 1002 80 10000 7.7 230 20:55 10.02.2020
2826 Clouds 7 1003 80 10000 4.1 190 20:37 10.02.2020
2827 Clouds 6 1003 67 10000 4.1 190 20:19 10.02.2020
2828 Clouds 6 1005 65 10000 3.6 210 19:57 10.02.2020
2829 Clouds 6 1005 65 10000 5.7 230 19:36 10.02.2020
2830 Rain 6 1005 65 10000 5.7 230 19:18 10.02.2020
2831 Rain 6 1006 65 10000 9.8 230 18:55 10.02.2020
2832 Rain 7 1006 56 10000 10.8 240 18:37 10.02.2020
2833 Rain 7 1006 56 10000 10.8 240 18:18 10.02.2020
2834 Clouds 7 1006 52 10000 11.3 250 17:40 10.02.2020
2835 Clouds 7 1006 67 10000 9.3 250 17:22 10.02.2020
2836 Rain 7 1006 52 10000 13.4 240 16:59 10.02.2020
2837 Rain 7 1006 52 10000 13.4 240 16:41 10.02.2020
2838 Rain 8 1006 52 10000 11.8 250 16:20 10.02.2020
2839 Rain 8 1006 52 10000 11.8 250 16:20 10.02.2020
2840 Rain 8 1005 49 10000 13.9 260 15:59 10.02.2020
2841 Rain 8 1005 49 10000 13.9 260 15:59 10.02.2020
2842 Rain 7 1005 49 10000 13.9 260 15:40 10.02.2020
2843 Rain 7 1005 56 10000 17.5 260 15:22 10.02.2020
2844 Rain 7 1004 56 10000 15.4 250 14:58 10.02.2020
2845 Rain 7 1004 56 10000 15.4 250 14:58 10.02.2020
2846 Rain 7 1004 56 10000 15.4 250 14:39 10.02.2020
2847 Rain 8 1004 57 10000 13.4 250 14:19 10.02.2020
2848 Clouds 9 1003 57 10000 13.4 240 13:44 10.02.2020
2849 Rain 9 1005 75 10000 11.3 260 13:26 10.02.2020
2850 Rain 9 1003 53 10000 13.4 250 12:57 10.02.2020
2851 Rain 9 1003 53 10000 13.4 250 12:39 10.02.2020
2852 Rain 9 1003 57 10000 15.9 250 12:20 10.02.2020
2853 Rain 9 1001 61 10000 13.4 260 11:45 10.02.2020
2854 Rain 8 1001 61 10000 13.4 260 11:21 10.02.2020
2855 Rain 8 1001 66 10000 14.4 250 10:57 10.02.2020
2856 Rain 8 1001 93 10000 11.8 260 10:38 10.02.2020
2857 Rain 8 1001 93 10000 11.8 260 10:20 10.02.2020
2858 Rain 8 1000 70 10000 16.5 260 09:42 10.02.2020
2859 Rain 7 1001 100 5000 11.8 260 09:23 10.02.2020
2860 Drizzle 7 1000 93 10000 10.3 270 08:40 10.02.2020
2861 Rain 7 999 100 10000 11.3 260 08:21 10.02.2020
2862 Rain 7 999 100 3600 15.4 280 07:55 10.02.2020
2863 Rain 8 997 93 2000 11.3 300 07:35 10.02.2020
2864 Rain 9 996 81 10000 9.3 250 06:50 10.02.2020
2865 Rain 10 996 76 10000 8.7 230 05:38 10.02.2020
2866 Rain 13 997 62 10000 11.3 230 03:55 10.02.2020
2867 Clouds 13 997 58 10000 9.3 220 03:22 10.02.2020
2868 Clouds 13 998 54 10000 7.7 190 02:44 10.02.2020
2869 Clouds 12 1001 50 10000 5.1 170 01:25 10.02.2020
2870 Clouds 12 1002 59 10000 5.1 170 00:40 10.02.2020
2871 Clouds 11 1002 59 10000 5.7 190 00:22 10.02.2020
2872 Clouds 11 1003 59 10000 7.2 170 23:41 09.02.2020
2873 Clouds 10 1003 49 10000 7.2 170 23:23 09.02.2020
2874 Clouds 10 1005 49 10000 7.7 160 22:44 09.02.2020
2875 Clouds 10 1005 49 10000 7.7 160 22:23 09.02.2020
2876 Clouds 10 1006 49 10000 7.2 160 21:57 09.02.2020
2877 Clouds 10 1007 49 10000 7.2 170 21:38 09.02.2020
2878 Clouds 10 1007 49 10000 7.2 170 21:19 09.02.2020
2879 Clouds 10 1009 49 10000 7.2 180 20:45 09.02.2020
2880 Clouds 10 1009 54 10000 7.2 180 20:21 09.02.2020
2881 Clouds 10 1009 54 10000 7.2 170 19:55 09.02.2020
2882 Clouds 9 1010 53 10000 6.7 170 19:37 09.02.2020
2883 Clouds 10 1011 53 10000 7.7 170 19:18 09.02.2020
2884 Clouds 10 1011 53 10000 7.7 170 18:42 09.02.2020
2885 Clouds 9 1011 53 10000 7.2 170 18:23 09.02.2020
2886 Clouds 9 1011 53 10000 7.2 170 18:23 09.02.2020
2887 Clouds 10 1012 50 10000 7.2 170 17:56 09.02.2020
2888 Clouds 10 1012 53 10000 6.7 170 17:38 09.02.2020
2889 Clear 10 1012 53 10000 6.7 170 17:19 09.02.2020
2890 Clear 10 1013 53 10000 6.2 170 16:41 09.02.2020
2891 Clear 11 1014 50 10000 6.2 180 16:22 09.02.2020
2892 Clear 11 1014 50 10000 7.7 180 15:58 09.02.2020
2893 Clear 11 1014 50 10000 7.7 180 15:40 09.02.2020
2894 Clear 11 1015 57 10000 7.2 180 15:21 09.02.2020
2895 Clear 12 1016 54 10000 6.7 180 14:56 09.02.2020
2896 Clear 12 1017 54 10000 5.7 170 14:37 09.02.2020
2897 Clouds 12 1017 54 10000 5.7 170 14:18 09.02.2020
2898 Clouds 11 1018 58 10000 5.1 180 13:42 09.02.2020
2899 Clear 11 1018 54 10000 4.6 190 13:23 09.02.2020
2900 Clear 10 1019 57 10000 5.7 170 12:54 09.02.2020
2901 Clear 10 1020 61 10000 5.1 170 12:36 09.02.2020
2902 Clear 10 1020 61 10000 5.1 170 12:18 09.02.2020
2903 Clear 8 1021 65 10000 4.6 170 11:39 09.02.2020
2904 Clear 6 1021 65 10000 3.6 150 11:19 09.02.2020
2905 Clear 4 1021 75 10000 3.6 140 10:44 09.02.2020
2906 Clear 4 1021 73 10000 4.6 130 10:25 09.02.2020
2907 Clear 3 1022 73 10000 4.1 120 09:58 09.02.2020
2908 Clear 2 1022 86 10000 3.1 120 09:39 09.02.2020
2909 Clear 2 1022 86 10000 3.1 120 09:20 09.02.2020
2910 Clear 1 1022 92 9000 3.6 120 08:42 09.02.2020
2911 Clouds 0 1023 92 9000 4.1 120 08:23 09.02.2020
2912 Clouds -1 1023 86 9000 3.1 120 07:54 09.02.2020
2913 Clouds -1 1023 86 8000 4.6 110 07:30 09.02.2020
2914 Clouds 0 1023 86 10000 4.1 100 06:38 09.02.2020
2915 Clouds -1 1023 92 10000 3.6 110 05:55 09.02.2020
2916 Clouds 0 1023 86 10000 4.1 120 05:34 09.02.2020
2917 Clouds -1 1023 86 10000 4.1 110 04:49 09.02.2020
2918 Clouds -1 1024 86 10000 2.6 130 02:58 09.02.2020
2919 Clouds -1 1024 92 10000 2.6 120 02:38 09.02.2020
2920 Clouds 0 1024 86 10000 3.6 110 01:40 09.02.2020
2921 Clouds -1 1024 92 10000 2.1 130 01:19 09.02.2020
2922 Clouds -1 1024 86 10000 3.6 110 00:31 09.02.2020
2923 Clouds 0 1024 77 10000 4.1 110 23:50 08.02.2020
2924 Clouds 0 1024 77 10000 3.6 110 23:25 08.02.2020
2925 Clouds 0 1024 72 10000 2.6 110 22:59 08.02.2020
2926 Clouds 0 1024 72 10000 2.6 110 22:40 08.02.2020
2927 Clouds 0 1024 72 10000 3.1 110 22:20 08.02.2020
2928 Clouds 0 1024 72 10000 3.1 110 21:47 08.02.2020
2929 Clouds 0 1024 80 10000 3.1 110 21:29 08.02.2020
2930 Clouds 0 1024 86 10000 3.6 100 20:59 08.02.2020
2931 Clouds 0 1024 86 10000 3.6 100 20:59 08.02.2020
2932 Clouds 1 1024 86 10000 3.6 100 20:40 08.02.2020
2933 Clouds 1 1024 80 10000 3.6 100 20:20 08.02.2020
2934 Clouds 1 1024 80 10000 3.1 110 19:58 08.02.2020
2935 Clouds 1 1024 74 10000 3.1 100 19:39 08.02.2020
2936 Clouds 1 1024 74 10000 3.1 100 19:20 08.02.2020
2937 Clouds 2 1024 69 10000 3.1 100 18:57 08.02.2020
2938 Clouds 2 1024 69 10000 2.6 100 18:38 08.02.2020
2939 Clouds 3 1024 65 10000 1.5 110 18:19 08.02.2020
2940 Clouds 4 1024 65 10000 1.5 110 17:41 08.02.2020
2941 Clouds 5 1024 60 10000 1 180 17:19 08.02.2020
2942 Clouds 6 1024 60 10000 1.5 190 16:42 08.02.2020
2943 Clouds 6 1024 56 10000 1.5 200 16:23 08.02.2020
2944 Clouds 6 1024 56 10000 1.5 180 15:58 08.02.2020
2945 Clouds 6 1024 56 10000 1.5 180 15:39 08.02.2020
2946 Clouds 6 1024 56 10000 1.5 190 15:18 08.02.2020
2947 Clouds 7 1024 56 10000 2.1 190 14:45 08.02.2020
2948 Clouds 6 1024 56 10000 1.5 180 14:22 08.02.2020
2949 Clear 6 1024 60 10000 1.5 170 13:58 08.02.2020
2950 Clear 6 1024 60 10000 1.5 170 13:40 08.02.2020
2951 Clear 6 1024 65 10000 1.5 0 13:21 08.02.2020
2952 Clear 5 1025 65 10000 2.1 170 12:40 08.02.2020
2953 Clear 5 1025 69 10000 3.1 190 12:22 08.02.2020
2954 Clear 4 1025 64 10000 3.1 140 11:56 08.02.2020
2955 Clear 4 1025 74 10000 3.1 130 11:38 08.02.2020
2956 Clear 3 1025 74 10000 3.1 130 11:19 08.02.2020
2957 Clear 1 1025 80 10000 3.6 140 10:42 08.02.2020
2958 Clear 1 1025 80 10000 2.6 140 10:22 08.02.2020
2959 Clear -1 1025 70 10000 2.1 120 09:51 08.02.2020
2960 Clear -1 1025 80 10000 1 0 09:27 08.02.2020
2961 Clear -2 1025 86 10000 3.1 110 08:54 08.02.2020
2962 Clear -3 1025 92 10000 2.6 110 08:36 08.02.2020
2963 Clear -3 1025 92 10000 2.6 110 08:18 08.02.2020
2964 Clear -3 1025 92 10000 4.1 110 07:44 08.02.2020
2965 Clear -3 1025 92 10000 2.6 100 07:19 08.02.2020
2966 Clear -3 1024 92 10000 3.6 100 06:28 08.02.2020
2967 Clear -3 1024 92 10000 2.6 110 05:48 08.02.2020
2968 Clear -3 1024 92 10000 2.6 110 05:48 08.02.2020
2969 Clear -3 1024 92 10000 3.1 110 05:29 08.02.2020
2970 Clear -3 1025 92 10000 3.1 100 04:48 08.02.2020
2971 Clear -3 1025 92 10000 2.6 100 03:48 08.02.2020
2972 Clear -2 1025 92 10000 2.6 100 02:51 08.02.2020
2973 Clear -2 1025 92 10000 2.1 90 01:41 08.02.2020
2974 Clear -2 1026 92 10000 1.5 110 01:22 08.02.2020
2975 Clear -2 1026 86 10000 2.6 100 00:39 08.02.2020
2976 Clear -2 1026 86 10000 2.6 100 00:20 08.02.2020
2977 Clear -2 1026 86 10000 1.5 110 23:43 07.02.2020
2978 Clear -1 1026 86 10000 0.5 0 23:20 07.02.2020
2979 Clear -1 1026 86 10000 1.5 120 22:56 07.02.2020
2980 Clear -1 1026 86 10000 2.1 110 22:37 07.02.2020
2981 Clear -1 1026 86 10000 2.1 110 22:19 07.02.2020
2982 Clear -1 1026 86 10000 3.1 90 21:42 07.02.2020
2983 Clear -1 1026 86 10000 3.1 90 21:22 07.02.2020
2984 Clear -1 1026 86 10000 3.6 100 20:54 07.02.2020
2985 Clear 0 1027 78 10000 2.6 90 20:36 07.02.2020
2986 Clear 0 1027 73 10000 2.6 90 20:18 07.02.2020
2987 Clear 0 1027 74 10000 2.6 90 19:40 07.02.2020
2988 Clear 0 1027 74 10000 2.6 90 19:19 07.02.2020
2989 Clear 1 1027 69 10000 2.6 80 18:46 07.02.2020
2990 Clear 1 1027 69 10000 2.1 70 18:27 07.02.2020
2991 Clear 3 1027 64 10000 3.1 80 17:57 07.02.2020
2992 Clear 2 1027 64 10000 3.1 80 17:57 07.02.2020
2993 Clear 3 1027 64 10000 3.1 80 17:39 07.02.2020
2994 Clouds 4 1027 64 10000 4.1 100 17:21 07.02.2020
2995 Clouds 4 1027 64 10000 5.1 100 16:52 07.02.2020
2996 Clouds 4 1027 64 10000 5.1 100 16:52 07.02.2020
2997 Clouds 4 1027 60 10000 5.1 110 16:25 07.02.2020
2998 Clouds 5 1027 60 10000 5.7 100 15:56 07.02.2020
2999 Clouds 5 1027 60 10000 5.7 100 15:56 07.02.2020
3000 Clouds 5 1027 60 10000 5.1 110 15:38 07.02.2020
3001 Clouds 5 1027 60 10000 5.1 110 15:20 07.02.2020
3002 Clouds 5 1027 60 10000 5.1 110 15:20 07.02.2020
3003 Clouds 4 1027 60 10000 5.1 120 14:42 07.02.2020
3004 Clouds 4 1028 64 10000 3.6 110 14:24 07.02.2020
3005 Clouds 4 1028 64 10000 2.1 110 13:57 07.02.2020
3006 Clouds 4 1029 69 10000 1.5 120 13:39 07.02.2020
3007 Clouds 4 1028 64 10000 2.1 110 13:39 07.02.2020
3008 Clouds 4 1029 69 10000 1.5 120 13:20 07.02.2020
3009 Clouds 3 1029 69 10000 1.5 20 12:45 07.02.2020
3010 Clouds 3 1029 80 10000 1 0 12:26 07.02.2020
3011 Clouds 3 1030 80 10000 1 0 11:59 07.02.2020
3012 Clouds 2 1030 80 10000 0.5 0 11:40 07.02.2020
3013 Clouds 1 1030 80 10000 0.5 0 11:19 07.02.2020
3014 Clouds 0 1030 92 10000 1.5 100 10:41 07.02.2020
3015 Clouds 0 1030 92 10000 1.5 100 10:21 07.02.2020
3016 Clouds -1 1030 86 10000 1.5 100 09:47 07.02.2020
3017 Clouds -1 1030 92 10000 1.5 100 09:27 07.02.2020
3018 Clouds -2 1030 92 10000 1.5 100 08:58 07.02.2020
3019 Clouds -2 1030 92 10000 1.5 110 08:40 07.02.2020
3020 Clouds -2 1030 92 10000 1.5 110 08:20 07.02.2020
3021 Clouds -3 1030 92 10000 2.1 110 07:43 07.02.2020
3022 Clouds -3 1030 92 10000 2.6 110 07:24 07.02.2020
3023 Clouds -3 1030 92 10000 2.6 90 06:44 07.02.2020
3024 Clouds -3 1030 92 10000 2.1 110 06:23 07.02.2020
3025 Clouds -3 1030 85 10000 2.1 100 05:43 07.02.2020
3026 Clouds -3 1030 92 10000 1 0 04:24 07.02.2020
3027 Clouds -3 1030 92 10000 1.5 130 02:32 07.02.2020
3028 Clouds -3 1030 92 10000 1 140 01:35 07.02.2020
3029 Clouds -3 1030 100 10000 1 120 00:39 07.02.2020
3030 Clouds -2 1031 86 10000 0.5 0 23:57 06.02.2020
3031 Clouds -2 1030 92 10000 1.5 100 23:36 06.02.2020
3032 Clouds -2 1030 92 10000 1.5 100 23:18 06.02.2020
3033 Clear -2 1030 92 10000 0.5 0 22:43 06.02.2020
3034 Clear -2 1030 92 10000 0.5 300 22:24 06.02.2020
3035 Clear -2 1030 92 10000 0.5 110 21:37 06.02.2020
3036 Clear -2 1030 92 10000 0.5 110 21:19 06.02.2020
3037 Clear -1 1030 92 10000 0.5 10 20:56 06.02.2020
3038 Clear -1 1030 86 10000 1 0 20:37 06.02.2020
3039 Clouds -1 1030 86 10000 1 0 20:18 06.02.2020
3040 Clouds -1 1030 86 10000 1 50 19:58 06.02.2020
3041 Clouds 0 1031 86 10000 1 40 19:39 06.02.2020
3042 Clouds 0 1031 86 10000 1 40 19:21 06.02.2020
3043 Clouds 1 1030 82 10000 0.5 30 18:57 06.02.2020
3044 Clouds 1 1030 74 10000 1 40 18:38 06.02.2020
3045 Clouds 1 1030 74 10000 1 40 18:19 06.02.2020
3046 Clouds 2 1031 69 10000 1.5 20 17:42 06.02.2020
3047 Clouds 2 1030 69 10000 1.5 20 17:21 06.02.2020
3048 Clouds 2 1031 64 10000 2.6 10 16:54 06.02.2020
3049 Clouds 3 1031 69 10000 4.1 10 16:36 06.02.2020
3050 Clouds 3 1031 69 10000 4.1 360 16:18 06.02.2020
3051 Clouds 3 1031 69 10000 3.6 350 15:41 06.02.2020
3052 Clouds 3 1031 69 10000 3.6 350 15:21 06.02.2020
3053 Clouds 3 1031 69 10000 3.1 350 14:46 06.02.2020
3054 Clouds 3 1031 74 10000 2.6 340 14:26 06.02.2020
3055 Clouds 3 1031 69 10000 2.6 10 13:46 06.02.2020
3056 Clouds 3 1032 69 10000 2.6 20 13:27 06.02.2020
3057 Clouds 3 1032 69 10000 3.6 330 12:57 06.02.2020
3058 Clouds 3 1032 69 10000 2.1 340 12:37 06.02.2020
3059 Clouds 3 1032 69 10000 2.1 340 12:18 06.02.2020
3060 Clouds 3 1032 69 10000 1 0 11:55 06.02.2020
3061 Clouds 3 1032 74 10000 1.5 350 11:37 06.02.2020
3062 Clouds 3 1032 74 10000 1.5 350 11:37 06.02.2020
3063 Clouds 2 1032 74 10000 1.5 350 11:18 06.02.2020
3064 Clouds 1 1032 80 10000 1.5 270 10:41 06.02.2020
3065 Clouds 1 1032 80 10000 1.5 270 10:22 06.02.2020
3066 Clouds 0 1032 65 10000 1 0 09:59 06.02.2020
3067 Clouds -1 1032 65 10000 1 0 09:40 06.02.2020
3068 Clouds -1 1032 80 10000 1.5 130 09:20 06.02.2020
3069 Clouds -2 1031 92 10000 0.5 0 08:45 06.02.2020
3070 Clouds -1 1031 86 10000 1 0 08:45 06.02.2020
3071 Clouds -2 1031 92 10000 0.5 0 08:24 06.02.2020
3072 Clouds -3 1031 92 10000 0.5 0 07:55 06.02.2020
3073 Clouds -3 1031 92 10000 1.5 130 07:32 06.02.2020
3074 Clouds -3 1031 92 10000 1.5 130 06:48 06.02.2020
3075 Clouds -3 1032 92 10000 1.5 110 06:19 06.02.2020
3076 Clouds -2 1032 86 10000 1.5 90 05:32 06.02.2020
3077 Clouds -3 1033 92 10000 2.6 110 03:49 06.02.2020
3078 Clouds -2 1033 86 10000 2.6 110 02:58 06.02.2020
3079 Clouds -2 1034 86 10000 1 0 01:56 06.02.2020
3080 Clouds -2 1034 86 10000 2.6 100 01:24 06.02.2020
3081 Clouds -2 1035 80 10000 2.1 110 00:29 06.02.2020
3082 Clouds -2 1035 80 10000 1.5 100 23:57 05.02.2020
3083 Clouds -2 1035 80 10000 1.5 100 23:39 05.02.2020
3084 Clouds -2 1035 80 10000 1.5 100 23:39 05.02.2020
3085 Clouds -2 1035 86 10000 1.5 100 23:20 05.02.2020
3086 Clouds -2 1035 86 10000 2.6 110 22:41 05.02.2020
3087 Clouds -2 1035 86 10000 0.5 20 22:23 05.02.2020
3088 Clouds -2 1035 86 10000 0.5 0 21:57 05.02.2020
3089 Clouds -2 1035 86 10000 0.5 0 21:39 05.02.2020
3090 Clouds -2 1035 86 10000 1 0 21:20 05.02.2020
3091 Clouds -1 1035 78 10000 1 140 20:39 05.02.2020
3092 Clouds -1 1035 72 10000 1 140 20:21 05.02.2020
3093 Clouds -1 1034 69 10000 1 0 19:59 05.02.2020
3094 Clouds -1 1035 69 10000 0.5 0 19:41 05.02.2020
3095 Clouds 0 1035 69 10000 0.5 0 19:19 05.02.2020
3096 Clouds 0 1035 69 10000 1 0 18:57 05.02.2020
3097 Clouds 0 1035 69 10000 1 0 18:39 05.02.2020
3098 Clouds 1 1034 64 10000 2.1 300 18:19 05.02.2020
3099 Clouds 1 1034 64 10000 2.1 300 18:19 05.02.2020
3100 Clouds 3 1033 51 10000 4.1 320 17:40 05.02.2020
3101 Clouds 3 1033 51 10000 4.1 320 17:20 05.02.2020
3102 Clouds 3 1033 55 10000 4.1 320 16:58 05.02.2020
3103 Clouds 4 1033 48 10000 4.1 340 16:40 05.02.2020
3104 Clouds 4 1033 48 10000 4.1 340 16:40 05.02.2020
3105 Clouds 4 1033 48 10000 4.1 340 16:22 05.02.2020
3106 Clouds 5 1033 52 10000 4.1 310 15:47 05.02.2020
3107 Clouds 5 1033 52 10000 3.6 330 15:20 05.02.2020
3108 Clouds 5 1033 52 10000 5.1 320 14:59 05.02.2020
3109 Clouds 4 1033 55 10000 5.7 340 14:41 05.02.2020
3110 Clouds 4 1033 55 10000 5.7 340 14:41 05.02.2020
3111 Clouds 4 1033 55 10000 5.7 340 14:21 05.02.2020
3112 Clouds 4 1033 55 10000 4.1 340 13:44 05.02.2020
3113 Clouds 4 1033 55 10000 4.1 340 13:43 05.02.2020
3114 Clouds 4 1032 55 10000 5.1 350 13:23 05.02.2020
3115 Clouds 4 1032 59 10000 5.7 340 12:59 05.02.2020
3116 Clouds 3 1032 59 10000 6.7 350 12:38 05.02.2020
3117 Clouds 3 1032 59 10000 6.7 350 12:19 05.02.2020
3118 Clouds 3 1030 59 10000 7.2 330 11:41 05.02.2020
3119 Clouds 3 1030 59 10000 7.2 330 11:23 05.02.2020
3120 Clouds 3 1030 59 10000 7.2 340 10:58 05.02.2020
3121 Clouds 3 1029 64 10000 7.7 340 10:39 05.02.2020
3122 Clouds 2 1029 64 10000 7.7 340 10:18 05.02.2020
3123 Clouds 2 1030 69 10000 4.6 340 09:43 05.02.2020
3124 Clouds 2 1029 69 10000 5.7 330 09:22 05.02.2020
3125 Clouds 2 1028 69 10000 5.7 320 08:56 05.02.2020
3126 Clouds 2 1028 69 10000 5.7 320 08:37 05.02.2020
3127 Clouds 2 1028 69 10000 6.2 320 08:19 05.02.2020
3128 Clouds 2 1027 64 10000 6.7 320 07:42 05.02.2020
3129 Clouds 2 1026 64 10000 5.7 320 07:19 05.02.2020
3130 Clouds 2 1022 74 10000 5.7 310 06:39 05.02.2020
3131 Clouds 2 1024 69 10000 8.7 310 06:20 05.02.2020
3132 Clouds 3 1023 69 10000 8.7 310 05:20 05.02.2020
3133 Clouds 3 1022 74 10000 8.2 310 04:58 05.02.2020
3134 Clouds 3 1022 74 10000 7.7 300 04:25 05.02.2020
3135 Clouds 3 1021 75 10000 7.7 280 02:53 05.02.2020
3136 Clouds 2 1020 79 10000 6.7 280 02:21 05.02.2020
3137 Clouds 2 1020 79 10000 7.7 290 01:29 05.02.2020
3138 Rain 2 1020 85 10000 6.7 290 00:24 05.02.2020
3139 Clouds 2 1019 93 10000 6.2 290 23:41 04.02.2020
3140 Clouds 2 1019 93 10000 6.2 290 23:21 04.02.2020
3141 Clouds 2 1019 93 10000 6.2 290 22:57 04.02.2020
3142 Clouds 2 1018 95 10000 6.7 290 22:39 04.02.2020
3143 Clouds 2 1018 95 10000 6.7 290 22:20 04.02.2020
3144 Clouds 2 1018 95 10000 6.7 290 22:20 04.02.2020
3145 Rain 2 1019 100 10000 5.1 280 21:56 04.02.2020
3146 Clouds 2 1017 95 10000 5.1 280 21:37 04.02.2020
3147 Clouds 2 1017 95 10000 5.1 280 21:18 04.02.2020
3148 Clouds 2 1017 95 10000 4.1 280 20:54 04.02.2020
3149 Clouds 2 1017 95 10000 3.6 280 20:36 04.02.2020
3150 Clouds 2 1017 82 10000 3.6 280 20:18 04.02.2020
3151 Clouds 2 1016 82 10000 4.1 290 19:42 04.02.2020
3152 Clouds 2 1016 82 10000 4.1 290 19:24 04.02.2020
3153 Clouds 2 1016 86 10000 5.7 290 18:59 04.02.2020
3154 Clouds 2 1015 86 10000 5.1 290 18:39 04.02.2020
3155 Clouds 2 1015 86 10000 5.1 290 18:20 04.02.2020
3156 Clouds 2 1015 100 10000 5.7 280 17:54 04.02.2020
3157 Rain 2 1014 86 10000 7.2 290 17:36 04.02.2020
3158 Rain 3 1014 86 10000 7.2 290 17:18 04.02.2020
3159 Rain 3 1014 86 10000 7.7 280 16:38 04.02.2020
3160 Rain 4 1013 70 10000 7.7 280 16:20 04.02.2020
3161 Rain 4 1012 70 10000 6.7 270 15:56 04.02.2020
3162 Rain 4 1012 70 10000 6.7 270 15:56 04.02.2020
3163 Rain 4 1012 70 10000 6.7 270 15:56 04.02.2020
3164 Rain 4 1012 65 10000 6.7 310 15:38 04.02.2020
3165 Rain 4 1012 65 10000 6.7 310 15:20 04.02.2020
3166 Clouds 4 1012 100 10000 4.6 280 14:45 04.02.2020
3167 Clouds 4 1012 100 10000 4.6 280 14:26 04.02.2020
3168 Clouds 4 1011 68 10000 10.3 290 13:59 04.02.2020
3169 Clouds 4 1011 68 10000 10.3 290 13:59 04.02.2020
3170 Rain 4 1011 75 10000 7.7 290 13:40 04.02.2020
3171 Rain 4 1011 75 10000 7.7 290 13:22 04.02.2020
3172 Rain 4 1011 80 10000 6.7 280 12:55 04.02.2020
3173 Rain 4 1011 75 10000 7.7 290 12:36 04.02.2020
3174 Rain 4 1011 75 10000 7.7 290 12:18 04.02.2020
3175 Rain 4 1011 80 10000 8.2 290 11:54 04.02.2020
3176 Rain 4 1011 80 10000 9.3 280 11:36 04.02.2020
3177 Rain 4 1011 80 10000 9.3 280 11:18 04.02.2020
3178 Rain 3 1011 86 10000 7.7 280 10:41 04.02.2020
3179 Rain 3 1011 86 10000 6.2 280 10:22 04.02.2020
3180 Rain 3 1011 80 10000 6.2 280 09:42 04.02.2020
3181 Rain 3 1011 80 10000 6.2 280 09:23 04.02.2020
3182 Clouds 3 1010 80 10000 7.7 270 08:58 04.02.2020
3183 Rain 3 1010 80 10000 7.7 270 08:39 04.02.2020
3184 Drizzle 3 1011 100 10000 6.2 280 08:21 04.02.2020
3185 Rain 3 1006 93 10000 9.8 290 07:46 04.02.2020
3186 Rain 3 1006 93 10000 9.8 290 07:22 04.02.2020
3187 Rain 3 1005 93 10000 9.3 290 06:44 04.02.2020
3188 Rain 3 1003 93 10000 10.8 290 06:18 04.02.2020
3189 Rain 4 1000 93 10000 11.8 310 05:28 04.02.2020
3190 Rain 8 995 81 8000 9.3 230 03:52 04.02.2020
3191 Rain 8 996 76 10000 8.7 220 03:32 04.02.2020
3192 Rain 8 998 87 10000 5.1 190 02:56 04.02.2020
3193 Rain 7 999 87 10000 5.7 160 02:32 04.02.2020
3194 Rain 6 1001 93 10000 5.7 130 01:53 04.02.2020
3195 Rain 6 1003 93 10000 5.7 130 01:35 04.02.2020
3196 Rain 6 1005 93 10000 5.1 140 00:45 04.02.2020
3197 Rain 6 1007 93 8000 4.6 170 00:21 04.02.2020
3198 Rain 7 1008 93 10000 3.1 180 23:40 03.02.2020
3199 Rain 7 1008 93 10000 3.1 180 23:20 03.02.2020
3200 Rain 7 1009 93 10000 3.6 170 22:39 03.02.2020
3201 Rain 8 1011 81 10000 4.6 200 22:20 03.02.2020
3202 Clouds 8 1012 76 10000 3.6 210 21:55 03.02.2020
3203 Clouds 8 1012 76 10000 3.6 210 21:55 03.02.2020
3204 Clouds 8 1012 76 10000 3.6 210 21:37 03.02.2020
3205 Clouds 8 1012 76 10000 3.6 210 21:18 03.02.2020
3206 Clouds 8 1012 76 10000 3.6 210 21:18 03.02.2020
3207 Clouds 8 1013 76 10000 5.1 230 20:42 03.02.2020
3208 Clouds 8 1013 76 10000 5.1 230 20:19 03.02.2020
3209 Clouds 8 1013 76 10000 5.1 230 20:19 03.02.2020
3210 Clouds 8 1013 76 10000 5.1 230 20:19 03.02.2020
3211 Clouds 8 1014 76 10000 5.7 240 19:57 03.02.2020
3212 Clouds 8 1014 76 10000 5.1 230 19:39 03.02.2020
3213 Clouds 8 1014 76 10000 5.1 240 19:19 03.02.2020
3214 Clouds 8 1014 76 10000 5.1 240 18:45 03.02.2020
3215 Clouds 8 1014 76 10000 5.7 240 18:25 03.02.2020
3216 Clouds 9 1014 76 10000 5.7 240 17:59 03.02.2020
3217 Clouds 9 1014 76 10000 6.2 250 17:40 03.02.2020
3218 Clouds 9 1014 76 10000 6.2 250 17:20 03.02.2020
3219 Clouds 9 1014 71 10000 7.2 250 16:58 03.02.2020
3220 Clouds 9 1014 71 10000 7.2 250 16:58 03.02.2020
3221 Clouds 9 1014 71 10000 7.7 250 16:38 03.02.2020
3222 Clouds 9 1014 71 10000 7.7 250 16:20 03.02.2020
3223 Clouds 9 1014 71 10000 8.2 250 15:54 03.02.2020
3224 Clouds 9 1015 71 10000 8.2 260 15:36 03.02.2020
3225 Clouds 9 1015 71 10000 8.2 260 15:18 03.02.2020
3226 Clouds 9 1015 76 10000 7.7 250 14:39 03.02.2020
3227 Clouds 9 1015 76 10000 7.7 250 14:21 03.02.2020
3228 Clouds 9 1016 93 10000 7.7 250 13:55 03.02.2020
3229 Clouds 9 1015 76 10000 6.7 260 13:37 03.02.2020
3230 Clouds 9 1015 76 10000 6.7 260 13:18 03.02.2020
3231 Clouds 9 1015 76 10000 6.2 260 12:41 03.02.2020
3232 Clouds 9 1015 81 10000 5.7 250 12:22 03.02.2020
3233 Clouds 9 1016 100 10000 8.7 250 11:58 03.02.2020
3234 Rain 8 1015 87 10000 4.6 240 11:38 03.02.2020
3235 Rain 8 1015 87 10000 4.6 240 11:18 03.02.2020
3236 Clouds 8 1015 100 10000 6.7 250 10:43 03.02.2020
3237 Clouds 8 1015 100 10000 6.7 250 10:25 03.02.2020
3238 Clouds 7 1014 87 10000 4.1 220 09:49 03.02.2020
3239 Clouds 7 1014 87 10000 4.1 220 09:49 03.02.2020
3240 Rain 7 1014 87 10000 5.7 230 09:28 03.02.2020
3241 Rain 7 1014 87 10000 5.7 230 09:28 03.02.2020
3242 Rain 7 1014 87 10000 4.6 250 08:59 03.02.2020
3243 Rain 7 1015 100 10000 6.7 250 08:40 03.02.2020
3244 Rain 7 1015 100 10000 6.7 250 08:22 03.02.2020
3245 Rain 8 1014 87 10000 4.1 240 07:42 03.02.2020
3246 Rain 8 1014 87 10000 4.6 260 07:22 03.02.2020
3247 Rain 7 1014 100 10000 6.2 260 06:55 03.02.2020
3248 Rain 7 1013 93 10000 4.6 240 06:30 03.02.2020
3249 Rain 7 1014 93 10000 5.1 250 05:51 03.02.2020
3250 Rain 7 1014 100 10000 5.1 260 05:31 03.02.2020
3251 Rain 7 1013 93 10000 5.1 250 04:35 03.02.2020
3252 Rain 8 1012 76 10000 5.7 250 02:38 03.02.2020
3253 Rain 8 1012 76 10000 5.7 250 02:38 03.02.2020
3254 Rain 9 1012 66 10000 6.7 250 02:18 03.02.2020
3255 Clouds 10 1012 66 10000 4.6 260 00:48 03.02.2020
3256 Clouds 10 1011 62 10000 6.7 250 00:25 03.02.2020
3257 Clear 11 1012 61 10000 11.8 260 23:40 02.02.2020
3258 Clouds 11 1011 66 10000 7.2 260 23:40 02.02.2020
3259 Clouds 11 1011 76 10000 6.7 260 23:22 02.02.2020
3260 Clouds 12 1011 76 10000 6.2 260 22:58 02.02.2020
3261 Clouds 11 1011 76 10000 4.6 260 22:39 02.02.2020
3262 Clouds 11 1011 76 10000 4.6 260 22:39 02.02.2020
3263 Clouds 12 1011 76 10000 4.6 260 22:21 02.02.2020
3264 Clouds 12 1011 76 10000 4.6 260 22:21 02.02.2020
3265 Clouds 12 1011 76 10000 5.1 260 21:57 02.02.2020
3266 Clouds 12 1011 76 10000 5.1 260 21:38 02.02.2020
3267 Clouds 12 1011 76 10000 4.6 250 21:20 02.02.2020
3268 Rain 12 1011 76 10000 6.7 270 20:56 02.02.2020
3269 Rain 12 1011 100 10000 8.2 260 20:37 02.02.2020
3270 Rain 12 1011 100 10000 8.2 260 20:19 02.02.2020
3271 Clouds 12 1011 81 10000 7.7 260 19:55 02.02.2020
3272 Rain 12 1010 76 10000 7.7 260 19:37 02.02.2020
3273 Rain 12 1010 76 10000 7.7 260 19:19 02.02.2020
3274 Rain 12 1010 76 10000 8.7 260 18:39 02.02.2020
3275 Rain 12 1009 76 10000 8.7 250 18:21 02.02.2020
3276 Clouds 12 1010 100 10000 10.3 270 17:58 02.02.2020
3277 Rain 11 1009 87 10000 8.2 250 17:38 02.02.2020
3278 Rain 11 1009 100 10000 8.7 260 17:19 02.02.2020
3279 Clouds 11 1009 100 10000 9.8 250 16:59 02.02.2020
3280 Drizzle 11 1008 100 10000 9.8 250 16:40 02.02.2020
3281 Drizzle 11 1008 100 10000 9.8 250 16:19 02.02.2020
3282 Drizzle 10 1008 87 8000 4.6 210 15:59 02.02.2020
3283 Drizzle 10 1008 87 8000 4.6 210 15:40 02.02.2020
3284 Rain 10 1009 100 9000 6.2 240 15:20 02.02.2020
3285 Rain 10 1009 100 9000 6.2 240 14:58 02.02.2020
3286 Rain 10 1009 100 9000 6.2 240 14:40 02.02.2020
3287 Rain 10 1009 100 10000 5.7 230 14:18 02.02.2020
3288 Clouds 10 1009 87 10000 4.1 190 13:55 02.02.2020
3289 Drizzle 10 1009 100 10000 6.2 210 13:37 02.02.2020
3290 Drizzle 9 1009 100 10000 6.2 210 13:18 02.02.2020
3291 Rain 9 1010 87 10000 3.6 180 12:44 02.02.2020
3292 Rain 9 1010 100 10000 6.2 210 12:22 02.02.2020
3293 Rain 8 1011 93 9000 3.6 150 11:58 02.02.2020
3294 Rain 8 1011 93 9000 3.6 150 11:39 02.02.2020
3295 Rain 8 1012 93 9000 2.6 160 11:18 02.02.2020
3296 Rain 7 1013 93 10000 3.1 180 10:56 02.02.2020
3297 Clouds 7 1013 93 10000 3.1 160 10:36 02.02.2020
3298 Clouds 7 1013 93 10000 3.1 160 10:18 02.02.2020
3299 Clouds 7 1013 93 10000 3.1 160 10:18 02.02.2020
3300 Clouds 6 1013 93 10000 3.1 160 09:41 02.02.2020
3301 Clouds 6 1013 100 10000 3.1 170 09:21 02.02.2020
3302 Rain 6 1014 93 3000 3.1 180 08:58 02.02.2020
3303 Rain 6 1014 93 3000 3.1 180 08:40 02.02.2020
3304 Rain 5 1014 93 10000 2.6 130 08:21 02.02.2020
3305 Clouds 5 1014 86 10000 2.1 100 07:45 02.02.2020
3306 Clouds 5 1014 86 10000 1.5 150 07:27 02.02.2020
3307 Clouds 5 1014 100 10000 3.1 220 06:41 02.02.2020
3308 Clouds 5 1014 100 10000 3.1 220 06:23 02.02.2020
3309 Clouds 5 1014 75 10000 5.7 290 05:47 02.02.2020
3310 Rain 6 1014 87 10000 5.7 290 04:34 02.02.2020
3311 Clouds 6 1013 93 10000 2.6 270 03:25 02.02.2020
3312 Clouds 6 1013 86 10000 1.5 210 02:27 02.02.2020
3313 Clouds 6 1013 86 10000 2.1 190 01:52 02.02.2020
3314 Rain 5 1012 93 10000 2.6 210 01:19 02.02.2020
3315 Rain 6 1012 86 10000 4.6 220 00:41 02.02.2020
3316 Rain 6 1012 86 8000 9.8 260 00:19 02.02.2020
3317 Rain 6 1012 87 6000 10.8 300 23:45 01.02.2020
3318 Rain 7 1011 87 8000 6.7 260 23:21 01.02.2020
3319 Clouds 9 1010 81 10000 5.7 250 22:48 01.02.2020
3320 Drizzle 9 1011 100 10000 7.2 250 22:19 01.02.2020
3321 Rain 10 1009 87 10000 4.1 250 21:44 01.02.2020
3322 Rain 10 1009 87 10000 4.1 250 21:20 01.02.2020
3323 Clouds 9 1009 93 10000 3.1 260 20:58 01.02.2020
3324 Clouds 10 1010 100 10000 6.2 260 20:39 01.02.2020
3325 Clouds 10 1010 100 10000 6.2 260 20:20 01.02.2020
3326 Rain 9 1009 100 10000 6.7 270 19:56 01.02.2020
3327 Rain 10 1008 81 10000 6.2 270 19:38 01.02.2020
3328 Rain 10 1008 93 9000 7.7 250 19:19 01.02.2020
3329 Rain 10 1007 87 9000 6.7 240 18:57 01.02.2020
3330 Rain 10 1008 100 10000 6.7 240 18:38 01.02.2020
3331 Rain 10 1008 100 10000 6.7 240 18:19 01.02.2020
3332 Rain 10 1007 87 10000 5.7 230 17:55 01.02.2020
3333 Rain 10 1007 100 10000 6.7 240 17:37 01.02.2020
3334 Rain 11 1007 100 10000 6.7 240 17:19 01.02.2020
3335 Rain 11 1007 100 10000 8.2 250 16:42 01.02.2020
3336 Rain 11 1007 100 10000 8.2 250 16:23 01.02.2020
3337 Rain 11 1007 100 10000 8.7 240 15:56 01.02.2020
3338 Rain 12 1007 100 10000 9.3 240 15:38 01.02.2020
3339 Rain 12 1007 100 10000 9.3 240 15:18 01.02.2020
3340 Rain 12 1007 100 10000 9.3 240 15:18 01.02.2020
3341 Clouds 13 1006 58 10000 7.7 230 14:40 01.02.2020
3342 Clouds 13 1006 58 10000 7.7 230 14:21 01.02.2020
3343 Clouds 14 1007 62 10000 7.2 240 13:45 01.02.2020
3344 Clouds 14 1007 62 10000 6.2 220 13:24 01.02.2020
3345 Clouds 13 1008 71 10000 4.1 180 12:57 01.02.2020
3346 Clouds 14 1008 71 10000 4.1 180 12:39 01.02.2020
3347 Clouds 13 1008 71 10000 5.1 200 12:21 01.02.2020
3348 Clouds 13 1008 71 10000 4.6 190 11:44 01.02.2020
3349 Clouds 12 1008 76 10000 4.1 190 11:23 01.02.2020
3350 Clouds 12 1009 76 10000 4.6 170 10:59 01.02.2020
3351 Clouds 12 1009 76 10000 4.6 170 10:40 01.02.2020
3352 Clouds 11 1009 76 10000 4.1 170 10:22 01.02.2020
3353 Clouds 11 1009 76 10000 4.1 150 09:59 01.02.2020
3354 Clouds 10 1010 81 10000 3.6 150 09:40 01.02.2020
3355 Clouds 10 1010 81 10000 3.6 150 09:21 01.02.2020
3356 Clouds 10 1010 81 10000 3.1 160 08:49 01.02.2020
3357 Clouds 10 1010 100 10000 5.1 200 07:51 01.02.2020
3358 Clouds 10 1010 81 10000 3.6 160 07:28 01.02.2020
3359 Clouds 10 1010 81 10000 3.6 160 07:28 01.02.2020
3360 Clouds 10 1010 81 10000 3.6 160 07:28 01.02.2020
3361 Clouds 10 1010 81 10000 4.1 150 06:59 01.02.2020
3362 Clouds 10 1010 81 10000 4.1 150 06:40 01.02.2020
3363 Clouds 10 1011 81 10000 3.1 160 05:53 01.02.2020
3364 -273 0 0 0 0 0 04:21 01.02.2020
3365 Clouds 10 1012 87 10000 3.6 100 03:23 01.02.2020
3366 Clouds 10 1013 100 10000 5.1 220 02:48 01.02.2020
3367 Clouds 10 1012 87 10000 3.1 110 02:30 01.02.2020
3368 Clouds 10 1013 100 10000 4.6 210 01:55 01.02.2020
3369 Clouds 10 1013 87 10000 2.1 170 01:37 01.02.2020
3370 Clouds 10 1013 93 10000 2.1 180 00:31 01.02.2020
3371 Clouds 10 1013 87 10000 3.1 160 23:59 31.01.2020
3372 Clouds 10 1013 87 10000 2.6 130 23:38 31.01.2020
3373 Clouds 10 1013 87 10000 2.6 130 23:18 31.01.2020
3374 Clouds 10 1014 87 10000 2.1 160 22:41 31.01.2020
3375 Clouds 10 1014 87 10000 2.1 160 22:23 31.01.2020
3376 Clouds 10 1014 81 10000 1.5 150 21:59 31.01.2020
3377 Clouds 10 1014 81 10000 1.5 150 21:39 31.01.2020
3378 Clouds 10 1014 87 10000 3.1 180 21:20 31.01.2020
3379 Clouds 10 1014 87 10000 3.1 180 21:20 31.01.2020
3380 Clouds 10 1014 87 10000 3.1 180 21:20 31.01.2020
3381 Clouds 10 1014 81 10000 2.1 180 20:57 31.01.2020
3382 Clouds 10 1014 81 10000 2.1 180 20:57 31.01.2020
3383 Clouds 10 1014 81 10000 2.1 180 20:57 31.01.2020
3384 Clouds 11 1014 81 10000 2.1 200 20:39 31.01.2020
3385 Clouds 11 1013 81 10000 5.1 240 20:20 31.01.2020
3386 Clouds 11 1013 81 10000 5.1 240 19:56 31.01.2020
3387 Clouds 11 1013 76 10000 4.6 240 19:38 31.01.2020
3388 Clouds 11 1013 76 10000 4.6 240 19:19 31.01.2020
3389 Clouds 11 1013 76 10000 4.6 240 18:45 31.01.2020
3390 Clouds 11 1014 76 10000 4.1 240 18:27 31.01.2020
3391 Clouds 12 1013 76 10000 5.1 260 17:56 31.01.2020
3392 Clouds 12 1013 76 10000 5.1 260 17:38 31.01.2020
3393 Clouds 12 1013 76 10000 6.2 260 17:19 31.01.2020
3394 Clouds 12 1013 76 10000 5.7 260 16:56 31.01.2020
3395 Clouds 12 1013 71 10000 7.7 260 16:37 31.01.2020
3396 Clouds 12 1013 71 10000 7.7 260 16:18 31.01.2020
3397 Clouds 12 1013 76 10000 7.2 250 15:41 31.01.2020
3398 Clouds 12 1013 76 10000 5.7 260 15:21 31.01.2020
3399 Clouds 12 1013 76 10000 6.7 250 14:59 31.01.2020
3400 Clouds 12 1012 76 10000 5.1 260 14:40 31.01.2020
3401 Clouds 12 1012 76 10000 5.1 260 14:20 31.01.2020
3402 Clouds 12 1012 81 10000 6.2 260 13:45 31.01.2020
3403 Clouds 12 1013 100 10000 7.7 250 13:27 31.01.2020
3404 Rain 12 1013 100 10000 8.7 250 12:54 31.01.2020
3405 Drizzle 12 1013 81 10000 6.7 250 12:36 31.01.2020
3406 Drizzle 12 1013 81 10000 6.7 250 12:18 31.01.2020
3407 Drizzle 11 1013 93 10000 7.2 260 11:41 31.01.2020
3408 Clouds 11 1012 87 10000 6.7 260 11:23 31.01.2020
3409 Rain 11 1013 100 10000 7.2 270 10:58 31.01.2020
3410 Rain 11 1013 100 10000 7.7 260 10:37 31.01.2020
3411 Rain 11 1013 100 10000 7.7 260 10:19 31.01.2020
3412 Drizzle 11 1011 87 8000 6.7 240 09:42 31.01.2020
3413 Drizzle 11 1011 87 10000 7.2 240 09:22 31.01.2020
3414 Drizzle 11 1012 100 10000 8.7 260 08:59 31.01.2020
3415 Rain 10 1011 100 10000 9.3 250 08:41 31.01.2020
3416 Rain 10 1011 100 10000 9.3 250 08:41 31.01.2020
3417 Rain 11 1011 100 10000 9.3 250 08:22 31.01.2020
3418 Drizzle 11 1010 87 10000 6.2 250 07:51 31.01.2020
3419 Drizzle 10 1009 87 9000 6.2 250 07:19 31.01.2020
3420 Drizzle 10 1009 87 8000 6.7 260 06:38 31.01.2020
3421 Drizzle 10 1008 87 10000 8.2 250 05:57 31.01.2020
3422 Rain 10 1008 87 10000 6.7 250 05:30 31.01.2020
3423 Rain 10 1008 100 10000 10.3 230 04:41 31.01.2020
3424 Rain 9 1007 93 10000 5.1 230 02:50 31.01.2020
3425 Rain 7 1008 93 10000 4.1 200 01:32 31.01.2020
3426 Clouds 7 1008 100 10000 5.7 220 00:41 31.01.2020
3427 Clouds 7 1008 100 10000 5.7 220 00:23 31.01.2020
3428 Clouds 6 1009 87 10000 4.6 190 23:42 30.01.2020
3429 Clouds 6 1009 87 10000 4.6 190 23:23 30.01.2020
3430 Rain 6 1009 100 10000 4.6 210 22:39 30.01.2020
3431 Rain 6 1009 100 10000 4.6 210 22:21 30.01.2020
3432 Clouds 6 1009 70 10000 4.1 160 21:59 30.01.2020
3433 Rain 6 1009 87 10000 5.1 190 21:40 30.01.2020
3434 Clouds 6 1009 75 10000 4.6 160 21:18 30.01.2020
3435 Clouds 6 1009 75 10000 4.6 160 20:57 30.01.2020
3436 Clouds 6 1010 75 10000 4.6 160 20:38 30.01.2020
3437 Clouds 5 1010 75 10000 4.6 160 20:20 30.01.2020
3438 Clouds 5 1010 75 10000 3.6 150 19:44 30.01.2020
3439 Clouds 5 1010 75 10000 3.6 150 19:19 30.01.2020
3440 Clouds 5 1010 75 10000 3.6 150 19:19 30.01.2020
3441 Clouds 5 1011 75 10000 3.6 150 18:59 30.01.2020
3442 Clouds 5 1011 75 10000 3.6 150 18:37 30.01.2020
3443 Clouds 5 1011 70 10000 3.1 170 18:18 30.01.2020
3444 Clouds 6 1012 70 10000 3.6 180 17:42 30.01.2020
3445 Clouds 6 1012 70 10000 3.6 180 17:19 30.01.2020
3446 Clouds 7 1012 65 10000 3.1 200 16:59 30.01.2020
3447 Clouds 7 1012 65 10000 2.1 210 16:40 30.01.2020
3448 Clouds 7 1012 65 10000 2.1 210 16:21 30.01.2020
3449 Clouds 8 1012 65 10000 3.1 240 15:44 30.01.2020
3450 Clouds 8 1013 65 10000 4.6 240 15:21 30.01.2020
3451 Clouds 8 1013 65 10000 6.2 260 14:58 30.01.2020
3452 Clouds 8 1013 65 10000 6.2 260 14:39 30.01.2020
3453 Clouds 8 1013 65 10000 5.1 250 14:20 30.01.2020
3454 Clouds 7 1014 61 10000 6.2 250 13:41 30.01.2020
3455 Clouds 7 1014 75 10000 4.6 270 13:23 30.01.2020
3456 Clouds 7 1014 75 10000 6.2 260 12:56 30.01.2020
3457 Clouds 7 1015 70 10000 6.2 240 12:38 30.01.2020
3458 Clouds 7 1015 70 10000 6.2 240 12:19 30.01.2020
3459 Clouds 6 1015 75 10000 2.1 210 11:41 30.01.2020
3460 Clouds 6 1015 75 10000 2.1 210 11:22 30.01.2020
3461 Clouds 6 1015 80 10000 3.1 190 10:59 30.01.2020
3462 Clouds 5 1015 80 10000 3.1 190 10:40 30.01.2020
3463 Clouds 5 1015 86 10000 3.1 180 10:20 30.01.2020
3464 Clouds 4 1015 80 10000 3.1 210 09:45 30.01.2020
3465 Clouds 4 1015 80 10000 3.1 210 09:25 30.01.2020
3466 Clouds 4 1015 80 10000 3.6 220 08:43 30.01.2020
3467 Clouds 4 1015 80 10000 3.6 220 08:22 30.01.2020
3468 Rain 3 1015 86 10000 4.1 210 07:58 30.01.2020
3469 Rain 3 1015 86 10000 4.1 210 07:39 30.01.2020
3470 Rain 3 1015 80 10000 4.6 210 07:18 30.01.2020
3471 Rain 3 1016 86 10000 3.6 210 06:43 30.01.2020
3472 Rain 3 1016 86 10000 3.6 210 06:25 30.01.2020
3473 Clouds 3 1016 86 10000 3.6 200 05:29 30.01.2020
3474 Clouds 3 1016 86 10000 3.6 220 04:50 30.01.2020
3475 Clouds 2 1016 86 10000 3.6 220 03:47 30.01.2020
3476 Clouds 2 1017 86 10000 3.1 230 02:56 30.01.2020
3477 Clouds 2 1016 92 10000 5.1 250 01:23 30.01.2020
3478 Clouds 2 1016 100 10000 4.1 260 00:30 30.01.2020
3479 Clouds 2 1015 92 10000 4.1 260 23:56 29.01.2020
3480 Clouds 2 1015 92 10000 4.6 270 23:38 29.01.2020
3481 Clouds 2 1015 84 10000 4.6 270 23:20 29.01.2020
3482 Clouds 2 1015 84 10000 5.1 260 22:55 29.01.2020
3483 Clouds 2 1014 84 10000 5.1 260 22:37 29.01.2020
3484 Clouds 2 1014 84 10000 5.1 260 22:18 29.01.2020
3485 Clouds 2 1014 84 10000 4.1 240 21:54 29.01.2020
3486 Clouds 2 1014 84 10000 3.6 250 21:36 29.01.2020
3487 Clouds 2 1014 84 10000 3.6 250 21:36 29.01.2020
3488 Clouds 2 1014 84 10000 3.6 250 21:18 29.01.2020
3489 Clouds 2 1014 84 10000 3.6 250 21:18 29.01.2020
3490 Clouds 2 1013 84 10000 3.1 270 20:40 29.01.2020
3491 Clouds 2 1013 82 10000 3.1 270 20:21 29.01.2020
3492 Rain 2 1013 82 10000 4.1 270 19:58 29.01.2020
3493 Rain 2 1013 82 10000 4.1 270 19:38 29.01.2020
3494 Rain 2 1013 82 10000 4.1 270 19:38 29.01.2020
3495 Rain 2 1012 82 10000 4.6 250 19:20 29.01.2020
3496 Clouds 2 1011 82 10000 2.1 260 18:58 29.01.2020
3497 Clouds 2 1010 82 9000 7.7 280 18:38 29.01.2020
3498 Clouds 2 1010 82 9000 7.7 280 18:18 29.01.2020
3499 Clouds 2 1010 82 10000 3.6 260 17:41 29.01.2020
3500 Rain 2 1010 100 10000 7.7 260 17:22 29.01.2020
3501 Rain 3 1010 89 10000 6.2 280 16:54 29.01.2020
3502 Rain 3 1009 89 10000 6.2 270 16:36 29.01.2020
3503 Rain 3 1009 89 10000 6.2 270 16:18 29.01.2020
3504 Rain 3 1009 89 10000 7.2 260 15:39 29.01.2020
3505 Rain 3 1009 89 10000 7.2 260 15:20 29.01.2020
3506 Rain 3 1009 89 10000 8.2 250 14:45 29.01.2020
3507 Rain 3 1008 89 10000 6.2 250 14:22 29.01.2020
3508 Clouds 3 1009 69 10000 6.7 250 13:57 29.01.2020
3509 Clouds 3 1009 69 10000 7.2 250 13:39 29.01.2020
3510 Clouds 3 1009 69 10000 7.2 250 13:20 29.01.2020
3511 Clouds 3 1009 75 10000 5.7 240 12:56 29.01.2020
3512 Clouds 3 1009 74 10000 5.7 240 12:37 29.01.2020
3513 Clouds 3 1009 74 10000 5.7 240 12:19 29.01.2020
3514 Clouds 3 1009 74 10000 5.7 240 11:45 29.01.2020
3515 Clouds 2 1009 79 10000 4.6 230 11:22 29.01.2020
3516 Clouds 2 1009 74 10000 4.6 240 10:47 29.01.2020
3517 Clouds 2 1008 80 10000 4.6 240 10:28 29.01.2020
3518 Rain 2 1008 80 10000 5.7 250 09:59 29.01.2020
3519 Rain 2 1008 80 10000 5.7 250 09:40 29.01.2020
3520 Rain 2 1008 80 10000 5.7 250 09:21 29.01.2020
3521 Clouds 2 1007 80 10000 5.7 260 08:56 29.01.2020
3522 Clouds 1 1007 80 10000 5.1 250 08:38 29.01.2020
3523 Clouds 1 1007 80 10000 5.1 250 08:19 29.01.2020
3524 Clouds 1 1007 80 10000 5.1 260 07:44 29.01.2020
3525 Rain 2 1006 80 10000 6.7 260 07:24 29.01.2020
3526 Clouds 1 1006 86 10000 5.1 260 06:39 29.01.2020
3527 Clouds 1 1005 100 10000 6.2 260 06:21 29.01.2020
3528 Clouds 1 1005 100 10000 7.2 260 05:59 29.01.2020
3529 Rain 1 1004 86 10000 4.6 260 05:39 29.01.2020
3530 Clouds 1 1004 89 10000 4.6 260 05:21 29.01.2020
3531 Snow 1 1003 100 5000 7.7 260 04:37 29.01.2020
3532 Clouds 1 1003 86 10000 3.6 150 02:43 29.01.2020
3533 Clouds 1 1003 80 10000 4.1 150 01:49 29.01.2020
3534 Clouds 1 1004 80 10000 3.1 220 00:41 29.01.2020
3535 Clouds 1 1004 80 10000 3.6 230 00:23 29.01.2020
3536 Clouds 1 1004 80 10000 4.1 230 23:44 28.01.2020
3537 Clouds 1 1004 74 10000 5.1 240 23:21 28.01.2020
3538 Clouds 1 1004 74 10000 5.1 240 22:57 28.01.2020
3539 Clouds 2 1004 74 10000 5.1 240 22:39 28.01.2020
3540 Clouds 2 1004 74 10000 6.2 250 22:20 28.01.2020
3541 Clouds 2 1004 74 10000 6.7 250 21:42 28.01.2020
3542 Clouds 2 1004 74 10000 7.7 250 21:20 28.01.2020
3543 Clouds 1 1004 100 10000 10.3 260 20:46 28.01.2020
3544 Clouds 2 1003 80 10000 6.7 230 20:28 28.01.2020
3545 Clouds 2 1002 80 10000 5.7 250 19:59 28.01.2020
3546 Clouds 2 1002 74 10000 5.7 270 19:38 28.01.2020
3547 Clouds 2 1002 74 10000 5.7 270 19:20 28.01.2020
3548 Clouds 2 1002 74 10000 5.7 250 18:58 28.01.2020
3549 Clouds 2 1001 74 10000 5.7 250 18:39 28.01.2020
3550 Clouds 2 1001 74 10000 5.7 250 18:21 28.01.2020
3551 Rain 2 1001 74 10000 8.2 250 17:56 28.01.2020
3552 Rain 2 1000 74 10000 9.3 240 17:37 28.01.2020
3553 Rain 2 1000 70 10000 9.3 240 17:19 28.01.2020
3554 Rain 3 1000 70 10000 7.7 240 16:45 28.01.2020
3555 Rain 3 1000 100 10000 8.7 240 16:27 28.01.2020
3556 Rain 4 1000 70 10000 10.3 250 15:59 28.01.2020
3557 Rain 4 1000 70 10000 10.3 250 15:40 28.01.2020
3558 Rain 4 1000 70 10000 7.2 250 15:18 28.01.2020
3559 Rain 3 1000 70 10000 9.3 260 14:44 28.01.2020
3560 Rain 3 999 60 5000 13.4 260 14:20 28.01.2020
3561 Clouds 4 998 70 10000 10.3 230 13:45 28.01.2020
3562 Rain 5 998 75 10000 7.7 230 13:25 28.01.2020
3563 Rain 4 998 80 10000 6.7 240 12:58 28.01.2020
3564 Rain 5 998 80 10000 8.7 260 12:40 28.01.2020
3565 Rain 4 998 80 10000 8.7 260 12:22 28.01.2020
3566 Rain 5 998 100 10000 15.4 260 11:41 28.01.2020
3567 Rain 6 998 100 10000 15.4 260 11:22 28.01.2020
3568 Clouds 6 997 81 10000 6.7 190 10:55 28.01.2020
3569 Clouds 6 997 81 10000 5.1 180 10:37 28.01.2020
3570 Clouds 6 997 81 10000 5.1 180 10:18 28.01.2020
3571 Rain 5 998 86 10000 4.1 150 09:42 28.01.2020
3572 Clouds 5 998 81 10000 4.1 150 09:20 28.01.2020
3573 Clouds 5 999 81 10000 4.6 160 08:46 28.01.2020
3574 Clouds 5 999 81 10000 4.6 160 08:26 28.01.2020
3575 Clouds 5 999 81 10000 4.6 170 07:56 28.01.2020
3576 Rain 5 1000 81 10000 4.6 190 07:35 28.01.2020
3577 Clouds 6 1000 87 10000 4.1 190 06:48 28.01.2020
3578 Clouds 6 1000 87 10000 4.1 190 06:48 28.01.2020
3579 Clouds 6 1000 87 10000 3.1 180 06:25 28.01.2020
3580 Rain 5 1001 87 10000 2.6 180 05:40 28.01.2020
3581 Rain 5 1001 87 10000 2.6 180 05:40 28.01.2020
3582 Rain 5 1001 87 10000 3.1 200 05:22 28.01.2020
3583 Clouds 5 1001 87 10000 4.6 170 03:50 28.01.2020
3584 Rain 5 1002 87 10000 5.1 170 02:48 28.01.2020
3585 Rain 5 1002 100 10000 4.6 190 02:25 28.01.2020
3586 Rain 5 1003 100 10000 5.1 190 01:55 28.01.2020
3587 Rain 5 1003 100 10000 4.1 180 01:22 28.01.2020
3588 Rain 5 1005 81 10000 4.6 190 00:45 28.01.2020
3589 Rain 5 1004 100 10000 4.1 190 00:22 28.01.2020
3590 Rain 5 1005 81 10000 4.1 190 23:44 27.01.2020
3591 Rain 5 1005 100 10000 5.1 210 23:20 27.01.2020
3592 Rain 6 1006 81 10000 3.1 130 22:45 27.01.2020
3593 Rain 6 1006 81 10000 3.6 150 22:20 27.01.2020
3594 Rain 6 1006 81 10000 3.6 150 22:20 27.01.2020
3595 Rain 6 1006 81 10000 3.6 150 22:20 27.01.2020
3596 Rain 6 1007 81 10000 4.6 160 21:57 27.01.2020
3597 Rain 6 1007 81 10000 4.6 160 21:39 27.01.2020
3598 Rain 6 1007 81 10000 5.1 160 21:19 27.01.2020
3599 Rain 6 1008 81 10000 5.7 160 20:57 27.01.2020
3600 Rain 6 1008 81 10000 3.6 170 20:37 27.01.2020
3601 Rain 6 1008 81 10000 3.6 170 20:19 27.01.2020
3602 Rain 5 1009 75 10000 5.1 190 19:55 27.01.2020
3603 Rain 6 1009 81 10000 6.7 180 19:37 27.01.2020
3604 Rain 6 1009 81 10000 6.7 180 19:19 27.01.2020
3605 Rain 6 1010 70 10000 5.1 180 18:39 27.01.2020
3606 Rain 6 1010 70 10000 5.1 180 18:21 27.01.2020
3607 Clouds 6 1010 70 10000 5.7 170 17:57 27.01.2020
3608 Rain 7 1010 70 10000 4.6 160 17:37 27.01.2020
3609 Clouds 7 1010 70 10000 4.6 160 17:18 27.01.2020
3610 Clouds 7 1010 70 10000 4.6 160 16:42 27.01.2020
3611 Clouds 7 1011 70 10000 3.1 150 16:24 27.01.2020
3612 Clouds 7 1011 66 10000 4.1 150 15:59 27.01.2020
3613 Clouds 7 1011 66 10000 3.6 170 15:40 27.01.2020
3614 Clouds 8 1011 66 10000 3.6 170 15:19 27.01.2020
3615 Clouds 7 1012 61 10000 3.1 160 14:55 27.01.2020
3616 Clouds 7 1012 66 10000 4.1 160 14:37 27.01.2020
3617 Clouds 8 1012 66 10000 4.1 160 14:18 27.01.2020
3618 Clouds 7 1013 70 10000 3.6 170 13:42 27.01.2020
3619 Clouds 7 1013 70 10000 3.1 160 13:21 27.01.2020
3620 Clouds 6 1014 75 10000 3.1 170 12:56 27.01.2020
3621 Clouds 6 1014 81 10000 3.6 160 12:38 27.01.2020
3622 Clouds 5 1014 81 10000 3.6 160 12:19 27.01.2020
3623 Clouds 5 1015 80 10000 3.6 130 11:42 27.01.2020
3624 Clouds 5 1015 86 10000 3.6 140 11:42 27.01.2020
3625 Clouds 4 1015 80 10000 3.6 130 11:21 27.01.2020
3626 Clouds 4 1015 80 10000 3.6 130 11:21 27.01.2020
3627 Clouds 4 1015 80 10000 3.6 130 11:21 27.01.2020
3628 Clouds 3 1015 86 10000 3.1 130 10:55 27.01.2020
3629 Clouds 3 1015 93 10000 3.1 110 10:36 27.01.2020
3630 Clouds 2 1015 93 10000 3.1 110 10:18 27.01.2020
3631 Rain 2 1016 93 10000 3.1 100 09:39 27.01.2020
3632 Rain 2 1016 93 10000 3.1 100 09:18 27.01.2020
3633 Clouds 1 1016 89 10000 3.6 110 08:46 27.01.2020
3634 Clouds 1 1016 92 10000 2.6 110 08:22 27.01.2020
3635 Rain 0 1016 100 10000 2.6 200 07:55 27.01.2020
3636 Clouds 0 1016 92 10000 3.6 110 07:35 27.01.2020
3637 Clouds 0 1016 92 7000 4.1 100 06:55 27.01.2020
3638 Mist 0 1016 92 3200 3.6 110 06:27 27.01.2020
3639 Mist 0 1017 92 2900 2.6 110 05:37 27.01.2020
3640 Mist -1 1017 92 2900 3.1 120 04:20 27.01.2020
3641 Mist -1 1017 100 2900 4.1 110 03:23 27.01.2020
3642 Mist -1 1018 100 3100 3.1 110 01:32 27.01.2020
3643 Mist 0 1018 92 3100 4.1 110 00:59 27.01.2020
3644 Mist 0 1018 100 3100 3.1 120 00:37 27.01.2020
3645 Mist 0 1018 100 3100 3.1 120 00:19 27.01.2020
3646 Mist 0 1018 91 3500 3.6 100 23:41 26.01.2020
3647 Mist 0 1018 86 3500 3.1 110 23:20 26.01.2020
3648 Mist -1 1018 86 4500 3.6 100 22:57 26.01.2020
3649 Clouds 0 1018 86 6000 3.1 110 22:37 26.01.2020
3650 Clouds 0 1018 86 6000 3.1 110 22:18 26.01.2020
3651 Clouds 0 1018 86 6000 3.6 100 21:56 26.01.2020
3652 Clouds 0 1018 86 6000 3.6 100 21:38 26.01.2020
3653 Clouds 0 1018 93 7000 2.6 110 21:19 26.01.2020
3654 Clouds 1 1018 86 8000 2.1 130 20:55 26.01.2020
3655 Clouds 1 1018 93 10000 3.6 100 20:37 26.01.2020
3656 Clouds 1 1018 93 10000 3.6 100 20:18 26.01.2020
3657 Clouds 1 1018 100 10000 1 100 19:56 26.01.2020
3658 Clouds 1 1018 100 10000 1 10 19:37 26.01.2020
3659 Clouds 1 1018 100 10000 1 10 19:37 26.01.2020
3660 Clouds 1 1018 100 10000 1 10 19:18 26.01.2020
3661 Clouds 2 1018 93 10000 1.5 100 18:41 26.01.2020
3662 Clouds 2 1018 93 10000 1.5 100 18:22 26.01.2020
3663 Clouds 2 1018 86 10000 0.5 0 17:58 26.01.2020
3664 Clouds 3 1018 86 10000 0.5 0 17:39 26.01.2020
3665 Clouds 3 1018 86 10000 0.5 0 17:19 26.01.2020
3666 Clouds 4 1018 80 10000 1.5 340 16:58 26.01.2020
3667 Clouds 4 1018 75 10000 1 0 16:39 26.01.2020
3668 Clouds 4 1018 75 10000 1 0 16:39 26.01.2020
3669 Clouds 4 1018 80 10000 1.5 340 16:39 26.01.2020
3670 Clouds 4 1018 75 10000 1 0 16:20 26.01.2020
3671 Clouds 4 1016 1 0 1.44 173 15:57 26.01.2020
3672 Clouds 4 1016 1 0 1.44 173 15:39 26.01.2020
3673 Clouds 4 1016 1 0 1.44 173 15:18 26.01.2020
3674 Clouds 4 1016 1 0 1.44 173 14:40 26.01.2020
3675 Clouds 4 1016 1 0 1.66 158 14:20 26.01.2020
3676 Clouds 4 1019 80 0 1.66 158 13:43 26.01.2020
3677 Clouds 4 1017 1 0 0.45 191 13:21 26.01.2020
3678 Clouds 4 1017 1 0 0.45 182 12:58 26.01.2020
3679 Clouds 4 1017 1 0 0.45 191 12:40 26.01.2020
3680 Clouds 3 1019 87 0 3.58 14 12:21 26.01.2020
3681 Clouds 3 1019 89 0 3.13 6 11:57 26.01.2020
3682 Mist 3 1019 81 1000 1.56 156 11:39 26.01.2020
3683 Mist 2 1020 92 2800 1 90 11:18 26.01.2020
3684 Mist 1 1020 92 2800 1 90 10:58 26.01.2020
3685 Mist 1 1020 92 2800 1 90 10:38 26.01.2020
3686 Mist 1 1020 92 2800 1 90 10:20 26.01.2020
3687 Mist 0 1020 100 1900 1 120 09:57 26.01.2020
3688 Mist 0 1019 92 5000 1.53 160 09:39 26.01.2020
3689 Mist 0 1019 92 5000 1.53 160 09:20 26.01.2020
3690 Mist 0 1020 100 1700 0.5 0 08:43 26.01.2020
3691 Mist -1 1019 100 4400 2.1 150 08:22 26.01.2020
3692 Mist 0 1019 92 2200 0.5 0 07:56 26.01.2020
3693 Mist 0 1019 100 2500 0.5 0 07:38 26.01.2020
3694 Mist 0 1019 100 2500 0.5 0 07:19 26.01.2020
3695 Mist 0 1020 100 2000 1 0 06:29 26.01.2020
3696 Mist -1 1019 100 2000 1 0 05:30 26.01.2020
3697 Mist -1 1019 92 2000 0.5 0 04:44 26.01.2020
3698 Fog 0 1020 100 100 0.5 40 02:40 26.01.2020
3699 Fog 0 1020 100 100 0.5 0 01:47 26.01.2020
3700 Fog 0 1021 100 100 1 20 01:24 26.01.2020
3701 Fog 0 1021 100 100 1 0 00:44 26.01.2020
3702 Fog 0 1021 100 100 1 0 00:26 26.01.2020
3703 Clouds 0 1024 97 0 1.16 151 23:40 25.01.2020
3704 Clouds 0 1019 1 0 1.11 130 23:21 25.01.2020
3705 Clouds 0 1024 96 0 1.11 130 22:58 25.01.2020
3706 Clouds 0 1019 1 0 1.11 130 22:39 25.01.2020
3707 Clouds 0 1019 1 0 1.11 130 22:18 25.01.2020
3708 Clouds 0 1023 81 0 1.11 130 21:55 25.01.2020
3709 Clouds 0 1023 89 0 1.11 130 21:37 25.01.2020
3710 Clouds 0 1023 89 0 1.11 130 21:19 25.01.2020
3711 Clouds 0 1021 96 0 0.89 217 20:43 25.01.2020
3712 Clouds 0 1023 89 0 1.11 130 20:24 25.01.2020
3713 Clouds 1 1022 79 0 0.97 142 19:48 25.01.2020
3714 Clouds 0 1020 1 0 1.07 159 19:20 25.01.2020
3715 Clouds 0 1025 96 0 1.07 159 18:59 25.01.2020
3716 Clouds 0 1025 96 0 1.07 159 18:41 25.01.2020
3717 Clouds 0 1019 1 0 0.97 142 18:21 25.01.2020
3718 Clouds 0 1023 87 0 0.45 40 17:56 25.01.2020
3719 Clouds 0 1021 93 0 0.89 228 17:37 25.01.2020
3720 Clouds 0 1022 10 0 0.53 88 17:18 25.01.2020
3721 Clouds 0 1019 1 0 0.53 88 16:42 25.01.2020
3722 Clouds 0 1021 92 0 0.89 225 16:23 25.01.2020
3723 Clouds 0 1023 83 0 0.53 88 15:56 25.01.2020
3724 Clouds 0 1023 83 0 0.53 88 15:37 25.01.2020
3725 Clouds 0 1021 93 0 0.89 225 15:19 25.01.2020
3726 Clouds 0 1023 83 0 0.53 88 14:41 25.01.2020
3727 Clouds 0 1025 96 0 0.52 216 14:19 25.01.2020
3728 Clouds 0 1020 1 0 0.52 216 13:44 25.01.2020
3729 Clouds 0 1024 83 0 0.52 216 13:25 25.01.2020
3730 Mist -1 1023 92 2500 0.5 0 12:50 25.01.2020
3731 Mist -1 1023 92 2500 0.5 0 12:30 25.01.2020
3732 Mist -1 1023 92 2500 0.5 0 11:57 25.01.2020
3733 Mist -1 1023 92 3500 1 0 11:38 25.01.2020
3734 Mist -1 1023 92 3500 1 0 11:19 25.01.2020
3735 Mist -2 1022 100 5000 0.57 137 10:42 25.01.2020
3736 Mist -2 1022 100 5000 0.57 137 10:21 25.01.2020
3737 Clouds -3 1022 92 6000 1 0 09:59 25.01.2020
3738 Clouds -3 1022 92 6000 1 0 09:38 25.01.2020
3739 Clouds -3 1022 85 5000 0.5 0 09:19 25.01.2020
3740 Mist -4 1022 92 4500 1.5 350 08:42 25.01.2020
3741 Clouds -4 1022 92 5000 0.5 0 07:54 25.01.2020
3742 Mist -4 1021 100 2400 1.5 210 07:21 25.01.2020
3743 Mist -4 1021 100 2800 1.25 211 06:31 25.01.2020
3744 Mist -4 1021 92 4500 1 0 05:51 25.01.2020
3745 Mist -4 1021 92 4500 0.5 10 05:32 25.01.2020
3746 Mist -4 1021 100 3200 0.86 195 03:56 25.01.2020
3747 Mist -4 1022 100 4000 1 0 03:37 25.01.2020
3748 Mist -4 1022 92 3700 2.6 120 02:35 25.01.2020
3749 Mist -4 1022 92 3500 3.1 100 01:54 25.01.2020
3750 Mist -3 1022 92 4000 0.5 0 00:59 25.01.2020
3751 Mist -4 1022 100 4000 1 110 00:37 25.01.2020
3752 Mist -3 1022 100 4000 1 110 00:18 25.01.2020
3753 Mist -3 1022 100 4000 1 110 00:18 25.01.2020
3754 Mist -3 1022 100 4500 2.1 110 23:41 24.01.2020
3755 Mist -3 1022 100 4500 2.1 110 23:23 24.01.2020
3756 Mist -3 1022 92 4500 3.6 110 22:46 24.01.2020
3757 Mist -3 1023 86 4500 2.6 100 22:26 24.01.2020
3758 Mist -3 1023 92 4500 3.1 100 21:57 24.01.2020
3759 Mist -3 1023 92 4500 2.6 130 21:39 24.01.2020
3760 Mist -3 1023 92 4500 2.6 130 21:18 24.01.2020
3761 Mist -3 1023 92 4500 2.6 130 21:18 24.01.2020
3762 Mist -2 1023 92 4000 2.6 120 20:42 24.01.2020
3763 Mist -2 1023 86 4000 2.1 130 20:21 24.01.2020
3764 Mist -2 1023 92 4000 1.5 350 19:58 24.01.2020
3765 Mist -2 1023 92 4000 1.5 350 19:39 24.01.2020
3766 Mist -2 1023 92 4000 1 0 19:21 24.01.2020
3767 Mist -1 1023 92 4000 1 90 18:43 24.01.2020
3768 Mist -1 1023 92 4000 1 90 18:43 24.01.2020
3769 Clouds -1 1022 86 6000 1 0 18:24 24.01.2020
3770 Clouds -1 1022 86 6000 1 0 17:56 24.01.2020
3771 Clouds -1 1022 86 6000 1 0 17:56 24.01.2020
3772 Clouds -1 1022 86 6000 1 0 17:38 24.01.2020
3773 Clouds 0 1022 57 8000 2.1 70 17:18 24.01.2020
3774 Clouds 0 1022 74 8000 2.6 90 16:39 24.01.2020
3775 Clouds 0 1023 80 8000 2.6 90 16:21 24.01.2020
3776 Clouds 0 1023 80 8000 2.6 90 16:21 24.01.2020
3777 Clouds 1 1023 80 7000 2.6 90 15:43 24.01.2020
3778 Clouds 0 1023 74 7000 1.5 0 15:23 24.01.2020
3779 Clouds 0 1023 80 7000 1 0 14:59 24.01.2020
3780 Clouds 0 1024 74 7000 1 0 14:40 24.01.2020
3781 Clouds 0 1024 74 7000 1 0 14:22 24.01.2020
3782 Clouds 0 1024 51 7000 0.5 0 13:43 24.01.2020
3783 Clouds 0 1024 53 7000 1.5 180 13:23 24.01.2020
3784 Clouds 0 1024 53 7000 2.1 200 12:45 24.01.2020
3785 Clouds 0 1024 53 7000 2.1 200 12:45 24.01.2020
3786 Clouds -1 1025 86 7000 2.1 160 12:23 24.01.2020
3787 Clouds -1 1025 86 6000 2.1 220 11:57 24.01.2020
3788 Clouds -1 1025 92 6000 2.1 220 11:39 24.01.2020
3789 Clouds -1 1025 92 6000 2.1 220 11:18 24.01.2020
3790 Clouds -2 1025 92 6000 1.5 160 10:42 24.01.2020
3791 Clouds -2 1025 86 6000 1 0 10:21 24.01.2020
3792 Clouds -2 1025 92 6000 1 0 09:54 24.01.2020
3793 Clouds -2 1025 92 6000 1.5 100 09:36 24.01.2020
3794 Clouds -2 1025 92 6000 1.5 100 09:18 24.01.2020
3795 Mist -2 1025 92 4500 1.5 120 08:39 24.01.2020
3796 Mist -2 1025 92 4500 2.1 120 08:18 24.01.2020
3797 Mist -2 1024 92 4700 2.1 120 07:47 24.01.2020
3798 Clouds -2 1025 92 6000 2.1 110 07:22 24.01.2020
3799 Clouds -2 1025 92 6000 2.1 110 07:22 24.01.2020
3800 Mist -3 1025 92 4200 2.6 100 06:43 24.01.2020
3801 Mist -3 1024 92 4000 1.5 90 06:23 24.01.2020
3802 Mist -3 1024 100 2500 1.5 110 05:22 24.01.2020
3803 Fog -3 1026 100 5000 0.5 120 03:34 24.01.2020
3804 Clouds -4 1026 92 6000 0.5 0 02:39 24.01.2020
3805 Clouds -4 1026 92 6000 0.5 0 02:20 24.01.2020
3806 Clouds -4 1026 92 6000 0.5 0 01:38 24.01.2020
3807 Clear -4 1026 92 8000 1.5 130 00:42 24.01.2020
3808 Clear -4 1026 92 8000 1.5 130 00:19 24.01.2020
3809 Clear -4 1026 100 9000 0.5 0 23:41 23.01.2020
3810 Clear -4 1026 100 9000 0.5 0 23:21 23.01.2020
3811 Mist -4 1026 100 6000 0.98 95 22:58 23.01.2020
3812 Clear -4 1027 92 10000 0.5 350 22:37 23.01.2020
3813 Clear -4 1027 92 10000 0.5 350 22:18 23.01.2020
3814 Clear -3 1027 92 10000 0.5 0 21:55 23.01.2020
3815 Clear -3 1027 92 10000 0.5 90 21:37 23.01.2020
3816 Clear -3 1027 92 10000 0.5 90 21:18 23.01.2020
3817 Clear -2 1027 92 10000 0.5 0 20:41 23.01.2020
3818 Clear -2 1027 92 10000 0.5 0 20:22 23.01.2020
3819 Clear -2 1027 92 10000 0.5 0 19:57 23.01.2020
3820 Clear -2 1027 92 10000 0.5 0 19:39 23.01.2020
3821 Clear -2 1027 92 10000 0.5 10 19:39 23.01.2020
3822 Clear -2 1027 92 10000 0.5 10 19:21 23.01.2020
3823 Clouds -1 1027 86 10000 1 50 18:56 23.01.2020
3824 Clouds -1 1028 80 10000 1 80 18:38 23.01.2020
3825 Clouds -1 1028 80 10000 1 80 18:19 23.01.2020
3826 Clouds 0 1028 80 10000 1.5 80 17:45 23.01.2020
3827 Clouds 0 1028 80 10000 1.5 80 17:21 23.01.2020
3828 Clouds 1 1028 80 10000 2.6 60 16:59 23.01.2020
3829 Clouds 1 1029 80 10000 2.1 110 16:39 23.01.2020
3830 Clouds 1 1029 80 10000 2.1 110 16:19 23.01.2020
3831 Clouds 1 1029 80 10000 2.6 90 15:58 23.01.2020
3832 Clouds 1 1029 80 10000 3.1 130 15:38 23.01.2020
3833 Clouds 1 1029 80 10000 3.1 130 15:19 23.01.2020
3834 Mist 1 1029 100 6000 4.1 90 14:58 23.01.2020
3835 Mist 1 1029 100 6000 3.1 110 14:40 23.01.2020
3836 Mist 1 1029 100 6000 3.1 110 14:21 23.01.2020
3837 Clouds 1 1031 80 10000 5.1 130 13:46 23.01.2020
3838 Clouds 1 1031 80 10000 5.1 130 13:21 23.01.2020
3839 Mist 1 1030 100 4800 5.1 90 12:57 23.01.2020
3840 Mist 1 1030 100 4800 5.1 90 12:57 23.01.2020
3841 Clouds 1 1032 80 10000 5.1 130 12:39 23.01.2020
3842 Clouds 1 1032 80 10000 5.1 130 12:20 23.01.2020
3843 Mist 1 1031 100 5000 4.6 110 11:45 23.01.2020
3844 Mist 0 1031 100 3200 4.1 90 11:25 23.01.2020
3845 Clouds 0 1033 74 8000 6.2 110 10:59 23.01.2020
3846 Clouds 0 1033 74 8000 5.7 120 10:40 23.01.2020
3847 Clouds -1 1033 74 8000 5.7 120 10:19 23.01.2020
3848 Clouds -1 1033 92 7000 2.6 100 09:41 23.01.2020
3849 Clouds -1 1033 92 7000 2.6 100 09:22 23.01.2020
3850 Clouds -1 1033 92 6000 1.5 100 08:56 23.01.2020
3851 Clouds -1 1033 92 6000 1.5 100 08:38 23.01.2020
3852 Mist -1 1033 92 5000 1 0 08:19 23.01.2020
3853 Mist -1 1033 86 5000 1 0 07:39 23.01.2020
3854 Mist -1 1033 86 5000 1 0 07:18 23.01.2020
3855 Mist -1 1032 100 4400 2.6 50 06:44 23.01.2020
3856 Mist -1 1034 92 5000 1 70 06:18 23.01.2020
3857 Clouds -2 1034 92 5000 0.5 0 04:25 23.01.2020
3858 Clouds -1 1035 92 5000 1 0 03:47 23.01.2020
3859 Mist -2 1035 92 5000 1 0 01:55 23.01.2020
3860 Mist -2 1036 92 3400 0.5 0 00:46 23.01.2020
3861 Mist -2 1036 92 3400 0.5 0 00:24 23.01.2020
3862 Mist -2 1036 92 3500 1 0 23:46 22.01.2020
3863 Mist -2 1036 92 3800 0.5 80 23:28 22.01.2020
3864 Mist -2 1035 92 4000 0.5 0 22:55 22.01.2020
3865 Mist -2 1035 92 3500 0.5 0 22:36 22.01.2020
3866 Mist -2 1035 92 3500 0.5 0 22:18 22.01.2020
3867 Mist -2 1035 92 3300 1 0 21:38 22.01.2020
3868 Clouds -2 1035 86 6000 1.5 30 21:20 22.01.2020
3869 Clouds -2 1035 86 7000 1 0 20:55 22.01.2020
3870 Clouds -2 1035 86 7000 1 90 20:36 22.01.2020
3871 Clouds -2 1035 86 7000 1 90 20:18 22.01.2020
3872 Clouds -2 1035 86 7000 1.5 60 19:42 22.01.2020
3873 Clouds -2 1034 86 7000 2.1 30 19:21 22.01.2020
3874 Clouds -2 1034 86 7000 2.1 30 19:21 22.01.2020
3875 Clouds -2 1034 86 7000 1.5 30 18:59 22.01.2020
3876 Clouds -2 1034 86 7000 1.5 40 18:40 22.01.2020
3877 Clouds -2 1034 86 7000 1.5 40 18:21 22.01.2020
3878 Clouds -2 1034 86 7000 1 0 17:59 22.01.2020
3879 Clouds -2 1034 86 7000 1 0 17:39 22.01.2020
3880 Clouds -2 1034 86 7000 1 0 17:20 22.01.2020
3881 Clouds -2 1034 86 8000 1.5 10 16:56 22.01.2020
3882 Clouds -2 1034 86 9000 1 0 16:37 22.01.2020
3883 Clouds -2 1034 86 9000 1 0 16:37 22.01.2020
3884 Clouds -2 1034 86 9000 1 0 16:18 22.01.2020
3885 Clouds -1 1033 80 8000 2.1 270 15:42 22.01.2020
3886 Clouds -2 1034 80 8000 1 0 15:24 22.01.2020
3887 Clouds -2 1034 80 8000 0.5 0 14:59 22.01.2020
3888 Clouds -2 1034 80 8000 1 0 14:38 22.01.2020
3889 Clouds -2 1034 80 8000 1 0 14:20 22.01.2020
3890 Clouds -2 1034 86 7000 1.5 250 13:56 22.01.2020
3891 Mist -2 1035 86 4500 1 0 13:37 22.01.2020
3892 Mist -2 1035 86 4500 1 0 13:19 22.01.2020
3893 Clouds -2 1035 86 7000 1 0 12:56 22.01.2020
3894 Clouds -2 1035 86 7000 1 0 12:56 22.01.2020
3895 Clouds -2 1035 86 7000 2.1 300 12:38 22.01.2020
3896 Clouds -2 1035 86 7000 2.1 300 12:19 22.01.2020
3897 Clouds -2 1035 86 7000 2.1 260 11:56 22.01.2020
3898 Clouds -2 1034 86 7000 2.6 220 11:38 22.01.2020
3899 Clouds -3 1034 86 7000 2.6 220 11:19 22.01.2020
3900 Clouds -3 1034 86 7000 2.6 220 11:19 22.01.2020
3901 Clouds -3 1034 86 6000 1.5 160 10:44 22.01.2020
3902 Mist -3 1034 92 5000 2.1 150 10:21 22.01.2020
3903 Mist -3 1035 86 5000 1 0 09:45 22.01.2020
3904 Mist -3 1035 100 4500 0.5 0 09:26 22.01.2020
3905 Mist -3 1035 92 4300 1.5 130 08:59 22.01.2020
3906 Mist -3 1035 92 4300 1.5 130 08:40 22.01.2020
3907 Mist -3 1035 92 4700 2.1 30 08:21 22.01.2020
3908 Mist -3 1035 92 4700 1 0 07:59 22.01.2020
3909 Mist -3 1035 92 4700 2.1 120 07:40 22.01.2020
3910 Mist -3 1035 92 4700 2.1 120 07:21 22.01.2020
3911 Mist -3 1035 92 4700 2.1 120 07:21 22.01.2020
3912 Mist -3 1035 92 4700 1.5 70 06:33 22.01.2020
3913 Mist -3 1034 100 1400 0.36 196 05:42 22.01.2020
3914 Mist -3 1034 100 1400 0.36 196 05:42 22.01.2020
3915 Mist -3 1035 92 4500 2.6 110 04:24 22.01.2020
3916 Mist -3 1034 100 3000 3.1 160 03:26 22.01.2020
3917 Mist -3 1036 92 4500 2.6 140 02:38 22.01.2020
3918 Mist -3 1037 92 4700 2.1 90 00:46 22.01.2020
3919 Mist -3 1037 92 5000 2.6 130 00:27 22.01.2020
3920 Mist -3 1037 92 5000 3.6 130 23:55 21.01.2020
3921 Clouds -3 1038 92 6000 2.6 140 23:36 21.01.2020
3922 Clouds -3 1038 92 6000 2.6 140 23:18 21.01.2020
3923 Clouds -4 1038 92 8000 0.5 0 22:40 21.01.2020
3924 Clouds -4 1038 92 8000 0.5 0 22:20 21.01.2020
3925 Clouds -4 1038 92 8000 2.1 90 21:57 21.01.2020
3926 Clouds -4 1038 92 8000 2.1 90 21:38 21.01.2020
3927 Clouds -3 1038 85 8000 1 0 21:20 21.01.2020
3928 Clear -3 1038 92 9000 1 120 20:56 21.01.2020
3929 Clear -3 1038 92 10000 0.5 0 20:37 21.01.2020
3930 Clear -3 1038 92 10000 0.5 0 20:18 21.01.2020
3931 Clear -3 1039 92 10000 0.5 350 19:56 21.01.2020
3932 Clear -3 1039 92 10000 0.5 350 19:37 21.01.2020
3933 Clouds -3 1038 100 10000 1.5 100 19:19 21.01.2020
3934 Clear -2 1039 92 10000 1.5 230 18:55 21.01.2020
3935 Clouds -2 1038 100 10000 1.5 110 18:37 21.01.2020
3936 Clear -1 1039 86 10000 0.5 0 18:18 21.01.2020
3937 Clear -1 1039 86 10000 1 220 17:44 21.01.2020
3938 Clouds 0 1039 65 10000 1.5 210 17:20 21.01.2020
3939 Clouds 0 1039 65 10000 1.5 240 16:58 21.01.2020
3940 Clouds 1 1039 65 10000 2.6 230 16:37 21.01.2020
3941 Clouds 1 1039 65 10000 2.6 230 16:18 21.01.2020
3942 Clouds 2 1040 74 10000 2.6 230 15:42 21.01.2020
3943 Clouds 2 1039 100 10000 1.5 140 15:21 21.01.2020
3944 Clouds 2 1040 74 10000 2.1 190 14:59 21.01.2020
3945 Clouds 1 1039 100 10000 2.6 130 14:37 21.01.2020
3946 Clouds 1 1039 100 10000 2.6 130 14:19 21.01.2020
3947 Clouds 2 1041 74 10000 2.6 200 13:40 21.01.2020
3948 Clouds 1 1041 74 10000 2.6 200 13:19 21.01.2020
3949 Clouds 1 1041 60 10000 3.1 200 12:43 21.01.2020
3950 Clouds 1 1042 60 10000 3.1 200 12:43 21.01.2020
3951 Clouds 1 1042 60 10000 3.1 200 12:25 21.01.2020
3952 Clouds 0 1042 60 10000 3.6 170 11:57 21.01.2020
3953 Clouds 0 1041 100 10000 3.6 140 11:38 21.01.2020
3954 Clouds -1 1041 100 10000 3.6 140 11:20 21.01.2020
3955 Mist -1 1041 100 8000 3.1 130 10:44 21.01.2020
3956 Clear -2 1042 86 10000 1 0 10:24 21.01.2020
3957 Clear -4 1042 86 10000 0.84 106 09:59 21.01.2020
3958 Clear -4 1042 86 10000 0.84 106 09:41 21.01.2020
3959 -273 0 0 0 0 0 09:22 21.01.2020
3960 Mist -5 1041 100 2600 1.5 120 08:48 21.01.2020
3961 Mist -6 1041 100 2000 2.6 50 08:29 21.01.2020
3962 Clear -5 1042 92 10000 1.5 350 07:57 21.01.2020
3963 Clear -5 1042 92 10000 1.5 350 07:38 21.01.2020
3964 Clear -6 1042 92 10000 1.5 340 07:20 21.01.2020
3965 Clear -5 1042 92 10000 1 350 06:45 21.01.2020
3966 Clear -5 1042 92 10000 1 10 06:25 21.01.2020
3967 Clear -5 1042 92 10000 1 10 05:41 21.01.2020
3968 Clear -5 1042 92 10000 1 360 04:39 21.01.2020
3969 Clear -4 1043 92 10000 0.5 0 02:55 21.01.2020
3970 Clear -4 1043 92 9000 0.5 40 01:51 21.01.2020
3971 Clear -3 1044 100 10000 1 360 00:57 21.01.2020
3972 Clear -3 1044 92 10000 1 0 00:35 21.01.2020
3973 Clear -3 1044 92 10000 1 0 23:57 20.01.2020
3974 Clear -3 1044 92 10000 0.5 230 23:37 20.01.2020
3975 Clear -3 1044 92 10000 0.5 230 23:18 20.01.2020
3976 Clear -3 1044 92 10000 0.5 230 23:18 20.01.2020
3977 Clear -2 1044 86 10000 1.5 130 22:56 20.01.2020
3978 Clear -2 1044 92 10000 2.1 60 22:37 20.01.2020
3979 Clear -2 1044 92 10000 2.1 60 22:18 20.01.2020
3980 Clear -2 1044 86 10000 1 0 21:57 20.01.2020
3981 Clear -2 1045 86 10000 2.1 90 21:36 20.01.2020
3982 Clear -2 1045 86 10000 2.1 90 21:18 20.01.2020
3983 Clear -2 1045 86 10000 1.5 90 20:55 20.01.2020
3984 Clear -1 1045 85 10000 2.1 70 20:36 20.01.2020
3985 Clear -1 1045 80 10000 2.1 70 20:18 20.01.2020
3986 Clouds -1 1045 86 10000 2.1 50 19:56 20.01.2020
3987 Clouds -1 1044 86 10000 1.5 40 19:37 20.01.2020
3988 Clouds -1 1044 86 10000 1.5 40 19:18 20.01.2020
3989 Clouds 0 1044 74 10000 2.1 60 18:42 20.01.2020
3990 Clouds 0 1044 74 10000 2.1 60 18:21 20.01.2020
3991 Clouds 2 1044 74 10000 2.1 40 17:39 20.01.2020
3992 Clouds 3 1044 74 10000 1.5 40 17:19 20.01.2020
3993 Clouds 3 1044 69 10000 1.5 60 16:55 20.01.2020
3994 Clouds 4 1044 64 10000 1.5 70 16:36 20.01.2020
3995 Clouds 4 1044 64 10000 1.5 70 16:18 20.01.2020
3996 Clouds 4 1045 64 10000 1.5 90 15:41 20.01.2020
3997 Clouds 4 1045 60 10000 2.1 80 15:22 20.01.2020
3998 Clouds 5 1045 60 10000 2.1 80 14:59 20.01.2020
3999 Clouds 4 1045 60 10000 2.1 80 14:40 20.01.2020
4000 Clouds 4 1045 60 10000 2.6 60 14:21 20.01.2020
4001 Clouds 4 1045 65 10000 2.1 0 13:57 20.01.2020
4002 Clouds 4 1045 100 10000 3.6 40 13:38 20.01.2020
4003 Clouds 4 1045 100 10000 3.6 40 13:20 20.01.2020
4004 Clouds 4 1045 62 10000 1.5 20 12:42 20.01.2020
4005 Clouds 3 1046 62 10000 0.5 0 12:23 20.01.2020
4006 Clouds 3 1046 62 10000 0.5 0 11:56 20.01.2020
4007 Clouds 3 1046 62 10000 1 0 11:37 20.01.2020
4008 Clouds 2 1046 73 10000 1 0 11:18 20.01.2020
4009 Clouds 2 1045 73 10000 0.5 0 10:46 20.01.2020
4010 Clouds 1 1045 73 10000 0.5 0 10:21 20.01.2020
4011 Mist 0 1044 100 4400 1.62 71 09:42 20.01.2020
4012 Mist 0 1044 100 4400 1.62 71 09:24 20.01.2020
4013 Clouds 0 1044 100 10000 0.5 350 08:56 20.01.2020
4014 Clouds 0 1044 73 10000 0.5 0 08:34 20.01.2020
4015 Clouds 0 1044 90 10000 0.5 0 07:59 20.01.2020
4016 Clouds 0 1044 90 10000 0.5 0 07:41 20.01.2020
4017 Clouds 0 1044 90 10000 0.5 0 07:21 20.01.2020
4018 Clouds 0 1043 90 10000 1.5 330 06:42 20.01.2020
4019 Clouds 0 1043 90 10000 1.5 330 06:21 20.01.2020
4020 Clouds 0 1043 90 10000 0.5 320 05:38 20.01.2020
4021 Clouds 0 1043 91 10000 0.5 320 05:19 20.01.2020
4022 Clouds 0 1043 91 10000 0.5 0 03:55 20.01.2020
4023 Clouds 1 1042 89 10000 0.5 320 01:58 20.01.2020
4024 Clouds 1 1042 89 10000 1 0 01:39 20.01.2020
4025 Clouds 1 1042 89 10000 1 0 00:56 20.01.2020
4026 Clouds 1 1042 89 10000 1 0 00:38 20.01.2020
4027 Clouds 1 1042 89 10000 1.5 120 00:38 20.01.2020
4028 Clouds 1 1042 89 10000 1.5 120 00:20 20.01.2020
4029 Clouds 1 1041 89 10000 2.6 110 23:38 19.01.2020
4030 Clouds 1 1041 90 10000 2.6 110 23:18 19.01.2020
4031 Clouds 1 1041 90 10000 1 340 22:55 19.01.2020
4032 Clouds 1 1040 90 10000 1 0 22:37 19.01.2020
4033 Clouds 1 1040 90 10000 1 0 22:19 19.01.2020
4034 Clouds 1 1040 90 10000 2.1 300 21:56 19.01.2020
4035 Clouds 1 1040 90 10000 1 360 21:37 19.01.2020
4036 Clouds 1 1040 90 10000 1 360 21:19 19.01.2020
4037 Clouds 1 1039 90 10000 2.1 300 20:56 19.01.2020
4038 Clouds 1 1039 90 10000 1.5 310 20:38 19.01.2020
4039 Clouds 1 1039 85 10000 1.5 310 20:19 19.01.2020
4040 Clouds 1 1039 92 10000 1.5 340 19:55 19.01.2020
4041 Clouds 1 1038 85 10000 0.5 0 19:37 19.01.2020
4042 Clouds 1 1038 85 10000 0.5 0 19:19 19.01.2020
4043 Clouds 1 1038 86 10000 1 330 18:55 19.01.2020
4044 Rain 2 1038 86 10000 1.5 300 18:37 19.01.2020
4045 Rain 2 1038 86 10000 1.5 300 18:19 19.01.2020
4046 Clouds 2 1037 80 10000 1 300 17:57 19.01.2020
4047 Clouds 2 1037 80 10000 2.6 310 17:38 19.01.2020
4048 Clouds 2 1037 80 10000 2.6 310 17:19 19.01.2020
4049 Clouds 2 1036 74 10000 2.6 330 16:57 19.01.2020
4050 Clouds 3 1036 100 10000 1.19 349 16:37 19.01.2020
4051 Clouds 3 1036 100 10000 1.19 349 16:19 19.01.2020
4052 Rain 3 1035 80 10000 4.1 320 15:55 19.01.2020
4053 Clouds 3 1035 80 10000 3.1 310 15:37 19.01.2020
4054 Clouds 3 1035 80 10000 3.1 310 15:18 19.01.2020
4055 Clouds 3 1034 80 10000 1.5 300 14:41 19.01.2020
4056 Clouds 3 1034 80 10000 1.5 300 14:21 19.01.2020
4057 Clouds 3 1034 80 10000 2.6 350 13:59 19.01.2020
4058 Clouds 3 1034 80 10000 2.6 350 13:40 19.01.2020
4059 Clouds 3 1034 78 10000 2.1 310 13:22 19.01.2020
4060 Clouds 3 1034 78 10000 2.6 300 12:59 19.01.2020
4061 Clouds 3 1034 78 10000 1.5 320 12:41 19.01.2020
4062 Clouds 2 1034 78 10000 1.5 320 12:21 19.01.2020
4063 Clouds 2 1034 78 10000 2.1 290 11:57 19.01.2020
4064 Clouds 2 1034 78 10000 1.5 300 11:39 19.01.2020
4065 Clouds 2 1034 88 10000 1.5 300 11:18 19.01.2020
4066 Mist 1 1033 88 8000 2.1 280 10:41 19.01.2020
4067 Mist 1 1033 88 8000 2.1 280 10:21 19.01.2020
4068 Clouds 1 1032 88 10000 1 0 09:58 19.01.2020
4069 Snow 1 1031 88 2400 2.1 270 09:39 19.01.2020
4070 Snow 1 1031 88 2400 2.1 270 09:21 19.01.2020
4071 Clouds 1 1031 88 10000 0.5 0 08:56 19.01.2020
4072 Clouds 1 1031 88 10000 0.5 0 08:38 19.01.2020
4073 Clouds 1 1031 93 10000 1 280 08:19 19.01.2020
4074 Clouds 1 1030 93 10000 0.5 0 07:29 19.01.2020
4075 Clouds 0 1030 93 10000 1 290 06:55 19.01.2020
4076 Snow 0 1030 93 10000 1 310 06:23 19.01.2020
4077 Clouds 1 1029 93 10000 1 270 04:18 19.01.2020
4078 Clouds 1 1028 100 10000 3.1 280 02:34 19.01.2020
4079 Clouds 1 1028 91 10000 2.6 290 01:43 19.01.2020
4080 Clouds 1 1028 91 10000 2.6 290 01:21 19.01.2020
4081 Clouds 2 1027 91 10000 4.6 280 00:45 19.01.2020
4082 Clouds 2 1027 100 10000 2.6 270 00:24 19.01.2020
4083 Clouds 2 1027 100 10000 2.6 270 23:55 18.01.2020
4084 Clouds 2 1027 91 10000 2.1 260 23:36 18.01.2020
4085 Clouds 2 1027 89 10000 2.1 260 23:18 18.01.2020
4086 Clouds 2 1027 89 10000 2.1 270 22:42 18.01.2020
4087 Clouds 2 1027 89 10000 1 0 22:24 18.01.2020
4088 Clouds 2 1027 89 10000 1 240 21:58 18.01.2020
4089 Clouds 2 1027 89 10000 1 240 21:39 18.01.2020
4090 Clouds 2 1027 89 10000 1 0 21:20 18.01.2020
4091 Clouds 2 1027 89 10000 2.6 250 20:57 18.01.2020
4092 Clouds 2 1026 89 10000 2.1 230 20:39 18.01.2020
4093 Clouds 2 1026 91 10000 2.1 230 20:19 18.01.2020
4094 Clouds 3 1026 91 10000 2.1 210 19:43 18.01.2020
4095 Clouds 3 1026 91 10000 2.1 210 19:24 18.01.2020
4096 Clouds 3 1026 91 10000 2.6 230 18:43 18.01.2020
4097 Clouds 3 1026 91 10000 3.6 230 18:25 18.01.2020
4098 Clouds 3 1026 91 10000 3.6 230 18:25 18.01.2020
4099 Clouds 3 1026 91 10000 2.6 230 17:59 18.01.2020
4100 Clouds 3 1026 91 10000 2.6 230 17:40 18.01.2020
4101 Clouds 4 1025 65 10000 3.1 240 17:20 18.01.2020
4102 Clouds 4 1025 65 10000 4.1 260 16:56 18.01.2020
4103 Clouds 5 1025 80 10000 4.1 260 16:38 18.01.2020
4104 Clouds 5 1025 80 10000 4.1 260 16:19 18.01.2020
4105 Clouds 5 1025 80 10000 3.1 260 15:44 18.01.2020
4106 Clouds 5 1025 80 10000 3.1 290 15:25 18.01.2020
4107 Clouds 5 1025 80 10000 3.6 270 14:59 18.01.2020
4108 Clouds 5 1025 80 10000 3.6 270 14:40 18.01.2020
4109 Clouds 6 1025 71 10000 4.6 260 14:19 18.01.2020
4110 Clouds 6 1025 70 10000 4.6 250 13:55 18.01.2020
4111 Clouds 6 1026 71 10000 5.7 250 13:36 18.01.2020
4112 Clouds 5 1026 74 10000 5.7 250 13:18 18.01.2020
4113 Clouds 5 1026 74 10000 5.7 250 13:18 18.01.2020
4114 Clouds 6 1026 70 10000 4.1 270 12:40 18.01.2020
4115 Clouds 5 1026 70 10000 4.1 270 12:21 18.01.2020
4116 Clouds 5 1026 75 10000 4.1 250 11:45 18.01.2020
4117 Clouds 5 1026 75 10000 4.1 250 11:24 18.01.2020
4118 Clouds 4 1026 80 10000 3.6 260 10:58 18.01.2020
4119 Clouds 4 1026 80 10000 3.6 260 10:39 18.01.2020
4120 Clouds 4 1026 80 10000 3.6 260 10:20 18.01.2020
4121 Clouds 4 1026 80 10000 3.6 260 10:20 18.01.2020
4122 Clouds 4 1026 86 10000 3.6 250 09:49 18.01.2020
4123 Clouds 3 1026 86 10000 2.6 240 09:31 18.01.2020
4124 Clouds 3 1025 80 10000 1.5 220 08:57 18.01.2020
4125 Clouds 3 1025 80 10000 1.5 220 08:39 18.01.2020
4126 Clouds 3 1025 93 10000 1 260 08:19 18.01.2020
4127 Clouds 3 1025 80 10000 2.1 240 07:50 18.01.2020
4128 Clouds 3 1025 86 10000 2.6 230 07:31 18.01.2020
4129 Clouds 4 1024 86 10000 2.6 260 06:47 18.01.2020
4130 Clouds 4 1024 86 10000 3.1 270 05:59 18.01.2020
4131 Clouds 4 1023 80 10000 4.1 280 05:24 18.01.2020
4132 Clouds 4 1022 87 10000 3.6 260 02:56 18.01.2020
4133 Drizzle 5 1021 100 10000 4.1 260 01:54 18.01.2020
4134 Clouds 5 1021 100 10000 2.6 240 01:30 18.01.2020
4135 Clouds 5 1021 100 10000 2.6 250 00:37 18.01.2020
4136 Clouds 5 1021 100 10000 2.6 250 00:37 18.01.2020
4137 Clouds 5 1021 100 10000 2.6 250 00:37 18.01.2020
4138 Clouds 5 1021 100 10000 2.6 250 00:18 18.01.2020
4139 Drizzle 5 1020 87 10000 1.5 200 23:41 17.01.2020
4140 Rain 5 1020 87 10000 2.1 180 23:20 17.01.2020
4141 Rain 5 1020 100 10000 4.1 240 22:45 17.01.2020
4142 Clouds 5 1020 93 10000 1.5 150 22:22 17.01.2020
4143 Rain 5 1020 86 10000 2.1 130 21:59 17.01.2020
4144 Rain 5 1020 86 10000 2.1 130 21:41 17.01.2020
4145 Rain 4 1020 86 10000 2.1 120 21:22 17.01.2020
4146 Drizzle 4 1020 100 10000 4.6 240 20:57 17.01.2020
4147 Clouds 4 1019 86 10000 1 0 20:38 17.01.2020
4148 Clouds 4 1019 86 10000 1 0 20:20 17.01.2020
4149 Clouds 4 1019 86 10000 1 0 20:20 17.01.2020
4150 Clouds 4 1019 80 10000 3.1 120 19:55 17.01.2020
4151 Clouds 4 1019 80 10000 3.1 120 19:55 17.01.2020
4152 Clouds 4 1019 80 10000 4.1 100 19:37 17.01.2020
4153 Clouds 4 1019 80 10000 4.1 100 19:18 17.01.2020
4154 Clouds 5 1019 80 10000 3.6 100 18:47 17.01.2020
4155 Clouds 5 1019 75 10000 5.1 130 18:28 17.01.2020
4156 Clouds 5 1018 75 10000 4.1 120 17:56 17.01.2020
4157 Clouds 5 1018 75 10000 4.1 120 17:56 17.01.2020
4158 Clouds 4 1018 80 10000 3.6 120 17:38 17.01.2020
4159 Clouds 5 1018 80 10000 3.6 120 17:20 17.01.2020
4160 Clouds 5 1018 75 10000 3.6 120 16:43 17.01.2020
4161 Clouds 5 1018 70 10000 3.6 130 16:20 17.01.2020
4162 Clouds 6 1018 65 10000 3.1 130 15:49 17.01.2020
4163 Clouds 6 1018 65 10000 3.6 130 15:28 17.01.2020
4164 Clouds 6 1018 70 10000 3.1 130 14:59 17.01.2020
4165 Clouds 6 1018 70 10000 3.1 130 14:40 17.01.2020
4166 -273 0 0 0 0 0 14:22 17.01.2020
4167 Clouds 5 1019 70 10000 2.6 130 13:42 17.01.2020
4168 Clouds 5 1019 70 10000 3.1 140 13:22 17.01.2020
4169 Clouds 4 1020 75 10000 3.1 150 12:46 17.01.2020
4170 Clouds 3 1020 75 10000 3.1 150 12:23 17.01.2020
4171 Clouds 3 1020 86 9000 3.6 130 11:41 17.01.2020
4172 Clouds 3 1020 80 10000 3.1 150 11:41 17.01.2020
4173 Clear 2 1020 86 9000 3.6 130 11:20 17.01.2020
4174 Clear 1 1021 83 9000 3.1 120 10:56 17.01.2020
4175 Clear 1 1021 83 9000 2.1 120 10:37 17.01.2020
4176 Clear 1 1021 83 9000 2.1 120 10:19 17.01.2020
4177 Mist 0 1020 83 5000 2.1 180 09:43 17.01.2020
4178 Fog -1 1021 92 8000 2.6 110 09:21 17.01.2020
4179 Clouds -1 1021 92 10000 1.5 90 08:56 17.01.2020
4180 Clouds -1 1021 92 10000 1 0 08:38 17.01.2020
4181 Clouds -1 1021 92 10000 1 0 08:19 17.01.2020
4182 Clouds -1 1021 100 10000 2.6 200 07:43 17.01.2020
4183 Clear -1 1021 92 10000 2.6 130 07:25 17.01.2020
4184 Clouds -1 1021 100 10000 2.6 80 06:51 17.01.2020
4185 Clouds -1 1022 100 10000 1 0 06:30 17.01.2020
4186 Fog 0 1022 93 10000 2.1 90 04:27 17.01.2020
4187 Clear 1 1023 90 0 0.89 215 02:56 17.01.2020
4188 Clear 1 1023 90 0 0.89 215 02:56 17.01.2020
4189 Clear 1 1010 80 0 1.32 157 02:32 17.01.2020
4190 Clear 1 1010 81 0 1.34 132 01:33 17.01.2020
4191 Clear 1 1011 78 0 2.02 114 00:59 17.01.2020
4192 Clear 1 1011 78 0 2.02 114 00:59 17.01.2020
4193 Clear 1 1025 88 0 0.89 220 00:35 17.01.2020
4194 Clear 2 1026 90 10000 0.5 350 23:57 16.01.2020
4195 Clear 1 1026 90 10000 0.5 350 23:38 16.01.2020
4196 Clear 2 1026 88 10000 0.5 350 23:19 16.01.2020
4197 Clear 2 1026 93 10000 0.5 0 22:41 16.01.2020
4198 Clear 3 1026 93 10000 0.5 0 22:21 16.01.2020
4199 Clear 3 1027 93 10000 0.5 0 21:57 16.01.2020
4200 Clear 3 1027 86 10000 1.5 110 21:37 16.01.2020
4201 Clear 3 1027 86 10000 1.5 110 21:19 16.01.2020
4202 Clear 3 1027 86 10000 2.6 110 20:56 16.01.2020
4203 Clear 4 1027 86 10000 3.1 100 20:37 16.01.2020
4204 Clear 4 1027 86 10000 3.1 100 20:18 16.01.2020
4205 Clear 5 1027 80 10000 3.6 100 19:55 16.01.2020
4206 Clear 5 1028 86 10000 3.1 90 19:37 16.01.2020
4207 Clear 5 1028 86 10000 3.1 90 19:18 16.01.2020
4208 Clouds 5 1027 80 10000 4.1 100 18:55 16.01.2020
4209 Clouds 6 1028 80 10000 3.6 120 18:36 16.01.2020
4210 Clouds 6 1028 80 10000 3.6 120 18:18 16.01.2020
4211 Clouds 7 1028 70 10000 3.6 100 17:41 16.01.2020
4212 Clouds 8 1028 70 10000 3.6 100 17:22 16.01.2020
4213 Clouds 8 1028 66 10000 2.6 110 16:57 16.01.2020
4214 Clouds 9 1027 66 10000 3.1 150 16:38 16.01.2020
4215 Clouds 10 1027 66 10000 3.1 150 16:19 16.01.2020
4216 Clouds 10 1027 62 10000 3.1 130 15:44 16.01.2020
4217 Clouds 11 1027 54 10000 3.1 160 15:22 16.01.2020
4218 Clouds 11 1028 54 10000 1 0 14:56 16.01.2020
4219 Clouds 11 1028 54 10000 1.5 150 14:37 16.01.2020
4220 Clouds 11 1028 54 10000 1.5 150 14:19 16.01.2020
4221 Clouds 10 1028 58 10000 1.5 110 13:44 16.01.2020
4222 Clouds 10 1028 66 10000 2.1 120 13:25 16.01.2020
4223 Clouds 9 1029 66 10000 2.6 140 12:46 16.01.2020
4224 Clouds 9 1029 66 10000 3.1 140 12:28 16.01.2020
4225 Clouds 8 1029 66 10000 4.6 140 11:57 16.01.2020
4226 Clouds 8 1029 70 10000 3.6 140 11:39 16.01.2020
4227 Clouds 7 1029 70 10000 3.6 140 11:21 16.01.2020
4228 Rain 6 1029 75 10000 3.1 120 10:39 16.01.2020
4229 Rain 6 1029 75 10000 3.1 120 10:21 16.01.2020
4230 Clouds 5 1029 81 10000 3.1 110 09:58 16.01.2020
4231 Clouds 5 1029 75 10000 3.1 100 09:40 16.01.2020
4232 Clouds 5 1029 75 10000 3.1 100 09:21 16.01.2020
4233 Clouds 5 1029 75 10000 3.6 100 08:52 16.01.2020
4234 Clouds 5 1028 75 10000 3.6 100 08:34 16.01.2020
4235 Clouds 5 1028 75 10000 3.1 110 07:59 16.01.2020
4236 Clouds 5 1028 75 10000 3.1 110 07:39 16.01.2020
4237 Clouds 5 1028 75 10000 3.6 100 07:20 16.01.2020
4238 Clouds 5 1028 75 10000 3.6 100 06:43 16.01.2020
4239 Clouds 5 1028 75 10000 3.1 100 06:21 16.01.2020
4240 Clouds 5 1027 75 10000 3.1 120 05:45 16.01.2020
4241 Clouds 4 1027 75 10000 3.1 110 04:40 16.01.2020
4242 Clouds 4 1026 70 10000 3.1 110 03:28 16.01.2020
4243 Clouds 4 1026 75 10000 3.6 100 02:43 16.01.2020
4244 Clouds 5 1025 75 10000 3.1 130 00:54 16.01.2020
4245 Clouds 4 1024 75 10000 3.6 130 00:24 16.01.2020
4246 Clouds 4 1024 80 10000 3.6 120 23:51 15.01.2020
4247 Clouds 3 1023 82 10000 4.1 130 23:23 15.01.2020
4248 Clouds 3 1023 85 10000 4.6 110 22:59 15.01.2020
4249 Clouds 3 1023 85 10000 4.6 110 22:41 15.01.2020
4250 Clouds 3 1023 80 10000 4.1 110 22:19 15.01.2020
4251 Clouds 3 1023 85 10000 3.6 110 21:58 15.01.2020
4252 Clouds 4 1023 85 10000 3.6 110 21:40 15.01.2020
4253 Clouds 4 1022 85 10000 3.6 120 21:21 15.01.2020
4254 Clouds 4 1022 85 10000 3.6 110 20:58 15.01.2020
4255 Clouds 4 1022 85 10000 3.6 110 20:58 15.01.2020
4256 Clouds 4 1022 85 10000 3.6 110 20:40 15.01.2020
4257 Clouds 4 1022 82 10000 3.6 120 20:21 15.01.2020
4258 Clouds 4 1022 75 10000 4.1 110 19:55 15.01.2020
4259 Clouds 4 1022 75 10000 4.1 110 19:55 15.01.2020
4260 Clouds 4 1022 75 10000 4.1 110 19:55 15.01.2020
4261 Clouds 4 1021 75 10000 3.1 130 19:37 15.01.2020
4262 Clouds 5 1021 75 10000 3.1 130 19:19 15.01.2020
4263 Clouds 5 1021 75 10000 4.1 120 18:57 15.01.2020
4264 Clouds 5 1021 75 10000 4.1 120 18:38 15.01.2020
4265 Clouds 6 1020 70 10000 3.6 120 18:20 15.01.2020
4266 Clouds 6 1020 61 10000 2.1 140 18:20 15.01.2020
4267 Clouds 6 1020 70 10000 3.6 120 18:20 15.01.2020
4268 Clouds 6 1020 61 10000 2.1 140 17:58 15.01.2020
4269 Clouds 7 1020 57 10000 2.1 150 17:40 15.01.2020
4270 Clear 7 1020 57 10000 2.1 150 17:21 15.01.2020
4271 Clear 8 1019 53 10000 2.6 180 16:42 15.01.2020
4272 Clear 9 1019 50 10000 3.1 170 16:24 15.01.2020
4273 Clear 10 1018 46 10000 3.1 180 15:59 15.01.2020
4274 Clear 10 1018 46 10000 3.6 180 15:41 15.01.2020
4275 Clear 11 1018 46 10000 3.6 180 15:20 15.01.2020
4276 Clear 10 1018 46 10000 2.6 180 14:44 15.01.2020
4277 Clouds 11 1018 50 10000 3.6 180 14:21 15.01.2020
4278 Clouds 10 1018 46 10000 3.6 160 13:56 15.01.2020
4279 Clouds 10 1018 46 10000 3.1 140 13:38 15.01.2020
4280 Clouds 9 1018 45 10000 3.1 140 13:19 15.01.2020
4281 Clouds 9 1019 45 10000 3.6 140 12:41 15.01.2020
4282 Clouds 8 1019 52 10000 3.6 160 12:20 15.01.2020
4283 Clouds 7 1019 56 10000 2.6 160 11:59 15.01.2020
4284 Clouds 7 1019 60 10000 3.6 150 11:38 15.01.2020
4285 Clouds 7 1019 60 10000 3.6 150 11:38 15.01.2020
4286 Clouds 5 1019 60 10000 3.6 150 11:19 15.01.2020
4287 Clouds 5 1019 60 10000 4.1 140 10:46 15.01.2020
4288 Clouds 4 1019 64 10000 3.6 130 10:28 15.01.2020
4289 Clouds 3 1019 69 10000 5.1 130 09:55 15.01.2020
4290 Clouds 3 1019 69 10000 4.1 130 09:37 15.01.2020
4291 Clouds 3 1019 69 10000 4.1 130 09:19 15.01.2020
4292 Clouds 3 1019 69 10000 4.1 130 08:44 15.01.2020
4293 Clouds 3 1019 74 10000 4.1 130 08:23 15.01.2020
4294 Clouds 3 1019 74 10000 4.1 130 07:54 15.01.2020
4295 Clouds 3 1019 74 10000 3.6 140 07:32 15.01.2020
4296 Clouds 3 1018 69 10000 4.6 130 06:48 15.01.2020
4297 Clouds 3 1018 74 10000 3.1 140 06:23 15.01.2020
4298 Clouds 4 1018 74 10000 4.1 120 04:45 15.01.2020
4299 Clouds 5 1018 47 10000 2.6 110 02:39 15.01.2020
4300 Clouds 5 1018 48 10000 4.1 130 01:28 15.01.2020
4301 Clouds 5 1018 49 10000 5.1 130 00:59 15.01.2020
4302 Clouds 5 1018 49 10000 5.1 130 00:59 15.01.2020
4303 Clouds 6 1018 49 10000 3.6 140 00:36 15.01.2020
4304 Clouds 6 1018 49 10000 3.6 140 00:18 15.01.2020
4305 Clouds 6 1018 65 10000 4.1 140 23:45 14.01.2020
4306 Clouds 6 1018 49 10000 4.1 130 23:24 14.01.2020
4307 Clouds 6 1018 48 10000 3.1 120 22:41 14.01.2020
4308 Clouds 6 1018 48 10000 3.1 120 22:19 14.01.2020
4309 Clouds 6 1018 48 10000 4.1 110 21:59 14.01.2020
4310 Clouds 6 1017 48 10000 4.6 130 21:40 14.01.2020
4311 Clouds 6 1017 48 10000 4.6 130 21:22 14.01.2020
4312 Clouds 6 1017 48 10000 5.1 140 20:59 14.01.2020
4313 Clouds 6 1017 48 10000 5.1 140 20:40 14.01.2020
4314 Clouds 6 1017 48 10000 5.1 140 20:40 14.01.2020
4315 Rain 6 1018 65 10000 4.1 130 20:20 14.01.2020
4316 Rain 6 1018 65 10000 4.1 130 20:20 14.01.2020
4317 Rain 6 1018 65 10000 4.1 130 19:56 14.01.2020
4318 Drizzle 6 1017 75 10000 4.6 160 19:38 14.01.2020
4319 Drizzle 6 1017 75 10000 4.6 160 19:18 14.01.2020
4320 Rain 6 1017 65 10000 4.1 140 18:55 14.01.2020
4321 Clouds 6 1017 59 10000 4.6 150 18:37 14.01.2020
4322 Clouds 6 1017 59 10000 4.6 150 18:18 14.01.2020
4323 Clouds 6 1017 59 10000 4.6 150 17:38 14.01.2020
4324 Clouds 7 1017 58 10000 4.6 150 17:19 14.01.2020
4325 Clouds 7 1017 58 10000 4.6 140 16:55 14.01.2020
4326 Clouds 7 1017 58 10000 4.6 140 16:55 14.01.2020
4327 Clouds 7 1016 61 10000 3.6 130 16:37 14.01.2020
4328 Clouds 7 1016 61 10000 3.6 130 16:19 14.01.2020
4329 Clouds 7 1016 57 10000 4.6 130 15:42 14.01.2020
4330 Clouds 7 1016 58 10000 4.6 150 15:19 14.01.2020
4331 Clouds 7 1016 58 10000 4.6 150 14:47 14.01.2020
4332 Clouds 8 1016 46 10000 4.6 160 14:23 14.01.2020
4333 Clouds 8 1016 49 10000 4.6 150 13:59 14.01.2020
4334 Clouds 7 1016 49 10000 5.7 150 13:40 14.01.2020
4335 Clouds 7 1016 49 10000 5.7 150 13:19 14.01.2020
4336 Clouds 7 1016 52 10000 5.1 160 12:42 14.01.2020
4337 Clouds 6 1016 56 10000 5.7 140 12:23 14.01.2020
4338 Clouds 5 1016 60 10000 4.6 140 11:57 14.01.2020
4339 Clouds 5 1016 65 10000 4.6 140 11:39 14.01.2020
4340 Clouds 4 1016 65 10000 4.6 140 11:20 14.01.2020
4341 Clouds 3 1017 64 10000 3.1 140 10:56 14.01.2020
4342 Clouds 3 1017 69 10000 3.6 140 10:37 14.01.2020
4343 Clouds 2 1017 69 10000 3.6 140 10:19 14.01.2020
4344 Clouds 2 1016 74 10000 4.6 130 09:42 14.01.2020
4345 Clouds 2 1016 80 10000 5.1 130 09:23 14.01.2020
4346 Clouds 1 1016 80 10000 4.6 120 08:58 14.01.2020
4347 Clouds 1 1016 80 10000 4.6 120 08:39 14.01.2020
4348 Clouds 0 1015 80 10000 4.6 120 08:20 14.01.2020
4349 Clouds 0 1016 70 10000 4.1 120 07:40 14.01.2020
4350 Clouds 0 1016 70 10000 4.1 120 06:59 14.01.2020
4351 Clouds 1 1016 70 10000 4.1 120 06:59 14.01.2020
4352 Clouds 0 1016 70 10000 4.1 120 06:40 14.01.2020
4353 Clouds 0 1015 80 10000 5.1 120 05:56 14.01.2020
4354 Clouds 0 1016 86 10000 3.6 130 04:24 14.01.2020
4355 Clouds 0 1016 86 10000 4.1 130 03:45 14.01.2020
4356 Clouds 1 1016 77 10000 4.1 120 02:30 14.01.2020
4357 Clouds 1 1018 82 10000 3.1 110 01:18 14.01.2020
4358 Clouds 1 1018 82 10000 4.1 120 00:42 14.01.2020
4359 Clouds 1 1018 82 10000 3.6 130 00:21 14.01.2020
4360 Clouds 1 1017 86 10000 3.1 120 23:42 13.01.2020
4361 Clouds 1 1018 78 10000 2.6 130 23:18 13.01.2020
4362 Clouds 1 1018 78 10000 2.6 130 23:18 13.01.2020
4363 Clouds 2 1018 78 10000 3.1 120 22:55 13.01.2020
4364 Clouds 2 1018 100 10000 3.1 120 22:37 13.01.2020
4365 Clouds 2 1018 100 10000 3.1 120 22:19 13.01.2020
4366 Clouds 2 1018 93 10000 3.1 110 21:54 13.01.2020
4367 Rain 2 1018 86 10000 4.1 120 21:36 13.01.2020
4368 Clouds 3 1019 86 10000 4.1 120 21:18 13.01.2020
4369 Clouds 3 1019 86 10000 4.1 120 20:42 13.01.2020
4370 Rain 3 1019 86 10000 2.1 130 20:23 13.01.2020
4371 Clouds 3 1019 86 10000 3.1 140 19:59 13.01.2020
4372 Clouds 4 1019 86 10000 3.1 140 19:41 13.01.2020
4373 Clouds 4 1019 100 10000 2.1 160 19:20 13.01.2020
4374 Clouds 4 1019 100 10000 2.1 160 19:20 13.01.2020
4375 Clouds 4 1020 86 10000 3.6 140 18:58 13.01.2020
4376 Clouds 4 1020 86 10000 3.6 140 18:58 13.01.2020
4377 Clouds 4 1020 86 10000 3.6 140 18:38 13.01.2020
4378 Clouds 4 1020 80 10000 3.6 160 18:38 13.01.2020
4379 Clouds 4 1020 80 10000 3.6 160 18:19 13.01.2020
4380 Clouds 4 1019 100 10000 2.6 160 17:57 13.01.2020
4381 Clouds 4 1019 86 10000 3.6 140 17:38 13.01.2020
4382 Clouds 4 1019 86 10000 3.6 140 17:20 13.01.2020
4383 Clouds 5 1018 1 0 0.45 171 16:40 13.01.2020
4384 Clouds 5 1018 1 0 0.45 171 16:40 13.01.2020
4385 Clouds 5 1018 1 0 0.89 186 16:22 13.01.2020
4386 Clouds 5 1007 75 0 1.79 106 15:55 13.01.2020
4387 Clouds 5 1018 1 0 2.43 148 15:36 13.01.2020
4388 Clouds 5 1018 1 0 0.89 187 15:18 13.01.2020
4389 Clouds 5 1023 91 0 0.45 173 14:42 13.01.2020
4390 Clouds 5 1020 82 0 1.79 210 14:23 13.01.2020
4391 Clouds 5 1007 73 0 1.79 217 13:57 13.01.2020
4392 Clouds 5 1019 1 0 0.89 189 13:39 13.01.2020
4393 Clouds 4 1021 83 0 1.79 212 13:20 13.01.2020
4394 Mist 4 1022 100 4400 2.6 160 12:43 13.01.2020
4395 Mist 4 1022 100 4400 2.6 160 12:23 13.01.2020
4396 Mist 4 1022 100 4400 2.6 160 11:59 13.01.2020
4397 Clouds 4 1023 86 10000 3.6 140 11:39 13.01.2020
4398 Clouds 3 1023 86 10000 3.6 140 11:19 13.01.2020
4399 Clouds 3 1024 93 8000 3.6 140 10:57 13.01.2020
4400 Clouds 3 1024 93 7000 4.1 150 10:38 13.01.2020
4401 Clouds 3 1024 93 7000 4.1 150 10:20 13.01.2020
4402 Clouds 3 1024 93 7000 3.6 140 09:55 13.01.2020
4403 Clouds 3 1024 93 7000 4.1 150 09:37 13.01.2020
4404 Clouds 3 1024 93 7000 4.1 150 09:19 13.01.2020
4405 Clouds 3 1024 93 7000 2.6 140 08:38 13.01.2020
4406 Clouds 3 1024 93 7000 2.6 140 08:19 13.01.2020
4407 Clouds 3 1024 93 7000 2.6 140 07:45 13.01.2020
4408 Clouds 3 1024 93 7000 2.6 160 07:27 13.01.2020
4409 Clouds 3 1025 93 10000 2.1 140 06:39 13.01.2020
4410 Clouds 3 1025 93 10000 1.5 110 05:57 13.01.2020
4411 Clouds 3 1025 93 10000 2.6 160 05:19 13.01.2020
4412 Clouds 2 1026 93 10000 1 0 03:44 13.01.2020
4413 Clouds 2 1026 86 10000 1.5 180 02:51 13.01.2020
4414 Clouds 2 1026 100 10000 5.1 250 02:30 13.01.2020
4415 Clouds 2 1026 89 10000 2.1 170 01:33 13.01.2020
4416 Clouds 2 1026 89 10000 1.5 140 00:48 13.01.2020
4417 Clouds 2 1027 89 10000 2.1 120 00:26 13.01.2020
4418 Clouds 2 1027 89 10000 2.1 130 23:59 12.01.2020
4419 Clouds 2 1027 89 10000 2.1 130 23:40 12.01.2020
4420 Clouds 2 1026 82 10000 2.6 150 23:22 12.01.2020
4421 Clouds 2 1026 82 10000 2.6 150 22:56 12.01.2020
4422 Drizzle 2 1027 82 10000 2.6 170 22:37 12.01.2020
4423 Drizzle 2 1027 82 10000 2.6 170 22:19 12.01.2020
4424 Clouds 2 1026 100 10000 3.1 220 21:54 12.01.2020
4425 Clouds 2 1026 80 10000 2.6 170 21:36 12.01.2020
4426 Clouds 2 1026 80 10000 2.6 170 21:18 12.01.2020
4427 Clouds 2 1026 100 10000 3.1 200 20:54 12.01.2020
4428 Clouds 2 1026 100 10000 2.6 190 20:36 12.01.2020
4429 Clouds 2 1026 100 10000 2.6 190 20:18 12.01.2020
4430 Clouds 2 1026 80 10000 3.1 180 19:54 12.01.2020
4431 Clouds 2 1027 80 10000 2.6 190 19:36 12.01.2020
4432 Clouds 1 1027 80 10000 2.6 190 19:18 12.01.2020
4433 Clouds 1 1027 80 10000 2.6 190 19:18 12.01.2020
4434 Clouds 1 1027 80 10000 3.1 200 18:54 12.01.2020
4435 Clouds 1 1026 80 10000 2.6 230 18:36 12.01.2020
4436 Clouds 1 1027 80 10000 2.1 240 18:18 12.01.2020
4437 Clouds 1 1027 80 10000 2.1 240 17:42 12.01.2020
4438 Clouds 2 1026 80 10000 1.5 250 17:20 12.01.2020
4439 Clouds 2 1026 80 10000 2.6 250 16:57 12.01.2020
4440 Clouds 2 1026 81 10000 1.5 210 16:37 12.01.2020
4441 Clouds 2 1026 81 10000 1.5 210 16:19 12.01.2020
4442 Clouds 2 1026 80 10000 2.1 200 15:43 12.01.2020
4443 Clouds 2 1026 80 10000 3.6 220 15:25 12.01.2020
4444 Clouds 2 1026 80 10000 3.1 220 14:57 12.01.2020
4445 Clouds 2 1026 80 10000 4.1 230 14:38 12.01.2020
4446 Clouds 2 1026 80 10000 4.1 230 14:20 12.01.2020
4447 Clouds 2 1026 75 10000 4.1 220 13:55 12.01.2020
4448 Rain 2 1026 75 10000 3.6 220 13:36 12.01.2020
4449 Rain 2 1026 75 10000 3.6 220 13:18 12.01.2020
4450 Rain 2 1026 75 10000 3.6 220 13:18 12.01.2020
4451 Rain 2 1026 70 10000 3.6 220 13:18 12.01.2020
4452 Clouds 2 1027 70 10000 2.1 190 12:43 12.01.2020
4453 Clouds 1 1027 80 10000 2.1 190 12:21 12.01.2020
4454 Clouds 1 1027 86 10000 2.1 180 11:59 12.01.2020
4455 Clouds 0 1027 86 10000 2.1 180 11:39 12.01.2020
4456 Clouds 0 1028 83 10000 1 0 11:21 12.01.2020
4457 Mist -1 1027 100 8000 2.23 208 10:42 12.01.2020
4458 Clouds -1 1027 92 10000 1.5 100 10:22 12.01.2020
4459 Clouds -2 1027 92 10000 2.1 110 09:59 12.01.2020
4460 Clouds -2 1027 92 10000 2.6 110 09:41 12.01.2020
4461 Clouds -2 1027 92 10000 2.6 110 09:20 12.01.2020
4462 Mist -3 1026 100 4400 1.5 210 08:45 12.01.2020
4463 Clouds -4 1027 100 10000 1 100 08:21 12.01.2020
4464 Clouds -4 1027 92 10000 1.5 100 07:44 12.01.2020
4465 Clouds -4 1027 92 10000 2.6 100 07:25 12.01.2020
4466 Clouds -3 1027 92 10000 2.6 100 06:49 12.01.2020
4467 Clouds -4 1027 92 10000 3.1 110 06:30 12.01.2020
4468 Clouds -3 1028 92 10000 3.1 100 05:47 12.01.2020
4469 Clouds -3 1028 92 10000 3.1 100 04:51 12.01.2020
4470 Clouds -3 1029 92 10000 2.6 100 03:27 12.01.2020
4471 Clouds -2 1029 92 10000 3.1 100 02:34 12.01.2020
4472 Clouds -2 1029 92 10000 3.1 100 01:55 12.01.2020
4473 Clouds -2 1030 92 10000 2.6 100 01:29 12.01.2020
4474 Clouds -2 1030 92 10000 3.1 100 00:42 12.01.2020
4475 Clouds -2 1030 92 10000 3.1 100 00:20 12.01.2020
4476 Clouds -2 1030 92 10000 3.1 100 23:55 11.01.2020
4477 Clouds -2 1031 92 10000 3.6 110 23:37 11.01.2020
4478 Clouds -2 1031 92 10000 3.6 110 23:18 11.01.2020
4479 Clouds -2 1031 86 10000 3.1 100 22:42 11.01.2020
4480 Clouds -2 1031 86 10000 2.6 110 22:21 11.01.2020
4481 Clouds -2 1031 86 10000 2.6 100 21:59 11.01.2020
4482 Clouds -1 1031 86 10000 2.6 100 21:41 11.01.2020
4483 Clouds -1 1031 86 10000 2.6 100 21:18 11.01.2020
4484 Clouds -1 1031 86 10000 3.1 100 20:42 11.01.2020
4485 Clouds -1 1032 75 10000 3.1 90 20:22 11.01.2020
4486 Clouds 0 1032 74 10000 3.1 100 19:59 11.01.2020
4487 Clouds 0 1032 74 10000 3.1 100 19:40 11.01.2020
4488 Clouds 0 1032 74 10000 3.1 100 19:40 11.01.2020
4489 Clouds 0 1032 80 10000 2.1 100 19:22 11.01.2020
4490 Clouds 1 1032 74 10000 2.6 100 18:59 11.01.2020
4491 Clouds 1 1032 74 10000 2.6 100 18:39 11.01.2020
4492 Clouds 1 1032 74 10000 1 120 18:20 11.01.2020
4493 Clouds 2 1032 74 10000 1.5 180 17:58 11.01.2020
4494 Clouds 2 1032 69 10000 3.1 160 17:40 11.01.2020
4495 Clouds 2 1032 69 10000 3.1 160 17:19 11.01.2020
4496 Clouds 3 1033 64 10000 2.6 250 16:46 11.01.2020
4497 Clouds 4 1032 64 10000 2.1 200 16:46 11.01.2020
4498 Clouds 4 1033 64 10000 2.6 250 16:27 11.01.2020
4499 Clouds 4 1032 69 10000 0.57 208 15:59 11.01.2020
4500 Clouds 5 1032 65 10000 2.1 230 15:41 11.01.2020
4501 Clouds 5 1032 72 10000 1 0 15:22 11.01.2020
4502 Clouds 5 1032 65 10000 1 0 14:57 11.01.2020
4503 Clouds 5 1032 65 10000 1 0 14:38 11.01.2020
4504 Clouds 5 1032 65 10000 1 0 14:20 11.01.2020
4505 Clouds 4 1033 65 10000 2.1 260 13:40 11.01.2020
4506 Clouds 4 1033 64 10000 0.76 208 13:20 11.01.2020
4507 Clouds 4 1033 71 10000 2.6 280 12:58 11.01.2020
4508 Clouds 5 1034 71 10000 1.5 310 12:39 11.01.2020
4509 Clouds 5 1034 71 10000 1.5 310 12:21 11.01.2020
4510 Clouds 4 1034 71 10000 1 0 11:47 11.01.2020
4511 Clouds 4 1034 80 10000 0.5 0 11:26 11.01.2020
4512 Clouds 4 1034 88 10000 1.5 320 10:50 11.01.2020
4513 Clouds 4 1033 86 10000 0.5 0 10:30 11.01.2020
4514 Clouds 3 1033 93 10000 0.5 0 09:55 11.01.2020
4515 Clouds 3 1033 93 10000 0.5 0 09:37 11.01.2020
4516 Clouds 3 1033 93 10000 0.5 0 09:18 11.01.2020
4517 Clouds 3 1033 93 10000 1.5 300 08:41 11.01.2020
4518 Clouds 3 1033 93 10000 1 260 08:21 11.01.2020
4519 Clouds 3 1032 86 10000 1 0 07:44 11.01.2020
4520 Clouds 3 1032 86 10000 1.5 310 07:25 11.01.2020
4521 Clouds 3 1032 100 10000 2.1 310 06:45 11.01.2020
4522 Clouds 3 1031 80 10000 3.6 340 05:33 11.01.2020
4523 Clouds 4 1031 86 10000 2.1 320 04:45 11.01.2020
4524 Clouds 4 1031 86 10000 2.1 320 04:27 11.01.2020
4525 Clouds 5 1029 80 10000 5.1 300 02:48 11.01.2020
4526 Drizzle 5 1029 87 10000 4.6 290 01:51 11.01.2020
4527 Rain 5 1028 87 10000 5.1 280 01:32 11.01.2020
4528 Clouds 6 1028 87 10000 5.7 270 00:58 11.01.2020
4529 Clouds 6 1027 87 10000 5.1 270 00:32 11.01.2020
4530 Clouds 6 1027 87 10000 5.7 270 23:59 10.01.2020
4531 Clouds 6 1027 87 10000 5.7 270 23:59 10.01.2020
4532 Clouds 6 1027 87 10000 5.1 280 23:39 10.01.2020
4533 Clouds 6 1027 87 10000 5.1 280 23:39 10.01.2020
4534 Clouds 6 1027 87 10000 5.1 280 23:20 10.01.2020
4535 Clouds 6 1026 87 10000 4.6 270 22:54 10.01.2020
4536 Drizzle 6 1027 100 10000 4.6 280 22:36 10.01.2020
4537 Drizzle 6 1027 100 10000 4.6 280 22:18 10.01.2020
4538 Clouds 6 1025 93 10000 4.1 270 21:41 10.01.2020
4539 Clouds 6 1025 93 10000 4.1 270 21:22 10.01.2020
4540 Rain 6 1025 100 10000 4.1 270 21:00 10.01.2020
4541 Rain 6 1024 93 10000 4.6 280 20:41 10.01.2020
4542 Rain 6 1024 93 10000 4.6 280 20:23 10.01.2020
4543 Rain 7 1023 75 10000 4.1 230 19:42 10.01.2020
4544 Rain 7 1023 75 10000 4.1 230 19:21 10.01.2020
4545 Clouds 8 1022 70 10000 5.1 240 18:58 10.01.2020
4546 Clouds 8 1022 70 10000 5.1 230 18:40 10.01.2020
4547 Clouds 8 1022 70 10000 5.1 230 18:18 10.01.2020
4548 Clouds 8 1022 100 10000 6.7 240 17:56 10.01.2020
4549 Clouds 8 1021 70 10000 4.1 240 17:38 10.01.2020
4550 Clouds 8 1021 70 10000 4.1 240 17:19 10.01.2020
4551 Clouds 9 1020 66 10000 5.7 230 16:43 10.01.2020
4552 Clouds 9 1020 66 10000 5.7 230 16:22 10.01.2020
4553 Clouds 9 1020 66 10000 3.6 210 15:58 10.01.2020
4554 Clouds 9 1020 66 10000 3.6 230 15:39 10.01.2020
4555 Clouds 9 1020 66 10000 3.6 230 15:21 10.01.2020
4556 Clouds 9 1020 71 10000 2.1 200 14:59 10.01.2020
4557 Clouds 9 1019 66 10000 3.6 220 14:41 10.01.2020
4558 Clouds 9 1019 66 10000 3.6 220 14:20 10.01.2020
4559 Clouds 9 1019 66 10000 4.1 200 13:58 10.01.2020
4560 Clouds 9 1019 66 10000 3.6 200 13:39 10.01.2020
4561 Clouds 9 1019 66 10000 4.1 200 13:21 10.01.2020
4562 Clouds 9 1019 66 10000 4.1 200 12:57 10.01.2020
4563 Clouds 9 1019 76 10000 3.6 210 12:38 10.01.2020
4564 Clouds 9 1019 76 10000 3.1 200 12:18 10.01.2020
4565 Clouds 8 1019 76 10000 3.1 200 11:54 10.01.2020
4566 Clouds 8 1019 70 10000 2.6 200 11:36 10.01.2020
4567 Clouds 8 1019 70 10000 2.6 200 11:18 10.01.2020
4568 Clouds 7 1019 75 10000 2.6 180 10:39 10.01.2020
4569 Clouds 7 1019 75 10000 2.6 180 10:21 10.01.2020
4570 Clouds 7 1019 81 10000 2.1 180 09:56 10.01.2020
4571 Clouds 6 1018 87 10000 2.1 140 09:37 10.01.2020
4572 Clouds 6 1018 87 10000 2.1 140 09:19 10.01.2020
4573 Clouds 6 1018 87 10000 2.1 140 09:19 10.01.2020
4574 Clouds 6 1018 81 10000 1.5 190 08:40 10.01.2020
4575 Clouds 6 1018 81 10000 1.5 230 08:22 10.01.2020
4576 Clouds 6 1018 81 10000 2.6 230 07:44 10.01.2020
4577 Clouds 6 1017 81 10000 3.1 200 07:23 10.01.2020
4578 Clouds 6 1017 81 10000 2.6 190 06:45 10.01.2020
4579 Rain 6 1017 81 10000 2.6 190 06:25 10.01.2020
4580 Rain 6 1017 87 10000 2.1 160 05:46 10.01.2020
4581 Rain 6 1016 87 10000 2.1 120 03:35 10.01.2020
4582 Clouds 6 1016 87 10000 2.1 260 02:59 10.01.2020
4583 Rain 6 1016 81 10000 2.6 130 02:38 10.01.2020
4584 Rain 6 1015 81 10000 4.1 120 01:38 10.01.2020
4585 Rain 6 1015 87 10000 4.1 110 00:58 10.01.2020
4586 Rain 6 1015 81 10000 3.1 120 00:38 10.01.2020
4587 Drizzle 7 1015 75 10000 3.6 170 23:58 09.01.2020
4588 Rain 7 1016 70 10000 2.6 140 23:38 09.01.2020
4589 Rain 7 1016 70 10000 2.6 140 23:20 09.01.2020
4590 Clouds 7 1016 66 10000 4.1 140 22:57 09.01.2020
4591 Clouds 7 1016 66 10000 3.1 150 22:37 09.01.2020
4592 Clouds 7 1016 66 10000 3.1 150 22:18 09.01.2020
4593 Clouds 7 1016 70 10000 3.6 130 21:56 09.01.2020
4594 Clouds 7 1016 70 10000 3.6 130 21:37 09.01.2020
4595 Clouds 7 1016 70 10000 3.6 130 21:37 09.01.2020
4596 Clouds 7 1016 70 10000 3.6 130 21:37 09.01.2020
4597 Clouds 7 1016 70 10000 3.1 140 21:18 09.01.2020
4598 Clouds 7 1016 70 10000 3.1 140 20:56 09.01.2020
4599 Clouds 7 1016 70 10000 3.1 140 20:38 09.01.2020
4600 Clouds 8 1016 76 10000 3.6 130 20:19 09.01.2020
4601 Clouds 8 1017 76 10000 3.6 140 19:55 09.01.2020
4602 Clouds 8 1017 76 10000 3.6 140 19:36 09.01.2020
4603 Clouds 8 1017 81 10000 2.6 140 19:18 09.01.2020
4604 Clouds 8 1017 81 10000 2.6 140 18:54 09.01.2020
4605 Clouds 8 1017 81 10000 3.6 140 18:36 09.01.2020
4606 Clouds 8 1017 81 10000 3.6 130 18:18 09.01.2020
4607 Clouds 8 1017 81 10000 3.6 130 18:18 09.01.2020
4608 Clouds 7 1017 81 10000 3.1 120 17:40 09.01.2020
4609 Clouds 8 1018 81 10000 3.1 120 17:18 09.01.2020
4610 Clouds 8 1018 81 10000 3.1 120 17:18 09.01.2020
4611 Clouds 8 1018 81 10000 3.1 130 16:47 09.01.2020
4612 Clouds 8 1018 81 10000 3.1 130 16:22 09.01.2020
4613 Clouds 8 1018 81 10000 3.1 140 15:44 09.01.2020
4614 Clouds 8 1018 76 10000 3.6 140 15:25 09.01.2020
4615 Clouds 8 1018 76 10000 3.6 140 14:59 09.01.2020
4616 Clouds 8 1018 81 10000 4.1 130 14:41 09.01.2020
4617 Clouds 8 1019 81 10000 4.1 140 14:21 09.01.2020
4618 Clouds 8 1019 81 10000 4.1 140 13:57 09.01.2020
4619 Clouds 8 1019 81 10000 3.6 140 13:39 09.01.2020
4620 Clouds 8 1020 87 10000 3.1 140 13:20 09.01.2020
4621 Clouds 7 1020 87 10000 3.1 140 12:58 09.01.2020
4622 Clouds 7 1020 81 10000 4.1 140 12:38 09.01.2020
4623 Clouds 7 1021 87 10000 3.6 150 12:19 09.01.2020
4624 Clouds 6 1021 87 8000 5.1 140 11:43 09.01.2020
4625 Clouds 6 1021 87 8000 5.1 140 11:25 09.01.2020
4626 Clouds 6 1021 87 8000 4.6 140 10:59 09.01.2020
4627 Clouds 6 1022 87 7000 5.1 150 10:41 09.01.2020
4628 Clouds 5 1022 93 7000 5.1 150 10:22 09.01.2020
4629 Clouds 5 1022 93 6000 2.6 130 09:49 09.01.2020
4630 Clouds 5 1022 93 6000 2.6 130 09:25 09.01.2020
4631 Clouds 5 1022 100 6000 2.6 120 08:59 09.01.2020
4632 Mist 5 1022 100 5000 3.6 120 08:40 09.01.2020
4633 Drizzle 5 1022 100 4000 3.6 130 08:21 09.01.2020
4634 Drizzle 5 1023 100 3500 3.1 130 07:53 09.01.2020
4635 Drizzle 5 1023 100 3500 3.1 130 07:33 09.01.2020
4636 Drizzle 5 1023 100 3000 2.6 140 06:52 09.01.2020
4637 Drizzle 5 1024 100 8000 2.1 140 06:32 09.01.2020
4638 Clouds 5 1024 100 6000 2.6 140 05:52 09.01.2020
4639 Clouds 5 1024 100 6000 2.6 140 05:26 09.01.2020
4640 Drizzle 4 1024 100 2200 3.1 140 04:40 09.01.2020
4641 Drizzle 4 1025 100 1600 2.1 140 03:28 09.01.2020
4642 Drizzle 4 1025 93 2900 2.6 140 02:47 09.01.2020
4643 Rain 4 1026 93 2500 2.6 140 01:42 09.01.2020
4644 Rain 4 1026 93 2500 2.6 130 01:18 09.01.2020
4645 Rain 4 1026 93 2500 2.6 130 01:18 09.01.2020
4646 Drizzle 4 1026 100 3200 2.6 120 00:38 09.01.2020
4647 Drizzle 4 1027 100 3100 3.1 120 00:19 09.01.2020
4648 Drizzle 4 1027 100 3100 3.1 120 00:19 09.01.2020
4649 Drizzle 4 1027 100 3100 2.6 120 23:40 08.01.2020
4650 Drizzle 4 1027 100 3100 3.1 120 23:22 08.01.2020
4651 Drizzle 4 1027 100 3100 3.1 120 22:56 08.01.2020
4652 Drizzle 4 1027 100 1900 3.6 120 22:56 08.01.2020
4653 Drizzle 4 1027 100 1900 3.6 120 22:37 08.01.2020
4654 Clouds 4 1027 93 6000 2.1 100 22:18 08.01.2020
4655 Clouds 4 1027 93 6000 2.6 110 21:55 08.01.2020
4656 Clouds 4 1027 93 6000 2.6 110 21:37 08.01.2020
4657 Clouds 4 1027 93 8000 2.6 130 21:18 08.01.2020
4658 Clouds 4 1027 93 8000 2.1 140 20:41 08.01.2020
4659 Clouds 4 1027 93 8000 2.1 140 20:21 08.01.2020
4660 Clouds 4 1027 93 8000 2.1 140 19:58 08.01.2020
4661 Clouds 3 1027 93 6000 4.1 150 19:38 08.01.2020
4662 Drizzle 3 1028 100 4500 3.1 140 19:19 08.01.2020
4663 Mist 3 1028 100 4000 3.6 130 18:58 08.01.2020
4664 Mist 3 1028 100 4000 3.6 130 18:39 08.01.2020
4665 Drizzle 3 1028 100 3000 2.6 140 18:19 08.01.2020
4666 Drizzle 3 1028 100 2700 3.1 140 17:57 08.01.2020
4667 Drizzle 3 1028 100 2700 3.1 140 17:38 08.01.2020
4668 Drizzle 3 1028 100 2500 3.1 150 17:19 08.01.2020
4669 Drizzle 3 1028 100 2500 3.1 150 17:19 08.01.2020
4670 Drizzle 3 1028 100 2500 3.1 150 16:55 08.01.2020
4671 Drizzle 3 1028 100 1700 2.6 140 16:37 08.01.2020
4672 Drizzle 3 1028 100 2200 2.6 130 16:18 08.01.2020
4673 Drizzle 3 1028 93 3000 3.1 150 15:44 08.01.2020
4674 Drizzle 3 1028 93 3000 3.1 150 15:44 08.01.2020
4675 Rain 3 1028 86 8000 2.1 140 15:21 08.01.2020
4676 Rain 3 1028 86 4700 3.1 150 14:58 08.01.2020
4677 Rain 3 1028 86 8000 2.1 140 14:58 08.01.2020
4678 Rain 3 1028 86 4700 3.1 150 14:40 08.01.2020
4679 Rain 3 1028 86 10000 3.6 160 14:20 08.01.2020
4680 Drizzle 3 1028 86 10000 2.1 160 13:41 08.01.2020
4681 Rain 3 1028 86 10000 3.1 150 13:21 08.01.2020
4682 Rain 3 1028 86 10000 3.1 150 13:21 08.01.2020
4683 Clouds 3 1028 86 10000 3.1 150 12:54 08.01.2020
4684 Clouds 3 1028 86 10000 4.1 150 12:36 08.01.2020
4685 Clouds 3 1029 86 10000 2.6 140 12:18 08.01.2020
4686 Clouds 2 1029 86 10000 3.6 140 11:47 08.01.2020
4687 Clouds 2 1029 86 10000 3.6 140 11:19 08.01.2020
4688 Clouds 2 1029 86 10000 3.6 140 10:57 08.01.2020
4689 Clouds 2 1029 93 10000 3.6 130 10:39 08.01.2020
4690 Clouds 2 1029 93 10000 3.1 130 10:19 08.01.2020
4691 Clouds 2 1029 93 10000 2.1 140 09:42 08.01.2020
4692 Clouds 1 1029 83 10000 1.5 170 09:20 08.01.2020
4693 Clouds 1 1029 83 10000 1.5 170 08:57 08.01.2020
4694 Clouds 1 1029 83 10000 1.5 170 08:37 08.01.2020
4695 Clouds 1 1028 89 10000 3.1 140 08:19 08.01.2020
4696 Clouds 1 1028 89 10000 3.1 130 07:50 08.01.2020
4697 Clouds 1 1028 89 10000 3.1 130 07:32 08.01.2020
4698 Clouds 1 1028 89 10000 2.6 150 06:49 08.01.2020
4699 Clouds 1 1028 89 10000 3.1 130 06:25 08.01.2020
4700 Clouds 1 1028 89 10000 3.1 130 05:53 08.01.2020
4701 Clouds 1 1029 89 10000 2.6 140 05:53 08.01.2020
4702 Clouds 0 1029 92 10000 3.6 120 04:59 08.01.2020
4703 Clouds 1 1029 92 10000 2.1 110 04:26 08.01.2020
4704 Clouds 0 1029 92 10000 1.5 100 02:45 08.01.2020
4705 Clouds 0 1029 92 10000 1.5 100 02:45 08.01.2020
4706 Clouds 0 1029 92 10000 1.5 100 02:23 08.01.2020
4707 Clouds 1 1029 90 10000 3.1 100 01:50 08.01.2020
4708 Clouds 0 1029 90 10000 3.6 110 01:25 08.01.2020
4709 Clouds 1 1030 100 10000 2.6 100 00:40 08.01.2020
4710 Clouds 1 1030 100 10000 2.6 120 00:20 08.01.2020
4711 Clouds 1 1030 93 10000 3.1 110 23:44 07.01.2020
4712 Clouds 2 1030 100 10000 2.1 120 23:20 07.01.2020
4713 Clouds 2 1030 100 10000 2.6 130 22:40 07.01.2020
4714 Clouds 2 1030 100 10000 1.5 120 22:20 07.01.2020
4715 Clouds 3 1030 100 10000 2.1 130 21:57 07.01.2020
4716 Clouds 3 1030 100 10000 2.1 130 21:38 07.01.2020
4717 Clouds 3 1030 100 10000 2.1 130 21:38 07.01.2020
4718 Clouds 3 1030 93 10000 1.5 140 21:20 07.01.2020
4719 Clouds 3 1031 93 10000 2.1 140 20:56 07.01.2020
4720 Clouds 3 1031 93 10000 2.1 140 20:38 07.01.2020
4721 Clouds 3 1031 93 10000 2.1 170 20:19 07.01.2020
4722 Clouds 2 1031 93 10000 1.5 160 19:38 07.01.2020
4723 Clouds 2 1031 93 9000 1 0 19:20 07.01.2020
4724 Clouds 3 1031 93 9000 1 0 18:58 07.01.2020
4725 Clouds 3 1031 100 9000 1 0 18:40 07.01.2020
4726 Clouds 3 1031 100 9000 1.5 140 18:19 07.01.2020
4727 Mist 3 1030 100 5000 2.1 180 18:00 07.01.2020
4728 Mist 3 1030 100 5000 2.1 180 17:39 07.01.2020
4729 Mist 3 1030 100 4800 2.1 210 17:21 07.01.2020
4730 Mist 3 1030 100 4800 2.1 210 16:57 07.01.2020
4731 Mist 3 1030 100 4500 1.5 210 16:38 07.01.2020
4732 Mist 3 1030 100 4500 0.5 240 16:19 07.01.2020
4733 Mist 3 1030 100 5000 0.5 170 15:58 07.01.2020
4734 Mist 3 1030 100 5000 0.5 170 15:39 07.01.2020
4735 Drizzle 3 1029 100 6000 1.52 232 15:21 07.01.2020
4736 Drizzle 3 1029 100 7000 0.5 240 14:55 07.01.2020
4737 Drizzle 3 1029 100 7000 0.5 240 14:36 07.01.2020
4738 Drizzle 3 1029 100 7000 1 240 14:18 07.01.2020
4739 Drizzle 3 1029 93 7000 1 260 13:39 07.01.2020
4740 Drizzle 3 1029 93 2900 0.5 0 13:19 07.01.2020
4741 Drizzle 2 1029 93 2500 0.5 0 12:41 07.01.2020
4742 Drizzle 2 1029 93 4200 0.5 0 12:20 07.01.2020
4743 Drizzle 2 1029 100 5000 0.5 0 11:55 07.01.2020
4744 Drizzle 2 1029 100 5000 0.5 0 11:36 07.01.2020
4745 Drizzle 2 1028 93 6000 1 0 11:18 07.01.2020
4746 Drizzle 1 1028 100 8000 1 0 10:41 07.01.2020
4747 Drizzle 1 1028 100 8000 1 0 10:23 07.01.2020
4748 Snow 1 1028 93 7000 0.5 0 09:57 07.01.2020
4749 Drizzle 1 1027 93 8000 1 0 09:38 07.01.2020
4750 Clouds 1 1027 86 10000 0.5 0 09:20 07.01.2020
4751 Clouds 1 1026 86 10000 1 0 08:42 07.01.2020
4752 Clouds 0 1026 86 10000 1 0 08:23 07.01.2020
4753 Clouds 0 1026 86 10000 1.5 210 07:54 07.01.2020
4754 Clouds 0 1025 93 10000 2.6 220 07:28 07.01.2020
4755 Clouds 0 1025 93 10000 2.6 220 07:28 07.01.2020
4756 Clouds 0 1025 93 10000 2.6 220 07:28 07.01.2020
4757 Clouds -1 1025 92 10000 2.1 170 06:53 07.01.2020
4758 Clouds -1 1025 92 10000 2.1 170 06:34 07.01.2020
4759 Clouds -1 1025 92 10000 2.6 130 05:54 07.01.2020
4760 Clouds -2 1025 92 10000 3.6 110 04:39 07.01.2020
4761 Clouds -2 1024 92 10000 3.1 130 03:26 07.01.2020
4762 Clear -2 1024 92 10000 2.6 120 02:22 07.01.2020
4763 Clear -3 1024 92 10000 3.1 110 01:52 07.01.2020
4764 Clear -2 1024 92 10000 3.1 110 01:28 07.01.2020
4765 Clear -2 1024 92 10000 2.1 100 00:37 07.01.2020
4766 Clear -2 1024 92 10000 2.6 120 00:18 07.01.2020
4767 Clear -2 1024 92 10000 2.6 120 23:39 06.01.2020
4768 Clear -2 1024 92 10000 2.6 120 23:39 06.01.2020
4769 Clear -2 1025 92 10000 3.1 120 23:21 06.01.2020
4770 Clear -2 1025 92 10000 3.1 120 22:58 06.01.2020
4771 Clear -2 1025 92 10000 2.1 130 22:38 06.01.2020
4772 Clear -2 1025 92 10000 1.5 150 22:20 06.01.2020
4773 Clear -2 1025 92 10000 1.5 150 21:56 06.01.2020
4774 Clear -2 1025 92 10000 1.5 150 21:56 06.01.2020
4775 Clear -2 1025 92 10000 4.1 110 21:37 06.01.2020
4776 Clear -2 1025 92 10000 2.6 110 21:19 06.01.2020
4777 Clear -1 1025 92 10000 2.6 110 20:56 06.01.2020
4778 Clear -2 1025 92 10000 2.6 110 20:37 06.01.2020
4779 Clear -1 1025 86 10000 3.1 110 20:19 06.01.2020
4780 Clear -1 1025 81 10000 3.1 100 19:55 06.01.2020
4781 Clear -1 1025 81 10000 3.1 100 19:37 06.01.2020
4782 Clear -1 1025 81 10000 3.1 100 19:18 06.01.2020
4783 Clear -1 1026 81 10000 3.1 100 18:44 06.01.2020
4784 Clear 0 1026 80 10000 3.1 100 18:20 06.01.2020
4785 Clear 1 1026 80 10000 3.1 100 17:40 06.01.2020
4786 Clear 1 1026 80 10000 3.1 120 17:20 06.01.2020
4787 Clear 2 1026 80 10000 3.1 120 16:57 06.01.2020
4788 Clear 3 1026 74 10000 3.6 130 16:39 06.01.2020
4789 Clear 3 1026 69 10000 2.6 140 16:21 06.01.2020
4790 Clear 3 1026 69 10000 2.6 140 15:59 06.01.2020
4791 Clear 4 1026 65 10000 3.6 140 15:36 06.01.2020
4792 Clear 4 1027 65 10000 4.1 150 15:18 06.01.2020
4793 Clear 4 1027 65 10000 4.6 140 14:41 06.01.2020
4794 Clear 4 1027 65 10000 4.6 140 14:41 06.01.2020
4795 Clear 4 1027 71 10000 4.6 150 14:22 06.01.2020
4796 Clear 4 1027 71 10000 4.6 150 13:59 06.01.2020
4797 Clear 4 1027 71 10000 4.6 150 13:59 06.01.2020
4798 Clear 4 1028 71 10000 3.6 140 13:39 06.01.2020
4799 Clear 4 1028 71 10000 3.6 130 13:20 06.01.2020
4800 Clear 3 1028 71 10000 3.6 130 12:55 06.01.2020
4801 Clouds 3 1029 71 10000 4.1 140 12:37 06.01.2020
4802 Clouds 3 1029 71 10000 4.1 140 12:37 06.01.2020
4803 Clouds 3 1029 71 10000 3.6 140 12:18 06.01.2020
4804 Clear 2 1030 74 10000 4.1 140 11:41 06.01.2020
4805 Clear 1 1030 80 10000 3.6 140 11:23 06.01.2020
4806 Clear 0 1030 86 10000 3.1 130 10:59 06.01.2020
4807 Clear 0 1030 86 10000 3.1 130 10:40 06.01.2020
4808 Clear -1 1031 79 10000 2.6 110 10:20 06.01.2020
4809 Clouds -1 1031 92 10000 2.6 110 09:39 06.01.2020
4810 Clouds -1 1031 92 10000 3.1 110 09:20 06.01.2020
4811 Clouds -2 1031 92 10000 1 0 08:51 06.01.2020
4812 Clouds -1 1031 92 10000 1 0 08:33 06.01.2020
4813 Clouds -1 1031 100 10000 1.5 110 07:57 06.01.2020
4814 Clouds -1 1031 100 10000 1 100 07:36 06.01.2020
4815 Clouds -1 1031 100 10000 1 0 06:46 06.01.2020
4816 Clouds -1 1031 100 10000 1 0 06:23 06.01.2020
4817 Clouds -1 1031 92 10000 1.5 130 05:45 06.01.2020
4818 Clouds 0 1031 100 10000 1.5 130 04:52 06.01.2020
4819 Clouds 0 1032 86 10000 1 0 04:19 06.01.2020
4820 Clouds 0 1032 84 10000 2.6 110 02:56 06.01.2020
4821 Clouds 0 1032 84 10000 2.6 120 02:24 06.01.2020
4822 Clouds 0 1033 85 10000 2.6 110 01:45 06.01.2020
4823 Clouds 0 1033 86 10000 2.6 110 01:26 06.01.2020
4824 Clouds 0 1033 86 10000 3.1 120 00:42 06.01.2020
4825 Clouds 1 1034 86 10000 2.6 110 00:23 06.01.2020
4826 Clouds 1 1034 86 10000 3.1 110 23:43 05.01.2020
4827 Clouds 1 1034 86 10000 3.1 100 23:23 05.01.2020
4828 Clouds 2 1034 86 10000 3.1 100 22:57 05.01.2020
4829 Clouds 2 1034 86 10000 2.1 100 22:38 05.01.2020
4830 Clouds 1 1034 93 10000 2.6 110 22:20 05.01.2020
4831 Clouds 1 1034 93 10000 2.6 110 21:55 05.01.2020
4832 Clouds 1 1035 86 10000 2.6 110 21:37 05.01.2020
4833 Clouds 1 1035 86 10000 2.1 120 21:19 05.01.2020
4834 Clouds 1 1035 86 10000 2.1 120 21:19 05.01.2020
4835 Clouds 2 1035 86 10000 2.1 120 20:55 05.01.2020
4836 Rain 2 1035 93 10000 2.1 120 20:36 05.01.2020
4837 Clouds 2 1035 86 10000 2.6 100 20:18 05.01.2020
4838 Drizzle 2 1035 81 10000 2.1 100 19:56 05.01.2020
4839 Drizzle 2 1035 81 10000 2.1 100 19:37 05.01.2020
4840 Clouds 2 1035 86 10000 1 70 19:18 05.01.2020
4841 Clouds 3 1035 81 10000 1 120 18:54 05.01.2020
4842 Clouds 3 1035 81 10000 1 120 18:36 05.01.2020
4843 Clouds 3 1035 81 10000 1 0 18:18 05.01.2020
4844 Clouds 3 1035 81 10000 0.5 0 17:40 05.01.2020
4845 Clouds 3 1035 80 10000 1 0 17:21 05.01.2020
4846 Clouds 3 1035 80 10000 1 0 16:58 05.01.2020
4847 Clouds 3 1035 80 10000 1 240 16:40 05.01.2020
4848 Clouds 3 1035 80 10000 1 0 16:21 05.01.2020
4849 Clouds 4 1035 80 10000 1.5 270 15:41 05.01.2020
4850 Clouds 4 1035 80 10000 2.1 270 15:23 05.01.2020
4851 Clouds 4 1035 80 10000 2.1 270 14:58 05.01.2020
4852 Clouds 4 1035 80 10000 1.5 260 14:40 05.01.2020
4853 Clouds 4 1034 76 10000 1 0 14:22 05.01.2020
4854 Clouds 4 1034 76 10000 1 0 13:59 05.01.2020
4855 Clouds 4 1034 76 10000 0.5 0 13:39 05.01.2020
4856 Clouds 4 1035 76 10000 0.5 0 13:20 05.01.2020
4857 Clouds 4 1035 76 10000 0.5 0 12:57 05.01.2020
4858 Clouds 4 1035 76 10000 1 0 12:38 05.01.2020
4859 Clouds 3 1036 76 10000 1 0 12:20 05.01.2020
4860 Clouds 3 1035 76 10000 1 0 11:55 05.01.2020
4861 Clouds 3 1035 76 10000 1 0 11:37 05.01.2020
4862 Clouds 3 1035 76 10000 1 0 11:37 05.01.2020
4863 Clouds 3 1036 91 10000 1 0 11:19 05.01.2020
4864 Clouds 3 1036 91 10000 1 0 11:19 05.01.2020
4865 Clouds 3 1036 91 10000 1 0 11:19 05.01.2020
4866 Clouds 2 1036 74 10000 0.5 0 10:41 05.01.2020
4867 Rain 2 1036 93 10000 1 0 10:20 05.01.2020
4868 Clouds 2 1036 93 10000 1 0 09:57 05.01.2020
4869 Clouds 1 1035 93 10000 1 0 09:39 05.01.2020
4870 Clouds 1 1035 93 10000 0.5 0 09:21 05.01.2020
4871 Clouds 1 1035 91 10000 2.1 260 08:45 05.01.2020
4872 Clouds 1 1035 90 10000 0.5 0 08:25 05.01.2020
4873 Clouds 1 1034 93 10000 1 0 07:50 05.01.2020
4874 Clouds 2 1034 93 10000 1 0 07:29 05.01.2020
4875 Clouds 2 1034 86 10000 0.5 0 06:56 05.01.2020
4876 Drizzle 3 1034 93 10000 1.5 330 05:52 05.01.2020
4877 Drizzle 3 1033 86 10000 4.1 300 04:56 05.01.2020
4878 Drizzle 3 1033 93 9000 3.1 290 04:19 05.01.2020
4879 Drizzle 3 1033 93 9000 4.1 280 03:40 05.01.2020
4880 Drizzle 3 1032 86 10000 3.1 300 02:36 05.01.2020
4881 Drizzle 3 1032 86 10000 3.1 300 02:36 05.01.2020
4882 Clouds 3 1032 93 10000 2.6 310 02:18 05.01.2020
4883 Drizzle 4 1031 86 10000 5.7 300 01:20 05.01.2020
4884 Drizzle 4 1031 86 10000 5.7 300 00:58 05.01.2020
4885 Clouds 3 1031 80 10000 6.7 300 00:39 05.01.2020
4886 Rain 3 1030 80 10000 6.2 280 00:20 05.01.2020
4887 Clouds 3 1030 80 10000 6.2 280 23:57 04.01.2020
4888 Clouds 3 1030 80 10000 6.7 280 23:38 04.01.2020
4889 Rain 4 1030 80 10000 6.2 280 23:18 04.01.2020
4890 Clouds 4 1030 80 10000 6.7 280 22:39 04.01.2020
4891 Rain 3 1029 80 10000 5.7 270 22:20 04.01.2020
4892 Rain 3 1029 80 10000 5.7 270 22:20 04.01.2020
4893 Rain 4 1029 80 10000 5.7 270 21:56 04.01.2020
4894 Clouds 4 1029 80 10000 5.7 270 21:37 04.01.2020
4895 Clouds 4 1029 80 10000 6.2 260 21:19 04.01.2020
4896 Clouds 4 1029 80 10000 7.2 260 20:55 04.01.2020
4897 Clouds 4 1029 80 10000 7.2 260 20:36 04.01.2020
4898 Clouds 4 1029 80 10000 7.2 260 20:36 04.01.2020
4899 Rain 4 1028 80 10000 6.7 260 20:18 04.01.2020
4900 Clouds 4 1028 80 10000 6.2 260 19:41 04.01.2020
4901 Clouds 4 1028 80 10000 6.2 260 19:41 04.01.2020
4902 Clouds 4 1028 80 10000 6.2 250 19:23 04.01.2020
4903 Clouds 4 1028 80 10000 6.2 250 18:57 04.01.2020
4904 Clouds 4 1028 80 10000 6.2 260 18:38 04.01.2020
4905 Clouds 4 1028 80 10000 6.2 270 18:20 04.01.2020
4906 Clouds 4 1028 80 10000 6.2 270 17:55 04.01.2020
4907 Clouds 4 1028 80 10000 6.7 270 17:37 04.01.2020
4908 Clouds 4 1028 80 10000 6.2 270 17:18 04.01.2020
4909 Clouds 4 1027 81 10000 7.2 260 16:41 04.01.2020
4910 Clouds 4 1027 81 10000 7.2 260 16:23 04.01.2020
4911 Clouds 4 1027 81 10000 6.2 260 15:57 04.01.2020
4912 Clouds 4 1027 81 10000 6.2 260 15:38 04.01.2020
4913 Clouds 4 1027 81 10000 6.2 260 15:38 04.01.2020
4914 Clouds 4 1027 81 10000 6.2 260 15:19 04.01.2020
4915 Clouds 4 1027 81 10000 6.2 260 14:56 04.01.2020
4916 Clouds 4 1026 81 10000 6.7 260 14:37 04.01.2020
4917 Clouds 4 1027 75 10000 8.2 260 14:19 04.01.2020
4918 Clouds 4 1027 75 10000 7.2 260 13:54 04.01.2020
4919 Clouds 4 1027 75 10000 7.2 260 13:36 04.01.2020
4920 Clouds 4 1028 75 10000 7.2 260 13:18 04.01.2020
4921 Clouds 4 1028 79 10000 7.2 260 12:41 04.01.2020
4922 Clouds 3 1028 79 10000 6.7 270 12:19 04.01.2020
4923 Clouds 3 1028 80 10000 6.2 270 11:57 04.01.2020
4924 Clouds 3 1028 80 10000 6.2 270 11:38 04.01.2020
4925 Clouds 3 1029 80 10000 3.6 280 11:19 04.01.2020
4926 Clouds 3 1029 86 10000 4.1 270 10:42 04.01.2020
4927 Clouds 3 1028 86 10000 5.1 270 10:23 04.01.2020
4928 Clouds 2 1028 86 10000 5.1 270 09:58 04.01.2020
4929 Clouds 2 1028 86 10000 4.6 270 09:39 04.01.2020
4930 Clouds 2 1028 83 10000 4.6 270 09:21 04.01.2020
4931 Clouds 2 1028 93 10000 2.6 270 08:41 04.01.2020
4932 Clouds 2 1028 93 10000 3.1 260 08:21 04.01.2020
4933 Clouds 2 1027 93 10000 3.6 250 07:42 04.01.2020
4934 Clouds 2 1027 86 10000 3.6 280 07:20 04.01.2020
4935 Clouds 3 1027 86 10000 4.6 280 06:33 04.01.2020
4936 Clouds 4 1026 86 10000 4.1 310 05:20 04.01.2020
4937 Clouds 5 1026 87 10000 5.1 340 04:34 04.01.2020
4938 Rain 5 1025 93 10000 5.7 300 03:52 04.01.2020
4939 Rain 6 1025 93 10000 5.1 260 03:18 04.01.2020
4940 Rain 6 1024 93 7000 4.6 250 02:21 04.01.2020
4941 Rain 6 1024 93 7000 4.6 250 01:55 04.01.2020
4942 Rain 6 1024 93 8000 4.6 250 01:31 04.01.2020
4943 Rain 6 1024 87 10000 6.2 250 00:44 04.01.2020
4944 Rain 6 1024 87 10000 6.2 250 00:23 04.01.2020
4945 Rain 7 1024 87 10000 6.7 240 23:46 03.01.2020
4946 Rain 6 1023 87 10000 6.2 240 23:25 03.01.2020
4947 Clouds 7 1023 87 10000 5.7 240 22:41 03.01.2020
4948 Clouds 7 1023 87 10000 5.7 240 22:20 03.01.2020
4949 Clouds 7 1023 87 10000 5.7 240 21:59 03.01.2020
4950 Clouds 7 1023 87 10000 5.7 240 21:39 03.01.2020
4951 Rain 7 1023 75 10000 5.7 240 21:19 03.01.2020
4952 Rain 7 1023 75 10000 5.7 240 21:19 03.01.2020
4953 Rain 7 1023 75 10000 5.7 240 20:59 03.01.2020
4954 Clouds 6 1023 81 10000 6.7 250 20:41 03.01.2020
4955 Clouds 6 1023 87 10000 2.6 220 20:18 03.01.2020
4956 Clouds 6 1023 81 10000 3.1 190 19:57 03.01.2020
4957 Clouds 6 1023 81 10000 3.1 190 19:38 03.01.2020
4958 Clouds 6 1023 81 10000 3.1 200 19:19 03.01.2020
4959 Clouds 6 1023 81 10000 3.6 190 18:44 03.01.2020
4960 Clouds 5 1023 80 10000 3.1 190 18:25 03.01.2020
4961 Clouds 6 1023 80 10000 3.1 190 17:56 03.01.2020
4962 Clouds 5 1023 80 10000 4.1 180 17:37 03.01.2020
4963 Clouds 5 1023 80 10000 4.1 180 17:37 03.01.2020
4964 Clouds 5 1023 80 10000 2.6 170 17:19 03.01.2020
4965 Clouds 5 1022 75 10000 3.1 180 16:42 03.01.2020
4966 Clouds 5 1022 75 10000 3.1 180 16:24 03.01.2020
4967 Clouds 5 1022 75 10000 4.1 200 15:57 03.01.2020
4968 Clouds 5 1022 75 10000 4.6 210 15:38 03.01.2020
4969 Clouds 4 1022 75 10000 3.6 180 15:18 03.01.2020
4970 Clouds 4 1022 75 10000 3.6 200 14:38 03.01.2020
4971 Clouds 4 1022 75 10000 3.6 200 14:38 03.01.2020
4972 Clouds 4 1022 75 10000 2.6 190 14:19 03.01.2020
4973 Clouds 4 1022 75 10000 3.1 170 13:44 03.01.2020
4974 Clouds 4 1022 75 10000 3.1 170 13:44 03.01.2020
4975 Clouds 4 1022 75 10000 3.1 170 13:44 03.01.2020
4976 Clouds 4 1022 80 10000 4.1 140 13:24 03.01.2020
4977 Clouds 3 1022 80 10000 4.1 140 12:59 03.01.2020
4978 Clouds 3 1023 73 10000 4.1 150 12:39 03.01.2020
4979 Clouds 3 1023 73 10000 4.1 160 12:21 03.01.2020
4980 Clouds 2 1024 73 10000 3.6 150 11:45 03.01.2020
4981 Clouds 2 1024 79 10000 2.6 150 11:21 03.01.2020
4982 Clouds 2 1024 79 10000 3.6 150 10:46 03.01.2020
4983 Clouds 1 1024 79 10000 3.6 140 10:27 03.01.2020
4984 Clouds 1 1024 79 10000 3.6 140 09:58 03.01.2020
4985 Clouds 1 1024 80 10000 3.6 140 09:39 03.01.2020
4986 Clouds 0 1024 86 10000 3.1 140 09:21 03.01.2020
4987 Clouds 0 1024 86 10000 3.1 140 08:57 03.01.2020
4988 Clouds 0 1024 86 0 3.1 150 08:38 03.01.2020
4989 Clouds 0 1024 86 10000 2.6 130 08:19 03.01.2020
4990 Clouds 0 1025 76 10000 3.1 150 07:40 03.01.2020
4991 Clouds 0 1025 76 10000 3.1 150 07:40 03.01.2020
4992 Clouds 0 1025 76 10000 3.6 140 07:18 03.01.2020
4993 Clouds 0 1025 76 10000 4.1 140 06:49 03.01.2020
4994 Clouds 0 1025 76 10000 4.1 140 06:49 03.01.2020
4995 Clouds 0 1025 76 10000 4.1 140 06:30 03.01.2020
4996 Clouds 0 1025 92 10000 3.6 140 05:45 03.01.2020
4997 Clouds -1 1026 92 10000 4.6 150 04:22 03.01.2020
4998 Mist -1 1026 92 4000 4.1 150 02:56 03.01.2020
4999 Mist -1 1026 92 4000 4.1 150 02:56 03.01.2020
5000 Mist -1 1026 92 4000 4.1 150 02:33 03.01.2020
5001 Mist -1 1026 100 4000 4.6 140 01:44 03.01.2020
5002 Mist 0 1027 79 4000 4.6 180 00:50 03.01.2020
5003 Mist 0 1027 79 4000 4.6 180 00:30 03.01.2020
5004 Mist 0 1027 79 4000 5.7 160 23:56 02.01.2020
5005 Mist 0 1027 79 4000 3.1 150 23:38 02.01.2020
5006 Mist 0 1027 81 5000 4.1 150 23:19 02.01.2020
5007 Mist 0 1027 81 5000 3.6 150 22:45 02.01.2020
5008 Clouds 0 1028 81 6000 2.6 170 22:22 02.01.2020
5009 Clouds 0 1028 81 8000 2.1 180 22:00 02.01.2020
5010 Clouds 0 1028 81 8000 2.1 180 21:41 02.01.2020
5011 Clouds 0 1028 81 8000 3.1 170 21:23 02.01.2020
5012 Clouds 0 1028 81 8000 3.1 170 20:59 02.01.2020
5013 Clouds 0 1028 81 8000 2.6 180 20:39 02.01.2020
5014 Clouds 0 1028 85 8000 2.1 110 20:21 02.01.2020
5015 Clouds 0 1028 87 8000 2.1 110 19:55 02.01.2020
5016 Clouds 0 1028 87 7000 2.1 110 19:37 02.01.2020
5017 Clouds 0 1028 87 5000 2.6 100 19:19 02.01.2020
5018 Mist 0 1028 87 4000 2.1 120 18:57 02.01.2020
5019 Mist -1 1028 87 4000 2.1 120 18:38 02.01.2020
5020 Mist 0 1028 87 3500 2.6 110 18:20 02.01.2020
5021 Mist 0 1028 87 3500 2.6 110 17:56 02.01.2020
5022 Mist 0 1028 87 3300 2.6 110 17:36 02.01.2020
5023 Mist 0 1028 80 3000 2.1 120 17:18 02.01.2020
5024 Mist -1 1028 80 3000 2.1 120 16:56 02.01.2020
5025 Mist 0 1028 80 3500 2.6 110 16:38 02.01.2020
5026 Mist -1 1028 80 4500 2.1 100 16:19 02.01.2020
5027 Mist -1 1028 80 5000 1.5 110 15:42 02.01.2020
5028 Mist -1 1029 80 4500 0.5 0 15:24 02.01.2020
5029 Mist -1 1029 80 4000 1.47 179 14:58 02.01.2020
5030 Mist 0 1029 80 4000 1.47 179 14:37 02.01.2020
5031 Mist 0 1029 68 3200 1.5 260 14:19 02.01.2020
5032 Mist -1 1029 68 3200 1.5 260 13:58 02.01.2020
5033 Mist -1 1029 100 2700 1.5 190 13:38 02.01.2020
5034 Mist -1 1029 92 2400 2.1 170 12:59 02.01.2020
5035 Mist -1 1030 92 1500 2.1 190 12:40 02.01.2020
5036 Mist -2 1030 100 1000 2.6 180 12:20 02.01.2020
5037 Mist -2 1030 100 1000 2.6 180 11:41 02.01.2020
5038 Fog -2 1031 92 800 1.5 110 11:21 02.01.2020
5039 Fog -4 1031 92 900 2.1 170 10:46 02.01.2020
5040 Fog -4 1030 100 700 2.1 140 10:27 02.01.2020
5041 Fog -4 1030 100 700 2.1 140 09:56 02.01.2020
5042 Fog -5 1030 92 450 2.6 170 09:35 02.01.2020
5043 Mist -5 1030 92 2500 2.1 160 08:58 02.01.2020
5044 Mist -6 1030 92 4400 1.5 170 08:39 02.01.2020
5045 Clear -6 1030 92 10000 1 0 08:19 02.01.2020
5046 Clear -7 1030 92 10000 2.6 110 07:47 02.01.2020
5047 Clear -7 1030 92 10000 2.6 110 07:26 02.01.2020
5048 Clear -6 1029 92 10000 1 160 06:41 02.01.2020
5049 Clear -6 1029 92 10000 1 160 06:41 02.01.2020
5050 Clear -7 1029 92 10000 2.1 120 05:40 02.01.2020
5051 Clear -6 1029 92 10000 1.5 120 04:34 02.01.2020
5052 Clear -6 1030 92 10000 1 0 03:29 02.01.2020
5053 Clear -5 1030 100 10000 1 0 02:21 02.01.2020
5054 Clear -6 1030 92 10000 1 70 01:49 02.01.2020
5055 Clear -5 1031 92 10000 0.5 80 01:25 02.01.2020
5056 Clear -5 1031 85 9000 1 90 00:38 02.01.2020
5057 Clear -5 1031 100 9000 1 0 00:20 02.01.2020
5058 Clear -5 1031 92 9000 1 140 23:42 01.01.2020
5059 Clear -5 1032 85 9000 0.5 0 23:21 01.01.2020
5060 Clear -5 1032 92 10000 1 50 22:39 01.01.2020
5061 Clear -4 1032 92 10000 1.2 116 22:20 01.01.2020
5062 Clear -4 1032 92 10000 1.2 116 21:58 01.01.2020
5063 Clear -4 1032 92 10000 0.5 0 21:39 01.01.2020
5064 Clear -4 1032 92 10000 2.6 100 21:20 01.01.2020
5065 Clear -3 1032 92 10000 2.6 100 20:56 01.01.2020
5066 Clear -3 1032 86 9000 3.1 100 20:38 01.01.2020
5067 Clear -3 1033 92 9000 2.6 110 20:19 01.01.2020
5068 Clear -3 1033 92 9000 2.6 110 19:55 01.01.2020
5069 Clear -3 1033 92 9000 2.6 110 19:37 01.01.2020
5070 Clear -3 1033 86 10000 3.6 100 19:19 01.01.2020
5071 Clear -2 1033 86 10000 3.6 100 18:56 01.01.2020
5072 Clear -2 1033 80 10000 2.6 90 18:36 01.01.2020
5073 Clear -2 1032 80 10000 3.1 100 18:18 01.01.2020
5074 Clear -1 1032 80 10000 3.1 100 17:56 01.01.2020
5075 Clear -1 1032 80 10000 2.1 100 17:38 01.01.2020
5076 Clear 0 1032 74 10000 2.1 70 17:19 01.01.2020
5077 Clear 1 1032 74 10000 2.1 60 16:42 01.01.2020
5078 Clear 1 1032 74 10000 2.1 60 16:24 01.01.2020
5079 Clear 2 1032 65 10000 1.5 60 15:58 01.01.2020
5080 Clear 2 1032 65 10000 2.6 100 15:40 01.01.2020
5081 Clear 2 1032 65 10000 2.6 110 15:22 01.01.2020
5082 Clear 2 1032 65 10000 2.6 110 14:59 01.01.2020
5083 Clear 2 1032 65 10000 2.1 110 14:40 01.01.2020
5084 Clear 2 1033 65 10000 1.5 120 14:22 01.01.2020
5085 Clear 2 1033 69 10000 0.5 0 13:56 01.01.2020
5086 Clear 2 1033 69 10000 0.5 0 13:37 01.01.2020
5087 Clear 1 1033 69 10000 1 0 13:19 01.01.2020
5088 Clear 0 1033 69 10000 1 0 12:57 01.01.2020
5089 Clear 0 1034 74 10000 1 0 12:39 01.01.2020
5090 Clear 0 1034 74 10000 0.5 0 12:19 01.01.2020
5091 Clear -1 1034 65 10000 0.5 0 11:43 01.01.2020
5092 Clear -2 1034 65 10000 0.5 0 11:23 01.01.2020
5093 Clear -3 1035 80 10000 1 0 10:59 01.01.2020
5094 Clear -3 1035 86 10000 1 0 10:41 01.01.2020
5095 Clear -4 1035 92 8000 1 130 10:21 01.01.2020
5096 Clear -5 1035 92 7000 0.5 0 09:58 01.01.2020
5097 Clear -5 1035 92 7000 0.5 0 09:37 01.01.2020
5098 Clear -5 1035 85 6000 1 20 09:18 01.01.2020
5099 Clear -5 1035 85 6000 1 20 09:18 01.01.2020
5100 Clear -5 1035 85 6000 1 20 08:55 01.01.2020
5101 Clear -5 1035 85 6000 1 20 08:55 01.01.2020
5102 Clear -5 1034 92 6000 1 0 08:36 01.01.2020
5103 Clear -5 1034 100 6000 1.5 130 08:18 01.01.2020
5104 Clear -5 1034 92 6000 1 0 07:54 01.01.2020
5105 Clear -5 1034 92 6000 1 0 07:35 01.01.2020
5106 Clear -5 1034 92 5000 1 80 06:44 01.01.2020
5107 Clear -5 1034 100 6000 0.5 150 06:21 01.01.2020
5108 Clear -4 1034 100 7000 1 50 05:22 01.01.2020
5109 Clear -4 1034 92 7000 1.5 100 03:45 01.01.2020
5110 Clear -4 1035 92 7000 1 0 03:23 01.01.2020
5111 Clear -3 1035 92 7000 1 0 02:57 01.01.2020
5112 Clouds -3 1035 92 7000 1 0 02:35 01.01.2020
5113 Clouds -3 1035 86 7000 1 0 01:56 01.01.2020
5114 Clouds -3 1035 86 7000 1 0 01:38 01.01.2020
5115 Clouds -2 1035 92 9000 0.5 0 01:19 01.01.2020
5116 Clouds -2 1035 92 10000 1.5 80 00:44 01.01.2020
5117 Clouds -2 1035 86 10000 1 90 00:25 01.01.2020
5118 Clouds -2 1035 82 10000 1 0 23:41 31.12.2019
5119 Clouds -2 1035 81 10000 1 0 23:21 31.12.2019
5120 Clouds -2 1035 81 10000 1 0 22:57 31.12.2019
5121 Clouds -1 1035 81 10000 1 0 22:39 31.12.2019
5122 Clouds -1 1035 81 10000 1 0 22:20 31.12.2019
5123 Clouds -1 1035 81 10000 1 0 21:57 31.12.2019
5124 Clouds -1 1035 80 10000 1.5 340 21:38 31.12.2019
5125 Clouds -1 1035 80 10000 0.5 0 21:19 31.12.2019
5126 Clouds -1 1035 80 10000 0.5 0 21:19 31.12.2019
5127 Clouds 0 1035 80 10000 1 220 20:54 31.12.2019
5128 Clouds 0 1035 80 10000 1 220 20:36 31.12.2019
5129 Clouds 0 1035 80 10000 0.5 0 20:18 31.12.2019
5130 Clouds 1 1035 80 10000 1.5 330 19:41 31.12.2019
5131 Clouds 1 1035 80 10000 1.5 340 19:22 31.12.2019
5132 Clouds 1 1035 80 10000 1.5 340 18:58 31.12.2019
5133 Clouds 1 1034 80 10000 0.5 0 18:40 31.12.2019
5134 Clouds 1 1034 80 10000 0.5 0 18:20 31.12.2019
5135 Clouds 1 1034 80 10000 0.5 0 17:56 31.12.2019
5136 Clouds 2 1034 80 10000 0.5 0 17:38 31.12.2019
5137 Clouds 2 1034 80 10000 0.5 0 17:38 31.12.2019
5138 Clouds 2 1033 74 10000 0.5 0 17:19 31.12.2019
5139 Clouds 2 1033 74 10000 0.5 350 16:57 31.12.2019
5140 Clouds 2 1033 74 10000 0.5 350 16:38 31.12.2019
5141 Clouds 2 1033 80 10000 0.5 0 16:19 31.12.2019
5142 Clouds 2 1033 80 10000 0.5 0 15:56 31.12.2019
5143 Clouds 3 1033 69 10000 0.5 340 15:38 31.12.2019
5144 Clouds 3 1033 69 10000 0.5 340 15:38 31.12.2019
5145 Clouds 3 1033 69 10000 0.5 0 15:20 31.12.2019
5146 Clouds 3 1033 69 10000 0.5 0 14:57 31.12.2019
5147 Clouds 3 1032 69 10000 0.5 0 14:38 31.12.2019
5148 Clouds 3 1032 69 10000 0.5 0 14:19 31.12.2019
5149 Clouds 3 1032 69 10000 0.5 0 13:57 31.12.2019
5150 Clouds 3 1032 69 10000 1 0 13:39 31.12.2019
5151 Clouds 2 1032 69 10000 1 0 13:20 31.12.2019
5152 Clouds 2 1032 69 10000 1 0 12:56 31.12.2019
5153 Clouds 2 1032 69 10000 1 0 12:56 31.12.2019
5154 Clouds 2 1032 69 10000 1 0 12:38 31.12.2019
5155 Clouds 2 1032 74 10000 0.5 0 12:19 31.12.2019
5156 Clouds 2 1032 74 10000 0.5 0 12:19 31.12.2019
5157 Clouds 1 1032 74 10000 0.5 0 11:56 31.12.2019
5158 Clouds 1 1032 80 10000 1 0 11:37 31.12.2019
5159 Clouds 0 1032 58 10000 2.1 100 11:19 31.12.2019
5160 Clouds 0 1032 58 10000 2.1 100 10:57 31.12.2019
5161 Clouds 0 1032 58 10000 2.1 100 10:57 31.12.2019
5162 Clouds -1 1032 58 10000 2.1 100 10:37 31.12.2019
5163 Clouds -1 1032 86 10000 1.5 130 10:19 31.12.2019
5164 Clouds -2 1032 86 10000 1.5 130 09:58 31.12.2019
5165 Clouds -3 1031 86 10000 2.1 150 09:38 31.12.2019
5166 Clouds -3 1031 86 10000 0.5 0 09:19 31.12.2019
5167 Clouds -3 1031 92 10000 1 0 08:43 31.12.2019
5168 Clear -4 1030 92 10000 1 0 08:24 31.12.2019
5169 Clear -4 1030 92 10000 1 0 07:59 31.12.2019
5170 Clear -4 1030 86 10000 1.5 70 07:41 31.12.2019
5171 Clear -4 1029 86 10000 3.6 110 07:19 31.12.2019
5172 Clear -4 1029 86 10000 3.6 110 06:42 31.12.2019
5173 Clear -4 1029 92 10000 3.6 120 05:45 31.12.2019
5174 Clear -4 1029 86 10000 2.6 100 04:27 31.12.2019
5175 Clear -3 1030 86 10000 3.6 110 03:27 31.12.2019
5176 Clear -3 1030 86 10000 2.6 110 02:39 31.12.2019
5177 Clouds -3 1029 86 10000 3.6 100 01:53 31.12.2019
5178 Clouds -2 1030 80 10000 2.6 110 01:34 31.12.2019
5179 Clouds -2 1030 86 10000 2.1 120 00:56 31.12.2019
5180 Clouds -2 1030 80 10000 0.5 0 00:37 31.12.2019
5181 Clouds -1 1030 52 10000 1 360 00:18 31.12.2019
5182 Clouds -1 1030 52 10000 3.6 130 23:55 30.12.2019
5183 Clouds -1 1030 52 10000 3.6 130 23:37 30.12.2019
5184 Clouds -1 1030 48 10000 2.6 110 23:18 30.12.2019
5185 Clouds -1 1030 48 10000 2.6 110 22:55 30.12.2019
5186 Clouds 0 1030 48 10000 3.1 110 22:37 30.12.2019
5187 Clouds -1 1031 48 10000 3.1 120 22:18 30.12.2019
5188 Clouds -1 1031 48 10000 2.6 120 21:55 30.12.2019
5189 Clouds -1 1031 48 10000 2.6 120 21:37 30.12.2019
5190 Clouds -1 1031 48 10000 4.1 110 21:18 30.12.2019
5191 Clouds -1 1031 48 10000 4.1 110 20:54 30.12.2019
5192 Clouds -1 1031 80 10000 3.6 120 20:36 30.12.2019
5193 Clear -1 1032 53 10000 3.6 110 20:18 30.12.2019
5194 Clear -1 1032 53 10000 3.6 110 19:55 30.12.2019
5195 Clear -1 1032 80 10000 2.6 110 19:36 30.12.2019
5196 Clear -1 1032 74 10000 1 0 19:18 30.12.2019
5197 Clear -1 1032 69 10000 1.5 90 18:41 30.12.2019
5198 Clear -1 1032 59 10000 2.1 120 18:21 30.12.2019
5199 Clear 0 1032 59 10000 2.1 120 17:59 30.12.2019
5200 Clear 0 1032 59 10000 2.1 130 17:41 30.12.2019
5201 Clear 1 1032 55 10000 2.1 110 17:19 30.12.2019
5202 Clear 2 1032 55 10000 2.1 110 16:59 30.12.2019
5203 Clear 2 1032 55 10000 2.1 110 16:40 30.12.2019
5204 Clear 3 1032 60 10000 2.6 130 16:20 30.12.2019
5205 Clear 3 1032 60 10000 2.6 130 15:57 30.12.2019
5206 Clear 3 1032 48 10000 2.1 140 15:38 30.12.2019
5207 Clear 4 1032 56 10000 1.88 153 15:19 30.12.2019
5208 Clear 4 1032 56 10000 1.88 153 15:19 30.12.2019
5209 Clear 4 1033 48 10000 2.1 120 14:54 30.12.2019
5210 Clear 4 1033 48 10000 2.1 120 14:36 30.12.2019
5211 Clear 4 1033 52 10000 2.6 130 14:18 30.12.2019
5212 Clear 3 1033 55 10000 2.6 140 13:41 30.12.2019
5213 Clear 3 1034 55 10000 3.1 150 13:23 30.12.2019
5214 Clear 2 1034 74 10000 1.5 150 12:58 30.12.2019
5215 Clear 2 1034 59 10000 2.6 140 12:39 30.12.2019
5216 Clear 1 1035 64 10000 3.1 130 12:19 30.12.2019
5217 Clear 0 1035 69 10000 2.1 140 11:56 30.12.2019
5218 Clear 0 1035 69 10000 2.1 140 11:37 30.12.2019
5219 Clear 0 1035 49 10000 3.1 130 11:18 30.12.2019
5220 Clear -2 1036 80 10000 3.6 130 10:42 30.12.2019
5221 Clear -2 1036 86 10000 2.6 120 10:20 30.12.2019
5222 Clear -4 1036 86 10000 2.1 120 09:44 30.12.2019
5223 Clear -4 1036 85 10000 1.5 130 09:21 30.12.2019
5224 Clear -4 1036 85 10000 1.5 130 08:57 30.12.2019
5225 Clear -5 1036 85 10000 1.5 130 08:39 30.12.2019
5226 Clear -5 1036 92 10000 2.6 130 08:20 30.12.2019
5227 Clear -5 1036 85 10000 3.1 110 07:48 30.12.2019
5228 Clear -5 1036 85 10000 3.6 100 07:23 30.12.2019
5229 Clear -6 1036 92 10000 3.1 110 06:32 30.12.2019
5230 Clear -5 1037 85 10000 1.5 350 04:31 30.12.2019
5231 Clear -5 1036 92 10000 2.1 120 03:50 30.12.2019
5232 Clear -5 1037 85 10000 2.1 110 02:47 30.12.2019
5233 Clear -5 1037 85 10000 2.1 110 02:26 30.12.2019
5234 Clouds -5 1037 92 10000 2.6 120 01:29 30.12.2019
5235 Clouds -5 1037 85 10000 1.5 120 00:59 30.12.2019
5236 Clouds -5 1037 85 10000 2.1 90 00:39 30.12.2019
5237 Clouds -5 1038 85 10000 2.1 100 23:55 29.12.2019
5238 Clouds -5 1037 92 10000 2.1 120 23:36 29.12.2019
5239 Clear -5 1038 85 10000 1.5 120 23:18 29.12.2019
5240 Clear -5 1038 85 10000 1 80 22:40 29.12.2019
5241 Clear -4 1038 79 10000 1.5 80 22:21 29.12.2019
5242 Clear -4 1038 79 10000 1.5 80 21:56 29.12.2019
5243 Clear -4 1038 79 10000 2.1 110 21:38 29.12.2019
5244 Clear -4 1038 79 10000 2.1 100 21:19 29.12.2019
5245 Clear -4 1038 79 10000 2.1 100 20:55 29.12.2019
5246 Clear -4 1038 79 10000 2.1 90 20:37 29.12.2019
5247 Clouds -3 1038 86 10000 0.5 0 20:18 29.12.2019
5248 Clouds -3 1038 79 10000 2.6 90 19:55 29.12.2019
5249 Clouds -3 1038 79 10000 2.6 90 19:37 29.12.2019
5250 Clouds -3 1037 74 10000 3.1 100 19:19 29.12.2019
5251 Clouds -3 1038 86 10000 1 80 18:54 29.12.2019
5252 Clouds -2 1038 86 10000 1 80 18:36 29.12.2019
5253 Clouds -2 1038 74 10000 2.1 90 18:18 29.12.2019
5254 Clouds -2 1038 68 10000 1.5 110 17:55 29.12.2019
5255 Clouds -2 1038 68 10000 1.5 110 17:36 29.12.2019
5256 Clouds -2 1038 74 10000 1 30 17:18 29.12.2019
5257 Clouds -1 1038 74 10000 1 30 16:55 29.12.2019
5258 Clouds 0 1038 69 10000 0.5 0 16:36 29.12.2019
5259 Clear 0 1037 58 10000 2.1 100 16:18 29.12.2019
5260 Clouds 1 1038 64 10000 2.1 320 15:55 29.12.2019
5261 Clouds 1 1038 59 10000 1 290 15:37 29.12.2019
5262 Clouds 1 1038 59 10000 1 0 15:18 29.12.2019
5263 Clouds 1 1038 55 10000 1 0 14:47 29.12.2019
5264 Clear 1 1037 69 10000 2.1 120 14:19 29.12.2019
5265 Clouds 1 1038 55 10000 1 0 14:00 29.12.2019
5266 Clouds 1 1038 55 10000 1 0 13:40 29.12.2019
5267 Clouds 1 1038 55 10000 1 0 13:40 29.12.2019
5268 Clouds 0 1038 64 10000 1.5 120 13:22 29.12.2019
5269 Clear 0 1038 64 10000 1.5 120 12:58 29.12.2019
5270 Clear 0 1039 64 10000 1 0 12:40 29.12.2019
5271 Clear -1 1039 52 10000 2.6 120 12:22 29.12.2019
5272 Clear -1 1039 52 10000 2.6 120 12:22 29.12.2019
5273 Clear 0 1039 74 10000 2.1 120 11:43 29.12.2019
5274 Clear -3 1040 74 10000 1 0 11:23 29.12.2019
5275 Clear -3 1040 74 10000 1 0 11:00 29.12.2019
5276 Clear -3 1040 79 10000 1 0 10:41 29.12.2019
5277 Clear -4 1040 85 10000 1 0 10:19 29.12.2019
5278 Clear -5 1040 85 10000 1 130 09:47 29.12.2019
5279 Clear -6 1040 85 10000 1 130 09:28 29.12.2019
5280 Clear -6 1039 85 10000 1.5 120 08:59 29.12.2019
5281 Clear -7 1039 92 10000 1.5 120 08:41 29.12.2019
5282 Clouds -7 1039 92 10000 0.5 0 08:23 29.12.2019
5283 Clouds -7 1039 85 10000 1.5 90 07:49 29.12.2019
5284 Clouds -7 1039 85 10000 1.5 90 07:27 29.12.2019
5285 Clouds -7 1039 92 10000 1 120 06:52 29.12.2019
5286 Clouds -7 1040 92 10000 0.5 0 06:22 29.12.2019
5287 Clouds -6 1040 92 10000 1.5 350 05:45 29.12.2019
5288 Clouds -6 1040 92 10000 1 340 04:33 29.12.2019
5289 Clouds -5 1039 85 10000 2.1 110 03:39 29.12.2019
5290 Clouds -5 1039 92 10000 3.1 100 02:36 29.12.2019
5291 Clouds -5 1039 92 10000 3.1 110 02:18 29.12.2019
5292 Clouds -5 1040 92 10000 0.5 110 01:29 29.12.2019
5293 Clouds -4 1040 85 10000 0.5 0 00:47 29.12.2019
5294 Clouds -4 1041 92 10000 1 10 00:25 29.12.2019
5295 Clouds -4 1040 92 10000 0.5 0 23:56 28.12.2019
5296 Clouds -4 1040 92 10000 0.5 0 23:37 28.12.2019
5297 Clouds -4 1040 92 10000 0.5 350 23:18 28.12.2019
5298 Clouds -4 1040 92 10000 0.5 350 23:18 28.12.2019
5299 Clouds -4 1040 92 10000 0.5 350 23:18 28.12.2019
5300 Clouds -4 1040 92 10000 0.5 350 23:18 28.12.2019
5301 Clouds -4 1040 92 10000 0.5 350 23:18 28.12.2019
5302 Clouds -4 1040 92 10000 1 0 22:38 28.12.2019
5303 Clouds -4 1041 92 10000 0.5 0 22:19 28.12.2019
5304 Clouds -3 1041 92 10000 0.5 0 21:57 28.12.2019
5305 Clouds -4 1041 85 10000 0.5 210 21:38 28.12.2019
5306 Clouds -3 1041 86 10000 1 80 21:19 28.12.2019
5307 Clouds -3 1041 92 10000 0.5 20 20:54 28.12.2019
5308 Clouds -3 1041 86 10000 1 80 20:54 28.12.2019
5309 Clouds -3 1041 92 10000 0.5 20 20:36 28.12.2019
5310 Clouds -3 1041 86 10000 1 90 20:18 28.12.2019
5311 Clouds -2 1041 79 10000 1.5 90 19:43 28.12.2019
5312 Clouds -2 1041 79 10000 1.5 90 19:24 28.12.2019
5313 Clouds -2 1040 79 10000 2.1 110 18:59 28.12.2019
5314 Clouds -1 1040 92 10000 1 90 18:41 28.12.2019
5315 Clouds -1 1040 86 10000 1 20 18:20 28.12.2019
5316 Clouds -1 1040 86 10000 1 20 17:59 28.12.2019
5317 Clouds -1 1040 80 10000 1.5 50 17:39 28.12.2019
5318 Clouds -1 1040 80 10000 1.5 40 17:20 28.12.2019
5319 Clouds 0 1040 76 10000 1 360 16:48 28.12.2019
5320 Clouds 1 1040 69 10000 2.1 360 16:26 28.12.2019
5321 Clouds 1 1040 64 10000 2.6 360 15:57 28.12.2019
5322 Clouds 1 1040 64 10000 2.6 360 15:39 28.12.2019
5323 Clouds 1 1039 64 10000 3.1 10 15:21 28.12.2019
5324 Clouds 2 1039 64 10000 2.1 340 14:46 28.12.2019
5325 Clouds 2 1039 59 10000 1.5 40 14:24 28.12.2019
5326 Clouds 2 1039 59 10000 1.5 40 13:58 28.12.2019
5327 Clouds 2 1039 59 10000 1.5 40 13:58 28.12.2019
5328 Clouds 2 1039 59 10000 1.5 70 13:39 28.12.2019
5329 Clouds 2 1039 59 10000 1.5 90 13:19 28.12.2019
5330 Clouds 2 1039 59 10000 2.1 120 12:44 28.12.2019
5331 Clouds 2 1039 64 10000 0.5 70 12:25 28.12.2019
5332 Clouds 2 1039 64 10000 0.5 70 11:59 28.12.2019
5333 Clouds 2 1039 59 10000 2.6 50 11:39 28.12.2019
5334 Clouds 2 1039 64 10000 3.1 30 11:20 28.12.2019
5335 Clouds 1 1039 69 10000 2.6 360 10:46 28.12.2019
5336 Clouds 1 1039 74 10000 1.5 20 10:23 28.12.2019
5337 Clouds 0 1039 74 10000 1.5 20 09:58 28.12.2019
5338 Clouds 0 1039 79 10000 1.5 40 09:40 28.12.2019
5339 Clouds 0 1039 79 10000 1 0 09:21 28.12.2019
5340 Clouds 0 1038 86 10000 1.5 360 08:45 28.12.2019
5341 Clouds 0 1038 86 10000 1.5 360 08:27 28.12.2019
5342 Clouds 0 1038 92 10000 0.5 0 07:57 28.12.2019
5343 Clouds 0 1038 86 10000 1 0 07:39 28.12.2019
5344 Clouds 0 1038 92 10000 1.5 350 06:42 28.12.2019
5345 Clouds -1 1037 100 10000 0.5 0 05:19 28.12.2019
5346 Clouds -1 1037 92 10000 0.5 0 03:47 28.12.2019
5347 Clouds -1 1036 92 10000 0.5 0 02:49 28.12.2019
5348 Clouds -1 1036 92 10000 1 320 02:19 28.12.2019
5349 Clouds -1 1036 92 10000 1 0 01:42 28.12.2019
5350 Clouds -1 1036 92 10000 1 340 01:18 28.12.2019
5351 Clouds -1 1036 92 10000 1 350 00:40 28.12.2019
5352 Clouds -1 1036 92 10000 1 0 00:21 28.12.2019
5353 Clouds -1 1035 86 10000 0.5 10 23:44 27.12.2019
5354 Clouds -1 1035 86 10000 1 40 23:20 27.12.2019
5355 Clouds -1 1035 89 10000 1.5 350 22:58 27.12.2019
5356 Clouds 0 1035 89 10000 1.5 350 22:39 27.12.2019
5357 Clouds 0 1035 89 10000 1.5 350 22:20 27.12.2019
5358 Clouds 0 1035 89 10000 1.5 350 21:56 27.12.2019
5359 Clouds 0 1034 89 10000 2.1 350 21:37 27.12.2019
5360 Clouds 0 1034 89 10000 1.5 320 21:19 27.12.2019
5361 Clouds 0 1033 92 10000 1.5 350 20:42 27.12.2019
5362 Clouds 0 1033 92 10000 1.5 350 20:23 27.12.2019
5363 Clouds 0 1032 83 10000 1 340 19:43 27.12.2019
5364 Clouds 1 1031 80 10000 1 0 19:21 27.12.2019
5365 Clouds 1 1031 80 10000 1 0 18:59 27.12.2019
5366 Clouds 1 1031 80 10000 1.5 10 18:40 27.12.2019
5367 Clouds 2 1030 83 10000 1.5 340 18:21 27.12.2019
5368 Clouds 2 1030 83 10000 2.1 360 17:58 27.12.2019
5369 Clouds 2 1030 83 10000 2.1 360 17:40 27.12.2019
5370 Clouds 3 1029 93 10000 1.5 10 17:19 27.12.2019
5371 Clouds 3 1029 93 10000 1.5 10 16:59 27.12.2019
5372 Clouds 4 1029 80 10000 0.5 0 16:39 27.12.2019
5373 Clouds 4 1029 75 10000 0.5 260 16:19 27.12.2019
5374 Clouds 4 1028 75 10000 0.5 0 15:45 27.12.2019
5375 Clouds 4 1028 75 10000 1.5 90 15:23 27.12.2019
5376 Clouds 4 1027 75 10000 2.1 90 14:58 27.12.2019
5377 Clouds 5 1027 75 10000 2.1 90 14:39 27.12.2019
5378 Clouds 5 1027 75 10000 2.6 50 14:20 27.12.2019
5379 Clouds 4 1026 75 10000 3.1 30 13:55 27.12.2019
5380 Clouds 4 1026 75 10000 3.1 30 13:37 27.12.2019
5381 Clouds 4 1026 75 10000 3.6 40 13:18 27.12.2019
5382 Clouds 4 1026 80 10000 1.5 30 12:40 27.12.2019
5383 Clouds 4 1025 93 10000 2.1 50 12:22 27.12.2019
5384 Clouds 4 1025 93 10000 2.1 40 11:46 27.12.2019
5385 Clouds 4 1025 93 10000 1 0 11:26 27.12.2019
5386 Clouds 4 1025 93 10000 1 0 11:26 27.12.2019
5387 Rain 4 1025 93 10000 1 0 10:58 27.12.2019
5388 Rain 3 1024 93 9000 1 0 10:39 27.12.2019
5389 Rain 3 1024 93 6000 1.5 60 10:21 27.12.2019
5390 Clouds 3 1024 93 7000 1 40 09:44 27.12.2019
5391 Drizzle 3 1023 93 6000 1 0 09:22 27.12.2019
5392 Drizzle 3 1023 93 6000 1 0 09:22 27.12.2019
5393 Drizzle 2 1023 93 6000 1 0 08:59 27.12.2019
5394 Drizzle 2 1023 93 5000 1.5 110 08:36 27.12.2019
5395 Clouds 3 1022 93 10000 2.1 90 07:52 27.12.2019
5396 Rain 2 1022 93 10000 2.1 90 07:33 27.12.2019
5397 Clouds 2 1022 93 10000 2.6 100 06:38 27.12.2019
5398 Mist 2 1021 100 4000 1.5 170 05:52 27.12.2019
5399 Clouds 2 1022 93 10000 2.6 120 03:47 27.12.2019
5400 Clouds 2 1022 93 10000 2.6 120 03:47 27.12.2019
5401 Clouds 2 1022 86 10000 1.5 110 02:23 27.12.2019
5402 Clouds 2 1022 86 10000 2.1 180 01:42 27.12.2019
5403 Clouds 2 1023 86 10000 2.1 180 01:20 27.12.2019
5404 Clouds 2 1023 86 10000 2.1 170 00:44 27.12.2019
5405 Clouds 3 1023 93 10000 1.5 120 00:24 27.12.2019
5406 Clouds 2 1023 93 10000 1.5 120 00:24 27.12.2019
5407 Clouds 3 1023 93 10000 2.6 130 23:42 26.12.2019
5408 Clouds 2 1024 93 10000 2.6 130 23:23 26.12.2019
5409 Clouds 2 1024 93 10000 2.6 120 22:57 26.12.2019
5410 Clouds 2 1024 93 10000 2.6 120 22:37 26.12.2019
5411 Clouds 3 1024 93 10000 3.1 110 22:18 26.12.2019
5412 Clouds 2 1024 93 10000 2.1 90 21:39 26.12.2019
5413 Clouds 2 1024 93 10000 2.1 90 21:39 26.12.2019
5414 Clouds 2 1024 93 10000 2.6 90 21:21 26.12.2019
5415 Clouds 2 1024 93 10000 2.6 90 21:21 26.12.2019
5416 Clouds 2 1024 93 10000 1.5 120 20:47 26.12.2019
5417 Clouds 2 1024 93 10000 3.1 100 20:24 26.12.2019
5418 Clouds 3 1024 93 10000 3.1 100 19:59 26.12.2019
5419 Clouds 2 1024 93 10000 2.1 100 19:40 26.12.2019
5420 Clouds 2 1024 93 10000 2.1 100 19:40 26.12.2019
5421 Clouds 3 1024 86 10000 1.5 100 19:22 26.12.2019
5422 Clouds 3 1024 86 10000 1.5 100 18:59 26.12.2019
5423 Clouds 3 1023 93 10000 1.5 90 18:40 26.12.2019
5424 Clouds 3 1023 93 10000 1.5 100 18:20 26.12.2019
5425 Clouds 3 1023 93 10000 1.5 100 17:57 26.12.2019
5426 Clouds 3 1023 86 10000 2.1 100 17:38 26.12.2019
5427 Clouds 3 1023 86 10000 2.1 100 17:38 26.12.2019
5428 Clouds 3 1023 86 10000 2.1 100 17:38 26.12.2019
5429 Clouds 4 1023 86 10000 1.5 100 17:18 26.12.2019
5430 Clouds 4 1023 86 10000 1.5 100 16:43 26.12.2019
5431 Clouds 4 1023 75 10000 1.5 70 16:23 26.12.2019
5432 Clouds 5 1023 75 10000 1.5 70 15:56 26.12.2019
5433 Clouds 5 1023 75 10000 1.5 70 15:56 26.12.2019
5434 Clouds 5 1023 70 10000 0.5 0 15:38 26.12.2019
5435 Clouds 5 1024 84 10000 1 0 15:18 26.12.2019
5436 Clouds 5 1024 60 10000 0.5 0 14:40 26.12.2019
5437 Clouds 5 1024 80 10000 1 0 14:22 26.12.2019
5438 Clouds 5 1024 70 10000 1 0 13:44 26.12.2019
5439 Clouds 5 1024 70 10000 1 0 13:44 26.12.2019
5440 Clouds 5 1024 100 10000 2.6 150 13:22 26.12.2019
5441 Clouds 5 1024 100 10000 2.6 140 12:58 26.12.2019
5442 Clouds 5 1024 100 10000 2.6 140 12:58 26.12.2019
5443 Clouds 5 1024 75 10000 0.5 0 12:39 26.12.2019
5444 Clouds 5 1024 75 10000 0.5 0 12:39 26.12.2019
5445 Clouds 5 1025 86 10000 1 0 12:20 26.12.2019
5446 Clouds 5 1025 86 10000 1 0 11:57 26.12.2019
5447 Clouds 5 1025 86 10000 0.5 0 11:39 26.12.2019
5448 Clouds 4 1025 86 10000 1 0 11:20 26.12.2019
5449 Clouds 4 1025 93 10000 1 0 10:49 26.12.2019
5450 Clouds 4 1025 93 10000 0.5 0 10:19 26.12.2019
5451 Clouds 4 1025 93 10000 0.5 0 10:19 26.12.2019
5452 Clouds 4 1025 93 10000 0.5 0 10:19 26.12.2019
5453 Clouds 4 1025 93 10000 0.5 0 09:50 26.12.2019
5454 Clouds 4 1025 93 10000 0.5 0 09:32 26.12.2019
5455 Clouds 3 1025 100 10000 0.5 0 08:55 26.12.2019
5456 Clouds 3 1025 100 10000 1 180 08:36 26.12.2019
5457 Clouds 3 1025 100 10000 0.5 0 08:18 26.12.2019
5458 Clouds 3 1025 100 10000 0.5 0 07:30 26.12.2019
5459 Clouds 3 1025 100 10000 0.5 0 07:30 26.12.2019
5460 Clouds 3 1025 93 10000 1 0 06:54 26.12.2019
5461 Clouds 3 1025 93 10000 1 200 06:54 26.12.2019
5462 Clouds 3 1025 93 10000 1 0 06:32 26.12.2019
5463 Clouds 4 1024 93 10000 0.5 0 05:46 26.12.2019
5464 Clouds 4 1024 93 10000 0.5 290 04:59 26.12.2019
5465 Clouds 4 1024 93 10000 0.5 290 04:30 26.12.2019
5466 Clouds 4 1025 93 10000 2.1 260 03:18 26.12.2019
5467 Clouds 4 1025 93 10000 2.1 270 02:38 26.12.2019
5468 Clouds 4 1024 93 10000 2.6 270 02:19 26.12.2019
5469 Clouds 4 1024 93 10000 3.1 270 01:41 26.12.2019
5470 Rain 4 1024 93 10000 3.1 270 01:22 26.12.2019
5471 Clouds 4 1024 93 10000 3.6 270 00:41 26.12.2019
5472 Clouds 4 1024 93 10000 2.6 250 00:22 26.12.2019
5473 Rain 4 1024 93 10000 2.6 250 23:42 25.12.2019
5474 Rain 4 1024 93 10000 2.6 250 23:21 25.12.2019
5475 Rain 4 1024 93 10000 2.6 250 22:59 25.12.2019
5476 Clouds 4 1024 93 10000 2.1 240 22:40 25.12.2019
5477 Clouds 4 1024 93 10000 2.6 290 22:22 25.12.2019
5478 Clouds 4 1024 93 10000 2.6 290 21:59 25.12.2019
5479 Clouds 4 1023 93 10000 3.1 300 21:40 25.12.2019
5480 Clouds 4 1023 86 10000 3.6 300 21:21 25.12.2019
5481 Clouds 4 1023 86 10000 4.1 280 20:57 25.12.2019
5482 Clouds 4 1023 86 10000 4.1 280 20:39 25.12.2019
5483 Clouds 4 1023 86 10000 3.6 270 20:18 25.12.2019
5484 Clouds 4 1022 86 10000 4.1 280 19:43 25.12.2019
5485 Clouds 4 1022 86 10000 4.1 280 19:43 25.12.2019
5486 Clouds 4 1022 86 10000 3.1 290 19:25 25.12.2019
5487 Clouds 5 1021 86 10000 2.1 300 18:58 25.12.2019
5488 Clouds 5 1021 86 10000 2.1 300 18:37 25.12.2019
5489 Clouds 5 1021 86 10000 2.6 310 18:19 25.12.2019
5490 Rain 5 1021 87 10000 3.6 320 17:42 25.12.2019
5491 Rain 5 1020 87 10000 4.6 310 17:20 25.12.2019
5492 Rain 5 1020 87 10000 4.6 310 16:58 25.12.2019
5493 Rain 6 1019 93 10000 4.1 320 16:37 25.12.2019
5494 Rain 6 1018 87 10000 7.2 290 16:19 25.12.2019
5495 Rain 6 1018 87 10000 7.2 290 15:57 25.12.2019
5496 Rain 6 1018 81 10000 8.2 280 15:39 25.12.2019
5497 Rain 6 1018 81 10000 8.2 280 15:39 25.12.2019
5498 Clouds 7 1017 81 10000 7.7 280 15:20 25.12.2019
5499 Clouds 7 1017 81 10000 7.7 280 14:57 25.12.2019
5500 Clouds 7 1017 81 10000 7.7 280 14:39 25.12.2019
5501 Rain 7 1016 81 10000 8.2 290 14:20 25.12.2019
5502 Rain 7 1015 75 10000 6.7 300 13:44 25.12.2019
5503 Rain 7 1015 87 10000 7.7 290 13:21 25.12.2019
5504 Rain 7 1015 87 10000 7.7 290 12:57 25.12.2019
5505 Rain 7 1015 81 10000 8.2 290 12:38 25.12.2019
5506 Rain 7 1015 81 10000 8.2 290 12:38 25.12.2019
5507 Rain 7 1015 87 10000 6.7 290 12:19 25.12.2019
5508 Rain 7 1015 93 10000 4.6 290 11:43 25.12.2019
5509 Rain 6 1014 93 10000 2.1 280 11:22 25.12.2019
5510 Rain 7 1014 87 10000 3.1 310 10:59 25.12.2019
5511 Rain 7 1014 93 10000 2.1 280 10:59 25.12.2019
5512 Rain 7 1014 87 10000 3.1 310 10:36 25.12.2019
5513 Rain 6 1014 87 8000 6.2 320 10:18 25.12.2019
5514 Clouds 6 1013 87 10000 4.6 250 09:43 25.12.2019
5515 Rain 7 1013 93 10000 3.1 230 09:25 25.12.2019
5516 Rain 7 1013 93 10000 2.1 240 08:46 25.12.2019
5517 Rain 7 1013 93 10000 2.1 240 08:25 25.12.2019
5518 Clouds 7 1013 81 10000 5.1 260 07:45 25.12.2019
5519 Rain 7 1013 87 10000 3.6 260 07:23 25.12.2019
5520 Clouds 7 1013 87 10000 3.1 240 06:47 25.12.2019
5521 Rain 7 1013 87 10000 3.6 240 06:22 25.12.2019
5522 Clouds 7 1013 81 10000 5.1 260 04:50 25.12.2019
5523 Rain 7 1013 81 10000 5.1 260 04:26 25.12.2019
5524 Clouds 7 1013 81 10000 5.7 250 03:58 25.12.2019
5525 Clouds 7 1013 81 10000 5.7 250 03:39 25.12.2019
5526 Clouds 7 1013 81 10000 7.2 260 02:39 25.12.2019
5527 Rain 7 1013 81 10000 7.2 260 01:58 25.12.2019
5528 Rain 7 1013 81 10000 5.7 260 01:25 25.12.2019
5529 Clouds 7 1013 81 10000 6.2 260 00:48 25.12.2019
5530 Rain 7 1013 81 10000 6.2 260 00:28 25.12.2019
5531 Clouds 7 1012 81 10000 6.7 250 23:55 24.12.2019
5532 Clouds 6 1012 81 10000 6.7 250 23:37 24.12.2019
5533 Rain 7 1012 87 10000 5.7 250 23:19 24.12.2019
5534 Rain 7 1012 81 10000 6.2 260 22:39 24.12.2019
5535 Rain 7 1012 75 10000 4.1 240 22:20 24.12.2019
5536 Rain 7 1012 81 10000 4.1 230 21:42 24.12.2019
5537 Clouds 7 1012 81 10000 4.1 230 21:22 24.12.2019
5538 Clouds 7 1012 81 10000 4.1 230 21:22 24.12.2019
5539 Rain 7 1012 81 10000 3.6 240 20:45 24.12.2019
5540 Rain 6 1012 81 10000 4.1 240 20:24 24.12.2019
5541 Rain 6 1012 81 10000 4.1 240 19:57 24.12.2019
5542 Rain 6 1012 81 10000 3.6 240 19:39 24.12.2019
5543 Rain 6 1011 87 10000 3.6 240 19:18 24.12.2019
5544 Clouds 6 1011 81 10000 4.6 250 18:42 24.12.2019
5545 Clouds 6 1011 81 10000 4.6 240 18:20 24.12.2019
5546 Clouds 6 1011 87 10000 4.1 240 17:50 24.12.2019
5547 Rain 5 1011 87 10000 4.1 250 17:24 24.12.2019
5548 Rain 6 1011 87 10000 5.1 260 16:59 24.12.2019
5549 Rain 6 1011 87 10000 5.1 260 16:41 24.12.2019
5550 Drizzle 5 1011 93 10000 3.1 220 16:23 24.12.2019
5551 Drizzle 5 1011 93 10000 3.1 220 16:23 24.12.2019
5552 -273 0 0 0 0 0 16:22 24.12.2019
5553 Drizzle 5 1011 93 10000 3.1 220 15:58 24.12.2019
5554 Drizzle 5 1010 93 4500 4.6 160 15:39 24.12.2019
5555 Rain 5 1010 93 10000 2.6 140 15:20 24.12.2019
5556 Rain 5 1011 93 8000 2.6 180 14:59 24.12.2019
5557 Rain 5 1010 93 10000 2.6 140 14:59 24.12.2019
5558 Rain 5 1011 93 8000 2.6 180 14:41 24.12.2019
5559 Rain 5 1010 86 10000 5.1 160 14:22 24.12.2019
5560 Rain 5 1010 86 10000 5.1 160 13:57 24.12.2019
5561 Rain 6 1010 81 10000 4.6 170 13:39 24.12.2019
5562 Rain 6 1012 75 10000 5.1 170 13:20 24.12.2019
5563 Rain 6 1012 75 10000 5.1 170 12:58 24.12.2019
5564 Rain 6 1012 75 10000 5.1 170 12:58 24.12.2019
5565 Clouds 6 1012 75 10000 5.1 170 12:38 24.12.2019
5566 Clouds 6 1013 75 10000 5.1 180 12:19 24.12.2019
5567 Clouds 6 1013 75 10000 5.1 180 11:58 24.12.2019
5568 Clouds 6 1013 81 10000 4.1 160 11:38 24.12.2019
5569 Clouds 6 1014 81 10000 4.6 160 11:20 24.12.2019
5570 Clouds 6 1014 81 10000 4.6 160 10:57 24.12.2019
5571 Clouds 5 1015 81 10000 4.1 170 10:38 24.12.2019
5572 Clouds 5 1016 86 10000 4.1 170 10:20 24.12.2019
5573 Clouds 5 1016 86 10000 4.1 170 09:59 24.12.2019
5574 Clouds 5 1016 86 10000 3.1 170 09:41 24.12.2019
5575 Clouds 4 1016 86 10000 3.1 180 09:22 24.12.2019
5576 Clouds 4 1016 86 10000 3.1 180 08:56 24.12.2019
5577 Clouds 4 1017 86 10000 3.1 170 08:37 24.12.2019
5578 Clouds 4 1017 86 10000 3.1 180 08:18 24.12.2019
5579 Clouds 4 1017 86 10000 2.6 190 07:43 24.12.2019
5580 Clouds 5 1017 86 10000 2.1 200 07:21 24.12.2019
5581 Clouds 5 1017 86 10000 1.5 210 06:41 24.12.2019
5582 Clouds 5 1017 86 10000 2.6 170 06:22 24.12.2019
5583 Rain 5 1017 86 10000 2.1 230 05:55 24.12.2019
5584 Clouds 5 1018 80 10000 4.1 310 05:19 24.12.2019
5585 Rain 5 1018 86 10000 3.1 250 04:21 24.12.2019
5586 Rain 5 1016 100 10000 4.1 260 03:48 24.12.2019
5587 Clouds 5 1017 81 10000 5.1 250 02:29 24.12.2019
5588 Rain 6 1016 81 10000 6.2 260 01:57 24.12.2019
5589 Rain 6 1016 81 10000 6.2 260 01:26 24.12.2019
5590 Clouds 6 1016 81 10000 5.1 260 00:58 24.12.2019
5591 Clouds 6 1016 81 10000 4.1 260 00:39 24.12.2019
5592 Clouds 6 1016 81 10000 4.6 260 00:20 24.12.2019
5593 Clouds 6 1015 81 10000 5.1 260 23:43 23.12.2019
5594 Clouds 6 1015 87 10000 5.7 260 23:24 23.12.2019
5595 Clouds 6 1015 87 10000 5.7 260 23:24 23.12.2019
5596 Clouds 6 1015 87 10000 5.7 260 22:57 23.12.2019
5597 Clouds 6 1015 75 10000 5.7 270 22:38 23.12.2019
5598 Rain 6 1014 81 10000 6.7 270 22:20 23.12.2019
5599 Clouds 6 1014 81 10000 6.7 270 21:56 23.12.2019
5600 Clouds 6 1014 81 10000 5.7 260 21:37 23.12.2019
5601 Clouds 6 1013 81 10000 5.7 270 21:19 23.12.2019
5602 Clouds 6 1013 81 10000 5.7 270 20:59 23.12.2019
5603 Clouds 6 1013 87 10000 4.1 260 20:40 23.12.2019
5604 Rain 6 1013 87 10000 4.1 260 20:19 23.12.2019
5605 Rain 5 1013 87 10000 4.1 260 19:58 23.12.2019
5606 Rain 6 1013 87 10000 4.1 260 19:39 23.12.2019
5607 Rain 5 1012 81 10000 5.1 250 19:21 23.12.2019
5608 Clouds 6 1012 81 10000 5.1 250 18:58 23.12.2019
5609 Clouds 6 1012 81 10000 4.1 250 18:39 23.12.2019
5610 Rain 5 1012 100 10000 3.6 250 18:20 23.12.2019
5611 Clouds 5 1011 81 10000 3.1 270 17:58 23.12.2019
5612 Clouds 5 1011 81 10000 3.1 270 17:40 23.12.2019
5613 Clouds 5 1011 81 10000 4.6 260 17:19 23.12.2019
5614 Clouds 6 1011 81 10000 4.6 260 16:57 23.12.2019
5615 Clouds 6 1010 81 10000 4.1 260 16:39 23.12.2019
5616 Rain 6 1010 81 10000 4.6 260 16:18 23.12.2019
5617 Clouds 6 1010 81 10000 4.6 260 15:57 23.12.2019
5618 Drizzle 6 1009 87 10000 4.6 280 15:37 23.12.2019
5619 Drizzle 7 1009 81 10000 3.6 280 15:18 23.12.2019
5620 Drizzle 7 1008 81 10000 5.7 280 14:56 23.12.2019
5621 Drizzle 7 1008 81 10000 5.7 280 14:37 23.12.2019
5622 Clouds 7 1008 81 10000 6.2 270 14:18 23.12.2019
5623 Clouds 7 1007 81 10000 6.2 280 13:55 23.12.2019
5624 Clouds 7 1007 81 10000 6.2 280 13:37 23.12.2019
5625 Drizzle 6 1007 87 10000 6.2 270 13:19 23.12.2019
5626 Drizzle 7 1007 93 10000 4.6 270 12:41 23.12.2019
5627 Drizzle 6 1006 87 10000 5.7 260 12:21 23.12.2019
5628 Drizzle 6 1006 87 10000 5.7 260 11:59 23.12.2019
5629 Clouds 6 1006 81 10000 5.7 260 11:59 23.12.2019
5630 Rain 6 1006 81 10000 5.7 260 11:41 23.12.2019
5631 Rain 6 1006 87 10000 4.1 250 11:22 23.12.2019
5632 Clouds 6 1006 81 10000 5.1 250 10:55 23.12.2019
5633 Clouds 6 1006 81 10000 5.1 250 10:37 23.12.2019
5634 Clouds 6 1006 81 10000 5.1 250 10:37 23.12.2019
5635 Clouds 6 1005 87 10000 2.6 220 10:18 23.12.2019
5636 Drizzle 6 1005 87 10000 3.6 250 09:54 23.12.2019
5637 Drizzle 6 1005 87 10000 3.6 250 09:36 23.12.2019
5638 Clouds 6 1004 87 10000 4.1 250 09:18 23.12.2019
5639 Drizzle 6 1004 87 10000 4.6 250 08:41 23.12.2019
5640 Rain 6 1003 81 10000 4.6 250 08:22 23.12.2019
5641 Clouds 5 1003 81 10000 4.1 250 07:56 23.12.2019
5642 Clouds 5 1003 81 10000 4.1 250 07:37 23.12.2019
5643 Rain 6 1003 81 10000 4.1 260 07:18 23.12.2019
5644 Drizzle 5 1002 87 10000 4.6 260 06:39 23.12.2019
5645 Clouds 5 1002 86 10000 3.6 260 06:21 23.12.2019
5646 Clouds 5 1001 81 10000 3.6 260 05:44 23.12.2019
5647 Clouds 5 1000 81 10000 5.7 260 04:40 23.12.2019
5648 Clouds 6 999 81 10000 5.1 260 03:58 23.12.2019
5649 Clouds 6 998 75 10000 6.7 260 02:46 23.12.2019
5650 Rain 6 997 81 10000 6.7 260 02:19 23.12.2019
5651 Clouds 6 997 75 10000 7.7 260 01:46 23.12.2019
5652 Clouds 6 997 75 10000 7.7 260 01:27 23.12.2019
5653 Rain 6 996 75 10000 6.7 250 00:46 23.12.2019
5654 Rain 6 995 75 10000 8.2 250 00:25 23.12.2019
5655 Rain 6 995 75 10000 6.2 250 23:56 22.12.2019
5656 Rain 6 995 75 10000 6.2 250 23:37 22.12.2019
5657 Rain 6 995 81 10000 6.7 260 23:19 22.12.2019
5658 Rain 6 994 81 10000 6.2 250 22:42 22.12.2019
5659 Rain 6 994 81 10000 6.2 250 22:42 22.12.2019
5660 Rain 6 994 81 10000 7.2 250 22:23 22.12.2019
5661 Rain 7 994 81 10000 7.2 250 21:59 22.12.2019
5662 Clouds 7 994 75 10000 5.7 240 21:41 22.12.2019
5663 Clouds 7 993 81 10000 5.1 230 21:22 22.12.2019
5664 Clouds 7 993 81 10000 5.1 230 20:59 22.12.2019
5665 Clouds 7 993 75 10000 6.2 240 20:40 22.12.2019
5666 Rain 7 993 75 10000 7.7 250 20:19 22.12.2019
5667 Rain 7 993 75 10000 7.7 250 19:57 22.12.2019
5668 Rain 7 992 75 10000 5.7 250 19:39 22.12.2019
5669 Clouds 7 992 87 10000 5.1 240 19:20 22.12.2019
5670 Drizzle 7 991 93 10000 5.1 230 18:43 22.12.2019
5671 Drizzle 7 991 93 8000 3.1 200 18:25 22.12.2019
5672 Drizzle 6 991 93 10000 2.6 120 17:57 22.12.2019
5673 Drizzle 6 991 93 10000 2.6 120 17:57 22.12.2019
5674 Drizzle 6 991 93 10000 2.6 120 17:39 22.12.2019
5675 Drizzle 6 990 93 10000 3.1 110 17:19 22.12.2019
5676 Drizzle 6 990 93 10000 3.1 110 16:59 22.12.2019
5677 Clouds 6 990 93 10000 2.6 120 16:41 22.12.2019
5678 Clouds 6 989 93 10000 2.6 110 16:22 22.12.2019
5679 Clouds 6 989 93 10000 2.6 110 15:57 22.12.2019
5680 Drizzle 6 989 87 10000 2.1 120 15:39 22.12.2019
5681 Drizzle 6 989 87 10000 3.1 140 15:20 22.12.2019
5682 Drizzle 6 989 87 10000 3.1 140 14:56 22.12.2019
5683 Rain 6 989 81 10000 2.6 120 14:38 22.12.2019
5684 Clouds 6 989 81 10000 3.6 140 14:18 22.12.2019
5685 Clouds 6 989 87 10000 4.1 130 13:55 22.12.2019
5686 Clouds 6 989 87 10000 4.1 130 13:37 22.12.2019
5687 Clouds 6 989 87 10000 3.6 130 13:19 22.12.2019
5688 Clouds 6 989 87 10000 3.6 130 12:56 22.12.2019
5689 Clouds 6 989 81 10000 4.1 130 12:37 22.12.2019
5690 Clouds 5 989 81 10000 4.1 140 12:19 22.12.2019
5691 Clouds 5 989 86 10000 4.6 120 11:56 22.12.2019
5692 Clouds 5 989 86 10000 4.6 120 11:38 22.12.2019
5693 Clouds 5 989 86 10000 4.6 120 11:19 22.12.2019
5694 Clouds 5 989 86 10000 4.1 120 10:55 22.12.2019
5695 Clouds 5 989 86 10000 4.1 120 10:37 22.12.2019
5696 Clouds 4 989 93 10000 4.1 120 10:18 22.12.2019
5697 Clouds 4 989 93 10000 4.1 120 09:57 22.12.2019
5698 Clouds 4 989 93 10000 4.1 120 09:38 22.12.2019
5699 Clouds 4 988 93 10000 4.1 120 09:20 22.12.2019
5700 Clouds 4 988 86 10000 4.1 130 08:42 22.12.2019
5701 Rain 4 988 93 10000 4.1 110 08:21 22.12.2019
5702 Clouds 4 988 93 10000 4.1 120 07:42 22.12.2019
5703 Clouds 4 988 93 10000 4.1 120 07:21 22.12.2019
5704 Clouds 4 988 93 10000 4.1 120 06:52 22.12.2019
5705 Clouds 4 988 93 10000 4.1 120 06:22 22.12.2019
5706 Rain 4 988 93 10000 3.6 120 05:29 22.12.2019
5707 Clouds 3 988 100 8000 4.1 130 04:46 22.12.2019
5708 Rain 4 988 93 7000 2.6 120 04:24 22.12.2019
5709 Mist 4 990 93 4500 2.6 150 02:43 22.12.2019
5710 Mist 4 990 93 4500 2.6 150 02:43 22.12.2019
5711 Mist 4 990 93 4500 2.6 150 02:43 22.12.2019
5712 Mist 3 990 93 4300 3.1 140 01:59 22.12.2019
5713 Mist 3 989 100 4000 3.1 130 01:31 22.12.2019
5714 Fog 3 990 93 1000 3.6 120 00:48 22.12.2019
5715 Fog 3 990 93 1000 3.6 120 00:29 22.12.2019
5716 Rain 3 990 100 1800 4.6 130 23:59 21.12.2019
5717 Rain 3 990 100 6000 1.5 120 23:40 21.12.2019
5718 Clear 3 991 92 7000 3.6 110 23:20 21.12.2019
5719 Clear 3 990 92 7000 4.1 100 22:47 21.12.2019
5720 Clear 3 991 93 8000 4.1 100 22:20 21.12.2019
5721 Mist 3 992 93 1400 2.69 141 21:58 21.12.2019
5722 Mist 3 992 93 1400 2.69 141 21:40 21.12.2019
5723 Clouds 3 991 93 8000 3.6 90 21:21 21.12.2019
5724 Clouds 3 991 93 8000 3.6 90 20:59 21.12.2019
5725 Clouds 3 992 93 9000 2.6 160 20:41 21.12.2019
5726 Clouds 3 993 100 10000 3.6 120 20:22 21.12.2019
5727 Clouds 3 993 100 10000 3.6 120 20:22 21.12.2019
5728 Clouds 2 993 100 10000 3.6 120 19:58 21.12.2019
5729 Clouds 2 993 100 10000 3.1 120 19:40 21.12.2019
5730 Clouds 2 993 93 10000 3.6 110 19:20 21.12.2019
5731 Clouds 3 993 100 10000 2.6 110 18:56 21.12.2019
5732 Clouds 3 993 100 10000 2.6 110 18:37 21.12.2019
5733 Clouds 3 993 93 10000 3.6 110 18:19 21.12.2019
5734 Clouds 4 993 93 10000 2.6 120 17:55 21.12.2019
5735 Clouds 4 993 93 10000 2.6 120 17:55 21.12.2019
5736 Clouds 4 993 93 10000 2.6 120 17:55 21.12.2019
5737 Clouds 4 993 93 10000 2.6 120 17:37 21.12.2019
5738 Clouds 4 994 86 10000 1.5 130 17:18 21.12.2019
5739 Clouds 4 994 86 10000 1.5 130 17:18 21.12.2019
5740 Clouds 5 994 86 10000 2.6 130 16:41 21.12.2019
5741 Clouds 5 994 100 10000 3.1 170 16:19 21.12.2019
5742 Clouds 6 994 81 10000 3.1 150 15:58 21.12.2019
5743 Clouds 6 994 81 10000 3.1 150 15:39 21.12.2019
5744 Clouds 6 994 87 10000 3.1 140 15:20 21.12.2019
5745 Clouds 6 994 87 10000 3.1 140 14:57 21.12.2019
5746 Clouds 6 995 87 10000 3.6 130 14:39 21.12.2019
5747 Clouds 6 995 87 10000 3.6 130 14:39 21.12.2019
5748 Clouds 6 995 81 10000 3.6 130 14:20 21.12.2019
5749 Clouds 6 995 81 10000 3.6 130 13:56 21.12.2019
5750 Clouds 5 995 87 10000 2.6 140 13:38 21.12.2019
5751 Clouds 5 995 93 10000 3.1 130 13:18 21.12.2019
5752 Clouds 5 995 93 10000 3.1 130 12:55 21.12.2019
5753 Clouds 5 996 87 10000 3.6 120 12:37 21.12.2019
5754 Clouds 5 996 93 10000 2.6 140 12:18 21.12.2019
5755 Clouds 5 996 93 10000 1 0 11:44 21.12.2019
5756 Clouds 4 996 93 10000 1 0 11:26 21.12.2019
5757 Clouds 4 996 100 10000 1.5 100 10:57 21.12.2019
5758 Clouds 4 996 100 10000 1.5 100 10:57 21.12.2019
5759 Clouds 4 996 93 9000 2.6 100 10:38 21.12.2019
5760 Clouds 4 997 100 9000 3.1 120 10:20 21.12.2019
5761 Clouds 3 997 100 10000 3.1 120 09:44 21.12.2019
5762 Fog 3 997 100 7000 2.6 110 09:22 21.12.2019
5763 Fog 3 997 100 7000 2.6 110 08:59 21.12.2019
5764 Fog 3 997 100 6000 2.1 120 08:39 21.12.2019
5765 Mist 2 996 100 3000 3.6 110 08:21 21.12.2019
5766 Clouds 3 996 93 8000 2.6 100 07:44 21.12.2019
5767 Clouds 3 996 93 6000 4.1 110 07:22 21.12.2019
5768 Clouds 3 996 100 10000 3.6 100 06:45 21.12.2019
5769 Clouds 4 996 93 10000 2.6 90 06:26 21.12.2019
5770 Clouds 4 997 93 10000 2.6 160 05:51 21.12.2019
5771 Clouds 5 997 93 10000 2.6 170 04:58 21.12.2019
5772 Clouds 6 997 93 10000 3.1 170 03:57 21.12.2019
5773 Clouds 6 997 87 10000 2.6 190 02:53 21.12.2019
5774 Clouds 7 997 87 10000 2.6 200 01:59 21.12.2019
5775 Rain 7 996 93 10000 2.6 180 01:28 21.12.2019
5776 Rain 7 995 93 10000 2.6 170 00:55 21.12.2019
5777 Rain 7 995 93 10000 2.6 170 00:37 21.12.2019
5778 Rain 7 995 93 10000 2.6 180 00:18 21.12.2019
5779 Rain 7 995 93 10000 1.5 220 23:38 20.12.2019
5780 Rain 7 994 87 10000 1 0 23:19 20.12.2019
5781 Rain 8 994 81 10000 1.5 240 22:41 20.12.2019
5782 Clouds 7 994 81 10000 1.5 170 22:21 20.12.2019
5783 Clouds 7 994 81 10000 1.5 170 21:59 20.12.2019
5784 Rain 7 993 81 10000 1 0 21:40 20.12.2019
5785 Rain 7 993 81 10000 1.5 250 21:20 20.12.2019
5786 Rain 7 993 81 10000 1.5 250 21:20 20.12.2019
5787 Rain 7 993 87 10000 2.1 260 20:41 20.12.2019
5788 Clouds 7 993 87 10000 3.1 260 20:21 20.12.2019
5789 Clouds 7 993 87 10000 3.1 260 19:59 20.12.2019
5790 Clouds 7 992 81 10000 3.6 260 19:40 20.12.2019
5791 Clouds 7 991 81 10000 2.6 0 19:20 20.12.2019
5792 Clouds 7 991 81 10000 2.6 0 18:54 20.12.2019
5793 Clouds 7 991 81 10000 2.6 0 18:54 20.12.2019
5794 Clouds 7 991 81 10000 2.6 0 18:54 20.12.2019
5795 Rain 7 991 87 10000 2.6 0 18:36 20.12.2019
5796 Rain 7 991 87 10000 2.6 0 18:36 20.12.2019
5797 Rain 7 991 87 10000 1.5 0 18:18 20.12.2019
5798 Rain 7 991 93 10000 1.5 70 17:42 20.12.2019
5799 Rain 7 991 93 10000 1.5 70 17:42 20.12.2019
5800 Rain 7 992 87 10000 1.5 100 17:21 20.12.2019
5801 Rain 7 992 87 10000 1.5 100 16:59 20.12.2019
5802 Rain 7 992 81 10000 0.5 0 16:40 20.12.2019
5803 Rain 7 992 81 10000 0.5 0 16:20 20.12.2019
5804 Rain 7 992 81 10000 0.5 0 16:20 20.12.2019
5805 Clouds 7 992 81 10000 0.5 0 15:57 20.12.2019
5806 Clouds 7 992 87 10000 1 0 15:38 20.12.2019
5807 Clouds 7 992 87 10000 1 0 15:19 20.12.2019
5808 Clouds 8 993 81 10000 1 0 14:57 20.12.2019
5809 Clouds 8 993 81 10000 0.5 0 14:39 20.12.2019
5810 Clouds 8 993 81 10000 0.5 0 14:20 20.12.2019
5811 Clouds 8 994 76 10000 1 0 13:41 20.12.2019
5812 Clouds 8 994 76 10000 1 0 13:21 20.12.2019
5813 Clouds 7 994 81 10000 0.5 0 12:59 20.12.2019
5814 Clouds 8 994 81 10000 0.5 0 12:40 20.12.2019
5815 Clouds 8 994 75 10000 2.6 170 12:19 20.12.2019
5816 Clouds 7 994 76 10000 3.1 130 11:59 20.12.2019
5817 Clouds 7 994 76 10000 3.1 130 11:39 20.12.2019
5818 Clouds 5 995 75 10000 2.6 150 11:20 20.12.2019
5819 Clouds 4 995 87 10000 5.1 100 10:58 20.12.2019
5820 Clouds 4 997 93 10000 1.5 120 10:40 20.12.2019
5821 Clouds 4 997 93 10000 1.5 120 10:20 20.12.2019
5822 Clouds 3 997 88 10000 1 0 09:55 20.12.2019
5823 Fog 3 997 88 10000 1 70 09:37 20.12.2019
5824 Fog 3 997 88 10000 1 70 09:19 20.12.2019
5825 Clouds 3 998 88 10000 1 0 08:42 20.12.2019
5826 Clear 2 998 93 10000 1 0 08:22 20.12.2019
5827 Clear 2 998 100 10000 1.5 150 07:58 20.12.2019
5828 Clear 2 998 100 10000 4.1 100 07:40 20.12.2019
5829 Clear 2 999 86 10000 3.6 110 07:19 20.12.2019
5830 Clear 1 999 86 10000 3.6 110 06:50 20.12.2019
5831 Clear 1 1000 93 10000 1.5 130 06:31 20.12.2019
5832 Clear 2 1001 93 10000 1.5 100 05:52 20.12.2019
5833 Fog 2 1001 93 10000 1.5 120 05:34 20.12.2019
5834 Fog 1 1003 91 10000 2.1 100 03:57 20.12.2019
5835 Fog 1 1004 100 10000 1.5 130 03:29 20.12.2019
5836 Fog 1 1005 100 10000 1 0 02:41 20.12.2019
5837 Fog 1 1005 90 10000 1.5 320 01:44 20.12.2019
5838 Fog 1 1005 90 10000 1.5 320 01:44 20.12.2019
5839 Fog 1 1005 89 10000 0.5 0 01:18 20.12.2019
5840 Fog 2 1005 89 10000 1.5 150 00:41 20.12.2019
5841 Fog 2 1006 93 10000 2.1 100 00:19 20.12.2019
5842 Clouds 1 1006 89 10000 0.5 0 23:42 19.12.2019
5843 Fog 1 1007 100 10000 3.1 100 23:23 19.12.2019
5844 Fog 1 1008 88 10000 2.1 110 22:56 19.12.2019
5845 Clear 2 1008 93 10000 1.5 100 22:36 19.12.2019
5846 Clear 2 1008 93 10000 1.5 100 22:18 19.12.2019
5847 Clear 2 1010 100 10000 1 0 21:42 19.12.2019
5848 Clear 2 1009 93 10000 1 100 21:42 19.12.2019
5849 Clear 2 1010 100 10000 1 0 21:20 19.12.2019
5850 Clear 3 1010 86 10000 2.6 100 20:59 19.12.2019
5851 Clear 3 1010 93 10000 2.1 110 20:39 19.12.2019
5852 Clouds 3 1010 93 10000 2.1 110 20:21 19.12.2019
5853 Clouds 3 1011 93 10000 3.1 110 19:59 19.12.2019
5854 Clouds 3 1011 86 10000 3.6 100 19:40 19.12.2019
5855 Clouds 4 1011 86 10000 3.6 100 19:20 19.12.2019
5856 Clouds 4 1011 86 10000 2.6 100 19:00 19.12.2019
5857 Clouds 4 1011 86 10000 2.6 100 18:41 19.12.2019
5858 Clouds 4 1011 86 10000 2.6 100 18:20 19.12.2019
5859 Clouds 5 1011 86 10000 3.6 110 17:57 19.12.2019
5860 Clouds 5 1011 81 10000 5.1 90 17:38 19.12.2019
5861 Clouds 5 1011 81 10000 5.1 90 17:38 19.12.2019
5862 Clouds 5 1011 81 10000 5.1 90 17:38 19.12.2019
5863 Clouds 5 1011 81 10000 5.1 90 17:18 19.12.2019
5864 Clouds 6 1012 81 10000 3.6 90 16:57 19.12.2019
5865 Clouds 6 1012 75 10000 3.6 100 16:38 19.12.2019
5866 Clouds 7 1012 75 10000 3.6 100 16:20 19.12.2019
5867 Clouds 6 1012 75 10000 3.6 100 16:20 19.12.2019
5868 Clouds 6 1012 75 10000 3.6 100 16:20 19.12.2019
5869 Rain 7 1012 70 10000 3.6 90 15:58 19.12.2019
5870 Rain 8 1012 70 10000 3.6 90 15:38 19.12.2019
5871 Rain 8 1012 71 10000 3.6 90 15:19 19.12.2019
5872 Clouds 8 1012 76 10000 2.6 100 14:57 19.12.2019
5873 Clouds 8 1013 71 10000 2.6 120 14:39 19.12.2019
5874 Clouds 8 1013 71 10000 2.6 120 14:18 19.12.2019
5875 Clouds 7 1014 81 10000 5.1 100 13:39 19.12.2019
5876 Clouds 7 1014 81 10000 5.1 100 13:20 19.12.2019
5877 Clouds 7 1014 87 10000 1.5 20 12:59 19.12.2019
5878 Clouds 6 1014 87 10000 1.5 20 12:40 19.12.2019
5879 Clouds 6 1015 93 10000 0.5 0 12:19 19.12.2019
5880 Clouds 6 1015 93 10000 0.5 0 12:19 19.12.2019
5881 Clouds 5 1015 86 10000 1 0 11:59 19.12.2019
5882 Clouds 5 1015 93 10000 0.5 0 11:41 19.12.2019
5883 Clouds 3 1016 93 10000 0.5 0 11:19 19.12.2019
5884 Clouds 3 1016 93 10000 0.5 0 10:59 19.12.2019
5885 Fog 3 1016 88 10000 1 360 10:38 19.12.2019
5886 Fog 3 1016 88 10000 1 360 10:38 19.12.2019
5887 Fog 3 1016 88 10000 1 360 10:20 19.12.2019
5888 Fog 3 1016 88 10000 1 360 10:20 19.12.2019
5889 Fog 1 1017 88 10000 0.5 0 09:56 19.12.2019
5890 Fog 1 1017 88 8000 0.5 0 09:37 19.12.2019
5891 Fog 1 1017 88 8000 0.5 0 09:19 19.12.2019
5892 Fog 1 1017 88 8000 0.5 310 08:55 19.12.2019
5893 Fog 1 1017 88 8000 1 360 08:37 19.12.2019
5894 Fog 1 1017 91 8000 1 360 08:18 19.12.2019
5895 Mist 1 1017 91 5000 0.5 0 07:43 19.12.2019
5896 Mist 1 1017 91 5000 0.5 0 07:24 19.12.2019
5897 Fog 1 1017 91 2500 1.5 120 06:59 19.12.2019
5898 Fog 0 1017 91 2500 1 120 06:41 19.12.2019
5899 Fog 1 1017 91 2500 1 120 06:21 19.12.2019
5900 Fog 0 1018 91 8000 0.5 360 05:42 19.12.2019
5901 Fog 1 1018 91 8000 0.5 360 05:19 19.12.2019
5902 Fog 1 1018 91 5000 1.36 91 03:53 19.12.2019
5903 Fog 2 1019 100 2500 0.5 70 02:28 19.12.2019
5904 Fog 2 1019 93 9000 1.5 350 01:25 19.12.2019
5905 Fog 3 1019 93 10000 0.5 0 00:57 19.12.2019
5906 Clouds 3 1019 100 10000 0.5 90 00:38 19.12.2019
5907 Clouds 3 1019 100 10000 0.5 90 00:19 19.12.2019
5908 Clouds 4 1019 93 10000 2.1 140 23:44 18.12.2019
5909 Fog 4 1020 100 10000 2.6 120 23:19 18.12.2019
5910 Clouds 4 1020 100 10000 2.1 140 22:56 18.12.2019
5911 Clouds 4 1020 100 10000 3.6 120 22:38 18.12.2019
5912 Clouds 4 1020 100 10000 3.6 120 22:20 18.12.2019
5913 Clouds 4 1020 93 10000 3.1 100 21:58 18.12.2019
5914 Clouds 4 1020 93 10000 3.1 100 21:39 18.12.2019
5915 Clouds 4 1021 100 10000 2.1 100 21:39 18.12.2019
5916 Clouds 4 1021 100 10000 2.1 100 21:39 18.12.2019
5917 Clouds 4 1021 100 10000 2.1 100 21:20 18.12.2019
5918 Fog 4 1021 100 10000 1.5 110 20:56 18.12.2019
5919 Fog 4 1020 100 10000 2.1 110 20:38 18.12.2019
5920 Fog 5 1020 100 10000 2.1 110 20:19 18.12.2019
5921 Fog 5 1020 100 10000 2.1 100 19:56 18.12.2019
5922 Fog 4 1020 87 10000 3.1 90 19:37 18.12.2019
5923 Fog 5 1020 87 10000 3.1 90 19:18 18.12.2019
5924 Fog 5 1020 93 10000 3.1 100 18:45 18.12.2019
5925 Fog 5 1020 93 10000 3.1 100 18:45 18.12.2019
5926 Fog 5 1020 100 10000 3.1 120 18:26 18.12.2019
5927 Fog 7 1020 93 10000 1 0 17:58 18.12.2019
5928 Clouds 7 1020 93 10000 1.5 20 17:40 18.12.2019
5929 Clouds 7 1020 93 10000 1.5 20 17:20 18.12.2019
5930 Clouds 7 1020 93 10000 1.5 20 17:20 18.12.2019
5931 Clouds 9 1019 81 10000 1 40 16:58 18.12.2019
5932 Clouds 9 1019 81 10000 1 40 16:40 18.12.2019
5933 Clear 9 1019 100 10000 1.5 130 16:22 18.12.2019
5934 Clouds 10 1019 76 10000 0.5 70 15:57 18.12.2019
5935 Clouds 10 1019 76 10000 1 0 15:38 18.12.2019
5936 Clouds 10 1019 76 10000 1.5 120 15:20 18.12.2019
5937 Clouds 10 1019 76 10000 1.5 110 14:43 18.12.2019
5938 Clouds 10 1019 76 10000 1 110 14:22 18.12.2019
5939 Clouds 10 1019 87 10000 1 0 13:58 18.12.2019
5940 Clouds 9 1019 87 10000 1 0 13:40 18.12.2019
5941 Rain 9 1019 81 10000 1 0 13:21 18.12.2019
5942 Rain 9 1019 81 10000 1 0 12:59 18.12.2019
5943 Clouds 9 1019 81 10000 1 0 12:40 18.12.2019
5944 Clouds 9 1019 81 10000 1 0 12:40 18.12.2019
5945 Rain 9 1019 76 10000 1 0 12:21 18.12.2019
5946 Rain 8 1019 76 10000 1 0 11:57 18.12.2019
5947 Rain 8 1018 81 10000 2.1 120 11:39 18.12.2019
5948 Rain 8 1018 81 10000 0.5 0 11:20 18.12.2019
5949 Rain 7 1018 81 10000 2.1 140 10:57 18.12.2019
5950 Rain 7 1018 81 10000 2.1 140 10:39 18.12.2019
5951 Rain 7 1018 81 10000 3.1 110 10:20 18.12.2019
5952 Rain 7 1018 81 10000 2.6 130 09:57 18.12.2019
5953 Rain 7 1017 81 10000 2.1 140 09:19 18.12.2019
5954 Rain 6 1017 87 10000 3.1 120 08:42 18.12.2019
5955 Clouds 5 1016 87 10000 3.1 120 08:24 18.12.2019
5956 Clouds 5 1016 81 10000 1.5 130 07:55 18.12.2019
5957 Clouds 5 1016 81 10000 1.5 130 07:37 18.12.2019
5958 Clouds 5 1015 81 10000 2.1 120 07:19 18.12.2019
5959 Clouds 4 1015 81 10000 2.6 130 06:50 18.12.2019
5960 Clouds 4 1015 86 10000 3.1 120 06:22 18.12.2019
5961 Clouds 4 1014 86 10000 3.6 110 05:27 18.12.2019
5962 Clouds 3 1013 86 10000 4.1 110 03:31 18.12.2019
5963 Clouds 3 1013 86 10000 2.6 120 02:41 18.12.2019
5964 Clouds 4 1012 80 10000 1 0 02:23 18.12.2019
5965 Clouds 4 1011 93 10000 2.6 110 01:42 18.12.2019
5966 Clouds 4 1011 86 10000 1.5 120 01:24 18.12.2019
5967 Clouds 4 1010 86 10000 3.1 120 00:42 18.12.2019
5968 Clouds 4 1010 86 10000 1.5 140 00:24 18.12.2019
5969 Clouds 4 1010 86 10000 1.5 140 00:24 18.12.2019
5970 Clouds 4 1010 86 10000 1.5 140 23:58 17.12.2019
5971 Clouds 4 1010 86 10000 3.1 120 23:39 17.12.2019
5972 Clouds 4 1010 93 10000 2.6 130 23:20 17.12.2019
5973 Clouds 4 1010 86 10000 1.5 130 22:56 17.12.2019
5974 Clouds 5 1010 86 10000 1.5 130 22:38 17.12.2019
5975 Clouds 4 1010 93 10000 3.1 110 22:19 17.12.2019
5976 Clouds 4 1010 93 10000 3.1 110 21:56 17.12.2019
5977 Clouds 4 1010 93 10000 3.1 110 21:56 17.12.2019
5978 Clouds 4 1009 93 10000 2.6 110 21:38 17.12.2019
5979 Clouds 4 1010 93 10000 1.5 120 21:19 17.12.2019
5980 Clouds 4 1010 93 10000 1.5 120 20:57 17.12.2019
5981 Clouds 4 1010 93 10000 0.5 0 20:38 17.12.2019
5982 Clouds 4 1009 86 10000 0.5 0 20:18 17.12.2019
5983 Clouds 5 1010 93 10000 1 0 19:56 17.12.2019
5984 Clouds 5 1010 93 10000 1 0 19:38 17.12.2019
5985 Clouds 5 1009 93 10000 0.5 0 19:18 17.12.2019
5986 Clouds 5 1009 93 10000 0.5 0 18:54 17.12.2019
5987 Clouds 5 1010 87 10000 2.1 100 18:36 17.12.2019
5988 Clouds 5 1010 81 10000 2.6 110 18:18 17.12.2019
5989 Clouds 6 1009 81 10000 1 100 17:42 17.12.2019
5990 Clouds 7 1009 81 10000 0.5 0 17:20 17.12.2019
5991 Clouds 7 1009 76 10000 1.5 80 16:56 17.12.2019
5992 Clouds 7 1009 76 10000 1.5 80 16:38 17.12.2019
5993 Clouds 8 1009 71 10000 2.1 90 16:19 17.12.2019
5994 Clouds 8 1009 71 10000 2.1 90 15:58 17.12.2019
5995 Clouds 9 1009 71 10000 2.6 110 15:37 17.12.2019
5996 Clouds 9 1009 71 10000 3.1 120 15:19 17.12.2019
5997 Clear 9 1008 81 10000 3.6 130 14:55 17.12.2019
5998 Clear 9 1008 81 10000 3.6 130 14:55 17.12.2019
5999 Clear 9 1008 81 10000 3.6 130 14:37 17.12.2019
6000 Clouds 9 1009 66 10000 2.1 130 14:18 17.12.2019
6001 Clouds 9 1009 66 10000 2.1 130 14:18 17.12.2019
6002 Clouds 10 1009 62 10000 2.6 130 13:55 17.12.2019
6003 Clouds 10 1009 62 10000 2.6 130 13:37 17.12.2019
6004 Clouds 10 1009 62 10000 3.1 120 13:18 17.12.2019
6005 Clouds 9 1009 66 10000 3.6 130 12:41 17.12.2019
6006 Clouds 8 1009 70 10000 4.1 120 12:19 17.12.2019
6007 Clouds 7 1009 70 10000 4.1 120 11:59 17.12.2019
6008 Clouds 6 1009 75 10000 3.1 130 11:38 17.12.2019
6009 Clouds 5 1009 86 10000 3.1 110 11:19 17.12.2019
6010 Clouds 5 1009 86 10000 3.1 110 11:19 17.12.2019
6011 Clouds 4 1009 86 10000 3.1 110 10:59 17.12.2019
6012 Clouds 3 1010 86 10000 1.5 100 10:59 17.12.2019
6013 Clouds 2 1010 86 10000 1.5 100 10:41 17.12.2019
6014 Clouds 2 1009 93 10000 3.6 110 10:23 17.12.2019
6015 Clouds 2 1009 93 10000 3.6 110 09:59 17.12.2019
6016 Clouds 2 1009 93 10000 2.6 110 09:41 17.12.2019
6017 Clouds 1 1008 84 10000 2.6 110 09:20 17.12.2019
6018 Clouds 1 1008 84 10000 2.6 110 08:56 17.12.2019
6019 Clouds 2 1008 84 10000 0.5 0 08:38 17.12.2019
6020 Clouds 2 1008 84 10000 0.5 0 08:38 17.12.2019
6021 Clouds 2 1008 86 10000 1 360 08:20 17.12.2019
6022 Clouds 2 1007 93 10000 1 0 07:54 17.12.2019
6023 Clouds 2 1007 93 10000 1 0 07:36 17.12.2019
6024 Clouds 2 1007 93 10000 0.5 0 07:18 17.12.2019
6025 Clouds 2 1007 93 10000 0.5 20 06:35 17.12.2019
6026 Clouds 3 1006 86 10000 1 0 05:56 17.12.2019
6027 Clouds 4 1006 86 10000 1 0 05:36 17.12.2019
6028 Clouds 4 1006 86 10000 2.6 160 04:33 17.12.2019
6029 Clouds 3 1007 86 10000 3.6 100 02:45 17.12.2019
6030 Clouds 3 1006 93 10000 5.1 110 01:56 17.12.2019
6031 Clouds 3 1007 93 10000 1.5 130 01:18 17.12.2019
6032 Clouds 3 1007 87 10000 2.1 90 00:38 17.12.2019
6033 Clouds 3 1007 87 10000 2.1 90 00:38 17.12.2019
6034 Clouds 3 1007 87 10000 2.1 90 00:38 17.12.2019
6035 Clouds 3 1007 87 10000 2.1 90 00:38 17.12.2019
6036 Clouds 3 1008 86 10000 1.5 120 00:20 17.12.2019
6037 Clouds 3 1008 86 10000 2.1 110 23:42 16.12.2019
6038 Clouds 3 1008 86 10000 1.5 90 23:19 16.12.2019
6039 Clouds 3 1008 86 10000 2.6 100 22:58 16.12.2019
6040 Clouds 3 1008 86 10000 2.6 100 22:37 16.12.2019
6041 Clouds 3 1008 86 10000 2.6 120 22:19 16.12.2019
6042 Clouds 3 1008 86 10000 2.6 120 22:19 16.12.2019
6043 Clouds 3 1008 86 10000 2.6 120 22:19 16.12.2019
6044 Clouds 3 1008 93 10000 2.6 110 21:55 16.12.2019
6045 Clouds 4 1008 93 10000 2.6 110 21:37 16.12.2019
6046 Clouds 4 1009 86 10000 3.1 120 21:19 16.12.2019
6047 Clouds 4 1009 93 10000 3.6 130 20:57 16.12.2019
6048 Clouds 5 1009 93 10000 3.6 130 20:37 16.12.2019
6049 Clouds 5 1009 93 10000 3.1 120 20:19 16.12.2019
6050 Clouds 5 1009 93 10000 3.6 120 19:56 16.12.2019
6051 Clouds 5 1009 93 10000 3.6 120 19:56 16.12.2019
6052 Clouds 5 1009 93 10000 3.6 120 19:37 16.12.2019
6053 Clouds 5 1009 86 10000 3.1 120 19:18 16.12.2019
6054 Clouds 6 1009 86 10000 3.1 130 18:56 16.12.2019
6055 Clouds 6 1009 86 10000 3.1 130 18:38 16.12.2019
6056 Clouds 6 1009 81 10000 3.6 130 18:19 16.12.2019
6057 Clouds 6 1009 81 10000 3.6 130 17:57 16.12.2019
6058 Clouds 6 1009 81 10000 3.6 130 17:38 16.12.2019
6059 Clouds 7 1009 81 10000 3.1 130 17:19 16.12.2019
6060 Clouds 7 1009 81 10000 3.6 140 16:55 16.12.2019
6061 Clouds 8 1009 81 10000 3.6 140 16:37 16.12.2019
6062 Clouds 8 1009 75 10000 3.6 140 16:19 16.12.2019
6063 Clouds 8 1009 75 10000 3.6 140 15:57 16.12.2019
6064 Clouds 9 1009 70 10000 4.1 140 15:38 16.12.2019
6065 Clouds 10 1009 66 10000 4.6 120 15:20 16.12.2019
6066 Clouds 11 1009 62 10000 4.1 130 14:55 16.12.2019
6067 Clouds 11 1009 62 10000 4.1 130 14:36 16.12.2019
6068 Clouds 11 1009 62 10000 3.6 130 14:18 16.12.2019
6069 Clouds 11 1009 62 10000 3.6 130 13:55 16.12.2019
6070 Clouds 11 1009 62 10000 4.1 120 13:37 16.12.2019
6071 Clouds 10 1010 62 10000 4.6 120 13:19 16.12.2019
6072 Clouds 10 1010 66 10000 4.1 120 12:54 16.12.2019
6073 Clouds 10 1010 66 10000 4.1 120 12:54 16.12.2019
6074 Clouds 10 1010 66 10000 4.1 120 12:36 16.12.2019
6075 Clouds 10 1011 70 10000 3.6 140 12:18 16.12.2019
6076 Clouds 10 1011 70 10000 3.6 140 12:18 16.12.2019
6077 Clouds 9 1011 70 10000 3.1 130 11:55 16.12.2019
6078 Clouds 9 1011 70 10000 3.1 130 11:37 16.12.2019
6079 Clouds 8 1011 75 10000 3.6 140 11:19 16.12.2019
6080 Clouds 7 1012 75 10000 2.6 140 10:40 16.12.2019
6081 Clouds 7 1011 81 10000 2.6 120 10:21 16.12.2019
6082 Clouds 6 1011 87 10000 3.1 110 09:56 16.12.2019
6083 Clouds 6 1011 87 10000 3.1 110 09:38 16.12.2019
6084 Clouds 5 1011 93 10000 4.1 120 09:20 16.12.2019
6085 Clouds 6 1011 87 10000 4.1 120 08:40 16.12.2019
6086 Clouds 6 1011 87 10000 3.1 120 08:19 16.12.2019
6087 Clouds 6 1011 93 10000 4.1 130 07:51 16.12.2019
6088 Clouds 6 1011 93 10000 4.1 130 07:31 16.12.2019
6089 Clouds 6 1011 87 10000 3.6 130 06:49 16.12.2019
6090 Clouds 6 1011 87 10000 4.6 130 06:27 16.12.2019
6091 Clouds 7 1011 87 10000 3.6 120 05:58 16.12.2019
6092 Clouds 7 1011 87 10000 3.6 120 05:39 16.12.2019
6093 Clouds 6 1011 93 10000 3.6 120 05:21 16.12.2019
6094 Rain 6 1012 93 10000 3.1 130 02:59 16.12.2019
6095 Rain 6 1012 93 10000 3.1 100 01:45 16.12.2019
6096 Clouds 6 1012 93 10000 3.1 100 00:56 16.12.2019
6097 Clouds 6 1012 93 10000 3.1 100 00:38 16.12.2019
6098 Rain 6 1012 87 10000 2.1 140 00:18 16.12.2019
6099 Clouds 6 1012 87 10000 2.6 170 23:41 15.12.2019
6100 Rain 6 1012 87 10000 3.1 170 23:22 15.12.2019
6101 Rain 6 1012 87 10000 3.1 170 22:57 15.12.2019
6102 Rain 6 1012 87 10000 3.1 170 22:38 15.12.2019
6103 Rain 6 1012 87 10000 3.1 170 22:19 15.12.2019
6104 Rain 6 1012 87 10000 3.1 180 21:57 15.12.2019
6105 Rain 6 1012 87 10000 3.1 180 21:38 15.12.2019
6106 Rain 6 1011 87 10000 3.1 200 21:20 15.12.2019
6107 Rain 7 1011 87 10000 3.1 200 20:58 15.12.2019
6108 Rain 7 1011 87 10000 3.1 200 20:39 15.12.2019
6109 Rain 7 1011 87 10000 3.1 200 20:39 15.12.2019
6110 Rain 7 1011 87 10000 3.6 210 20:20 15.12.2019
6111 Clouds 7 1011 87 10000 3.6 210 19:58 15.12.2019
6112 Rain 7 1010 87 10000 3.1 190 19:39 15.12.2019
6113 Rain 7 1011 100 10000 3.6 230 19:19 15.12.2019
6114 Rain 7 1010 87 10000 3.6 180 18:57 15.12.2019
6115 Rain 7 1010 87 10000 3.6 180 18:38 15.12.2019
6116 Rain 7 1010 87 10000 3.6 180 18:38 15.12.2019
6117 Rain 7 1009 87 10000 3.1 180 18:18 15.12.2019
6118 Rain 7 1009 87 10000 2.6 200 17:56 15.12.2019
6119 Rain 7 1009 87 10000 2.6 200 17:37 15.12.2019
6120 Rain 7 1009 81 10000 3.6 220 17:19 15.12.2019
6121 Rain 7 1008 81 10000 4.6 230 16:57 15.12.2019
6122 Rain 7 1008 81 10000 4.6 230 16:39 15.12.2019
6123 Rain 7 1008 81 10000 4.6 250 16:20 15.12.2019
6124 Rain 8 1007 87 10000 2.6 270 15:55 15.12.2019
6125 Rain 8 1007 87 10000 2.6 270 15:37 15.12.2019
6126 Rain 8 1007 87 10000 6.2 280 15:18 15.12.2019
6127 Rain 8 1006 87 10000 5.7 270 14:55 15.12.2019
6128 Rain 9 1006 87 10000 5.7 270 14:36 15.12.2019
6129 Rain 9 1005 81 10000 9.3 270 14:18 15.12.2019
6130 Rain 9 1005 81 10000 9.3 270 14:18 15.12.2019
6131 Rain 10 1005 81 10000 9.3 270 13:55 15.12.2019
6132 Rain 11 1004 62 10000 8.7 230 13:36 15.12.2019
6133 Clouds 12 1004 66 10000 7.2 230 13:18 15.12.2019
6134 Clouds 11 1004 66 10000 5.1 220 12:55 15.12.2019
6135 Clouds 11 1004 66 10000 5.1 220 12:37 15.12.2019
6136 Clouds 11 1004 66 10000 5.1 220 12:37 15.12.2019
6137 Clouds 11 1003 71 10000 5.7 210 12:19 15.12.2019
6138 Clouds 10 1003 71 10000 5.1 210 11:38 15.12.2019
6139 Clouds 10 1003 81 10000 4.1 180 11:19 15.12.2019
6140 Clouds 9 1003 81 10000 4.1 180 10:58 15.12.2019
6141 Clouds 9 1003 81 10000 4.6 190 10:40 15.12.2019
6142 Clouds 9 1003 81 10000 4.1 180 10:19 15.12.2019
6143 Clouds 8 1003 81 10000 4.1 180 09:58 15.12.2019
6144 Clouds 8 1002 81 10000 4.1 180 09:37 15.12.2019
6145 Clouds 8 1002 81 10000 5.1 180 09:19 15.12.2019
6146 Clouds 8 1002 81 10000 5.1 180 08:55 15.12.2019
6147 Clouds 7 1002 87 10000 5.1 170 08:36 15.12.2019
6148 Clouds 7 1001 87 10000 5.1 160 08:18 15.12.2019
6149 Clouds 6 1001 93 10000 4.6 150 07:47 15.12.2019
6150 Clouds 6 1001 87 10000 5.1 150 07:28 15.12.2019
6151 Rain 6 1001 93 10000 5.1 140 06:26 15.12.2019
6152 Rain 5 1002 87 10000 5.1 150 05:42 15.12.2019
6153 Rain 5 1003 87 10000 5.1 140 05:21 15.12.2019
6154 Rain 5 1003 93 10000 4.1 120 04:21 15.12.2019
6155 Clouds 5 1005 75 10000 3.6 150 02:55 15.12.2019
6156 Clouds 5 1005 75 10000 3.6 150 02:32 15.12.2019
6157 Clouds 5 1004 80 10000 2.6 160 01:41 15.12.2019
6158 Clouds 5 1005 75 10000 2.6 180 01:19 15.12.2019
6159 Clouds 6 1005 75 10000 2.1 230 00:50 15.12.2019
6160 Clouds 6 1005 75 10000 2.1 230 00:31 15.12.2019
6161 Clouds 6 1005 70 10000 4.6 250 23:54 14.12.2019
6162 Clouds 6 1005 70 10000 4.6 250 23:36 14.12.2019
6163 Clouds 7 1005 70 10000 5.7 250 23:18 14.12.2019
6164 Clouds 7 1004 65 10000 7.7 250 22:41 14.12.2019
6165 Clouds 7 1004 61 10000 7.7 250 22:22 14.12.2019
6166 Clouds 7 1003 61 10000 6.7 240 21:58 14.12.2019
6167 Clouds 7 1003 61 10000 6.7 240 21:39 14.12.2019
6168 Clouds 7 1002 83 10000 8.2 240 21:19 14.12.2019
6169 Clouds 7 1002 83 10000 8.2 240 20:59 14.12.2019
6170 Clouds 7 1002 83 10000 5.7 230 20:41 14.12.2019
6171 Clouds 6 1002 74 10000 6.2 210 20:20 14.12.2019
6172 Clouds 6 1002 74 10000 6.2 210 20:20 14.12.2019
6173 Clouds 6 1002 74 10000 6.2 210 19:57 14.12.2019
6174 Clouds 6 1001 74 10000 5.7 200 19:39 14.12.2019
6175 Clouds 6 1001 74 10000 6.2 200 19:20 14.12.2019
6176 Clouds 6 1001 70 10000 5.1 190 18:56 14.12.2019
6177 Clouds 6 1001 70 10000 5.1 190 18:38 14.12.2019
6178 Clouds 6 1001 70 10000 5.1 190 18:38 14.12.2019
6179 Clouds 6 1001 70 10000 4.6 190 18:19 14.12.2019
6180 Clouds 6 1001 70 10000 4.6 200 17:44 14.12.2019
6181 Clouds 6 1001 65 10000 5.1 220 17:24 14.12.2019
6182 Rain 6 1001 65 10000 6.2 240 16:59 14.12.2019
6183 Rain 6 1001 65 10000 6.2 240 16:40 14.12.2019
6184 Rain 6 1000 70 10000 6.7 250 16:19 14.12.2019
6185 Rain 6 1000 65 10000 9.3 250 15:43 14.12.2019
6186 Rain 6 999 75 10000 9.8 270 15:24 14.12.2019
6187 Rain 6 999 75 10000 9.8 270 14:59 14.12.2019
6188 Rain 6 998 75 10000 9.3 250 14:39 14.12.2019
6189 Rain 5 997 87 10000 5.1 260 14:20 14.12.2019
6190 Rain 6 997 87 10000 5.1 260 13:57 14.12.2019
6191 Rain 6 996 81 10000 7.7 250 13:39 14.12.2019
6192 Rain 6 996 81 10000 8.2 260 13:19 14.12.2019
6193 Rain 6 996 81 10000 8.2 260 13:19 14.12.2019
6194 Rain 7 995 65 10000 10.3 270 12:55 14.12.2019
6195 Rain 7 995 65 10000 10.3 270 12:37 14.12.2019
6196 Rain 7 994 65 10000 11.3 270 12:18 14.12.2019
6197 Clouds 7 993 70 10000 11.8 260 11:55 14.12.2019
6198 Clouds 7 993 70 10000 11.8 260 11:37 14.12.2019
6199 Clouds 7 992 75 10000 9.3 250 11:18 14.12.2019
6200 Drizzle 6 991 93 10000 7.2 230 10:55 14.12.2019
6201 Drizzle 6 991 93 10000 7.2 230 10:37 14.12.2019
6202 Drizzle 5 989 93 10000 6.2 210 10:18 14.12.2019
6203 Drizzle 3 989 93 10000 5.7 190 09:41 14.12.2019
6204 Rain 3 989 86 10000 5.1 190 09:21 14.12.2019
6205 Rain 2 989 93 10000 6.2 190 08:45 14.12.2019
6206 Rain 2 988 93 10000 4.6 180 08:20 14.12.2019
6207 Rain 2 988 93 10000 4.6 180 07:57 14.12.2019
6208 Rain 2 988 93 10000 4.1 140 07:38 14.12.2019
6209 Rain 2 988 93 10000 5.1 140 07:19 14.12.2019
6210 Rain 2 989 93 10000 5.1 170 06:41 14.12.2019
6211 Rain 2 989 93 10000 4.6 170 06:22 14.12.2019
6212 Clouds 3 990 86 10000 5.1 160 05:22 14.12.2019
6213 Clouds 3 992 86 10000 4.1 220 02:49 14.12.2019
6214 Clouds 3 991 86 10000 4.1 230 02:22 14.12.2019
6215 Clouds 3 991 86 10000 5.7 240 01:43 14.12.2019
6216 Rain 3 990 86 10000 5.1 230 00:54 14.12.2019
6217 Rain 3 990 86 10000 5.1 230 00:54 14.12.2019
6218 Rain 3 990 86 10000 5.1 230 00:36 14.12.2019
6219 Rain 3 990 86 10000 6.2 230 00:18 14.12.2019
6220 Rain 3 990 86 10000 6.7 240 23:39 13.12.2019
6221 Rain 3 989 93 10000 5.1 220 23:19 13.12.2019
6222 Rain 3 989 86 10000 4.6 230 22:55 13.12.2019
6223 Rain 3 989 86 10000 4.6 230 22:36 13.12.2019
6224 Rain 3 988 86 10000 6.2 230 22:18 13.12.2019
6225 Rain 3 987 93 10000 5.7 230 21:40 13.12.2019
6226 Rain 3 987 93 10000 5.7 220 21:21 13.12.2019
6227 Rain 3 987 93 10000 5.7 220 20:57 13.12.2019
6228 Rain 3 986 86 10000 5.1 220 20:38 13.12.2019
6229 Clouds 3 985 86 10000 5.1 190 20:19 13.12.2019
6230 Clouds 3 985 86 10000 5.1 190 19:56 13.12.2019
6231 Clouds 3 985 86 10000 4.6 190 19:36 13.12.2019
6232 Clouds 3 985 86 10000 4.6 190 19:18 13.12.2019
6233 Rain 3 985 86 10000 4.6 190 18:41 13.12.2019
6234 Rain 3 984 86 10000 3.6 210 18:19 13.12.2019
6235 Rain 3 984 86 10000 3.6 210 17:58 13.12.2019
6236 Rain 3 983 93 10000 3.6 190 17:39 13.12.2019
6237 Rain 3 983 93 10000 3.6 190 17:18 13.12.2019
6238 Rain 3 983 93 10000 3.6 190 17:18 13.12.2019
6239 Drizzle 3 983 93 10000 4.1 190 16:55 13.12.2019
6240 Rain 3 982 93 10000 3.6 210 16:36 13.12.2019
6241 Rain 3 982 93 10000 3.6 210 16:18 13.12.2019
6242 Rain 2 981 86 10000 4.6 190 15:41 13.12.2019
6243 Rain 2 981 86 10000 4.6 190 15:21 13.12.2019
6244 Rain 2 981 93 10000 4.6 180 14:56 13.12.2019
6245 Rain 2 980 85 10000 6.7 160 14:36 13.12.2019
6246 Rain 1 980 95 10000 6.7 160 14:18 13.12.2019
6247 Rain 1 980 95 4500 7.2 150 13:43 13.12.2019
6248 Snow 1 980 96 2600 6.7 140 13:23 13.12.2019
6249 Snow 0 980 96 1400 6.7 140 12:54 13.12.2019
6250 Snow 1 979 96 1200 8.7 170 12:36 13.12.2019
6251 Snow 1 979 96 1200 8.7 170 12:18 13.12.2019
6252 Snow 1 979 86 2200 6.7 130 11:42 13.12.2019
6253 Rain 1 980 86 10000 5.7 130 11:24 13.12.2019
6254 Rain 1 980 80 10000 5.7 140 10:56 13.12.2019
6255 Rain 1 979 74 2800 5.1 150 10:38 13.12.2019
6256 Clouds 1 980 86 10000 5.7 140 10:19 13.12.2019
6257 Clouds 1 981 86 10000 6.7 120 09:41 13.12.2019
6258 Clouds 1 981 86 10000 6.7 120 09:20 13.12.2019
6259 Clouds 1 982 86 10000 7.2 130 08:44 13.12.2019
6260 Clouds 1 982 86 10000 7.2 130 08:26 13.12.2019
6261 Snow 0 983 82 4000 6.7 120 07:48 13.12.2019
6262 Snow 0 984 86 8000 7.2 130 07:24 13.12.2019
6263 Clouds 0 984 86 10000 6.2 130 06:55 13.12.2019
6264 Clouds 0 985 86 10000 6.2 140 06:29 13.12.2019
6265 Clouds 0 986 86 10000 5.7 130 05:51 13.12.2019
6266 Clouds 0 986 82 10000 6.2 130 05:30 13.12.2019
6267 Clouds 0 987 86 10000 6.7 130 04:48 13.12.2019
6268 Clouds 0 989 83 10000 6.2 130 03:49 13.12.2019
6269 Clouds 0 991 86 10000 6.2 130 02:35 13.12.2019
6270 Clouds 0 992 86 10000 5.7 130 01:49 13.12.2019
6271 Clouds 0 994 87 10000 3.6 130 01:19 13.12.2019
6272 Clouds 0 994 87 10000 3.6 130 00:45 13.12.2019
6273 Clouds 0 995 87 9000 5.1 140 00:22 13.12.2019
6274 Clouds 0 996 100 8000 3.6 130 23:41 12.12.2019
6275 Clouds 0 996 100 8000 3.6 130 23:22 12.12.2019
6276 Clouds 0 996 100 10000 3.6 100 22:56 12.12.2019
6277 Clouds 0 997 90 10000 4.1 130 22:37 12.12.2019
6278 Clouds 1 997 90 10000 4.1 130 22:19 12.12.2019
6279 Clouds 1 998 90 10000 4.1 120 21:55 12.12.2019
6280 Clouds 1 998 90 10000 4.1 120 21:55 12.12.2019
6281 Clouds 1 998 90 10000 4.1 120 21:55 12.12.2019
6282 Clouds 1 999 90 10000 4.1 120 21:37 12.12.2019
6283 Clouds 1 999 90 10000 4.1 120 21:19 12.12.2019
6284 Clouds 1 999 90 10000 3.6 110 20:56 12.12.2019
6285 Clouds 1 1000 90 10000 2.6 160 20:38 12.12.2019
6286 Clouds 1 1000 92 10000 2.6 160 20:20 12.12.2019
6287 Clouds 2 1001 86 10000 2.6 160 19:43 12.12.2019
6288 Clouds 2 1000 86 10000 2.1 160 19:43 12.12.2019
6289 Clouds 2 1001 86 10000 2.6 160 19:23 12.12.2019
6290 Clouds 2 1000 100 10000 2.6 170 18:58 12.12.2019
6291 Clouds 2 1001 100 10000 3.1 180 18:40 12.12.2019
6292 Clouds 2 1002 86 10000 2.6 170 18:21 12.12.2019
6293 Clouds 2 1001 100 10000 3.1 180 18:21 12.12.2019
6294 Clouds 2 1002 86 10000 1.5 170 17:59 12.12.2019
6295 Clouds 2 1002 86 10000 2.6 180 17:40 12.12.2019
6296 Clouds 2 1002 86 10000 2.6 180 17:21 12.12.2019
6297 Clouds 2 1002 86 10000 2.6 180 16:59 12.12.2019
6298 Clouds 2 1002 100 10000 3.1 230 16:41 12.12.2019
6299 Clouds 2 1002 100 10000 3.1 230 16:21 12.12.2019
6300 Clouds 2 1002 100 10000 4.1 220 15:58 12.12.2019
6301 Clouds 2 1002 100 10000 2.6 220 15:40 12.12.2019
6302 Clouds 2 1002 100 10000 2.6 220 15:19 12.12.2019
6303 Clouds 2 1003 86 10000 3.6 200 14:56 12.12.2019
6304 Clouds 2 1003 86 10000 3.6 200 14:56 12.12.2019
6305 Drizzle 3 1003 93 10000 3.1 190 14:36 12.12.2019
6306 Drizzle 3 1003 93 10000 3.1 190 14:18 12.12.2019
6307 Rain 3 1004 93 10000 2.1 180 13:54 12.12.2019
6308 Rain 3 1004 86 8000 2.6 170 13:36 12.12.2019
6309 Rain 3 1004 86 8000 2.6 170 13:18 12.12.2019
6310 Rain 2 1005 86 10000 2.6 160 12:41 12.12.2019
6311 Rain 2 1005 86 10000 2.6 160 12:41 12.12.2019
6312 Rain 2 1005 86 10000 2.6 160 12:22 12.12.2019
6313 Clouds 2 1005 93 10000 3.1 160 11:59 12.12.2019
6314 Clouds 2 1005 93 10000 2.6 170 11:39 12.12.2019
6315 Clouds 2 1005 93 10000 2.6 170 11:39 12.12.2019
6316 Clouds 2 1005 93 10000 2.6 170 11:21 12.12.2019
6317 Mist 2 1005 100 8000 2.6 180 10:58 12.12.2019
6318 Clouds 1 1006 100 10000 2.6 120 10:40 12.12.2019
6319 Mist 2 1005 100 6000 2.6 160 10:21 12.12.2019
6320 Mist 1 1005 100 8000 2.1 170 09:56 12.12.2019
6321 Rain 1 1006 94 10000 3.6 100 09:38 12.12.2019
6322 Rain 1 1006 94 10000 3.6 100 09:19 12.12.2019
6323 Rain 1 1005 100 9000 2.6 180 08:46 12.12.2019
6324 Rain 1 1005 100 8000 3.6 190 08:28 12.12.2019
6325 Clouds 1 1005 93 10000 2.1 120 07:50 12.12.2019
6326 Clouds 1 1005 100 10000 3.6 190 07:28 12.12.2019
6327 Clouds 1 1005 100 10000 1 110 06:57 12.12.2019
6328 Clouds 1 1005 100 10000 2.1 180 06:36 12.12.2019
6329 Rain 1 1005 100 8000 1.5 190 05:49 12.12.2019
6330 Rain 1 1005 100 10000 2.6 210 05:25 12.12.2019
6331 Rain 1 1005 100 10000 3.6 240 04:28 12.12.2019
6332 Rain 0 1006 96 3500 1.5 160 02:41 12.12.2019
6333 Rain 1 1006 97 4500 1.5 150 02:22 12.12.2019
6334 Rain 1 1006 97 3500 2.1 160 01:54 12.12.2019
6335 Rain 0 1006 96 4500 2.6 170 01:32 12.12.2019
6336 Snow 0 1007 96 7000 3.1 170 00:47 12.12.2019
6337 Rain 0 1007 96 7000 3.6 170 00:21 12.12.2019
6338 Rain 0 1006 96 4000 3.1 210 23:45 11.12.2019
6339 Rain 0 1006 90 3000 3.1 210 23:21 11.12.2019
6340 Snow 0 1007 90 6000 4.1 200 22:59 11.12.2019
6341 Snow 0 1007 90 8000 2.6 190 22:39 11.12.2019
6342 Rain 0 1008 90 4300 3.1 140 22:21 11.12.2019
6343 Snow 0 1007 90 8000 2.6 190 22:21 11.12.2019
6344 Rain 0 1008 90 4300 3.1 140 21:59 11.12.2019
6345 Rain 0 1008 90 5000 3.1 140 21:39 11.12.2019
6346 Rain 0 1008 90 5000 3.1 140 21:20 11.12.2019
6347 Rain 0 1008 90 8000 3.1 140 20:58 11.12.2019
6348 Rain 0 1008 90 8000 2.6 120 20:39 11.12.2019
6349 Rain 0 1008 68 8000 2.6 120 20:19 11.12.2019
6350 Snow 0 1008 68 9000 1.5 150 19:58 11.12.2019
6351 Rain 0 1008 68 8000 2.1 140 19:40 11.12.2019
6352 Snow 0 1008 68 8000 2.1 140 19:20 11.12.2019
6353 Rain 1 1008 68 5000 2.1 190 18:55 11.12.2019
6354 Rain 1 1008 68 10000 2.6 180 18:37 11.12.2019
6355 Rain 1 1008 68 10000 2.6 180 18:37 11.12.2019
6356 Rain 1 1008 68 10000 2.6 180 18:18 11.12.2019
6357 Rain 1 1008 68 6000 2.6 190 17:54 11.12.2019
6358 Rain 1 1008 80 10000 5.7 120 17:36 11.12.2019
6359 Rain 1 1008 80 10000 5.7 120 17:18 11.12.2019
6360 Clouds 1 1009 80 10000 5.7 130 16:55 11.12.2019
6361 Clouds 1 1009 69 10000 4.1 130 16:36 11.12.2019
6362 Clouds 1 1009 69 10000 4.1 130 16:18 11.12.2019
6363 Clouds 2 1010 69 10000 4.1 140 15:41 11.12.2019
6364 Clouds 2 1010 69 10000 4.6 140 15:23 11.12.2019
6365 Clouds 2 1010 69 10000 4.6 140 14:57 11.12.2019
6366 Clouds 2 1011 69 10000 4.1 150 14:39 11.12.2019
6367 Clouds 2 1011 69 10000 4.1 150 14:20 11.12.2019
6368 Clouds 2 1011 64 10000 5.1 130 13:56 11.12.2019
6369 Clouds 1 1012 74 10000 5.1 130 13:38 11.12.2019
6370 Clouds 1 1012 74 10000 5.1 130 13:19 11.12.2019
6371 Clouds 1 1012 69 10000 5.7 140 12:57 11.12.2019
6372 Clouds 1 1013 74 10000 5.7 140 12:38 11.12.2019
6373 Clouds 1 1013 74 10000 5.7 140 12:19 11.12.2019
6374 Clouds 1 1013 69 10000 5.1 130 12:19 11.12.2019
6375 Clouds 1 1013 69 10000 5.1 130 11:57 11.12.2019
6376 Clouds 0 1014 53 10000 5.7 130 11:38 11.12.2019
6377 Clouds 0 1014 59 10000 5.7 130 11:18 11.12.2019
6378 Clouds 0 1014 59 10000 5.7 130 11:18 11.12.2019
6379 Clouds 0 1014 59 10000 5.7 130 10:56 11.12.2019
6380 Clouds 0 1015 59 10000 4.6 130 10:38 11.12.2019
6381 Clouds 0 1015 59 10000 4.6 130 10:19 11.12.2019
6382 Clouds -1 1016 80 10000 3.1 130 09:41 11.12.2019
6383 Clouds -1 1016 80 10000 3.1 130 09:21 11.12.2019
6384 Clouds -1 1016 80 10000 4.6 130 08:58 11.12.2019
6385 Clouds -1 1016 80 10000 4.6 130 08:38 11.12.2019
6386 Clouds -1 1016 80 10000 4.6 130 08:19 11.12.2019
6387 Clouds -2 1016 86 10000 4.6 120 07:56 11.12.2019
6388 Clouds -1 1016 86 10000 5.1 110 07:38 11.12.2019
6389 Clouds -2 1016 86 10000 5.1 110 07:19 11.12.2019
6390 Clouds -2 1017 86 10000 4.1 120 06:44 11.12.2019
6391 Clouds -2 1017 80 10000 4.1 120 06:22 11.12.2019
6392 Clouds -1 1017 86 10000 3.6 130 05:41 11.12.2019
6393 Clouds -1 1018 86 10000 4.6 120 05:21 11.12.2019
6394 Clouds -1 1019 86 10000 3.1 120 04:38 11.12.2019
6395 Clouds -2 1020 86 10000 3.6 120 02:49 11.12.2019
6396 Clear -2 1022 86 10000 4.1 110 01:26 11.12.2019
6397 Clear -2 1022 86 10000 3.1 110 00:49 11.12.2019
6398 Clear -2 1023 92 10000 3.6 110 00:22 11.12.2019
6399 Clear -2 1023 92 10000 3.6 110 23:58 10.12.2019
6400 Clear -2 1023 86 10000 3.1 110 23:39 10.12.2019
6401 Clear -2 1023 86 10000 3.1 110 23:21 10.12.2019
6402 Clear -2 1024 92 10000 3.6 100 22:40 10.12.2019
6403 Clear -2 1024 92 10000 3.6 100 22:40 10.12.2019
6404 Clear -2 1024 92 10000 3.6 100 22:40 10.12.2019
6405 Clear -2 1024 92 10000 3.6 100 22:22 10.12.2019
6406 Clear -2 1024 92 10000 2.6 100 21:57 10.12.2019
6407 Clear -2 1024 92 10000 3.1 100 21:39 10.12.2019
6408 Clear -2 1024 92 10000 3.1 100 21:21 10.12.2019
6409 Clear -2 1024 92 10000 3.1 100 21:21 10.12.2019
6410 Clear -1 1025 92 10000 3.6 100 20:57 10.12.2019
6411 Clear -1 1025 86 10000 3.6 100 20:38 10.12.2019
6412 Clouds -1 1025 86 10000 3.6 100 20:19 10.12.2019
6413 Clouds -1 1025 79 10000 2.6 100 19:55 10.12.2019
6414 Clouds -1 1025 79 10000 2.1 110 19:37 10.12.2019
6415 Clouds -1 1025 79 10000 2.1 110 19:19 10.12.2019
6416 Clouds 0 1025 80 10000 1.5 170 18:41 10.12.2019
6417 Clouds 0 1025 80 10000 2.6 180 18:21 10.12.2019
6418 Clouds 1 1025 74 10000 2.6 180 17:58 10.12.2019
6419 Clouds 1 1026 74 10000 2.1 180 17:40 10.12.2019
6420 Clouds 1 1025 74 10000 2.6 180 17:40 10.12.2019
6421 Clouds 1 1026 74 10000 2.1 180 17:20 10.12.2019
6422 Clouds 2 1026 69 10000 2.6 210 16:54 10.12.2019
6423 Clouds 2 1026 69 10000 1.5 240 16:36 10.12.2019
6424 Clouds 3 1026 69 10000 1.5 240 16:18 10.12.2019
6425 Clouds 4 1026 69 10000 3.1 250 15:38 10.12.2019
6426 Clouds 4 1026 69 10000 3.1 250 15:18 10.12.2019
6427 Clouds 4 1027 69 10000 3.6 260 14:56 10.12.2019
6428 Clouds 4 1027 73 10000 2.6 270 14:37 10.12.2019
6429 Clouds 4 1027 72 10000 2.6 270 14:19 10.12.2019
6430 Clouds 4 1027 72 10000 4.6 270 13:57 10.12.2019
6431 Clouds 4 1027 93 10000 4.6 240 13:38 10.12.2019
6432 Clouds 4 1027 70 10000 4.1 270 13:19 10.12.2019
6433 Clouds 4 1027 70 10000 3.1 250 12:47 10.12.2019
6434 Clouds 4 1027 70 10000 3.6 280 12:27 10.12.2019
6435 Clouds 3 1027 70 10000 3.1 280 11:55 10.12.2019
6436 Clouds 3 1026 70 10000 3.6 290 11:36 10.12.2019
6437 Clouds 3 1026 83 10000 3.6 290 11:18 10.12.2019
6438 Clouds 3 1026 83 10000 3.6 290 10:42 10.12.2019
6439 Clouds 2 1026 83 10000 4.1 290 10:23 10.12.2019
6440 Clouds 2 1026 83 10000 4.1 290 09:57 10.12.2019
6441 Clouds 2 1025 83 10000 4.1 290 09:38 10.12.2019
6442 Clouds 2 1025 83 10000 4.1 290 09:38 10.12.2019
6443 Clouds 2 1025 83 10000 4.1 290 09:20 10.12.2019
6444 Clouds 2 1025 83 10000 4.6 290 08:57 10.12.2019
6445 Clouds 2 1024 83 10000 4.6 280 08:39 10.12.2019
6446 Clouds 2 1024 83 10000 4.6 280 08:39 10.12.2019
6447 Clouds 2 1024 86 10000 4.6 280 08:19 10.12.2019
6448 Clouds 2 1023 100 10000 4.6 270 07:44 10.12.2019
6449 Clouds 2 1023 86 10000 4.6 280 07:26 10.12.2019
6450 Clouds 2 1023 86 10000 4.6 280 07:26 10.12.2019
6451 Clouds 2 1022 86 10000 5.7 280 06:49 10.12.2019
6452 Clouds 2 1022 86 10000 5.1 290 06:24 10.12.2019
6453 Clouds 2 1021 86 10000 5.1 290 05:55 10.12.2019
6454 Clouds 2 1021 80 10000 4.6 300 05:19 10.12.2019
6455 Rain 3 1019 86 10000 5.1 300 03:54 10.12.2019
6456 Rain 3 1017 86 10000 6.2 300 02:48 10.12.2019
6457 Rain 4 1016 93 10000 6.2 320 01:54 10.12.2019
6458 Rain 4 1015 80 10000 8.2 310 01:26 10.12.2019
6459 Rain 4 1014 86 10000 6.7 300 00:51 10.12.2019
6460 Rain 5 1013 86 10000 5.7 290 00:24 10.12.2019
6461 Clouds 5 1013 100 10000 3.6 270 23:45 09.12.2019
6462 Clouds 5 1011 86 10000 5.7 280 23:24 09.12.2019
6463 Clouds 5 1011 86 10000 5.7 290 22:59 09.12.2019
6464 Rain 5 1011 100 10000 4.6 270 22:40 09.12.2019
6465 Rain 5 1011 100 10000 4.6 270 22:21 09.12.2019
6466 Clouds 5 1009 86 10000 3.6 270 21:58 09.12.2019
6467 Rain 5 1009 86 10000 4.1 270 21:39 09.12.2019
6468 Rain 5 1009 86 10000 4.1 270 21:19 09.12.2019
6469 Rain 5 1008 86 10000 3.6 260 20:57 09.12.2019
6470 Rain 5 1007 86 10000 2.6 260 20:39 09.12.2019
6471 Rain 5 1007 86 10000 2.6 260 20:20 09.12.2019
6472 Rain 5 1007 86 10000 3.1 270 19:56 09.12.2019
6473 Rain 5 1006 81 10000 5.7 270 19:38 09.12.2019
6474 Rain 5 1006 81 10000 5.7 270 19:19 09.12.2019
6475 Rain 5 1006 81 10000 5.7 270 19:19 09.12.2019
6476 Rain 5 1005 81 10000 3.6 240 18:58 09.12.2019
6477 Rain 5 1005 75 10000 3.6 240 18:39 09.12.2019
6478 Rain 6 1005 75 10000 3.6 240 18:20 09.12.2019
6479 Rain 6 1005 75 10000 4.6 240 17:59 09.12.2019
6480 Rain 6 1004 75 10000 4.1 240 17:40 09.12.2019
6481 Rain 6 1004 75 10000 4.1 240 17:21 09.12.2019
6482 Rain 6 1004 70 10000 5.1 250 16:56 09.12.2019
6483 Rain 7 1003 70 10000 5.7 230 16:38 09.12.2019
6484 Rain 7 1003 70 10000 5.7 230 16:20 09.12.2019
6485 Clouds 7 1003 70 10000 3.6 230 15:56 09.12.2019
6486 Clouds 7 1003 81 10000 4.6 240 15:37 09.12.2019
6487 Clouds 7 1003 81 10000 4.6 240 15:19 09.12.2019
6488 Rain 7 1003 66 10000 3.6 230 14:58 09.12.2019
6489 Rain 8 1003 66 10000 3.6 230 14:39 09.12.2019
6490 Clouds 8 1002 75 10000 8.2 220 14:18 09.12.2019
6491 Clouds 8 1002 75 10000 7.2 240 13:55 09.12.2019
6492 Clouds 8 1003 61 10000 6.7 230 13:36 09.12.2019
6493 Clouds 8 1003 87 10000 9.3 240 13:18 09.12.2019
6494 Clouds 8 1003 61 10000 6.2 220 12:54 09.12.2019
6495 Clouds 8 1003 65 10000 4.6 210 12:36 09.12.2019
6496 Clouds 8 1003 65 10000 4.6 210 12:18 09.12.2019
6497 Clouds 8 1004 70 10000 4.6 200 11:40 09.12.2019
6498 Clouds 8 1004 70 10000 4.6 200 11:21 09.12.2019
6499 Clouds 7 1004 70 10000 4.1 180 10:57 09.12.2019
6500 Clouds 7 1004 81 10000 3.1 180 10:38 09.12.2019
6501 Clouds 6 1004 81 10000 4.6 190 10:19 09.12.2019
6502 Clouds 6 1004 81 10000 3.1 180 10:19 09.12.2019
6503 Clouds 5 1004 81 10000 4.6 190 09:43 09.12.2019
6504 Clouds 5 1004 86 10000 3.1 160 09:23 09.12.2019
6505 Clouds 5 1003 93 10000 5.1 210 08:56 09.12.2019
6506 Clouds 5 1004 86 10000 4.1 170 08:37 09.12.2019
6507 Clouds 5 1004 86 10000 4.1 170 08:19 09.12.2019
6508 Clouds 5 1004 81 10000 2.6 210 07:48 09.12.2019
6509 Clouds 6 1004 81 10000 3.1 200 07:30 09.12.2019
6510 Clouds 6 1004 100 10000 4.6 220 06:55 09.12.2019
6511 Clouds 6 1004 81 10000 4.6 190 06:28 09.12.2019
6512 Clouds 6 1004 81 10000 2.6 180 05:30 09.12.2019
6513 Clouds 6 1004 75 10000 3.6 210 04:54 09.12.2019
6514 Clouds 6 1005 75 10000 4.6 210 04:23 09.12.2019
6515 Rain 7 1004 81 10000 3.1 210 02:27 09.12.2019
6516 Clouds 7 1004 81 10000 3.6 230 01:45 09.12.2019
6517 Rain 7 1004 81 10000 5.7 250 00:55 09.12.2019
6518 Rain 8 1005 81 9000 8.7 280 00:32 09.12.2019
6519 Rain 8 1005 100 10000 11.8 270 23:54 08.12.2019
6520 Rain 8 1004 100 10000 5.1 230 23:36 08.12.2019
6521 Rain 8 1004 100 10000 5.1 230 23:18 08.12.2019
6522 Clouds 9 1004 81 10000 5.1 190 22:56 08.12.2019
6523 Clouds 9 1004 76 10000 5.7 200 22:37 08.12.2019
6524 Clouds 9 1004 76 10000 5.7 200 22:18 08.12.2019
6525 Rain 9 1004 81 10000 5.7 190 21:54 08.12.2019
6526 Rain 9 1004 100 10000 6.7 210 21:36 08.12.2019
6527 Rain 9 1004 100 10000 6.7 210 21:18 08.12.2019
6528 Clouds 9 1005 76 10000 4.1 180 20:54 08.12.2019
6529 Clouds 9 1005 76 10000 4.1 180 20:54 08.12.2019
6530 Rain 9 1005 87 10000 3.6 170 20:36 08.12.2019
6531 Rain 9 1005 87 10000 3.6 170 20:18 08.12.2019
6532 Clouds 8 1005 76 10000 4.6 170 19:42 08.12.2019
6533 Clouds 8 1005 76 10000 4.6 170 19:24 08.12.2019
6534 Clouds 8 1005 81 10000 5.1 170 18:56 08.12.2019
6535 Clouds 8 1006 81 10000 5.1 170 18:38 08.12.2019
6536 Clouds 8 1006 81 10000 5.1 170 18:37 08.12.2019
6537 Clouds 8 1006 81 10000 5.1 170 18:19 08.12.2019
6538 Rain 9 1006 76 10000 4.6 160 17:57 08.12.2019
6539 Rain 8 1006 76 10000 4.1 170 17:39 08.12.2019
6540 Rain 9 1006 76 10000 4.1 170 17:20 08.12.2019
6541 Rain 9 1007 71 10000 4.1 170 16:58 08.12.2019
6542 Rain 9 1007 71 10000 4.1 170 16:40 08.12.2019
6543 Clouds 9 1007 71 10000 4.1 190 16:22 08.12.2019
6544 Clouds 9 1007 71 10000 4.6 200 15:58 08.12.2019
6545 Clouds 9 1008 66 10000 4.6 200 15:37 08.12.2019
6546 Clouds 9 1008 66 10000 4.6 200 15:18 08.12.2019
6547 Clouds 9 1008 66 10000 4.6 180 14:45 08.12.2019
6548 Clouds 9 1008 70 10000 5.1 180 14:25 08.12.2019
6549 Clouds 9 1009 70 10000 4.6 190 13:59 08.12.2019
6550 Clouds 9 1010 70 10000 4.6 170 13:40 08.12.2019
6551 Clouds 9 1010 70 10000 4.6 170 13:22 08.12.2019
6552 Clouds 9 1010 70 10000 4.6 180 12:59 08.12.2019
6553 Clouds 9 1010 70 10000 5.7 170 12:39 08.12.2019
6554 Clouds 8 1010 70 10000 5.7 170 12:19 08.12.2019
6555 Clouds 8 1011 75 10000 5.1 170 11:57 08.12.2019
6556 Clouds 8 1012 75 10000 5.7 170 11:37 08.12.2019
6557 Clouds 8 1012 75 10000 5.7 170 11:19 08.12.2019
6558 Clouds 8 1012 93 10000 5.1 210 10:55 08.12.2019
6559 Clouds 7 1012 81 10000 4.1 170 10:36 08.12.2019
6560 Clouds 7 1012 81 10000 4.1 170 10:36 08.12.2019
6561 Clouds 7 1012 81 10000 4.1 170 10:18 08.12.2019
6562 Clouds 7 1013 75 10000 4.1 170 09:54 08.12.2019
6563 Clouds 7 1013 81 10000 3.6 180 09:36 08.12.2019
6564 Clouds 7 1013 81 10000 3.6 180 09:18 08.12.2019
6565 Clouds 7 1013 87 10000 3.6 170 08:41 08.12.2019
6566 Clouds 7 1013 87 10000 3.6 170 08:22 08.12.2019
6567 Clouds 6 1013 87 10000 3.1 170 07:49 08.12.2019
6568 Clouds 6 1014 81 10000 3.1 170 07:21 08.12.2019
6569 Clouds 6 1014 81 10000 3.6 180 06:58 08.12.2019
6570 Clouds 6 1014 87 10000 4.1 160 06:38 08.12.2019
6571 Clouds 6 1014 87 10000 4.1 160 06:18 08.12.2019
6572 Clouds 6 1014 87 10000 4.1 170 05:22 08.12.2019
6573 Clouds 6 1015 100 10000 3.6 190 04:20 08.12.2019
6574 Clouds 6 1016 87 10000 3.1 180 03:38 08.12.2019
6575 Clouds 6 1017 100 10000 2.1 190 02:41 08.12.2019
6576 Clouds 6 1017 100 10000 2.1 190 02:19 08.12.2019
6577 Clouds 6 1017 93 10000 2.6 190 01:34 08.12.2019
6578 Clouds 6 1017 93 10000 2.1 180 00:45 08.12.2019
6579 Clouds 6 1017 100 10000 3.6 210 00:21 08.12.2019
6580 Clouds 6 1018 100 10000 3.6 210 23:57 07.12.2019
6581 Clouds 6 1018 93 10000 3.1 210 23:36 07.12.2019
6582 Clouds 6 1018 93 10000 3.1 210 23:18 07.12.2019
6583 Clouds 6 1017 93 10000 2.1 210 22:54 07.12.2019
6584 Clouds 6 1018 87 10000 2.6 200 22:36 07.12.2019
6585 Clouds 6 1018 87 10000 2.6 200 22:18 07.12.2019
6586 Clouds 6 1018 87 10000 2.6 200 21:55 07.12.2019
6587 Clouds 6 1018 87 10000 2.6 210 21:36 07.12.2019
6588 Clouds 6 1018 87 10000 2.6 210 21:18 07.12.2019
6589 Clouds 6 1018 100 10000 2.6 210 20:38 07.12.2019
6590 Clouds 6 1018 100 10000 2.6 210 20:20 07.12.2019
6591 Clouds 6 1017 93 10000 2.6 200 19:57 07.12.2019
6592 Clouds 6 1017 93 10000 2.6 200 19:57 07.12.2019
6593 Rain 6 1018 100 10000 2.6 240 19:39 07.12.2019
6594 Rain 6 1018 100 10000 2.6 240 19:21 07.12.2019
6595 Rain 6 1017 87 10000 3.1 240 18:57 07.12.2019
6596 Rain 6 1017 87 10000 3.1 230 18:38 07.12.2019
6597 Rain 6 1017 87 10000 3.1 230 18:18 07.12.2019
6598 Clouds 6 1017 93 10000 3.1 220 17:55 07.12.2019
6599 Rain 6 1017 100 10000 3.6 250 17:36 07.12.2019
6600 Rain 6 1017 100 10000 3.6 250 17:18 07.12.2019
6601 Rain 7 1016 87 10000 4.6 250 16:54 07.12.2019
6602 Rain 7 1017 100 10000 3.1 240 16:36 07.12.2019
6603 Rain 7 1017 100 10000 3.1 240 16:18 07.12.2019
6604 Rain 7 1016 100 10000 5.1 250 15:40 07.12.2019
6605 Rain 7 1016 100 10000 5.1 250 15:22 07.12.2019
6606 Clouds 8 1015 81 10000 4.1 240 14:43 07.12.2019
6607 Rain 8 1015 87 10000 3.6 260 14:19 07.12.2019
6608 Drizzle 8 1015 81 10000 7.2 250 13:59 07.12.2019
6609 Clouds 8 1015 76 10000 6.2 250 13:39 07.12.2019
6610 Drizzle 8 1015 81 10000 7.2 250 13:39 07.12.2019
6611 Clouds 8 1015 76 10000 6.2 250 13:19 07.12.2019
6612 Clouds 8 1015 76 10000 7.2 250 12:54 07.12.2019
6613 Clouds 8 1015 76 10000 7.2 250 12:36 07.12.2019
6614 Clouds 8 1015 76 10000 7.2 250 12:36 07.12.2019
6615 Clouds 8 1015 76 10000 7.2 250 12:18 07.12.2019
6616 Rain 8 1015 81 10000 4.1 250 11:41 07.12.2019
6617 Rain 8 1015 81 10000 5.1 240 11:23 07.12.2019
6618 Clouds 7 1015 81 10000 4.6 240 10:54 07.12.2019
6619 Clouds 8 1014 81 10000 3.1 230 10:36 07.12.2019
6620 Clouds 7 1014 81 10000 3.1 230 10:18 07.12.2019
6621 Rain 7 1014 93 10000 3.6 220 09:39 07.12.2019
6622 Rain 7 1014 93 10000 3.6 220 09:20 07.12.2019
6623 Rain 7 1013 87 10000 4.1 240 08:45 07.12.2019
6624 Rain 6 1013 87 10000 4.1 240 08:24 07.12.2019
6625 Clouds 6 1013 87 10000 4.1 250 07:49 07.12.2019
6626 Clouds 6 1012 87 10000 7.2 250 07:28 07.12.2019
6627 Clouds 7 1013 100 10000 5.1 240 06:52 07.12.2019
6628 Rain 6 1012 93 10000 4.1 230 06:26 07.12.2019
6629 Rain 6 1012 93 10000 3.1 230 05:47 07.12.2019
6630 Clouds 6 1011 93 10000 2.6 220 04:41 07.12.2019
6631 Rain 5 1011 93 10000 2.6 180 03:49 07.12.2019
6632 Clouds 3 1011 93 10000 3.1 180 02:22 07.12.2019
6633 Rain 3 1011 86 10000 5.7 160 01:37 07.12.2019
6634 Rain 3 1011 86 10000 5.7 160 01:18 07.12.2019
6635 Rain 2 1012 93 10000 3.6 150 00:21 07.12.2019
6636 Rain 2 1013 86 10000 3.1 130 23:57 06.12.2019
6637 Rain 2 1013 86 10000 3.1 130 23:57 06.12.2019
6638 Rain 2 1013 86 10000 3.6 120 23:39 06.12.2019
6639 Rain 2 1013 86 10000 3.6 120 23:39 06.12.2019
6640 Rain 2 1013 86 10000 3.6 120 23:19 06.12.2019
6641 Clouds 1 1013 72 10000 3.6 110 22:39 06.12.2019
6642 Clouds 1 1013 72 10000 3.6 110 22:21 06.12.2019
6643 Clouds 1 1014 72 10000 4.1 120 21:58 06.12.2019
6644 Clouds 1 1014 86 10000 3.6 130 21:40 06.12.2019
6645 Clouds 1 1014 86 10000 3.6 130 21:40 06.12.2019
6646 Clouds 1 1014 86 10000 3.6 130 21:20 06.12.2019
6647 Clouds 1 1014 86 10000 3.1 130 20:46 06.12.2019
6648 Clouds 0 1014 86 10000 3.6 120 20:26 06.12.2019
6649 Clouds 1 1014 70 10000 3.6 130 19:59 06.12.2019
6650 Clouds 1 1014 70 10000 4.1 130 19:40 06.12.2019
6651 Clouds 1 1014 70 10000 4.1 130 19:22 06.12.2019
6652 Clouds 0 1014 70 10000 3.6 130 18:58 06.12.2019
6653 Clouds 0 1015 70 10000 4.6 130 18:40 06.12.2019
6654 Clouds 1 1015 70 10000 4.6 130 18:20 06.12.2019
6655 Clouds 1 1015 80 10000 4.1 130 17:56 06.12.2019
6656 Clouds 1 1015 74 10000 4.1 130 17:38 06.12.2019
6657 Clouds 1 1015 74 10000 4.1 130 17:19 06.12.2019
6658 Clouds 2 1015 74 10000 4.1 130 17:19 06.12.2019
6659 Clouds 2 1015 74 10000 4.1 130 16:43 06.12.2019
6660 Clouds 2 1016 69 10000 4.1 130 16:25 06.12.2019
6661 Clouds 3 1016 65 10000 3.1 160 15:59 06.12.2019
6662 Clouds 3 1016 65 10000 3.1 160 15:41 06.12.2019
6663 Clouds 3 1016 56 10000 3.1 180 15:19 06.12.2019
6664 Clouds 4 1016 65 10000 2.1 170 14:57 06.12.2019
6665 Clouds 4 1017 60 10000 3.1 170 14:38 06.12.2019
6666 Clouds 4 1017 60 10000 3.1 170 14:38 06.12.2019
6667 Clouds 4 1017 60 10000 3.1 170 14:19 06.12.2019
6668 Clouds 4 1018 64 10000 3.6 160 13:43 06.12.2019
6669 Clouds 4 1018 64 10000 3.6 160 13:25 06.12.2019
6670 Clouds 3 1018 69 10000 3.6 160 12:43 06.12.2019
6671 Clouds 3 1018 74 10000 4.1 140 12:23 06.12.2019
6672 Clouds 2 1019 80 10000 4.1 150 11:58 06.12.2019
6673 Clouds 2 1020 74 9000 3.1 150 11:39 06.12.2019
6674 Clouds 1 1020 74 9000 3.1 150 11:20 06.12.2019
6675 Clouds 0 1020 44 9000 4.1 140 10:43 06.12.2019
6676 Clouds 0 1020 86 7000 4.6 140 10:21 06.12.2019
6677 Clouds -2 1020 86 7000 5.1 160 09:58 06.12.2019
6678 Mist -2 1019 100 5000 3.1 170 09:37 06.12.2019
6679 Mist -2 1019 100 5000 3.1 170 09:37 06.12.2019
6680 Mist -2 1019 100 5000 3.1 170 09:19 06.12.2019
6681 Clouds -3 1020 86 7000 5.1 160 08:45 06.12.2019
6682 Mist -3 1020 92 4000 4.6 150 08:27 06.12.2019
6683 Mist -3 1019 100 5000 2.6 170 07:56 06.12.2019
6684 Mist -2 1019 100 4000 3.6 170 07:36 06.12.2019
6685 Mist -2 1019 100 4000 3.6 170 07:18 06.12.2019
6686 Mist -3 1020 92 5000 5.1 150 07:18 06.12.2019
6687 Mist -3 1020 92 5000 4.6 150 06:29 06.12.2019
6688 Mist -2 1020 100 5000 5.1 150 05:53 06.12.2019
6689 Mist -2 1020 92 4500 3.6 160 05:33 06.12.2019
6690 Mist -2 1021 92 5000 4.1 150 02:19 06.12.2019
6691 Mist -2 1021 92 5000 4.1 150 01:29 06.12.2019
6692 Mist -2 1022 92 5000 4.1 150 00:40 06.12.2019
6693 Mist -3 1022 92 5000 3.6 160 00:20 06.12.2019
6694 Mist -3 1022 92 5000 3.6 150 23:41 05.12.2019
6695 Mist -2 1022 92 5000 4.1 140 23:18 05.12.2019
6696 Mist -2 1022 92 5000 4.1 140 22:56 05.12.2019
6697 Mist -2 1022 86 5000 3.1 160 22:37 05.12.2019
6698 Mist -2 1022 86 5000 3.1 160 22:18 05.12.2019
6699 Mist -2 1022 86 5000 3.1 160 22:18 05.12.2019
6700 Mist -2 1022 86 5000 3.1 170 21:43 05.12.2019
6701 Mist -1 1023 92 5000 3.1 180 21:24 05.12.2019
6702 Mist -2 1023 92 5000 4.1 140 20:59 05.12.2019
6703 Mist -2 1023 92 5000 4.1 140 20:40 05.12.2019
6704 Clouds -2 1023 92 6000 3.1 150 20:20 05.12.2019
6705 Clouds -2 1023 92 6000 3.1 150 19:55 05.12.2019
6706 Clouds -2 1023 92 6000 4.1 150 19:36 05.12.2019
6707 Clouds -2 1023 92 6000 4.1 150 19:36 05.12.2019
6708 Clouds -1 1022 92 6000 5.1 150 19:18 05.12.2019
6709 Clouds -1 1022 92 7000 2.6 150 18:40 05.12.2019
6710 Clouds -1 1022 92 7000 3.1 140 18:21 05.12.2019
6711 Clouds -1 1022 92 7000 3.1 140 17:59 05.12.2019
6712 Clouds -1 1022 92 7000 2.6 140 17:39 05.12.2019
6713 Clouds -1 1022 92 7000 3.1 130 17:19 05.12.2019
6714 Clouds -1 1022 92 7000 3.1 130 16:55 05.12.2019
6715 Clouds -1 1022 86 7000 2.6 140 16:37 05.12.2019